<?xml version="1.0" encoding="UTF-8" standalone="no" ?>
<gpx xmlns="http://www.topografix.com/GPX/1/1" xmlns:xsi="http://www.w3.org/2001/XMLSchema-instance" xsi:schemaLocation="http://www.topografix.com/GPX/1/1 http://www.topografix.com/GPX/1/1/gpx.xsd" version="1.1" creator="VisuGPX - https://www.visugpx.com">
  <metadata>
    <name>Antécime 2666 du Pic de Garlitz</name>
    <desc><![CDATA[Antécime 2666 du Pic de Garlitz depuis la route du tunnel de Bielsa, par le lac de Catchet]]></desc>
  </metadata>
  <trk>
    <name><![CDATA[2017-02-23 09-04]]></name>
    <trkseg>
      <trkpt lat="42.75895" lon="0.19517">
        <ele>1768.8</ele>
        <time>2017-02-23T08:04:12Z</time>
      </trkpt>
      <trkpt lat="42.75894" lon="0.19523">
        <ele>1768.8</ele>
        <time>2017-02-23T08:04:17Z</time>
      </trkpt>
      <trkpt lat="42.75892" lon="0.19526">
        <ele>1753.2</ele>
        <time>2017-02-23T08:04:22Z</time>
      </trkpt>
      <trkpt lat="42.75892" lon="0.19528">
        <ele>1743</ele>
        <time>2017-02-23T08:04:27Z</time>
      </trkpt>
      <trkpt lat="42.75891" lon="0.1953">
        <ele>1736.6</ele>
        <time>2017-02-23T08:04:32Z</time>
      </trkpt>
      <trkpt lat="42.7589" lon="0.1953">
        <ele>1732.4</ele>
        <time>2017-02-23T08:04:37Z</time>
      </trkpt>
      <trkpt lat="42.7589" lon="0.19531">
        <ele>1729.8</ele>
        <time>2017-02-23T08:04:42Z</time>
      </trkpt>
      <trkpt lat="42.7589" lon="0.19532">
        <ele>1728.4</ele>
        <time>2017-02-23T08:04:47Z</time>
      </trkpt>
      <trkpt lat="42.7589" lon="0.19532">
        <ele>1727.4</ele>
        <time>2017-02-23T08:04:52Z</time>
      </trkpt>
      <trkpt lat="42.75889" lon="0.19533">
        <ele>1727</ele>
        <time>2017-02-23T08:04:57Z</time>
      </trkpt>
      <trkpt lat="42.75889" lon="0.19534">
        <ele>1726.8</ele>
        <time>2017-02-23T08:05:02Z</time>
      </trkpt>
      <trkpt lat="42.75889" lon="0.19534">
        <ele>1726.6</ele>
        <time>2017-02-23T08:05:07Z</time>
      </trkpt>
      <trkpt lat="42.75888" lon="0.19535">
        <ele>1726.6</ele>
        <time>2017-02-23T08:05:12Z</time>
      </trkpt>
      <trkpt lat="42.75888" lon="0.19535">
        <ele>1726.6</ele>
        <time>2017-02-23T08:05:17Z</time>
      </trkpt>
      <trkpt lat="42.75888" lon="0.19536">
        <ele>1726.6</ele>
        <time>2017-02-23T08:05:22Z</time>
      </trkpt>
      <trkpt lat="42.75888" lon="0.19536">
        <ele>1727</ele>
        <time>2017-02-23T08:05:27Z</time>
      </trkpt>
      <trkpt lat="42.75888" lon="0.19536">
        <ele>1727.6</ele>
        <time>2017-02-23T08:05:32Z</time>
      </trkpt>
      <trkpt lat="42.75888" lon="0.19536">
        <ele>1728.2</ele>
        <time>2017-02-23T08:05:37Z</time>
      </trkpt>
      <trkpt lat="42.75888" lon="0.19537">
        <ele>1728.8</ele>
        <time>2017-02-23T08:05:42Z</time>
      </trkpt>
      <trkpt lat="42.75887" lon="0.19537">
        <ele>1729.4</ele>
        <time>2017-02-23T08:05:47Z</time>
      </trkpt>
      <trkpt lat="42.75887" lon="0.19537">
        <ele>1730</ele>
        <time>2017-02-23T08:05:52Z</time>
      </trkpt>
      <trkpt lat="42.75888" lon="0.19537">
        <ele>1730.6</ele>
        <time>2017-02-23T08:05:57Z</time>
      </trkpt>
      <trkpt lat="42.75888" lon="0.19538">
        <ele>1731.2</ele>
        <time>2017-02-23T08:06:02Z</time>
      </trkpt>
      <trkpt lat="42.75888" lon="0.19538">
        <ele>1731.8</ele>
        <time>2017-02-23T08:06:07Z</time>
      </trkpt>
      <trkpt lat="42.75887" lon="0.19538">
        <ele>1732.4</ele>
        <time>2017-02-23T08:06:12Z</time>
      </trkpt>
      <trkpt lat="42.75888" lon="0.19539">
        <ele>1733.2</ele>
        <time>2017-02-23T08:06:17Z</time>
      </trkpt>
      <trkpt lat="42.75888" lon="0.19539">
        <ele>1734</ele>
        <time>2017-02-23T08:06:22Z</time>
      </trkpt>
      <trkpt lat="42.75887" lon="0.19539">
        <ele>1734.6</ele>
        <time>2017-02-23T08:06:27Z</time>
      </trkpt>
      <trkpt lat="42.75887" lon="0.19539">
        <ele>1735.4</ele>
        <time>2017-02-23T08:06:32Z</time>
      </trkpt>
      <trkpt lat="42.75887" lon="0.1954">
        <ele>1736</ele>
        <time>2017-02-23T08:06:37Z</time>
      </trkpt>
      <trkpt lat="42.75887" lon="0.1954">
        <ele>1736.6</ele>
        <time>2017-02-23T08:06:42Z</time>
      </trkpt>
      <trkpt lat="42.75887" lon="0.1954">
        <ele>1737.2</ele>
        <time>2017-02-23T08:06:47Z</time>
      </trkpt>
      <trkpt lat="42.75887" lon="0.1954">
        <ele>1737.8</ele>
        <time>2017-02-23T08:06:52Z</time>
      </trkpt>
      <trkpt lat="42.75888" lon="0.1954">
        <ele>1738.2</ele>
        <time>2017-02-23T08:06:57Z</time>
      </trkpt>
      <trkpt lat="42.75889" lon="0.19539">
        <ele>1738.8</ele>
        <time>2017-02-23T08:07:02Z</time>
      </trkpt>
      <trkpt lat="42.75891" lon="0.19539">
        <ele>1739</ele>
        <time>2017-02-23T08:07:07Z</time>
      </trkpt>
      <trkpt lat="42.75891" lon="0.19539">
        <ele>1739</ele>
        <time>2017-02-23T08:07:12Z</time>
      </trkpt>
      <trkpt lat="42.75889" lon="0.19538">
        <ele>1739.6</ele>
        <time>2017-02-23T08:07:17Z</time>
      </trkpt>
      <trkpt lat="42.75888" lon="0.19536">
        <ele>1740.6</ele>
        <time>2017-02-23T08:07:22Z</time>
      </trkpt>
      <trkpt lat="42.75888" lon="0.19537">
        <ele>1741.6</ele>
        <time>2017-02-23T08:07:27Z</time>
      </trkpt>
      <trkpt lat="42.75887" lon="0.19542">
        <ele>1742.8</ele>
        <time>2017-02-23T08:07:32Z</time>
      </trkpt>
      <trkpt lat="42.75885" lon="0.19547">
        <ele>1744.4</ele>
        <time>2017-02-23T08:07:37Z</time>
      </trkpt>
      <trkpt lat="42.75883" lon="0.19548">
        <ele>1746</ele>
        <time>2017-02-23T08:07:42Z</time>
      </trkpt>
      <trkpt lat="42.75886" lon="0.19549">
        <ele>1747</ele>
        <time>2017-02-23T08:07:47Z</time>
      </trkpt>
      <trkpt lat="42.75885" lon="0.19547">
        <ele>1752.8</ele>
        <time>2017-02-23T08:07:52Z</time>
      </trkpt>
      <trkpt lat="42.75884" lon="0.19547">
        <ele>1749.6</ele>
        <time>2017-02-23T08:07:57Z</time>
      </trkpt>
      <trkpt lat="42.75883" lon="0.1955">
        <ele>1749.8</ele>
        <time>2017-02-23T08:08:02Z</time>
      </trkpt>
      <trkpt lat="42.75883" lon="0.1955">
        <ele>1749.6</ele>
        <time>2017-02-23T08:08:07Z</time>
      </trkpt>
      <trkpt lat="42.7588" lon="0.19548">
        <ele>1749.4</ele>
        <time>2017-02-23T08:08:12Z</time>
      </trkpt>
      <trkpt lat="42.75879" lon="0.19545">
        <ele>1751.4</ele>
        <time>2017-02-23T08:08:17Z</time>
      </trkpt>
      <trkpt lat="42.75882" lon="0.19544">
        <ele>1751.6</ele>
        <time>2017-02-23T08:08:22Z</time>
      </trkpt>
      <trkpt lat="42.75886" lon="0.1954">
        <ele>1754</ele>
        <time>2017-02-23T08:08:27Z</time>
      </trkpt>
      <trkpt lat="42.75884" lon="0.19537">
        <ele>1753.8</ele>
        <time>2017-02-23T08:08:32Z</time>
      </trkpt>
      <trkpt lat="42.75884" lon="0.19536">
        <ele>1754.2</ele>
        <time>2017-02-23T08:08:37Z</time>
      </trkpt>
      <trkpt lat="42.75883" lon="0.19537">
        <ele>1754.8</ele>
        <time>2017-02-23T08:08:42Z</time>
      </trkpt>
      <trkpt lat="42.75884" lon="0.19536">
        <ele>1755.4</ele>
        <time>2017-02-23T08:08:47Z</time>
      </trkpt>
      <trkpt lat="42.75881" lon="0.19537">
        <ele>1755.6</ele>
        <time>2017-02-23T08:08:52Z</time>
      </trkpt>
      <trkpt lat="42.75879" lon="0.19538">
        <ele>1757</ele>
        <time>2017-02-23T08:08:57Z</time>
      </trkpt>
      <trkpt lat="42.75879" lon="0.1954">
        <ele>1756.6</ele>
        <time>2017-02-23T08:09:02Z</time>
      </trkpt>
      <trkpt lat="42.75877" lon="0.19543">
        <ele>1756.6</ele>
        <time>2017-02-23T08:09:07Z</time>
      </trkpt>
      <trkpt lat="42.75877" lon="0.19546">
        <ele>1756.8</ele>
        <time>2017-02-23T08:09:12Z</time>
      </trkpt>
      <trkpt lat="42.75876" lon="0.19547">
        <ele>1757.4</ele>
        <time>2017-02-23T08:09:17Z</time>
      </trkpt>
      <trkpt lat="42.75875" lon="0.19549">
        <ele>1757.4</ele>
        <time>2017-02-23T08:09:22Z</time>
      </trkpt>
      <trkpt lat="42.75875" lon="0.19549">
        <ele>1757.6</ele>
        <time>2017-02-23T08:09:27Z</time>
      </trkpt>
      <trkpt lat="42.75875" lon="0.19549">
        <ele>1758</ele>
        <time>2017-02-23T08:09:32Z</time>
      </trkpt>
      <trkpt lat="42.75875" lon="0.1955">
        <ele>1758</ele>
        <time>2017-02-23T08:09:37Z</time>
      </trkpt>
      <trkpt lat="42.75874" lon="0.1955">
        <ele>1757.6</ele>
        <time>2017-02-23T08:09:42Z</time>
      </trkpt>
      <trkpt lat="42.7587" lon="0.19552">
        <ele>1760.8</ele>
        <time>2017-02-23T08:09:47Z</time>
      </trkpt>
      <trkpt lat="42.75865" lon="0.19557">
        <ele>1758.6</ele>
        <time>2017-02-23T08:09:52Z</time>
      </trkpt>
      <trkpt lat="42.7586" lon="0.19563">
        <ele>1755.4</ele>
        <time>2017-02-23T08:09:57Z</time>
      </trkpt>
      <trkpt lat="42.75855" lon="0.19569">
        <ele>1756</ele>
        <time>2017-02-23T08:10:02Z</time>
      </trkpt>
      <trkpt lat="42.7585" lon="0.19572">
        <ele>1753.8</ele>
        <time>2017-02-23T08:10:07Z</time>
      </trkpt>
      <trkpt lat="42.75846" lon="0.19571">
        <ele>1755.6</ele>
        <time>2017-02-23T08:10:12Z</time>
      </trkpt>
      <trkpt lat="42.75842" lon="0.19569">
        <ele>1754.4</ele>
        <time>2017-02-23T08:10:17Z</time>
      </trkpt>
      <trkpt lat="42.75835" lon="0.19569">
        <ele>1752</ele>
        <time>2017-02-23T08:10:22Z</time>
      </trkpt>
      <trkpt lat="42.75833" lon="0.19568">
        <ele>1751</ele>
        <time>2017-02-23T08:10:27Z</time>
      </trkpt>
      <trkpt lat="42.75832" lon="0.19568">
        <ele>1752</ele>
        <time>2017-02-23T08:10:32Z</time>
      </trkpt>
      <trkpt lat="42.75832" lon="0.19567">
        <ele>1752.6</ele>
        <time>2017-02-23T08:10:37Z</time>
      </trkpt>
      <trkpt lat="42.75832" lon="0.19566">
        <ele>1753.2</ele>
        <time>2017-02-23T08:10:42Z</time>
      </trkpt>
      <trkpt lat="42.75832" lon="0.19566">
        <ele>1753.6</ele>
        <time>2017-02-23T08:10:47Z</time>
      </trkpt>
      <trkpt lat="42.75831" lon="0.19567">
        <ele>1754</ele>
        <time>2017-02-23T08:10:52Z</time>
      </trkpt>
      <trkpt lat="42.7583" lon="0.19568">
        <ele>1754.6</ele>
        <time>2017-02-23T08:10:57Z</time>
      </trkpt>
      <trkpt lat="42.7583" lon="0.19569">
        <ele>1755.2</ele>
        <time>2017-02-23T08:11:02Z</time>
      </trkpt>
      <trkpt lat="42.7583" lon="0.19573">
        <ele>1753.8</ele>
        <time>2017-02-23T08:11:07Z</time>
      </trkpt>
      <trkpt lat="42.75829" lon="0.19575">
        <ele>1755</ele>
        <time>2017-02-23T08:11:12Z</time>
      </trkpt>
      <trkpt lat="42.75829" lon="0.19578">
        <ele>1754</ele>
        <time>2017-02-23T08:11:17Z</time>
      </trkpt>
      <trkpt lat="42.7583" lon="0.19578">
        <ele>1756</ele>
        <time>2017-02-23T08:11:22Z</time>
      </trkpt>
      <trkpt lat="42.75828" lon="0.19576">
        <ele>1754.4</ele>
        <time>2017-02-23T08:11:27Z</time>
      </trkpt>
      <trkpt lat="42.75828" lon="0.19575">
        <ele>1755</ele>
        <time>2017-02-23T08:11:32Z</time>
      </trkpt>
      <trkpt lat="42.75828" lon="0.19575">
        <ele>1755</ele>
        <time>2017-02-23T08:11:37Z</time>
      </trkpt>
      <trkpt lat="42.75825" lon="0.19576">
        <ele>1756.2</ele>
        <time>2017-02-23T08:11:42Z</time>
      </trkpt>
      <trkpt lat="42.75826" lon="0.19578">
        <ele>1753.6</ele>
        <time>2017-02-23T08:11:47Z</time>
      </trkpt>
      <trkpt lat="42.75826" lon="0.19577">
        <ele>1753.6</ele>
        <time>2017-02-23T08:11:52Z</time>
      </trkpt>
      <trkpt lat="42.75827" lon="0.19578">
        <ele>1753.6</ele>
        <time>2017-02-23T08:11:57Z</time>
      </trkpt>
      <trkpt lat="42.75826" lon="0.19579">
        <ele>1753.6</ele>
        <time>2017-02-23T08:12:02Z</time>
      </trkpt>
      <trkpt lat="42.75824" lon="0.1958">
        <ele>1750.2</ele>
        <time>2017-02-23T08:12:07Z</time>
      </trkpt>
      <trkpt lat="42.7582" lon="0.1958">
        <ele>1753.4</ele>
        <time>2017-02-23T08:12:12Z</time>
      </trkpt>
      <trkpt lat="42.75819" lon="0.19581">
        <ele>1751.6</ele>
        <time>2017-02-23T08:12:17Z</time>
      </trkpt>
      <trkpt lat="42.7582" lon="0.19582">
        <ele>1752.2</ele>
        <time>2017-02-23T08:12:22Z</time>
      </trkpt>
      <trkpt lat="42.7582" lon="0.19583">
        <ele>1752.4</ele>
        <time>2017-02-23T08:12:27Z</time>
      </trkpt>
      <trkpt lat="42.7582" lon="0.19582">
        <ele>1752.6</ele>
        <time>2017-02-23T08:12:33Z</time>
      </trkpt>
      <trkpt lat="42.7582" lon="0.19582">
        <ele>1752.4</ele>
        <time>2017-02-23T08:12:38Z</time>
      </trkpt>
      <trkpt lat="42.7582" lon="0.19582">
        <ele>1752</ele>
        <time>2017-02-23T08:12:43Z</time>
      </trkpt>
      <trkpt lat="42.7582" lon="0.19582">
        <ele>1751.6</ele>
        <time>2017-02-23T08:12:48Z</time>
      </trkpt>
      <trkpt lat="42.7582" lon="0.19583">
        <ele>1751.4</ele>
        <time>2017-02-23T08:12:53Z</time>
      </trkpt>
      <trkpt lat="42.7582" lon="0.19583">
        <ele>1751.2</ele>
        <time>2017-02-23T08:12:58Z</time>
      </trkpt>
      <trkpt lat="42.7582" lon="0.19583">
        <ele>1750.8</ele>
        <time>2017-02-23T08:13:03Z</time>
      </trkpt>
      <trkpt lat="42.7582" lon="0.19583">
        <ele>1750.8</ele>
        <time>2017-02-23T08:13:08Z</time>
      </trkpt>
      <trkpt lat="42.7582" lon="0.19583">
        <ele>1750.6</ele>
        <time>2017-02-23T08:13:13Z</time>
      </trkpt>
      <trkpt lat="42.7582" lon="0.19583">
        <ele>1750.4</ele>
        <time>2017-02-23T08:13:18Z</time>
      </trkpt>
      <trkpt lat="42.7582" lon="0.19583">
        <ele>1750.2</ele>
        <time>2017-02-23T08:13:23Z</time>
      </trkpt>
      <trkpt lat="42.75819" lon="0.19583">
        <ele>1750</ele>
        <time>2017-02-23T08:13:28Z</time>
      </trkpt>
      <trkpt lat="42.75818" lon="0.19582">
        <ele>1749.8</ele>
        <time>2017-02-23T08:13:33Z</time>
      </trkpt>
      <trkpt lat="42.75817" lon="0.19582">
        <ele>1749.4</ele>
        <time>2017-02-23T08:13:38Z</time>
      </trkpt>
      <trkpt lat="42.75817" lon="0.1958">
        <ele>1749.2</ele>
        <time>2017-02-23T08:13:43Z</time>
      </trkpt>
      <trkpt lat="42.75817" lon="0.1958">
        <ele>1749</ele>
        <time>2017-02-23T08:13:48Z</time>
      </trkpt>
      <trkpt lat="42.75818" lon="0.19578">
        <ele>1748.6</ele>
        <time>2017-02-23T08:13:53Z</time>
      </trkpt>
      <trkpt lat="42.7582" lon="0.19576">
        <ele>1748</ele>
        <time>2017-02-23T08:13:58Z</time>
      </trkpt>
      <trkpt lat="42.75821" lon="0.19574">
        <ele>1747.6</ele>
        <time>2017-02-23T08:14:03Z</time>
      </trkpt>
      <trkpt lat="42.7582" lon="0.19574">
        <ele>1748.4</ele>
        <time>2017-02-23T08:14:08Z</time>
      </trkpt>
      <trkpt lat="42.75819" lon="0.19575">
        <ele>1747.2</ele>
        <time>2017-02-23T08:14:13Z</time>
      </trkpt>
      <trkpt lat="42.75819" lon="0.19572">
        <ele>1745.2</ele>
        <time>2017-02-23T08:14:18Z</time>
      </trkpt>
      <trkpt lat="42.75821" lon="0.19573">
        <ele>1745.2</ele>
        <time>2017-02-23T08:14:23Z</time>
      </trkpt>
      <trkpt lat="42.75819" lon="0.19575">
        <ele>1745.2</ele>
        <time>2017-02-23T08:14:28Z</time>
      </trkpt>
      <trkpt lat="42.75818" lon="0.19576">
        <ele>1745.6</ele>
        <time>2017-02-23T08:14:33Z</time>
      </trkpt>
      <trkpt lat="42.75818" lon="0.19578">
        <ele>1747</ele>
        <time>2017-02-23T08:14:38Z</time>
      </trkpt>
      <trkpt lat="42.75818" lon="0.1958">
        <ele>1749</ele>
        <time>2017-02-23T08:14:43Z</time>
      </trkpt>
      <trkpt lat="42.75818" lon="0.19582">
        <ele>1751.8</ele>
        <time>2017-02-23T08:14:48Z</time>
      </trkpt>
      <trkpt lat="42.75819" lon="0.19579">
        <ele>1753.4</ele>
        <time>2017-02-23T08:14:53Z</time>
      </trkpt>
      <trkpt lat="42.75819" lon="0.19581">
        <ele>1753.4</ele>
        <time>2017-02-23T08:14:58Z</time>
      </trkpt>
      <trkpt lat="42.7582" lon="0.19582">
        <ele>1753.4</ele>
        <time>2017-02-23T08:15:03Z</time>
      </trkpt>
      <trkpt lat="42.7582" lon="0.19581">
        <ele>1753.4</ele>
        <time>2017-02-23T08:15:08Z</time>
      </trkpt>
      <trkpt lat="42.75817" lon="0.19577">
        <ele>1752.2</ele>
        <time>2017-02-23T08:15:13Z</time>
      </trkpt>
      <trkpt lat="42.75813" lon="0.19577">
        <ele>1750.6</ele>
        <time>2017-02-23T08:15:18Z</time>
      </trkpt>
      <trkpt lat="42.75811" lon="0.19578">
        <ele>1749.6</ele>
        <time>2017-02-23T08:15:23Z</time>
      </trkpt>
      <trkpt lat="42.75807" lon="0.19577">
        <ele>1750.2</ele>
        <time>2017-02-23T08:15:28Z</time>
      </trkpt>
      <trkpt lat="42.75802" lon="0.19575">
        <ele>1749.6</ele>
        <time>2017-02-23T08:15:34Z</time>
      </trkpt>
      <trkpt lat="42.75801" lon="0.19579">
        <ele>1747.8</ele>
        <time>2017-02-23T08:15:39Z</time>
      </trkpt>
      <trkpt lat="42.758" lon="0.19582">
        <ele>1750</ele>
        <time>2017-02-23T08:15:44Z</time>
      </trkpt>
      <trkpt lat="42.758" lon="0.19582">
        <ele>1749.8</ele>
        <time>2017-02-23T08:15:49Z</time>
      </trkpt>
      <trkpt lat="42.75798" lon="0.19586">
        <ele>1750.6</ele>
        <time>2017-02-23T08:15:54Z</time>
      </trkpt>
      <trkpt lat="42.75798" lon="0.19589">
        <ele>1752.8</ele>
        <time>2017-02-23T08:15:59Z</time>
      </trkpt>
      <trkpt lat="42.75797" lon="0.19593">
        <ele>1753.6</ele>
        <time>2017-02-23T08:16:04Z</time>
      </trkpt>
      <trkpt lat="42.75798" lon="0.19597">
        <ele>1755</ele>
        <time>2017-02-23T08:16:09Z</time>
      </trkpt>
      <trkpt lat="42.75798" lon="0.19602">
        <ele>1752.2</ele>
        <time>2017-02-23T08:16:14Z</time>
      </trkpt>
      <trkpt lat="42.75799" lon="0.19606">
        <ele>1752.8</ele>
        <time>2017-02-23T08:16:19Z</time>
      </trkpt>
      <trkpt lat="42.75799" lon="0.19606">
        <ele>1752.6</ele>
        <time>2017-02-23T08:16:24Z</time>
      </trkpt>
      <trkpt lat="42.75802" lon="0.1961">
        <ele>1753.6</ele>
        <time>2017-02-23T08:16:29Z</time>
      </trkpt>
      <trkpt lat="42.75805" lon="0.19613">
        <ele>1753.4</ele>
        <time>2017-02-23T08:16:34Z</time>
      </trkpt>
      <trkpt lat="42.75808" lon="0.19616">
        <ele>1751.2</ele>
        <time>2017-02-23T08:16:39Z</time>
      </trkpt>
      <trkpt lat="42.75811" lon="0.19619">
        <ele>1753.4</ele>
        <time>2017-02-23T08:16:44Z</time>
      </trkpt>
      <trkpt lat="42.75814" lon="0.19621">
        <ele>1752.8</ele>
        <time>2017-02-23T08:16:49Z</time>
      </trkpt>
      <trkpt lat="42.75817" lon="0.19624">
        <ele>1751.2</ele>
        <time>2017-02-23T08:16:54Z</time>
      </trkpt>
      <trkpt lat="42.75818" lon="0.19627">
        <ele>1752.4</ele>
        <time>2017-02-23T08:16:59Z</time>
      </trkpt>
      <trkpt lat="42.75819" lon="0.19631">
        <ele>1750.4</ele>
        <time>2017-02-23T08:17:04Z</time>
      </trkpt>
      <trkpt lat="42.75819" lon="0.19631">
        <ele>1751.6</ele>
        <time>2017-02-23T08:17:09Z</time>
      </trkpt>
      <trkpt lat="42.75819" lon="0.19631">
        <ele>1751.4</ele>
        <time>2017-02-23T08:17:14Z</time>
      </trkpt>
      <trkpt lat="42.7582" lon="0.19633">
        <ele>1752.4</ele>
        <time>2017-02-23T08:17:19Z</time>
      </trkpt>
      <trkpt lat="42.7582" lon="0.19637">
        <ele>1752.6</ele>
        <time>2017-02-23T08:17:24Z</time>
      </trkpt>
      <trkpt lat="42.75822" lon="0.19641">
        <ele>1753.8</ele>
        <time>2017-02-23T08:17:29Z</time>
      </trkpt>
      <trkpt lat="42.75824" lon="0.19643">
        <ele>1754</ele>
        <time>2017-02-23T08:17:34Z</time>
      </trkpt>
      <trkpt lat="42.75825" lon="0.19647">
        <ele>1756.6</ele>
        <time>2017-02-23T08:17:39Z</time>
      </trkpt>
      <trkpt lat="42.75827" lon="0.19649">
        <ele>1756.2</ele>
        <time>2017-02-23T08:17:44Z</time>
      </trkpt>
      <trkpt lat="42.75829" lon="0.19652">
        <ele>1759.6</ele>
        <time>2017-02-23T08:17:49Z</time>
      </trkpt>
      <trkpt lat="42.75831" lon="0.19654">
        <ele>1758.8</ele>
        <time>2017-02-23T08:17:54Z</time>
      </trkpt>
      <trkpt lat="42.75833" lon="0.19657">
        <ele>1758</ele>
        <time>2017-02-23T08:17:59Z</time>
      </trkpt>
      <trkpt lat="42.75835" lon="0.19658">
        <ele>1759.4</ele>
        <time>2017-02-23T08:18:04Z</time>
      </trkpt>
      <trkpt lat="42.75837" lon="0.19661">
        <ele>1762</ele>
        <time>2017-02-23T08:18:09Z</time>
      </trkpt>
      <trkpt lat="42.75839" lon="0.19663">
        <ele>1760.8</ele>
        <time>2017-02-23T08:18:14Z</time>
      </trkpt>
      <trkpt lat="42.75841" lon="0.19665">
        <ele>1762.8</ele>
        <time>2017-02-23T08:18:19Z</time>
      </trkpt>
      <trkpt lat="42.75843" lon="0.19667">
        <ele>1764.6</ele>
        <time>2017-02-23T08:18:24Z</time>
      </trkpt>
      <trkpt lat="42.75846" lon="0.19669">
        <ele>1768.4</ele>
        <time>2017-02-23T08:18:29Z</time>
      </trkpt>
      <trkpt lat="42.75848" lon="0.19671">
        <ele>1771.6</ele>
        <time>2017-02-23T08:18:34Z</time>
      </trkpt>
      <trkpt lat="42.7585" lon="0.19674">
        <ele>1768.8</ele>
        <time>2017-02-23T08:18:39Z</time>
      </trkpt>
      <trkpt lat="42.75851" lon="0.19676">
        <ele>1769</ele>
        <time>2017-02-23T08:18:44Z</time>
      </trkpt>
      <trkpt lat="42.75852" lon="0.19679">
        <ele>1770.6</ele>
        <time>2017-02-23T08:18:49Z</time>
      </trkpt>
      <trkpt lat="42.75854" lon="0.19681">
        <ele>1772.6</ele>
        <time>2017-02-23T08:18:54Z</time>
      </trkpt>
      <trkpt lat="42.75855" lon="0.19683">
        <ele>1772.8</ele>
        <time>2017-02-23T08:18:59Z</time>
      </trkpt>
      <trkpt lat="42.75858" lon="0.19686">
        <ele>1774.2</ele>
        <time>2017-02-23T08:19:04Z</time>
      </trkpt>
      <trkpt lat="42.7586" lon="0.19688">
        <ele>1773.8</ele>
        <time>2017-02-23T08:19:09Z</time>
      </trkpt>
      <trkpt lat="42.75862" lon="0.19692">
        <ele>1774.6</ele>
        <time>2017-02-23T08:19:14Z</time>
      </trkpt>
      <trkpt lat="42.75863" lon="0.19695">
        <ele>1774.6</ele>
        <time>2017-02-23T08:19:19Z</time>
      </trkpt>
      <trkpt lat="42.75865" lon="0.19698">
        <ele>1776.2</ele>
        <time>2017-02-23T08:19:24Z</time>
      </trkpt>
      <trkpt lat="42.75867" lon="0.19701">
        <ele>1777.2</ele>
        <time>2017-02-23T08:19:29Z</time>
      </trkpt>
      <trkpt lat="42.75869" lon="0.19704">
        <ele>1779</ele>
        <time>2017-02-23T08:19:34Z</time>
      </trkpt>
      <trkpt lat="42.75871" lon="0.19707">
        <ele>1776.6</ele>
        <time>2017-02-23T08:19:39Z</time>
      </trkpt>
      <trkpt lat="42.75873" lon="0.19711">
        <ele>1780.4</ele>
        <time>2017-02-23T08:19:44Z</time>
      </trkpt>
      <trkpt lat="42.75875" lon="0.19714">
        <ele>1780</ele>
        <time>2017-02-23T08:19:49Z</time>
      </trkpt>
      <trkpt lat="42.75876" lon="0.19717">
        <ele>1779.4</ele>
        <time>2017-02-23T08:19:54Z</time>
      </trkpt>
      <trkpt lat="42.75877" lon="0.19721">
        <ele>1781.2</ele>
        <time>2017-02-23T08:19:59Z</time>
      </trkpt>
      <trkpt lat="42.75879" lon="0.19725">
        <ele>1778.6</ele>
        <time>2017-02-23T08:20:04Z</time>
      </trkpt>
      <trkpt lat="42.7588" lon="0.19729">
        <ele>1784.2</ele>
        <time>2017-02-23T08:20:09Z</time>
      </trkpt>
      <trkpt lat="42.75881" lon="0.19733">
        <ele>1783.4</ele>
        <time>2017-02-23T08:20:14Z</time>
      </trkpt>
      <trkpt lat="42.75882" lon="0.19737">
        <ele>1786</ele>
        <time>2017-02-23T08:20:19Z</time>
      </trkpt>
      <trkpt lat="42.75883" lon="0.19741">
        <ele>1786.2</ele>
        <time>2017-02-23T08:20:24Z</time>
      </trkpt>
      <trkpt lat="42.75883" lon="0.19741">
        <ele>1786.4</ele>
        <time>2017-02-23T08:20:29Z</time>
      </trkpt>
      <trkpt lat="42.75883" lon="0.19741">
        <ele>1786.6</ele>
        <time>2017-02-23T08:20:34Z</time>
      </trkpt>
      <trkpt lat="42.75883" lon="0.19742">
        <ele>1784.2</ele>
        <time>2017-02-23T08:20:39Z</time>
      </trkpt>
      <trkpt lat="42.75885" lon="0.19746">
        <ele>1784.2</ele>
        <time>2017-02-23T08:20:44Z</time>
      </trkpt>
      <trkpt lat="42.75885" lon="0.19746">
        <ele>1786.4</ele>
        <time>2017-02-23T08:20:49Z</time>
      </trkpt>
      <trkpt lat="42.75885" lon="0.19749">
        <ele>1787.2</ele>
        <time>2017-02-23T08:20:54Z</time>
      </trkpt>
      <trkpt lat="42.75885" lon="0.19749">
        <ele>1786.8</ele>
        <time>2017-02-23T08:20:59Z</time>
      </trkpt>
      <trkpt lat="42.75884" lon="0.19751">
        <ele>1785.8</ele>
        <time>2017-02-23T08:21:04Z</time>
      </trkpt>
      <trkpt lat="42.75884" lon="0.19751">
        <ele>1785.8</ele>
        <time>2017-02-23T08:21:09Z</time>
      </trkpt>
      <trkpt lat="42.75884" lon="0.19753">
        <ele>1785.4</ele>
        <time>2017-02-23T08:21:14Z</time>
      </trkpt>
      <trkpt lat="42.75885" lon="0.19758">
        <ele>1783.2</ele>
        <time>2017-02-23T08:21:19Z</time>
      </trkpt>
      <trkpt lat="42.75884" lon="0.19763">
        <ele>1784.4</ele>
        <time>2017-02-23T08:21:24Z</time>
      </trkpt>
      <trkpt lat="42.75885" lon="0.19768">
        <ele>1785.8</ele>
        <time>2017-02-23T08:21:29Z</time>
      </trkpt>
      <trkpt lat="42.75886" lon="0.19773">
        <ele>1787.2</ele>
        <time>2017-02-23T08:21:34Z</time>
      </trkpt>
      <trkpt lat="42.75887" lon="0.19777">
        <ele>1790.4</ele>
        <time>2017-02-23T08:21:39Z</time>
      </trkpt>
      <trkpt lat="42.75889" lon="0.19779">
        <ele>1787.2</ele>
        <time>2017-02-23T08:21:44Z</time>
      </trkpt>
      <trkpt lat="42.7589" lon="0.19779">
        <ele>1790</ele>
        <time>2017-02-23T08:21:49Z</time>
      </trkpt>
      <trkpt lat="42.75893" lon="0.1978">
        <ele>1788.6</ele>
        <time>2017-02-23T08:21:54Z</time>
      </trkpt>
      <trkpt lat="42.75897" lon="0.19781">
        <ele>1791.6</ele>
        <time>2017-02-23T08:22:00Z</time>
      </trkpt>
      <trkpt lat="42.759" lon="0.1978">
        <ele>1793.2</ele>
        <time>2017-02-23T08:22:05Z</time>
      </trkpt>
      <trkpt lat="42.75904" lon="0.19778">
        <ele>1793.8</ele>
        <time>2017-02-23T08:22:10Z</time>
      </trkpt>
      <trkpt lat="42.75906" lon="0.19777">
        <ele>1795.4</ele>
        <time>2017-02-23T08:22:15Z</time>
      </trkpt>
      <trkpt lat="42.75906" lon="0.19777">
        <ele>1795.2</ele>
        <time>2017-02-23T08:22:20Z</time>
      </trkpt>
      <trkpt lat="42.75906" lon="0.19777">
        <ele>1795.2</ele>
        <time>2017-02-23T08:22:25Z</time>
      </trkpt>
      <trkpt lat="42.75906" lon="0.19777">
        <ele>1794.8</ele>
        <time>2017-02-23T08:22:30Z</time>
      </trkpt>
      <trkpt lat="42.75906" lon="0.19776">
        <ele>1794.4</ele>
        <time>2017-02-23T08:22:35Z</time>
      </trkpt>
      <trkpt lat="42.75906" lon="0.19776">
        <ele>1794.2</ele>
        <time>2017-02-23T08:22:40Z</time>
      </trkpt>
      <trkpt lat="42.75907" lon="0.19775">
        <ele>1793.6</ele>
        <time>2017-02-23T08:22:45Z</time>
      </trkpt>
      <trkpt lat="42.75907" lon="0.19775">
        <ele>1793.2</ele>
        <time>2017-02-23T08:22:50Z</time>
      </trkpt>
      <trkpt lat="42.75908" lon="0.19775">
        <ele>1793</ele>
        <time>2017-02-23T08:22:55Z</time>
      </trkpt>
      <trkpt lat="42.75908" lon="0.19774">
        <ele>1792.8</ele>
        <time>2017-02-23T08:23:00Z</time>
      </trkpt>
      <trkpt lat="42.75908" lon="0.19774">
        <ele>1792.8</ele>
        <time>2017-02-23T08:23:05Z</time>
      </trkpt>
      <trkpt lat="42.75908" lon="0.19774">
        <ele>1792.6</ele>
        <time>2017-02-23T08:23:10Z</time>
      </trkpt>
      <trkpt lat="42.7591" lon="0.19774">
        <ele>1792.6</ele>
        <time>2017-02-23T08:23:15Z</time>
      </trkpt>
      <trkpt lat="42.75912" lon="0.19773">
        <ele>1790.4</ele>
        <time>2017-02-23T08:23:20Z</time>
      </trkpt>
      <trkpt lat="42.75914" lon="0.19774">
        <ele>1794</ele>
        <time>2017-02-23T08:23:25Z</time>
      </trkpt>
      <trkpt lat="42.75915" lon="0.19774">
        <ele>1793</ele>
        <time>2017-02-23T08:23:30Z</time>
      </trkpt>
      <trkpt lat="42.75918" lon="0.19774">
        <ele>1794.8</ele>
        <time>2017-02-23T08:23:35Z</time>
      </trkpt>
      <trkpt lat="42.75919" lon="0.19774">
        <ele>1795.2</ele>
        <time>2017-02-23T08:23:40Z</time>
      </trkpt>
      <trkpt lat="42.75919" lon="0.19774">
        <ele>1794.8</ele>
        <time>2017-02-23T08:23:45Z</time>
      </trkpt>
      <trkpt lat="42.75919" lon="0.19774">
        <ele>1794.4</ele>
        <time>2017-02-23T08:23:50Z</time>
      </trkpt>
      <trkpt lat="42.75919" lon="0.19774">
        <ele>1794.2</ele>
        <time>2017-02-23T08:23:55Z</time>
      </trkpt>
      <trkpt lat="42.75919" lon="0.19774">
        <ele>1794</ele>
        <time>2017-02-23T08:24:00Z</time>
      </trkpt>
      <trkpt lat="42.75919" lon="0.19774">
        <ele>1793.8</ele>
        <time>2017-02-23T08:24:05Z</time>
      </trkpt>
      <trkpt lat="42.75919" lon="0.19774">
        <ele>1793.6</ele>
        <time>2017-02-23T08:24:10Z</time>
      </trkpt>
      <trkpt lat="42.7592" lon="0.19774">
        <ele>1793.6</ele>
        <time>2017-02-23T08:24:15Z</time>
      </trkpt>
      <trkpt lat="42.75921" lon="0.19774">
        <ele>1793.4</ele>
        <time>2017-02-23T08:24:20Z</time>
      </trkpt>
      <trkpt lat="42.75921" lon="0.19773">
        <ele>1793.4</ele>
        <time>2017-02-23T08:24:25Z</time>
      </trkpt>
      <trkpt lat="42.75921" lon="0.19772">
        <ele>1793.6</ele>
        <time>2017-02-23T08:24:30Z</time>
      </trkpt>
      <trkpt lat="42.75921" lon="0.19772">
        <ele>1793.6</ele>
        <time>2017-02-23T08:24:35Z</time>
      </trkpt>
      <trkpt lat="42.75921" lon="0.19772">
        <ele>1793.6</ele>
        <time>2017-02-23T08:24:40Z</time>
      </trkpt>
      <trkpt lat="42.75919" lon="0.19775">
        <ele>1793.2</ele>
        <time>2017-02-23T08:24:45Z</time>
      </trkpt>
      <trkpt lat="42.75919" lon="0.19775">
        <ele>1793.6</ele>
        <time>2017-02-23T08:24:50Z</time>
      </trkpt>
      <trkpt lat="42.75919" lon="0.19775">
        <ele>1793.6</ele>
        <time>2017-02-23T08:24:55Z</time>
      </trkpt>
      <trkpt lat="42.75919" lon="0.19775">
        <ele>1793.8</ele>
        <time>2017-02-23T08:25:00Z</time>
      </trkpt>
      <trkpt lat="42.75919" lon="0.19775">
        <ele>1793.8</ele>
        <time>2017-02-23T08:25:05Z</time>
      </trkpt>
      <trkpt lat="42.75919" lon="0.19775">
        <ele>1793.8</ele>
        <time>2017-02-23T08:25:10Z</time>
      </trkpt>
      <trkpt lat="42.75919" lon="0.19775">
        <ele>1794</ele>
        <time>2017-02-23T08:25:15Z</time>
      </trkpt>
      <trkpt lat="42.75919" lon="0.19776">
        <ele>1794</ele>
        <time>2017-02-23T08:25:20Z</time>
      </trkpt>
      <trkpt lat="42.75919" lon="0.19776">
        <ele>1794</ele>
        <time>2017-02-23T08:25:25Z</time>
      </trkpt>
      <trkpt lat="42.75919" lon="0.19776">
        <ele>1794</ele>
        <time>2017-02-23T08:25:30Z</time>
      </trkpt>
      <trkpt lat="42.75919" lon="0.19776">
        <ele>1793.8</ele>
        <time>2017-02-23T08:25:35Z</time>
      </trkpt>
      <trkpt lat="42.75918" lon="0.19776">
        <ele>1793.8</ele>
        <time>2017-02-23T08:25:40Z</time>
      </trkpt>
      <trkpt lat="42.75918" lon="0.19776">
        <ele>1793.8</ele>
        <time>2017-02-23T08:25:45Z</time>
      </trkpt>
      <trkpt lat="42.75919" lon="0.19776">
        <ele>1793.8</ele>
        <time>2017-02-23T08:25:50Z</time>
      </trkpt>
      <trkpt lat="42.75919" lon="0.19776">
        <ele>1793.8</ele>
        <time>2017-02-23T08:25:55Z</time>
      </trkpt>
      <trkpt lat="42.75921" lon="0.19773">
        <ele>1793.4</ele>
        <time>2017-02-23T08:26:00Z</time>
      </trkpt>
      <trkpt lat="42.75921" lon="0.19772">
        <ele>1793.4</ele>
        <time>2017-02-23T08:26:05Z</time>
      </trkpt>
      <trkpt lat="42.7592" lon="0.1977">
        <ele>1793.4</ele>
        <time>2017-02-23T08:26:10Z</time>
      </trkpt>
      <trkpt lat="42.7592" lon="0.19769">
        <ele>1793.6</ele>
        <time>2017-02-23T08:26:15Z</time>
      </trkpt>
      <trkpt lat="42.7592" lon="0.19769">
        <ele>1793.8</ele>
        <time>2017-02-23T08:26:20Z</time>
      </trkpt>
      <trkpt lat="42.7592" lon="0.19769">
        <ele>1793.8</ele>
        <time>2017-02-23T08:26:25Z</time>
      </trkpt>
      <trkpt lat="42.7592" lon="0.19769">
        <ele>1794</ele>
        <time>2017-02-23T08:26:30Z</time>
      </trkpt>
      <trkpt lat="42.7592" lon="0.19769">
        <ele>1794</ele>
        <time>2017-02-23T08:26:35Z</time>
      </trkpt>
      <trkpt lat="42.75919" lon="0.19768">
        <ele>1794.2</ele>
        <time>2017-02-23T08:26:40Z</time>
      </trkpt>
      <trkpt lat="42.75919" lon="0.19767">
        <ele>1794</ele>
        <time>2017-02-23T08:26:45Z</time>
      </trkpt>
      <trkpt lat="42.75919" lon="0.19767">
        <ele>1794</ele>
        <time>2017-02-23T08:26:50Z</time>
      </trkpt>
      <trkpt lat="42.75919" lon="0.19767">
        <ele>1793.8</ele>
        <time>2017-02-23T08:26:55Z</time>
      </trkpt>
      <trkpt lat="42.75919" lon="0.19768">
        <ele>1792.2</ele>
        <time>2017-02-23T08:27:00Z</time>
      </trkpt>
      <trkpt lat="42.75919" lon="0.19768">
        <ele>1792.8</ele>
        <time>2017-02-23T08:27:05Z</time>
      </trkpt>
      <trkpt lat="42.75919" lon="0.19769">
        <ele>1793</ele>
        <time>2017-02-23T08:27:10Z</time>
      </trkpt>
      <trkpt lat="42.75919" lon="0.19769">
        <ele>1793.2</ele>
        <time>2017-02-23T08:27:15Z</time>
      </trkpt>
      <trkpt lat="42.7592" lon="0.1977">
        <ele>1793.2</ele>
        <time>2017-02-23T08:27:20Z</time>
      </trkpt>
      <trkpt lat="42.7592" lon="0.1977">
        <ele>1793.2</ele>
        <time>2017-02-23T08:27:25Z</time>
      </trkpt>
      <trkpt lat="42.7592" lon="0.1977">
        <ele>1793</ele>
        <time>2017-02-23T08:27:30Z</time>
      </trkpt>
      <trkpt lat="42.7592" lon="0.19771">
        <ele>1792.8</ele>
        <time>2017-02-23T08:27:35Z</time>
      </trkpt>
      <trkpt lat="42.7592" lon="0.19772">
        <ele>1792.6</ele>
        <time>2017-02-23T08:27:40Z</time>
      </trkpt>
      <trkpt lat="42.75921" lon="0.19773">
        <ele>1792.2</ele>
        <time>2017-02-23T08:27:45Z</time>
      </trkpt>
      <trkpt lat="42.75923" lon="0.19774">
        <ele>1789.6</ele>
        <time>2017-02-23T08:27:50Z</time>
      </trkpt>
      <trkpt lat="42.75925" lon="0.1978">
        <ele>1789.4</ele>
        <time>2017-02-23T08:27:55Z</time>
      </trkpt>
      <trkpt lat="42.75923" lon="0.19783">
        <ele>1790.8</ele>
        <time>2017-02-23T08:28:00Z</time>
      </trkpt>
      <trkpt lat="42.75923" lon="0.19783">
        <ele>1790</ele>
        <time>2017-02-23T08:28:05Z</time>
      </trkpt>
      <trkpt lat="42.75924" lon="0.19785">
        <ele>1789.2</ele>
        <time>2017-02-23T08:28:10Z</time>
      </trkpt>
      <trkpt lat="42.75924" lon="0.19785">
        <ele>1788.4</ele>
        <time>2017-02-23T08:28:15Z</time>
      </trkpt>
      <trkpt lat="42.75924" lon="0.19786">
        <ele>1787.8</ele>
        <time>2017-02-23T08:28:20Z</time>
      </trkpt>
      <trkpt lat="42.75924" lon="0.19786">
        <ele>1787.4</ele>
        <time>2017-02-23T08:28:25Z</time>
      </trkpt>
      <trkpt lat="42.75925" lon="0.19788">
        <ele>1784.2</ele>
        <time>2017-02-23T08:28:30Z</time>
      </trkpt>
      <trkpt lat="42.75927" lon="0.1979">
        <ele>1785</ele>
        <time>2017-02-23T08:28:35Z</time>
      </trkpt>
      <trkpt lat="42.75929" lon="0.19792">
        <ele>1786.6</ele>
        <time>2017-02-23T08:28:40Z</time>
      </trkpt>
      <trkpt lat="42.75931" lon="0.19796">
        <ele>1784.4</ele>
        <time>2017-02-23T08:28:45Z</time>
      </trkpt>
      <trkpt lat="42.75932" lon="0.19797">
        <ele>1786.6</ele>
        <time>2017-02-23T08:28:50Z</time>
      </trkpt>
      <trkpt lat="42.75933" lon="0.19796">
        <ele>1786.8</ele>
        <time>2017-02-23T08:28:55Z</time>
      </trkpt>
      <trkpt lat="42.75934" lon="0.19795">
        <ele>1788.6</ele>
        <time>2017-02-23T08:29:00Z</time>
      </trkpt>
      <trkpt lat="42.75937" lon="0.19794">
        <ele>1792.4</ele>
        <time>2017-02-23T08:29:05Z</time>
      </trkpt>
      <trkpt lat="42.75939" lon="0.19794">
        <ele>1791.4</ele>
        <time>2017-02-23T08:29:10Z</time>
      </trkpt>
      <trkpt lat="42.75942" lon="0.19794">
        <ele>1793.4</ele>
        <time>2017-02-23T08:29:15Z</time>
      </trkpt>
      <trkpt lat="42.75944" lon="0.19796">
        <ele>1797.2</ele>
        <time>2017-02-23T08:29:20Z</time>
      </trkpt>
      <trkpt lat="42.75947" lon="0.19797">
        <ele>1794.6</ele>
        <time>2017-02-23T08:29:25Z</time>
      </trkpt>
      <trkpt lat="42.75948" lon="0.19799">
        <ele>1798.2</ele>
        <time>2017-02-23T08:29:30Z</time>
      </trkpt>
      <trkpt lat="42.7595" lon="0.198">
        <ele>1801.4</ele>
        <time>2017-02-23T08:29:35Z</time>
      </trkpt>
      <trkpt lat="42.75952" lon="0.19801">
        <ele>1799</ele>
        <time>2017-02-23T08:29:40Z</time>
      </trkpt>
      <trkpt lat="42.75955" lon="0.19802">
        <ele>1806</ele>
        <time>2017-02-23T08:29:45Z</time>
      </trkpt>
      <trkpt lat="42.75957" lon="0.19804">
        <ele>1805.8</ele>
        <time>2017-02-23T08:29:50Z</time>
      </trkpt>
      <trkpt lat="42.75958" lon="0.19805">
        <ele>1809</ele>
        <time>2017-02-23T08:29:55Z</time>
      </trkpt>
      <trkpt lat="42.7596" lon="0.19807">
        <ele>1808</ele>
        <time>2017-02-23T08:30:00Z</time>
      </trkpt>
      <trkpt lat="42.75962" lon="0.19809">
        <ele>1802</ele>
        <time>2017-02-23T08:30:05Z</time>
      </trkpt>
      <trkpt lat="42.75964" lon="0.19812">
        <ele>1802.8</ele>
        <time>2017-02-23T08:30:10Z</time>
      </trkpt>
      <trkpt lat="42.75965" lon="0.19813">
        <ele>1804.2</ele>
        <time>2017-02-23T08:30:15Z</time>
      </trkpt>
      <trkpt lat="42.75967" lon="0.19815">
        <ele>1806.4</ele>
        <time>2017-02-23T08:30:20Z</time>
      </trkpt>
      <trkpt lat="42.75969" lon="0.19816">
        <ele>1806.2</ele>
        <time>2017-02-23T08:30:25Z</time>
      </trkpt>
      <trkpt lat="42.75971" lon="0.19818">
        <ele>1806.2</ele>
        <time>2017-02-23T08:30:30Z</time>
      </trkpt>
      <trkpt lat="42.75974" lon="0.19819">
        <ele>1807.2</ele>
        <time>2017-02-23T08:30:35Z</time>
      </trkpt>
      <trkpt lat="42.75976" lon="0.1982">
        <ele>1807.2</ele>
        <time>2017-02-23T08:30:40Z</time>
      </trkpt>
      <trkpt lat="42.75978" lon="0.19822">
        <ele>1809.2</ele>
        <time>2017-02-23T08:30:45Z</time>
      </trkpt>
      <trkpt lat="42.75978" lon="0.19822">
        <ele>1810.4</ele>
        <time>2017-02-23T08:30:50Z</time>
      </trkpt>
      <trkpt lat="42.75979" lon="0.19822">
        <ele>1812.6</ele>
        <time>2017-02-23T08:30:55Z</time>
      </trkpt>
      <trkpt lat="42.75981" lon="0.19823">
        <ele>1814.2</ele>
        <time>2017-02-23T08:31:00Z</time>
      </trkpt>
      <trkpt lat="42.75983" lon="0.19824">
        <ele>1814.8</ele>
        <time>2017-02-23T08:31:05Z</time>
      </trkpt>
      <trkpt lat="42.75985" lon="0.19825">
        <ele>1818.8</ele>
        <time>2017-02-23T08:31:10Z</time>
      </trkpt>
      <trkpt lat="42.75987" lon="0.19827">
        <ele>1819.6</ele>
        <time>2017-02-23T08:31:15Z</time>
      </trkpt>
      <trkpt lat="42.75989" lon="0.19828">
        <ele>1821.4</ele>
        <time>2017-02-23T08:31:20Z</time>
      </trkpt>
      <trkpt lat="42.75991" lon="0.19831">
        <ele>1820.4</ele>
        <time>2017-02-23T08:31:25Z</time>
      </trkpt>
      <trkpt lat="42.75993" lon="0.19834">
        <ele>1821.6</ele>
        <time>2017-02-23T08:31:30Z</time>
      </trkpt>
      <trkpt lat="42.75995" lon="0.19834">
        <ele>1822</ele>
        <time>2017-02-23T08:31:35Z</time>
      </trkpt>
      <trkpt lat="42.75996" lon="0.19836">
        <ele>1822.4</ele>
        <time>2017-02-23T08:31:40Z</time>
      </trkpt>
      <trkpt lat="42.75998" lon="0.19838">
        <ele>1822.4</ele>
        <time>2017-02-23T08:31:45Z</time>
      </trkpt>
      <trkpt lat="42.76" lon="0.1984">
        <ele>1822.4</ele>
        <time>2017-02-23T08:31:50Z</time>
      </trkpt>
      <trkpt lat="42.76003" lon="0.19842">
        <ele>1824.8</ele>
        <time>2017-02-23T08:31:55Z</time>
      </trkpt>
      <trkpt lat="42.76005" lon="0.19845">
        <ele>1824</ele>
        <time>2017-02-23T08:32:01Z</time>
      </trkpt>
      <trkpt lat="42.76007" lon="0.19847">
        <ele>1822.2</ele>
        <time>2017-02-23T08:32:06Z</time>
      </trkpt>
      <trkpt lat="42.76008" lon="0.19848">
        <ele>1824</ele>
        <time>2017-02-23T08:32:11Z</time>
      </trkpt>
      <trkpt lat="42.7601" lon="0.1985">
        <ele>1824</ele>
        <time>2017-02-23T08:32:16Z</time>
      </trkpt>
      <trkpt lat="42.76012" lon="0.19852">
        <ele>1820.8</ele>
        <time>2017-02-23T08:32:21Z</time>
      </trkpt>
      <trkpt lat="42.76014" lon="0.19854">
        <ele>1824.6</ele>
        <time>2017-02-23T08:32:26Z</time>
      </trkpt>
      <trkpt lat="42.76015" lon="0.19855">
        <ele>1825.6</ele>
        <time>2017-02-23T08:32:31Z</time>
      </trkpt>
      <trkpt lat="42.76015" lon="0.19856">
        <ele>1826.2</ele>
        <time>2017-02-23T08:32:36Z</time>
      </trkpt>
      <trkpt lat="42.76018" lon="0.19858">
        <ele>1828.2</ele>
        <time>2017-02-23T08:32:41Z</time>
      </trkpt>
      <trkpt lat="42.7602" lon="0.19861">
        <ele>1831.6</ele>
        <time>2017-02-23T08:32:46Z</time>
      </trkpt>
      <trkpt lat="42.76021" lon="0.19862">
        <ele>1831</ele>
        <time>2017-02-23T08:32:51Z</time>
      </trkpt>
      <trkpt lat="42.76022" lon="0.19862">
        <ele>1830.4</ele>
        <time>2017-02-23T08:32:56Z</time>
      </trkpt>
      <trkpt lat="42.76023" lon="0.19863">
        <ele>1830</ele>
        <time>2017-02-23T08:33:01Z</time>
      </trkpt>
      <trkpt lat="42.76024" lon="0.19863">
        <ele>1832</ele>
        <time>2017-02-23T08:33:06Z</time>
      </trkpt>
      <trkpt lat="42.76025" lon="0.19864">
        <ele>1831.2</ele>
        <time>2017-02-23T08:33:11Z</time>
      </trkpt>
      <trkpt lat="42.76027" lon="0.19864">
        <ele>1831.6</ele>
        <time>2017-02-23T08:33:16Z</time>
      </trkpt>
      <trkpt lat="42.76029" lon="0.19866">
        <ele>1827.6</ele>
        <time>2017-02-23T08:33:21Z</time>
      </trkpt>
      <trkpt lat="42.76031" lon="0.19868">
        <ele>1830.6</ele>
        <time>2017-02-23T08:33:26Z</time>
      </trkpt>
      <trkpt lat="42.76032" lon="0.19869">
        <ele>1831.2</ele>
        <time>2017-02-23T08:33:31Z</time>
      </trkpt>
      <trkpt lat="42.76032" lon="0.19869">
        <ele>1831.6</ele>
        <time>2017-02-23T08:33:36Z</time>
      </trkpt>
      <trkpt lat="42.76032" lon="0.19869">
        <ele>1831.8</ele>
        <time>2017-02-23T08:33:41Z</time>
      </trkpt>
      <trkpt lat="42.76032" lon="0.19869">
        <ele>1832</ele>
        <time>2017-02-23T08:33:46Z</time>
      </trkpt>
      <trkpt lat="42.76032" lon="0.1987">
        <ele>1832.2</ele>
        <time>2017-02-23T08:33:51Z</time>
      </trkpt>
      <trkpt lat="42.76033" lon="0.19871">
        <ele>1830.2</ele>
        <time>2017-02-23T08:33:56Z</time>
      </trkpt>
      <trkpt lat="42.76033" lon="0.19874">
        <ele>1832.6</ele>
        <time>2017-02-23T08:34:01Z</time>
      </trkpt>
      <trkpt lat="42.76034" lon="0.19874">
        <ele>1833.8</ele>
        <time>2017-02-23T08:34:06Z</time>
      </trkpt>
      <trkpt lat="42.76034" lon="0.19874">
        <ele>1835</ele>
        <time>2017-02-23T08:34:11Z</time>
      </trkpt>
      <trkpt lat="42.76035" lon="0.19873">
        <ele>1835.8</ele>
        <time>2017-02-23T08:34:16Z</time>
      </trkpt>
      <trkpt lat="42.76036" lon="0.19873">
        <ele>1836.6</ele>
        <time>2017-02-23T08:34:21Z</time>
      </trkpt>
      <trkpt lat="42.76038" lon="0.19877">
        <ele>1835.8</ele>
        <time>2017-02-23T08:34:26Z</time>
      </trkpt>
      <trkpt lat="42.76039" lon="0.1988">
        <ele>1838.2</ele>
        <time>2017-02-23T08:34:31Z</time>
      </trkpt>
      <trkpt lat="42.76041" lon="0.19883">
        <ele>1841.8</ele>
        <time>2017-02-23T08:34:36Z</time>
      </trkpt>
      <trkpt lat="42.76043" lon="0.19884">
        <ele>1841.6</ele>
        <time>2017-02-23T08:34:41Z</time>
      </trkpt>
      <trkpt lat="42.76046" lon="0.19885">
        <ele>1844.6</ele>
        <time>2017-02-23T08:34:46Z</time>
      </trkpt>
      <trkpt lat="42.76048" lon="0.19887">
        <ele>1838.2</ele>
        <time>2017-02-23T08:34:51Z</time>
      </trkpt>
      <trkpt lat="42.7605" lon="0.19889">
        <ele>1844.2</ele>
        <time>2017-02-23T08:34:56Z</time>
      </trkpt>
      <trkpt lat="42.7605" lon="0.1989">
        <ele>1842.8</ele>
        <time>2017-02-23T08:35:01Z</time>
      </trkpt>
      <trkpt lat="42.76051" lon="0.19892">
        <ele>1844.2</ele>
        <time>2017-02-23T08:35:06Z</time>
      </trkpt>
      <trkpt lat="42.76052" lon="0.19892">
        <ele>1843.2</ele>
        <time>2017-02-23T08:35:11Z</time>
      </trkpt>
      <trkpt lat="42.76052" lon="0.19893">
        <ele>1842.2</ele>
        <time>2017-02-23T08:35:16Z</time>
      </trkpt>
      <trkpt lat="42.76054" lon="0.19896">
        <ele>1842.6</ele>
        <time>2017-02-23T08:35:21Z</time>
      </trkpt>
      <trkpt lat="42.76058" lon="0.19896">
        <ele>1837.8</ele>
        <time>2017-02-23T08:35:26Z</time>
      </trkpt>
      <trkpt lat="42.76059" lon="0.19896">
        <ele>1836.6</ele>
        <time>2017-02-23T08:35:31Z</time>
      </trkpt>
      <trkpt lat="42.76059" lon="0.19895">
        <ele>1837.6</ele>
        <time>2017-02-23T08:35:36Z</time>
      </trkpt>
      <trkpt lat="42.76059" lon="0.19895">
        <ele>1838.4</ele>
        <time>2017-02-23T08:35:41Z</time>
      </trkpt>
      <trkpt lat="42.76059" lon="0.19895">
        <ele>1839.2</ele>
        <time>2017-02-23T08:35:46Z</time>
      </trkpt>
      <trkpt lat="42.76059" lon="0.19895">
        <ele>1839.8</ele>
        <time>2017-02-23T08:35:51Z</time>
      </trkpt>
      <trkpt lat="42.76059" lon="0.19895">
        <ele>1840.2</ele>
        <time>2017-02-23T08:35:56Z</time>
      </trkpt>
      <trkpt lat="42.76059" lon="0.19895">
        <ele>1840.6</ele>
        <time>2017-02-23T08:36:01Z</time>
      </trkpt>
      <trkpt lat="42.76059" lon="0.19895">
        <ele>1840.8</ele>
        <time>2017-02-23T08:36:06Z</time>
      </trkpt>
      <trkpt lat="42.76059" lon="0.19895">
        <ele>1841</ele>
        <time>2017-02-23T08:36:11Z</time>
      </trkpt>
      <trkpt lat="42.76059" lon="0.19895">
        <ele>1841.2</ele>
        <time>2017-02-23T08:36:16Z</time>
      </trkpt>
      <trkpt lat="42.76059" lon="0.19895">
        <ele>1841.2</ele>
        <time>2017-02-23T08:36:21Z</time>
      </trkpt>
      <trkpt lat="42.76059" lon="0.19895">
        <ele>1841.2</ele>
        <time>2017-02-23T08:36:26Z</time>
      </trkpt>
      <trkpt lat="42.76059" lon="0.19895">
        <ele>1841.4</ele>
        <time>2017-02-23T08:36:31Z</time>
      </trkpt>
      <trkpt lat="42.76059" lon="0.19895">
        <ele>1841.4</ele>
        <time>2017-02-23T08:36:36Z</time>
      </trkpt>
      <trkpt lat="42.76059" lon="0.19895">
        <ele>1841.4</ele>
        <time>2017-02-23T08:36:41Z</time>
      </trkpt>
      <trkpt lat="42.76059" lon="0.19895">
        <ele>1841.4</ele>
        <time>2017-02-23T08:36:46Z</time>
      </trkpt>
      <trkpt lat="42.76059" lon="0.19895">
        <ele>1841.6</ele>
        <time>2017-02-23T08:36:51Z</time>
      </trkpt>
      <trkpt lat="42.76059" lon="0.19895">
        <ele>1841.6</ele>
        <time>2017-02-23T08:36:56Z</time>
      </trkpt>
      <trkpt lat="42.76059" lon="0.19895">
        <ele>1841.6</ele>
        <time>2017-02-23T08:37:01Z</time>
      </trkpt>
      <trkpt lat="42.76059" lon="0.19895">
        <ele>1841.6</ele>
        <time>2017-02-23T08:37:06Z</time>
      </trkpt>
      <trkpt lat="42.76059" lon="0.19895">
        <ele>1841.8</ele>
        <time>2017-02-23T08:37:11Z</time>
      </trkpt>
      <trkpt lat="42.76059" lon="0.19895">
        <ele>1841.8</ele>
        <time>2017-02-23T08:37:16Z</time>
      </trkpt>
      <trkpt lat="42.76058" lon="0.19894">
        <ele>1840.4</ele>
        <time>2017-02-23T08:37:21Z</time>
      </trkpt>
      <trkpt lat="42.76055" lon="0.19894">
        <ele>1841</ele>
        <time>2017-02-23T08:37:26Z</time>
      </trkpt>
      <trkpt lat="42.76054" lon="0.19895">
        <ele>1840.4</ele>
        <time>2017-02-23T08:37:31Z</time>
      </trkpt>
      <trkpt lat="42.76054" lon="0.19894">
        <ele>1841</ele>
        <time>2017-02-23T08:37:36Z</time>
      </trkpt>
      <trkpt lat="42.76054" lon="0.19894">
        <ele>1842</ele>
        <time>2017-02-23T08:37:41Z</time>
      </trkpt>
      <trkpt lat="42.76052" lon="0.19893">
        <ele>1842.6</ele>
        <time>2017-02-23T08:37:46Z</time>
      </trkpt>
      <trkpt lat="42.7605" lon="0.19894">
        <ele>1845.8</ele>
        <time>2017-02-23T08:37:51Z</time>
      </trkpt>
      <trkpt lat="42.76051" lon="0.19897">
        <ele>1841.2</ele>
        <time>2017-02-23T08:37:56Z</time>
      </trkpt>
      <trkpt lat="42.76053" lon="0.19899">
        <ele>1847</ele>
        <time>2017-02-23T08:38:01Z</time>
      </trkpt>
      <trkpt lat="42.76052" lon="0.19901">
        <ele>1846.8</ele>
        <time>2017-02-23T08:38:06Z</time>
      </trkpt>
      <trkpt lat="42.76053" lon="0.19903">
        <ele>1847.6</ele>
        <time>2017-02-23T08:38:11Z</time>
      </trkpt>
      <trkpt lat="42.76054" lon="0.19905">
        <ele>1847.2</ele>
        <time>2017-02-23T08:38:16Z</time>
      </trkpt>
      <trkpt lat="42.76056" lon="0.19907">
        <ele>1847</ele>
        <time>2017-02-23T08:38:21Z</time>
      </trkpt>
      <trkpt lat="42.76058" lon="0.19909">
        <ele>1848.6</ele>
        <time>2017-02-23T08:38:26Z</time>
      </trkpt>
      <trkpt lat="42.7606" lon="0.19912">
        <ele>1849.8</ele>
        <time>2017-02-23T08:38:31Z</time>
      </trkpt>
      <trkpt lat="42.76061" lon="0.19913">
        <ele>1850</ele>
        <time>2017-02-23T08:38:36Z</time>
      </trkpt>
      <trkpt lat="42.76062" lon="0.19914">
        <ele>1850.4</ele>
        <time>2017-02-23T08:38:41Z</time>
      </trkpt>
      <trkpt lat="42.76063" lon="0.19916">
        <ele>1852</ele>
        <time>2017-02-23T08:38:46Z</time>
      </trkpt>
      <trkpt lat="42.76065" lon="0.19918">
        <ele>1853.4</ele>
        <time>2017-02-23T08:38:51Z</time>
      </trkpt>
      <trkpt lat="42.76067" lon="0.19921">
        <ele>1854</ele>
        <time>2017-02-23T08:38:56Z</time>
      </trkpt>
      <trkpt lat="42.7607" lon="0.19923">
        <ele>1852.6</ele>
        <time>2017-02-23T08:39:01Z</time>
      </trkpt>
      <trkpt lat="42.76071" lon="0.19925">
        <ele>1857.4</ele>
        <time>2017-02-23T08:39:06Z</time>
      </trkpt>
      <trkpt lat="42.76073" lon="0.19928">
        <ele>1859</ele>
        <time>2017-02-23T08:39:11Z</time>
      </trkpt>
      <trkpt lat="42.76075" lon="0.19929">
        <ele>1859.8</ele>
        <time>2017-02-23T08:39:16Z</time>
      </trkpt>
      <trkpt lat="42.76077" lon="0.19931">
        <ele>1859.8</ele>
        <time>2017-02-23T08:39:21Z</time>
      </trkpt>
      <trkpt lat="42.76078" lon="0.19934">
        <ele>1859.2</ele>
        <time>2017-02-23T08:39:26Z</time>
      </trkpt>
      <trkpt lat="42.7608" lon="0.19936">
        <ele>1859.8</ele>
        <time>2017-02-23T08:39:31Z</time>
      </trkpt>
      <trkpt lat="42.7608" lon="0.19938">
        <ele>1858.8</ele>
        <time>2017-02-23T08:39:36Z</time>
      </trkpt>
      <trkpt lat="42.76082" lon="0.19941">
        <ele>1861.4</ele>
        <time>2017-02-23T08:39:41Z</time>
      </trkpt>
      <trkpt lat="42.76082" lon="0.19943">
        <ele>1861.6</ele>
        <time>2017-02-23T08:39:47Z</time>
      </trkpt>
      <trkpt lat="42.76083" lon="0.19945">
        <ele>1862</ele>
        <time>2017-02-23T08:39:52Z</time>
      </trkpt>
      <trkpt lat="42.76085" lon="0.19948">
        <ele>1864.8</ele>
        <time>2017-02-23T08:39:57Z</time>
      </trkpt>
      <trkpt lat="42.76086" lon="0.1995">
        <ele>1863.6</ele>
        <time>2017-02-23T08:40:02Z</time>
      </trkpt>
      <trkpt lat="42.76087" lon="0.19952">
        <ele>1868.4</ele>
        <time>2017-02-23T08:40:07Z</time>
      </trkpt>
      <trkpt lat="42.76089" lon="0.19954">
        <ele>1869.2</ele>
        <time>2017-02-23T08:40:12Z</time>
      </trkpt>
      <trkpt lat="42.76091" lon="0.19956">
        <ele>1869.8</ele>
        <time>2017-02-23T08:40:17Z</time>
      </trkpt>
      <trkpt lat="42.76092" lon="0.19959">
        <ele>1869.2</ele>
        <time>2017-02-23T08:40:22Z</time>
      </trkpt>
      <trkpt lat="42.76092" lon="0.1996">
        <ele>1869.2</ele>
        <time>2017-02-23T08:40:27Z</time>
      </trkpt>
      <trkpt lat="42.76092" lon="0.19962">
        <ele>1869</ele>
        <time>2017-02-23T08:40:32Z</time>
      </trkpt>
      <trkpt lat="42.76094" lon="0.19966">
        <ele>1868.4</ele>
        <time>2017-02-23T08:40:37Z</time>
      </trkpt>
      <trkpt lat="42.76096" lon="0.19969">
        <ele>1867.4</ele>
        <time>2017-02-23T08:40:42Z</time>
      </trkpt>
      <trkpt lat="42.76098" lon="0.19971">
        <ele>1870.6</ele>
        <time>2017-02-23T08:40:47Z</time>
      </trkpt>
      <trkpt lat="42.761" lon="0.19974">
        <ele>1870.8</ele>
        <time>2017-02-23T08:40:52Z</time>
      </trkpt>
      <trkpt lat="42.76101" lon="0.19975">
        <ele>1870.6</ele>
        <time>2017-02-23T08:40:57Z</time>
      </trkpt>
      <trkpt lat="42.76104" lon="0.19977">
        <ele>1874.8</ele>
        <time>2017-02-23T08:41:02Z</time>
      </trkpt>
      <trkpt lat="42.76106" lon="0.19979">
        <ele>1872</ele>
        <time>2017-02-23T08:41:07Z</time>
      </trkpt>
      <trkpt lat="42.76107" lon="0.19981">
        <ele>1874.6</ele>
        <time>2017-02-23T08:41:12Z</time>
      </trkpt>
      <trkpt lat="42.76109" lon="0.19985">
        <ele>1872.4</ele>
        <time>2017-02-23T08:41:17Z</time>
      </trkpt>
      <trkpt lat="42.76111" lon="0.19987">
        <ele>1875.2</ele>
        <time>2017-02-23T08:41:22Z</time>
      </trkpt>
      <trkpt lat="42.76113" lon="0.19988">
        <ele>1875.4</ele>
        <time>2017-02-23T08:41:27Z</time>
      </trkpt>
      <trkpt lat="42.76113" lon="0.19989">
        <ele>1875.2</ele>
        <time>2017-02-23T08:41:32Z</time>
      </trkpt>
      <trkpt lat="42.76113" lon="0.19991">
        <ele>1875</ele>
        <time>2017-02-23T08:41:37Z</time>
      </trkpt>
      <trkpt lat="42.76113" lon="0.19992">
        <ele>1875</ele>
        <time>2017-02-23T08:41:42Z</time>
      </trkpt>
      <trkpt lat="42.76111" lon="0.19991">
        <ele>1873.8</ele>
        <time>2017-02-23T08:41:47Z</time>
      </trkpt>
      <trkpt lat="42.7611" lon="0.19991">
        <ele>1871.6</ele>
        <time>2017-02-23T08:41:52Z</time>
      </trkpt>
      <trkpt lat="42.76111" lon="0.19994">
        <ele>1877.6</ele>
        <time>2017-02-23T08:41:57Z</time>
      </trkpt>
      <trkpt lat="42.7611" lon="0.19996">
        <ele>1877.2</ele>
        <time>2017-02-23T08:42:02Z</time>
      </trkpt>
      <trkpt lat="42.76108" lon="0.19997">
        <ele>1876.2</ele>
        <time>2017-02-23T08:42:07Z</time>
      </trkpt>
      <trkpt lat="42.76107" lon="0.19997">
        <ele>1874.2</ele>
        <time>2017-02-23T08:42:12Z</time>
      </trkpt>
      <trkpt lat="42.76107" lon="0.19997">
        <ele>1875</ele>
        <time>2017-02-23T08:42:17Z</time>
      </trkpt>
      <trkpt lat="42.76106" lon="0.19997">
        <ele>1875.6</ele>
        <time>2017-02-23T08:42:22Z</time>
      </trkpt>
      <trkpt lat="42.76105" lon="0.19997">
        <ele>1877.4</ele>
        <time>2017-02-23T08:42:27Z</time>
      </trkpt>
      <trkpt lat="42.76105" lon="0.19999">
        <ele>1876.8</ele>
        <time>2017-02-23T08:42:32Z</time>
      </trkpt>
      <trkpt lat="42.76106" lon="0.20003">
        <ele>1878.4</ele>
        <time>2017-02-23T08:42:37Z</time>
      </trkpt>
      <trkpt lat="42.76107" lon="0.20006">
        <ele>1875.6</ele>
        <time>2017-02-23T08:42:42Z</time>
      </trkpt>
      <trkpt lat="42.76109" lon="0.20009">
        <ele>1880</ele>
        <time>2017-02-23T08:42:47Z</time>
      </trkpt>
      <trkpt lat="42.76109" lon="0.20013">
        <ele>1877.4</ele>
        <time>2017-02-23T08:42:52Z</time>
      </trkpt>
      <trkpt lat="42.7611" lon="0.20017">
        <ele>1879.8</ele>
        <time>2017-02-23T08:42:57Z</time>
      </trkpt>
      <trkpt lat="42.76109" lon="0.20019">
        <ele>1882</ele>
        <time>2017-02-23T08:43:02Z</time>
      </trkpt>
      <trkpt lat="42.7611" lon="0.20022">
        <ele>1883.2</ele>
        <time>2017-02-23T08:43:07Z</time>
      </trkpt>
      <trkpt lat="42.7611" lon="0.20025">
        <ele>1884.6</ele>
        <time>2017-02-23T08:43:12Z</time>
      </trkpt>
      <trkpt lat="42.7611" lon="0.20027">
        <ele>1882.8</ele>
        <time>2017-02-23T08:43:17Z</time>
      </trkpt>
      <trkpt lat="42.76111" lon="0.2003">
        <ele>1882</ele>
        <time>2017-02-23T08:43:22Z</time>
      </trkpt>
      <trkpt lat="42.76112" lon="0.20033">
        <ele>1884</ele>
        <time>2017-02-23T08:43:27Z</time>
      </trkpt>
      <trkpt lat="42.76112" lon="0.20036">
        <ele>1883.8</ele>
        <time>2017-02-23T08:43:32Z</time>
      </trkpt>
      <trkpt lat="42.76111" lon="0.20035">
        <ele>1887</ele>
        <time>2017-02-23T08:43:37Z</time>
      </trkpt>
      <trkpt lat="42.76108" lon="0.20034">
        <ele>1884.8</ele>
        <time>2017-02-23T08:43:42Z</time>
      </trkpt>
      <trkpt lat="42.76106" lon="0.20034">
        <ele>1883</ele>
        <time>2017-02-23T08:43:47Z</time>
      </trkpt>
      <trkpt lat="42.76105" lon="0.20032">
        <ele>1889</ele>
        <time>2017-02-23T08:43:52Z</time>
      </trkpt>
      <trkpt lat="42.76104" lon="0.20032">
        <ele>1888.4</ele>
        <time>2017-02-23T08:43:57Z</time>
      </trkpt>
      <trkpt lat="42.76104" lon="0.20032">
        <ele>1888</ele>
        <time>2017-02-23T08:44:02Z</time>
      </trkpt>
      <trkpt lat="42.76104" lon="0.20032">
        <ele>1887.8</ele>
        <time>2017-02-23T08:44:07Z</time>
      </trkpt>
      <trkpt lat="42.76104" lon="0.20032">
        <ele>1888.2</ele>
        <time>2017-02-23T08:44:12Z</time>
      </trkpt>
      <trkpt lat="42.76104" lon="0.20032">
        <ele>1887.8</ele>
        <time>2017-02-23T08:44:17Z</time>
      </trkpt>
      <trkpt lat="42.76103" lon="0.20033">
        <ele>1887</ele>
        <time>2017-02-23T08:44:22Z</time>
      </trkpt>
      <trkpt lat="42.76102" lon="0.20033">
        <ele>1886.6</ele>
        <time>2017-02-23T08:44:27Z</time>
      </trkpt>
      <trkpt lat="42.76099" lon="0.20033">
        <ele>1885.2</ele>
        <time>2017-02-23T08:44:32Z</time>
      </trkpt>
      <trkpt lat="42.76096" lon="0.20033">
        <ele>1890</ele>
        <time>2017-02-23T08:44:37Z</time>
      </trkpt>
      <trkpt lat="42.76096" lon="0.20032">
        <ele>1889.2</ele>
        <time>2017-02-23T08:44:42Z</time>
      </trkpt>
      <trkpt lat="42.76096" lon="0.20032">
        <ele>1888.6</ele>
        <time>2017-02-23T08:44:47Z</time>
      </trkpt>
      <trkpt lat="42.76096" lon="0.20031">
        <ele>1888</ele>
        <time>2017-02-23T08:44:52Z</time>
      </trkpt>
      <trkpt lat="42.76096" lon="0.2003">
        <ele>1886.8</ele>
        <time>2017-02-23T08:44:57Z</time>
      </trkpt>
      <trkpt lat="42.76096" lon="0.20032">
        <ele>1890.6</ele>
        <time>2017-02-23T08:45:02Z</time>
      </trkpt>
      <trkpt lat="42.76096" lon="0.20035">
        <ele>1889.8</ele>
        <time>2017-02-23T08:45:07Z</time>
      </trkpt>
      <trkpt lat="42.76097" lon="0.20038">
        <ele>1888.8</ele>
        <time>2017-02-23T08:45:12Z</time>
      </trkpt>
      <trkpt lat="42.76099" lon="0.20042">
        <ele>1887.8</ele>
        <time>2017-02-23T08:45:17Z</time>
      </trkpt>
      <trkpt lat="42.761" lon="0.20046">
        <ele>1888.4</ele>
        <time>2017-02-23T08:45:22Z</time>
      </trkpt>
      <trkpt lat="42.761" lon="0.20049">
        <ele>1891.2</ele>
        <time>2017-02-23T08:45:27Z</time>
      </trkpt>
      <trkpt lat="42.761" lon="0.20053">
        <ele>1887.8</ele>
        <time>2017-02-23T08:45:32Z</time>
      </trkpt>
      <trkpt lat="42.76099" lon="0.20057">
        <ele>1885.6</ele>
        <time>2017-02-23T08:45:37Z</time>
      </trkpt>
      <trkpt lat="42.76098" lon="0.2006">
        <ele>1889.2</ele>
        <time>2017-02-23T08:45:42Z</time>
      </trkpt>
      <trkpt lat="42.76095" lon="0.20066">
        <ele>1894</ele>
        <time>2017-02-23T08:45:47Z</time>
      </trkpt>
      <trkpt lat="42.76093" lon="0.2007">
        <ele>1895.2</ele>
        <time>2017-02-23T08:45:52Z</time>
      </trkpt>
      <trkpt lat="42.76093" lon="0.20071">
        <ele>1897.6</ele>
        <time>2017-02-23T08:45:57Z</time>
      </trkpt>
      <trkpt lat="42.76093" lon="0.20071">
        <ele>1899.8</ele>
        <time>2017-02-23T08:46:02Z</time>
      </trkpt>
      <trkpt lat="42.76093" lon="0.20071">
        <ele>1901.6</ele>
        <time>2017-02-23T08:46:07Z</time>
      </trkpt>
      <trkpt lat="42.76093" lon="0.20071">
        <ele>1903.2</ele>
        <time>2017-02-23T08:46:12Z</time>
      </trkpt>
      <trkpt lat="42.76091" lon="0.20069">
        <ele>1907.8</ele>
        <time>2017-02-23T08:46:17Z</time>
      </trkpt>
      <trkpt lat="42.7609" lon="0.20067">
        <ele>1906</ele>
        <time>2017-02-23T08:46:22Z</time>
      </trkpt>
      <trkpt lat="42.7609" lon="0.20065">
        <ele>1906</ele>
        <time>2017-02-23T08:46:27Z</time>
      </trkpt>
      <trkpt lat="42.76089" lon="0.20065">
        <ele>1906</ele>
        <time>2017-02-23T08:46:32Z</time>
      </trkpt>
      <trkpt lat="42.76089" lon="0.20064">
        <ele>1906</ele>
        <time>2017-02-23T08:46:37Z</time>
      </trkpt>
      <trkpt lat="42.76089" lon="0.20064">
        <ele>1905.8</ele>
        <time>2017-02-23T08:46:42Z</time>
      </trkpt>
      <trkpt lat="42.76089" lon="0.20064">
        <ele>1905.8</ele>
        <time>2017-02-23T08:46:47Z</time>
      </trkpt>
      <trkpt lat="42.76089" lon="0.20064">
        <ele>1905.8</ele>
        <time>2017-02-23T08:46:52Z</time>
      </trkpt>
      <trkpt lat="42.76089" lon="0.20064">
        <ele>1905.6</ele>
        <time>2017-02-23T08:46:57Z</time>
      </trkpt>
      <trkpt lat="42.7609" lon="0.20064">
        <ele>1905.6</ele>
        <time>2017-02-23T08:47:02Z</time>
      </trkpt>
      <trkpt lat="42.7609" lon="0.20063">
        <ele>1905.6</ele>
        <time>2017-02-23T08:47:07Z</time>
      </trkpt>
      <trkpt lat="42.76089" lon="0.20062">
        <ele>1908</ele>
        <time>2017-02-23T08:47:12Z</time>
      </trkpt>
      <trkpt lat="42.76089" lon="0.20064">
        <ele>1908.4</ele>
        <time>2017-02-23T08:47:17Z</time>
      </trkpt>
      <trkpt lat="42.7609" lon="0.20067">
        <ele>1906.8</ele>
        <time>2017-02-23T08:47:23Z</time>
      </trkpt>
      <trkpt lat="42.7609" lon="0.20071">
        <ele>1906.8</ele>
        <time>2017-02-23T08:47:28Z</time>
      </trkpt>
      <trkpt lat="42.7609" lon="0.20073">
        <ele>1906.2</ele>
        <time>2017-02-23T08:47:33Z</time>
      </trkpt>
      <trkpt lat="42.7609" lon="0.20075">
        <ele>1905.8</ele>
        <time>2017-02-23T08:47:38Z</time>
      </trkpt>
      <trkpt lat="42.7609" lon="0.20075">
        <ele>1905</ele>
        <time>2017-02-23T08:47:43Z</time>
      </trkpt>
      <trkpt lat="42.7609" lon="0.20077">
        <ele>1903.8</ele>
        <time>2017-02-23T08:47:48Z</time>
      </trkpt>
      <trkpt lat="42.7609" lon="0.20078">
        <ele>1903.2</ele>
        <time>2017-02-23T08:47:53Z</time>
      </trkpt>
      <trkpt lat="42.7609" lon="0.20079">
        <ele>1904</ele>
        <time>2017-02-23T08:47:58Z</time>
      </trkpt>
      <trkpt lat="42.76091" lon="0.20081">
        <ele>1904.2</ele>
        <time>2017-02-23T08:48:03Z</time>
      </trkpt>
      <trkpt lat="42.76092" lon="0.20083">
        <ele>1906.2</ele>
        <time>2017-02-23T08:48:08Z</time>
      </trkpt>
      <trkpt lat="42.76093" lon="0.20084">
        <ele>1905.2</ele>
        <time>2017-02-23T08:48:13Z</time>
      </trkpt>
      <trkpt lat="42.76093" lon="0.20088">
        <ele>1905.6</ele>
        <time>2017-02-23T08:48:18Z</time>
      </trkpt>
      <trkpt lat="42.76093" lon="0.20093">
        <ele>1905.6</ele>
        <time>2017-02-23T08:48:23Z</time>
      </trkpt>
      <trkpt lat="42.76093" lon="0.20096">
        <ele>1902.4</ele>
        <time>2017-02-23T08:48:28Z</time>
      </trkpt>
      <trkpt lat="42.76093" lon="0.20097">
        <ele>1903.8</ele>
        <time>2017-02-23T08:48:33Z</time>
      </trkpt>
      <trkpt lat="42.76093" lon="0.20099">
        <ele>1903.4</ele>
        <time>2017-02-23T08:48:38Z</time>
      </trkpt>
      <trkpt lat="42.76093" lon="0.20099">
        <ele>1901.8</ele>
        <time>2017-02-23T08:48:43Z</time>
      </trkpt>
      <trkpt lat="42.76093" lon="0.20101">
        <ele>1902</ele>
        <time>2017-02-23T08:48:48Z</time>
      </trkpt>
      <trkpt lat="42.76094" lon="0.20101">
        <ele>1899</ele>
        <time>2017-02-23T08:48:53Z</time>
      </trkpt>
      <trkpt lat="42.76095" lon="0.20103">
        <ele>1900.8</ele>
        <time>2017-02-23T08:48:58Z</time>
      </trkpt>
      <trkpt lat="42.76097" lon="0.20104">
        <ele>1898</ele>
        <time>2017-02-23T08:49:03Z</time>
      </trkpt>
      <trkpt lat="42.76096" lon="0.20104">
        <ele>1898.2</ele>
        <time>2017-02-23T08:49:08Z</time>
      </trkpt>
      <trkpt lat="42.76097" lon="0.20104">
        <ele>1898.4</ele>
        <time>2017-02-23T08:49:13Z</time>
      </trkpt>
      <trkpt lat="42.76096" lon="0.20102">
        <ele>1898.8</ele>
        <time>2017-02-23T08:49:18Z</time>
      </trkpt>
      <trkpt lat="42.76096" lon="0.20101">
        <ele>1898.6</ele>
        <time>2017-02-23T08:49:23Z</time>
      </trkpt>
      <trkpt lat="42.76094" lon="0.20102">
        <ele>1901.4</ele>
        <time>2017-02-23T08:49:28Z</time>
      </trkpt>
      <trkpt lat="42.76092" lon="0.20102">
        <ele>1903.4</ele>
        <time>2017-02-23T08:49:33Z</time>
      </trkpt>
      <trkpt lat="42.76092" lon="0.20102">
        <ele>1900.6</ele>
        <time>2017-02-23T08:49:38Z</time>
      </trkpt>
      <trkpt lat="42.76092" lon="0.20102">
        <ele>1902.2</ele>
        <time>2017-02-23T08:49:43Z</time>
      </trkpt>
      <trkpt lat="42.76091" lon="0.20102">
        <ele>1902.6</ele>
        <time>2017-02-23T08:49:48Z</time>
      </trkpt>
      <trkpt lat="42.76089" lon="0.20102">
        <ele>1905.2</ele>
        <time>2017-02-23T08:49:53Z</time>
      </trkpt>
      <trkpt lat="42.76088" lon="0.20102">
        <ele>1905.8</ele>
        <time>2017-02-23T08:49:58Z</time>
      </trkpt>
      <trkpt lat="42.76088" lon="0.20102">
        <ele>1905.8</ele>
        <time>2017-02-23T08:50:03Z</time>
      </trkpt>
      <trkpt lat="42.76089" lon="0.20102">
        <ele>1905.8</ele>
        <time>2017-02-23T08:50:08Z</time>
      </trkpt>
      <trkpt lat="42.76088" lon="0.20103">
        <ele>1905.4</ele>
        <time>2017-02-23T08:50:13Z</time>
      </trkpt>
      <trkpt lat="42.7609" lon="0.20105">
        <ele>1904.2</ele>
        <time>2017-02-23T08:50:18Z</time>
      </trkpt>
      <trkpt lat="42.76091" lon="0.20107">
        <ele>1907.8</ele>
        <time>2017-02-23T08:50:23Z</time>
      </trkpt>
      <trkpt lat="42.76091" lon="0.20107">
        <ele>1907.2</ele>
        <time>2017-02-23T08:50:28Z</time>
      </trkpt>
      <trkpt lat="42.76091" lon="0.20107">
        <ele>1906.8</ele>
        <time>2017-02-23T08:50:33Z</time>
      </trkpt>
      <trkpt lat="42.76091" lon="0.20107">
        <ele>1906.6</ele>
        <time>2017-02-23T08:50:38Z</time>
      </trkpt>
      <trkpt lat="42.76091" lon="0.20107">
        <ele>1906.6</ele>
        <time>2017-02-23T08:50:43Z</time>
      </trkpt>
      <trkpt lat="42.76091" lon="0.20107">
        <ele>1906.6</ele>
        <time>2017-02-23T08:50:48Z</time>
      </trkpt>
      <trkpt lat="42.76091" lon="0.20108">
        <ele>1906.8</ele>
        <time>2017-02-23T08:50:53Z</time>
      </trkpt>
      <trkpt lat="42.7609" lon="0.20109">
        <ele>1905.2</ele>
        <time>2017-02-23T08:50:58Z</time>
      </trkpt>
      <trkpt lat="42.76088" lon="0.20109">
        <ele>1904.6</ele>
        <time>2017-02-23T08:51:03Z</time>
      </trkpt>
      <trkpt lat="42.76086" lon="0.2011">
        <ele>1907.8</ele>
        <time>2017-02-23T08:51:08Z</time>
      </trkpt>
      <trkpt lat="42.76085" lon="0.2011">
        <ele>1906.8</ele>
        <time>2017-02-23T08:51:13Z</time>
      </trkpt>
      <trkpt lat="42.76083" lon="0.2011">
        <ele>1905</ele>
        <time>2017-02-23T08:51:18Z</time>
      </trkpt>
      <trkpt lat="42.76083" lon="0.2011">
        <ele>1905</ele>
        <time>2017-02-23T08:51:23Z</time>
      </trkpt>
      <trkpt lat="42.76083" lon="0.2011">
        <ele>1904.8</ele>
        <time>2017-02-23T08:51:28Z</time>
      </trkpt>
      <trkpt lat="42.76082" lon="0.2011">
        <ele>1904.6</ele>
        <time>2017-02-23T08:51:33Z</time>
      </trkpt>
      <trkpt lat="42.76083" lon="0.20112">
        <ele>1907</ele>
        <time>2017-02-23T08:51:38Z</time>
      </trkpt>
      <trkpt lat="42.76085" lon="0.20113">
        <ele>1906.6</ele>
        <time>2017-02-23T08:51:43Z</time>
      </trkpt>
      <trkpt lat="42.76087" lon="0.20114">
        <ele>1907.6</ele>
        <time>2017-02-23T08:51:48Z</time>
      </trkpt>
      <trkpt lat="42.76089" lon="0.20115">
        <ele>1907.8</ele>
        <time>2017-02-23T08:51:53Z</time>
      </trkpt>
      <trkpt lat="42.7609" lon="0.20116">
        <ele>1905</ele>
        <time>2017-02-23T08:51:58Z</time>
      </trkpt>
      <trkpt lat="42.76092" lon="0.20116">
        <ele>1904.6</ele>
        <time>2017-02-23T08:52:03Z</time>
      </trkpt>
      <trkpt lat="42.76093" lon="0.20116">
        <ele>1904.6</ele>
        <time>2017-02-23T08:52:08Z</time>
      </trkpt>
      <trkpt lat="42.76094" lon="0.20117">
        <ele>1904.4</ele>
        <time>2017-02-23T08:52:13Z</time>
      </trkpt>
      <trkpt lat="42.76094" lon="0.20117">
        <ele>1904.8</ele>
        <time>2017-02-23T08:52:18Z</time>
      </trkpt>
      <trkpt lat="42.76096" lon="0.20117">
        <ele>1905</ele>
        <time>2017-02-23T08:52:23Z</time>
      </trkpt>
      <trkpt lat="42.76098" lon="0.20117">
        <ele>1907.6</ele>
        <time>2017-02-23T08:52:28Z</time>
      </trkpt>
      <trkpt lat="42.76099" lon="0.20117">
        <ele>1907.8</ele>
        <time>2017-02-23T08:52:33Z</time>
      </trkpt>
      <trkpt lat="42.761" lon="0.20117">
        <ele>1910.4</ele>
        <time>2017-02-23T08:52:38Z</time>
      </trkpt>
      <trkpt lat="42.76101" lon="0.20117">
        <ele>1911.4</ele>
        <time>2017-02-23T08:52:43Z</time>
      </trkpt>
      <trkpt lat="42.76102" lon="0.20117">
        <ele>1912.6</ele>
        <time>2017-02-23T08:52:48Z</time>
      </trkpt>
      <trkpt lat="42.76103" lon="0.20119">
        <ele>1909.2</ele>
        <time>2017-02-23T08:52:53Z</time>
      </trkpt>
      <trkpt lat="42.76104" lon="0.20121">
        <ele>1907.4</ele>
        <time>2017-02-23T08:52:58Z</time>
      </trkpt>
      <trkpt lat="42.76106" lon="0.20123">
        <ele>1910.6</ele>
        <time>2017-02-23T08:53:03Z</time>
      </trkpt>
      <trkpt lat="42.76106" lon="0.20126">
        <ele>1910.6</ele>
        <time>2017-02-23T08:53:08Z</time>
      </trkpt>
      <trkpt lat="42.76108" lon="0.20129">
        <ele>1913</ele>
        <time>2017-02-23T08:53:13Z</time>
      </trkpt>
      <trkpt lat="42.76109" lon="0.20131">
        <ele>1915.6</ele>
        <time>2017-02-23T08:53:18Z</time>
      </trkpt>
      <trkpt lat="42.76109" lon="0.20132">
        <ele>1917</ele>
        <time>2017-02-23T08:53:23Z</time>
      </trkpt>
      <trkpt lat="42.76109" lon="0.20131">
        <ele>1918</ele>
        <time>2017-02-23T08:53:28Z</time>
      </trkpt>
      <trkpt lat="42.76109" lon="0.20131">
        <ele>1918.6</ele>
        <time>2017-02-23T08:53:33Z</time>
      </trkpt>
      <trkpt lat="42.76108" lon="0.20132">
        <ele>1919.2</ele>
        <time>2017-02-23T08:53:38Z</time>
      </trkpt>
      <trkpt lat="42.76108" lon="0.20131">
        <ele>1919.8</ele>
        <time>2017-02-23T08:53:43Z</time>
      </trkpt>
      <trkpt lat="42.76108" lon="0.20132">
        <ele>1920.4</ele>
        <time>2017-02-23T08:53:48Z</time>
      </trkpt>
      <trkpt lat="42.76108" lon="0.20132">
        <ele>1920.6</ele>
        <time>2017-02-23T08:53:53Z</time>
      </trkpt>
      <trkpt lat="42.76108" lon="0.20132">
        <ele>1920.8</ele>
        <time>2017-02-23T08:53:58Z</time>
      </trkpt>
      <trkpt lat="42.76109" lon="0.20133">
        <ele>1921</ele>
        <time>2017-02-23T08:54:03Z</time>
      </trkpt>
      <trkpt lat="42.76109" lon="0.20133">
        <ele>1920.6</ele>
        <time>2017-02-23T08:54:08Z</time>
      </trkpt>
      <trkpt lat="42.76109" lon="0.20134">
        <ele>1920.4</ele>
        <time>2017-02-23T08:54:13Z</time>
      </trkpt>
      <trkpt lat="42.76108" lon="0.20134">
        <ele>1920.2</ele>
        <time>2017-02-23T08:54:18Z</time>
      </trkpt>
      <trkpt lat="42.76108" lon="0.20134">
        <ele>1920.2</ele>
        <time>2017-02-23T08:54:23Z</time>
      </trkpt>
      <trkpt lat="42.76108" lon="0.20135">
        <ele>1920.2</ele>
        <time>2017-02-23T08:54:28Z</time>
      </trkpt>
      <trkpt lat="42.76108" lon="0.20134">
        <ele>1920.4</ele>
        <time>2017-02-23T08:54:33Z</time>
      </trkpt>
      <trkpt lat="42.76108" lon="0.20134">
        <ele>1920.6</ele>
        <time>2017-02-23T08:54:38Z</time>
      </trkpt>
      <trkpt lat="42.76108" lon="0.20134">
        <ele>1920.8</ele>
        <time>2017-02-23T08:54:43Z</time>
      </trkpt>
      <trkpt lat="42.76108" lon="0.20134">
        <ele>1920.8</ele>
        <time>2017-02-23T08:54:48Z</time>
      </trkpt>
      <trkpt lat="42.76109" lon="0.20134">
        <ele>1920.8</ele>
        <time>2017-02-23T08:54:53Z</time>
      </trkpt>
      <trkpt lat="42.76109" lon="0.20135">
        <ele>1921.2</ele>
        <time>2017-02-23T08:54:58Z</time>
      </trkpt>
      <trkpt lat="42.76108" lon="0.20135">
        <ele>1921.4</ele>
        <time>2017-02-23T08:55:03Z</time>
      </trkpt>
      <trkpt lat="42.76108" lon="0.20135">
        <ele>1921.6</ele>
        <time>2017-02-23T08:55:08Z</time>
      </trkpt>
      <trkpt lat="42.7611" lon="0.20133">
        <ele>1923.6</ele>
        <time>2017-02-23T08:55:13Z</time>
      </trkpt>
      <trkpt lat="42.76111" lon="0.20132">
        <ele>1922.2</ele>
        <time>2017-02-23T08:55:18Z</time>
      </trkpt>
      <trkpt lat="42.76112" lon="0.2013">
        <ele>1920.6</ele>
        <time>2017-02-23T08:55:23Z</time>
      </trkpt>
      <trkpt lat="42.76112" lon="0.20129">
        <ele>1919.2</ele>
        <time>2017-02-23T08:55:28Z</time>
      </trkpt>
      <trkpt lat="42.76112" lon="0.20129">
        <ele>1918</ele>
        <time>2017-02-23T08:55:33Z</time>
      </trkpt>
      <trkpt lat="42.76112" lon="0.20128">
        <ele>1917.2</ele>
        <time>2017-02-23T08:55:38Z</time>
      </trkpt>
      <trkpt lat="42.76112" lon="0.20128">
        <ele>1916.8</ele>
        <time>2017-02-23T08:55:44Z</time>
      </trkpt>
      <trkpt lat="42.76112" lon="0.20127">
        <ele>1916.8</ele>
        <time>2017-02-23T08:55:49Z</time>
      </trkpt>
      <trkpt lat="42.76112" lon="0.20127">
        <ele>1916.6</ele>
        <time>2017-02-23T08:55:54Z</time>
      </trkpt>
      <trkpt lat="42.76111" lon="0.20128">
        <ele>1916.8</ele>
        <time>2017-02-23T08:55:59Z</time>
      </trkpt>
      <trkpt lat="42.76111" lon="0.20129">
        <ele>1917.4</ele>
        <time>2017-02-23T08:56:04Z</time>
      </trkpt>
      <trkpt lat="42.76111" lon="0.20129">
        <ele>1918.6</ele>
        <time>2017-02-23T08:56:09Z</time>
      </trkpt>
      <trkpt lat="42.76111" lon="0.20129">
        <ele>1919.4</ele>
        <time>2017-02-23T08:56:14Z</time>
      </trkpt>
      <trkpt lat="42.76111" lon="0.2013">
        <ele>1919.8</ele>
        <time>2017-02-23T08:56:19Z</time>
      </trkpt>
      <trkpt lat="42.76111" lon="0.20129">
        <ele>1920</ele>
        <time>2017-02-23T08:56:24Z</time>
      </trkpt>
      <trkpt lat="42.7611" lon="0.20129">
        <ele>1920</ele>
        <time>2017-02-23T08:56:29Z</time>
      </trkpt>
      <trkpt lat="42.7611" lon="0.20129">
        <ele>1919.8</ele>
        <time>2017-02-23T08:56:34Z</time>
      </trkpt>
      <trkpt lat="42.7611" lon="0.20129">
        <ele>1919.8</ele>
        <time>2017-02-23T08:56:39Z</time>
      </trkpt>
      <trkpt lat="42.7611" lon="0.20129">
        <ele>1919.8</ele>
        <time>2017-02-23T08:56:44Z</time>
      </trkpt>
      <trkpt lat="42.7611" lon="0.20129">
        <ele>1919.8</ele>
        <time>2017-02-23T08:56:49Z</time>
      </trkpt>
      <trkpt lat="42.76111" lon="0.20133">
        <ele>1918.2</ele>
        <time>2017-02-23T08:56:54Z</time>
      </trkpt>
      <trkpt lat="42.76112" lon="0.20135">
        <ele>1917.2</ele>
        <time>2017-02-23T08:56:59Z</time>
      </trkpt>
      <trkpt lat="42.76112" lon="0.20137">
        <ele>1917.4</ele>
        <time>2017-02-23T08:57:04Z</time>
      </trkpt>
      <trkpt lat="42.76113" lon="0.2014">
        <ele>1921.4</ele>
        <time>2017-02-23T08:57:09Z</time>
      </trkpt>
      <trkpt lat="42.76113" lon="0.20143">
        <ele>1920.4</ele>
        <time>2017-02-23T08:57:14Z</time>
      </trkpt>
      <trkpt lat="42.76113" lon="0.20146">
        <ele>1918.6</ele>
        <time>2017-02-23T08:57:19Z</time>
      </trkpt>
      <trkpt lat="42.76114" lon="0.20149">
        <ele>1916.8</ele>
        <time>2017-02-23T08:57:24Z</time>
      </trkpt>
      <trkpt lat="42.76115" lon="0.20153">
        <ele>1918.4</ele>
        <time>2017-02-23T08:57:29Z</time>
      </trkpt>
      <trkpt lat="42.76115" lon="0.20157">
        <ele>1915.8</ele>
        <time>2017-02-23T08:57:34Z</time>
      </trkpt>
      <trkpt lat="42.76116" lon="0.20161">
        <ele>1921</ele>
        <time>2017-02-23T08:57:39Z</time>
      </trkpt>
      <trkpt lat="42.76116" lon="0.20165">
        <ele>1919.6</ele>
        <time>2017-02-23T08:57:44Z</time>
      </trkpt>
      <trkpt lat="42.76116" lon="0.20168">
        <ele>1918.2</ele>
        <time>2017-02-23T08:57:49Z</time>
      </trkpt>
      <trkpt lat="42.76117" lon="0.20171">
        <ele>1920.2</ele>
        <time>2017-02-23T08:57:54Z</time>
      </trkpt>
      <trkpt lat="42.76117" lon="0.20173">
        <ele>1917</ele>
        <time>2017-02-23T08:57:59Z</time>
      </trkpt>
      <trkpt lat="42.76117" lon="0.20176">
        <ele>1915.6</ele>
        <time>2017-02-23T08:58:04Z</time>
      </trkpt>
      <trkpt lat="42.76117" lon="0.20179">
        <ele>1920</ele>
        <time>2017-02-23T08:58:09Z</time>
      </trkpt>
      <trkpt lat="42.76118" lon="0.20183">
        <ele>1920.6</ele>
        <time>2017-02-23T08:58:14Z</time>
      </trkpt>
      <trkpt lat="42.76119" lon="0.20187">
        <ele>1919.6</ele>
        <time>2017-02-23T08:58:19Z</time>
      </trkpt>
      <trkpt lat="42.76119" lon="0.2019">
        <ele>1918.6</ele>
        <time>2017-02-23T08:58:24Z</time>
      </trkpt>
      <trkpt lat="42.7612" lon="0.20194">
        <ele>1921.8</ele>
        <time>2017-02-23T08:58:29Z</time>
      </trkpt>
      <trkpt lat="42.76121" lon="0.20198">
        <ele>1920</ele>
        <time>2017-02-23T08:58:34Z</time>
      </trkpt>
      <trkpt lat="42.76123" lon="0.20201">
        <ele>1922.2</ele>
        <time>2017-02-23T08:58:39Z</time>
      </trkpt>
      <trkpt lat="42.76124" lon="0.20204">
        <ele>1921.6</ele>
        <time>2017-02-23T08:58:44Z</time>
      </trkpt>
      <trkpt lat="42.76125" lon="0.20208">
        <ele>1922.8</ele>
        <time>2017-02-23T08:58:49Z</time>
      </trkpt>
      <trkpt lat="42.76126" lon="0.20212">
        <ele>1924.4</ele>
        <time>2017-02-23T08:58:54Z</time>
      </trkpt>
      <trkpt lat="42.76127" lon="0.20215">
        <ele>1925.6</ele>
        <time>2017-02-23T08:58:59Z</time>
      </trkpt>
      <trkpt lat="42.76128" lon="0.20218">
        <ele>1926.4</ele>
        <time>2017-02-23T08:59:04Z</time>
      </trkpt>
      <trkpt lat="42.76129" lon="0.20221">
        <ele>1930.8</ele>
        <time>2017-02-23T08:59:09Z</time>
      </trkpt>
      <trkpt lat="42.76128" lon="0.20224">
        <ele>1931.2</ele>
        <time>2017-02-23T08:59:14Z</time>
      </trkpt>
      <trkpt lat="42.76126" lon="0.20225">
        <ele>1928.6</ele>
        <time>2017-02-23T08:59:19Z</time>
      </trkpt>
      <trkpt lat="42.76124" lon="0.20226">
        <ele>1929.6</ele>
        <time>2017-02-23T08:59:24Z</time>
      </trkpt>
      <trkpt lat="42.76121" lon="0.20227">
        <ele>1931.4</ele>
        <time>2017-02-23T08:59:29Z</time>
      </trkpt>
      <trkpt lat="42.76119" lon="0.20226">
        <ele>1933.2</ele>
        <time>2017-02-23T08:59:34Z</time>
      </trkpt>
      <trkpt lat="42.76118" lon="0.20226">
        <ele>1932.2</ele>
        <time>2017-02-23T08:59:39Z</time>
      </trkpt>
      <trkpt lat="42.76118" lon="0.20229">
        <ele>1937.8</ele>
        <time>2017-02-23T08:59:44Z</time>
      </trkpt>
      <trkpt lat="42.76118" lon="0.20232">
        <ele>1937.6</ele>
        <time>2017-02-23T08:59:49Z</time>
      </trkpt>
      <trkpt lat="42.76119" lon="0.20235">
        <ele>1934.4</ele>
        <time>2017-02-23T08:59:54Z</time>
      </trkpt>
      <trkpt lat="42.7612" lon="0.20237">
        <ele>1934.8</ele>
        <time>2017-02-23T08:59:59Z</time>
      </trkpt>
      <trkpt lat="42.76121" lon="0.20237">
        <ele>1933.6</ele>
        <time>2017-02-23T09:00:04Z</time>
      </trkpt>
      <trkpt lat="42.76121" lon="0.20237">
        <ele>1936</ele>
        <time>2017-02-23T09:00:09Z</time>
      </trkpt>
      <trkpt lat="42.76119" lon="0.20239">
        <ele>1939.8</ele>
        <time>2017-02-23T09:00:14Z</time>
      </trkpt>
      <trkpt lat="42.76116" lon="0.2024">
        <ele>1940.6</ele>
        <time>2017-02-23T09:00:19Z</time>
      </trkpt>
      <trkpt lat="42.76113" lon="0.20241">
        <ele>1942.4</ele>
        <time>2017-02-23T09:00:24Z</time>
      </trkpt>
      <trkpt lat="42.76111" lon="0.20241">
        <ele>1942.2</ele>
        <time>2017-02-23T09:00:29Z</time>
      </trkpt>
      <trkpt lat="42.76108" lon="0.20242">
        <ele>1943.4</ele>
        <time>2017-02-23T09:00:34Z</time>
      </trkpt>
      <trkpt lat="42.76105" lon="0.20243">
        <ele>1941.4</ele>
        <time>2017-02-23T09:00:39Z</time>
      </trkpt>
      <trkpt lat="42.76103" lon="0.20243">
        <ele>1944</ele>
        <time>2017-02-23T09:00:44Z</time>
      </trkpt>
      <trkpt lat="42.76101" lon="0.20245">
        <ele>1940.8</ele>
        <time>2017-02-23T09:00:49Z</time>
      </trkpt>
      <trkpt lat="42.76102" lon="0.20248">
        <ele>1948</ele>
        <time>2017-02-23T09:00:54Z</time>
      </trkpt>
      <trkpt lat="42.76103" lon="0.20251">
        <ele>1946.2</ele>
        <time>2017-02-23T09:00:59Z</time>
      </trkpt>
      <trkpt lat="42.76105" lon="0.20252">
        <ele>1945.4</ele>
        <time>2017-02-23T09:01:04Z</time>
      </trkpt>
      <trkpt lat="42.76107" lon="0.20254">
        <ele>1946</ele>
        <time>2017-02-23T09:01:09Z</time>
      </trkpt>
      <trkpt lat="42.76108" lon="0.20258">
        <ele>1946.2</ele>
        <time>2017-02-23T09:01:14Z</time>
      </trkpt>
      <trkpt lat="42.76109" lon="0.20261">
        <ele>1948.8</ele>
        <time>2017-02-23T09:01:19Z</time>
      </trkpt>
      <trkpt lat="42.76109" lon="0.20264">
        <ele>1950</ele>
        <time>2017-02-23T09:01:24Z</time>
      </trkpt>
      <trkpt lat="42.76108" lon="0.20266">
        <ele>1950.8</ele>
        <time>2017-02-23T09:01:29Z</time>
      </trkpt>
      <trkpt lat="42.76106" lon="0.20267">
        <ele>1947.2</ele>
        <time>2017-02-23T09:01:34Z</time>
      </trkpt>
      <trkpt lat="42.76103" lon="0.20267">
        <ele>1951.2</ele>
        <time>2017-02-23T09:01:39Z</time>
      </trkpt>
      <trkpt lat="42.76101" lon="0.20267">
        <ele>1950.4</ele>
        <time>2017-02-23T09:01:44Z</time>
      </trkpt>
      <trkpt lat="42.76101" lon="0.20267">
        <ele>1950.4</ele>
        <time>2017-02-23T09:01:49Z</time>
      </trkpt>
      <trkpt lat="42.76101" lon="0.20267">
        <ele>1950.2</ele>
        <time>2017-02-23T09:01:54Z</time>
      </trkpt>
      <trkpt lat="42.76099" lon="0.20267">
        <ele>1951.2</ele>
        <time>2017-02-23T09:01:59Z</time>
      </trkpt>
      <trkpt lat="42.761" lon="0.20271">
        <ele>1951.4</ele>
        <time>2017-02-23T09:02:05Z</time>
      </trkpt>
      <trkpt lat="42.761" lon="0.20275">
        <ele>1952.4</ele>
        <time>2017-02-23T09:02:10Z</time>
      </trkpt>
      <trkpt lat="42.76101" lon="0.20278">
        <ele>1954.4</ele>
        <time>2017-02-23T09:02:15Z</time>
      </trkpt>
      <trkpt lat="42.76102" lon="0.20281">
        <ele>1953.4</ele>
        <time>2017-02-23T09:02:20Z</time>
      </trkpt>
      <trkpt lat="42.76104" lon="0.20283">
        <ele>1953.6</ele>
        <time>2017-02-23T09:02:25Z</time>
      </trkpt>
      <trkpt lat="42.76107" lon="0.20285">
        <ele>1953</ele>
        <time>2017-02-23T09:02:30Z</time>
      </trkpt>
      <trkpt lat="42.76108" lon="0.20286">
        <ele>1956</ele>
        <time>2017-02-23T09:02:35Z</time>
      </trkpt>
      <trkpt lat="42.76108" lon="0.20286">
        <ele>1956.2</ele>
        <time>2017-02-23T09:02:40Z</time>
      </trkpt>
      <trkpt lat="42.76108" lon="0.20286">
        <ele>1956.4</ele>
        <time>2017-02-23T09:02:45Z</time>
      </trkpt>
      <trkpt lat="42.76108" lon="0.20287">
        <ele>1957.2</ele>
        <time>2017-02-23T09:02:50Z</time>
      </trkpt>
      <trkpt lat="42.76106" lon="0.20289">
        <ele>1957.6</ele>
        <time>2017-02-23T09:02:55Z</time>
      </trkpt>
      <trkpt lat="42.76104" lon="0.2029">
        <ele>1962.6</ele>
        <time>2017-02-23T09:03:00Z</time>
      </trkpt>
      <trkpt lat="42.76101" lon="0.20291">
        <ele>1963.4</ele>
        <time>2017-02-23T09:03:05Z</time>
      </trkpt>
      <trkpt lat="42.76098" lon="0.20292">
        <ele>1963.2</ele>
        <time>2017-02-23T09:03:10Z</time>
      </trkpt>
      <trkpt lat="42.76095" lon="0.20292">
        <ele>1962.6</ele>
        <time>2017-02-23T09:03:15Z</time>
      </trkpt>
      <trkpt lat="42.76093" lon="0.20293">
        <ele>1964</ele>
        <time>2017-02-23T09:03:20Z</time>
      </trkpt>
      <trkpt lat="42.7609" lon="0.20293">
        <ele>1968.2</ele>
        <time>2017-02-23T09:03:25Z</time>
      </trkpt>
      <trkpt lat="42.76087" lon="0.20294">
        <ele>1966</ele>
        <time>2017-02-23T09:03:30Z</time>
      </trkpt>
      <trkpt lat="42.76085" lon="0.20294">
        <ele>1968.6</ele>
        <time>2017-02-23T09:03:35Z</time>
      </trkpt>
      <trkpt lat="42.76083" lon="0.20294">
        <ele>1970.2</ele>
        <time>2017-02-23T09:03:40Z</time>
      </trkpt>
      <trkpt lat="42.7608" lon="0.20294">
        <ele>1969.2</ele>
        <time>2017-02-23T09:03:45Z</time>
      </trkpt>
      <trkpt lat="42.76078" lon="0.20293">
        <ele>1968</ele>
        <time>2017-02-23T09:03:50Z</time>
      </trkpt>
      <trkpt lat="42.76075" lon="0.20292">
        <ele>1973.4</ele>
        <time>2017-02-23T09:03:55Z</time>
      </trkpt>
      <trkpt lat="42.76073" lon="0.20291">
        <ele>1971.6</ele>
        <time>2017-02-23T09:04:00Z</time>
      </trkpt>
      <trkpt lat="42.76072" lon="0.20291">
        <ele>1969.8</ele>
        <time>2017-02-23T09:04:05Z</time>
      </trkpt>
      <trkpt lat="42.76072" lon="0.20291">
        <ele>1969.8</ele>
        <time>2017-02-23T09:04:10Z</time>
      </trkpt>
      <trkpt lat="42.76072" lon="0.20291">
        <ele>1970</ele>
        <time>2017-02-23T09:04:15Z</time>
      </trkpt>
      <trkpt lat="42.76072" lon="0.20291">
        <ele>1970</ele>
        <time>2017-02-23T09:04:20Z</time>
      </trkpt>
      <trkpt lat="42.76071" lon="0.20291">
        <ele>1970</ele>
        <time>2017-02-23T09:04:25Z</time>
      </trkpt>
      <trkpt lat="42.7607" lon="0.20291">
        <ele>1970.4</ele>
        <time>2017-02-23T09:04:30Z</time>
      </trkpt>
      <trkpt lat="42.76071" lon="0.20295">
        <ele>1975.8</ele>
        <time>2017-02-23T09:04:35Z</time>
      </trkpt>
      <trkpt lat="42.76072" lon="0.20298">
        <ele>1970.6</ele>
        <time>2017-02-23T09:04:40Z</time>
      </trkpt>
      <trkpt lat="42.76073" lon="0.20302">
        <ele>1972.8</ele>
        <time>2017-02-23T09:04:45Z</time>
      </trkpt>
      <trkpt lat="42.76074" lon="0.20306">
        <ele>1974.2</ele>
        <time>2017-02-23T09:04:50Z</time>
      </trkpt>
      <trkpt lat="42.76075" lon="0.20309">
        <ele>1974.2</ele>
        <time>2017-02-23T09:04:55Z</time>
      </trkpt>
      <trkpt lat="42.76077" lon="0.20312">
        <ele>1973.4</ele>
        <time>2017-02-23T09:05:00Z</time>
      </trkpt>
      <trkpt lat="42.76079" lon="0.20315">
        <ele>1974.6</ele>
        <time>2017-02-23T09:05:05Z</time>
      </trkpt>
      <trkpt lat="42.7608" lon="0.20317">
        <ele>1974</ele>
        <time>2017-02-23T09:05:10Z</time>
      </trkpt>
      <trkpt lat="42.76082" lon="0.20319">
        <ele>1977.2</ele>
        <time>2017-02-23T09:05:15Z</time>
      </trkpt>
      <trkpt lat="42.76083" lon="0.20322">
        <ele>1975.8</ele>
        <time>2017-02-23T09:05:20Z</time>
      </trkpt>
      <trkpt lat="42.76085" lon="0.20324">
        <ele>1973.2</ele>
        <time>2017-02-23T09:05:25Z</time>
      </trkpt>
      <trkpt lat="42.76088" lon="0.20326">
        <ele>1979.4</ele>
        <time>2017-02-23T09:05:30Z</time>
      </trkpt>
      <trkpt lat="42.7609" lon="0.20328">
        <ele>1980.6</ele>
        <time>2017-02-23T09:05:35Z</time>
      </trkpt>
      <trkpt lat="42.76093" lon="0.2033">
        <ele>1981.2</ele>
        <time>2017-02-23T09:05:40Z</time>
      </trkpt>
      <trkpt lat="42.76095" lon="0.20331">
        <ele>1982</ele>
        <time>2017-02-23T09:05:45Z</time>
      </trkpt>
      <trkpt lat="42.76098" lon="0.20332">
        <ele>1981.6</ele>
        <time>2017-02-23T09:05:50Z</time>
      </trkpt>
      <trkpt lat="42.761" lon="0.20334">
        <ele>1981</ele>
        <time>2017-02-23T09:05:55Z</time>
      </trkpt>
      <trkpt lat="42.76101" lon="0.20335">
        <ele>1981.2</ele>
        <time>2017-02-23T09:06:00Z</time>
      </trkpt>
      <trkpt lat="42.761" lon="0.20336">
        <ele>1980.6</ele>
        <time>2017-02-23T09:06:05Z</time>
      </trkpt>
      <trkpt lat="42.76098" lon="0.20337">
        <ele>1982.6</ele>
        <time>2017-02-23T09:06:10Z</time>
      </trkpt>
      <trkpt lat="42.76098" lon="0.20337">
        <ele>1983</ele>
        <time>2017-02-23T09:06:15Z</time>
      </trkpt>
      <trkpt lat="42.76098" lon="0.20337">
        <ele>1983.4</ele>
        <time>2017-02-23T09:06:20Z</time>
      </trkpt>
      <trkpt lat="42.76098" lon="0.20337">
        <ele>1983.4</ele>
        <time>2017-02-23T09:06:25Z</time>
      </trkpt>
      <trkpt lat="42.76097" lon="0.20337">
        <ele>1983.8</ele>
        <time>2017-02-23T09:06:30Z</time>
      </trkpt>
      <trkpt lat="42.76097" lon="0.2034">
        <ele>1985.6</ele>
        <time>2017-02-23T09:06:35Z</time>
      </trkpt>
      <trkpt lat="42.76097" lon="0.2034">
        <ele>1985.2</ele>
        <time>2017-02-23T09:06:40Z</time>
      </trkpt>
      <trkpt lat="42.76097" lon="0.2034">
        <ele>1984.8</ele>
        <time>2017-02-23T09:06:45Z</time>
      </trkpt>
      <trkpt lat="42.76097" lon="0.2034">
        <ele>1984.6</ele>
        <time>2017-02-23T09:06:50Z</time>
      </trkpt>
      <trkpt lat="42.76097" lon="0.2034">
        <ele>1984.4</ele>
        <time>2017-02-23T09:06:55Z</time>
      </trkpt>
      <trkpt lat="42.76096" lon="0.20341">
        <ele>1982.8</ele>
        <time>2017-02-23T09:07:00Z</time>
      </trkpt>
      <trkpt lat="42.76094" lon="0.20343">
        <ele>1985.2</ele>
        <time>2017-02-23T09:07:05Z</time>
      </trkpt>
      <trkpt lat="42.76093" lon="0.20343">
        <ele>1982.8</ele>
        <time>2017-02-23T09:07:10Z</time>
      </trkpt>
      <trkpt lat="42.76093" lon="0.20343">
        <ele>1983.4</ele>
        <time>2017-02-23T09:07:15Z</time>
      </trkpt>
      <trkpt lat="42.76093" lon="0.20343">
        <ele>1983.8</ele>
        <time>2017-02-23T09:07:20Z</time>
      </trkpt>
      <trkpt lat="42.76093" lon="0.20343">
        <ele>1984</ele>
        <time>2017-02-23T09:07:25Z</time>
      </trkpt>
      <trkpt lat="42.76092" lon="0.20344">
        <ele>1982.8</ele>
        <time>2017-02-23T09:07:30Z</time>
      </trkpt>
      <trkpt lat="42.76093" lon="0.20346">
        <ele>1982.6</ele>
        <time>2017-02-23T09:07:35Z</time>
      </trkpt>
      <trkpt lat="42.76094" lon="0.2035">
        <ele>1983.2</ele>
        <time>2017-02-23T09:07:40Z</time>
      </trkpt>
      <trkpt lat="42.76095" lon="0.20354">
        <ele>1986.4</ele>
        <time>2017-02-23T09:07:45Z</time>
      </trkpt>
      <trkpt lat="42.76095" lon="0.20358">
        <ele>1984.4</ele>
        <time>2017-02-23T09:07:50Z</time>
      </trkpt>
      <trkpt lat="42.76096" lon="0.20359">
        <ele>1984.2</ele>
        <time>2017-02-23T09:07:55Z</time>
      </trkpt>
      <trkpt lat="42.76096" lon="0.20359">
        <ele>1985</ele>
        <time>2017-02-23T09:08:00Z</time>
      </trkpt>
      <trkpt lat="42.76096" lon="0.20361">
        <ele>1984.8</ele>
        <time>2017-02-23T09:08:05Z</time>
      </trkpt>
      <trkpt lat="42.76094" lon="0.20361">
        <ele>1981.6</ele>
        <time>2017-02-23T09:08:10Z</time>
      </trkpt>
      <trkpt lat="42.76092" lon="0.20359">
        <ele>1988.4</ele>
        <time>2017-02-23T09:08:15Z</time>
      </trkpt>
      <trkpt lat="42.76089" lon="0.20358">
        <ele>1985.8</ele>
        <time>2017-02-23T09:08:20Z</time>
      </trkpt>
      <trkpt lat="42.76087" lon="0.20357">
        <ele>1993.6</ele>
        <time>2017-02-23T09:08:25Z</time>
      </trkpt>
      <trkpt lat="42.76084" lon="0.20356">
        <ele>1987.2</ele>
        <time>2017-02-23T09:08:30Z</time>
      </trkpt>
      <trkpt lat="42.7608" lon="0.20355">
        <ele>1991.6</ele>
        <time>2017-02-23T09:08:35Z</time>
      </trkpt>
      <trkpt lat="42.76079" lon="0.20354">
        <ele>1992.2</ele>
        <time>2017-02-23T09:08:40Z</time>
      </trkpt>
      <trkpt lat="42.76079" lon="0.20354">
        <ele>1991.8</ele>
        <time>2017-02-23T09:08:45Z</time>
      </trkpt>
      <trkpt lat="42.76079" lon="0.20354">
        <ele>1991.4</ele>
        <time>2017-02-23T09:08:50Z</time>
      </trkpt>
      <trkpt lat="42.76079" lon="0.20356">
        <ele>1995.2</ele>
        <time>2017-02-23T09:08:55Z</time>
      </trkpt>
      <trkpt lat="42.76079" lon="0.2036">
        <ele>1995</ele>
        <time>2017-02-23T09:09:00Z</time>
      </trkpt>
      <trkpt lat="42.7608" lon="0.20363">
        <ele>1993.4</ele>
        <time>2017-02-23T09:09:05Z</time>
      </trkpt>
      <trkpt lat="42.76082" lon="0.20366">
        <ele>1994.4</ele>
        <time>2017-02-23T09:09:10Z</time>
      </trkpt>
      <trkpt lat="42.76084" lon="0.20369">
        <ele>1993.4</ele>
        <time>2017-02-23T09:09:15Z</time>
      </trkpt>
      <trkpt lat="42.76085" lon="0.20372">
        <ele>1996.8</ele>
        <time>2017-02-23T09:09:20Z</time>
      </trkpt>
      <trkpt lat="42.76086" lon="0.20376">
        <ele>1992.6</ele>
        <time>2017-02-23T09:09:25Z</time>
      </trkpt>
      <trkpt lat="42.76086" lon="0.20379">
        <ele>1995.6</ele>
        <time>2017-02-23T09:09:30Z</time>
      </trkpt>
      <trkpt lat="42.76085" lon="0.20383">
        <ele>1996.6</ele>
        <time>2017-02-23T09:09:35Z</time>
      </trkpt>
      <trkpt lat="42.76085" lon="0.20386">
        <ele>1996.6</ele>
        <time>2017-02-23T09:09:40Z</time>
      </trkpt>
      <trkpt lat="42.76083" lon="0.20389">
        <ele>1998.8</ele>
        <time>2017-02-23T09:09:45Z</time>
      </trkpt>
      <trkpt lat="42.76083" lon="0.20392">
        <ele>1996.8</ele>
        <time>2017-02-23T09:09:50Z</time>
      </trkpt>
      <trkpt lat="42.76082" lon="0.20396">
        <ele>1996.8</ele>
        <time>2017-02-23T09:09:55Z</time>
      </trkpt>
      <trkpt lat="42.76082" lon="0.20399">
        <ele>2000</ele>
        <time>2017-02-23T09:10:00Z</time>
      </trkpt>
      <trkpt lat="42.76082" lon="0.20403">
        <ele>1999.4</ele>
        <time>2017-02-23T09:10:05Z</time>
      </trkpt>
      <trkpt lat="42.76083" lon="0.20406">
        <ele>2002.4</ele>
        <time>2017-02-23T09:10:10Z</time>
      </trkpt>
      <trkpt lat="42.76084" lon="0.2041">
        <ele>2002.6</ele>
        <time>2017-02-23T09:10:15Z</time>
      </trkpt>
      <trkpt lat="42.76084" lon="0.20413">
        <ele>2001</ele>
        <time>2017-02-23T09:10:20Z</time>
      </trkpt>
      <trkpt lat="42.76083" lon="0.20416">
        <ele>2006.6</ele>
        <time>2017-02-23T09:10:25Z</time>
      </trkpt>
      <trkpt lat="42.7608" lon="0.20417">
        <ele>2002.6</ele>
        <time>2017-02-23T09:10:30Z</time>
      </trkpt>
      <trkpt lat="42.76077" lon="0.20418">
        <ele>2001.6</ele>
        <time>2017-02-23T09:10:35Z</time>
      </trkpt>
      <trkpt lat="42.76074" lon="0.20419">
        <ele>2003</ele>
        <time>2017-02-23T09:10:40Z</time>
      </trkpt>
      <trkpt lat="42.76071" lon="0.20419">
        <ele>2002.6</ele>
        <time>2017-02-23T09:10:45Z</time>
      </trkpt>
      <trkpt lat="42.76068" lon="0.20419">
        <ele>2005.6</ele>
        <time>2017-02-23T09:10:50Z</time>
      </trkpt>
      <trkpt lat="42.76065" lon="0.20419">
        <ele>2006.6</ele>
        <time>2017-02-23T09:10:55Z</time>
      </trkpt>
      <trkpt lat="42.76062" lon="0.20419">
        <ele>2007.8</ele>
        <time>2017-02-23T09:11:00Z</time>
      </trkpt>
      <trkpt lat="42.7606" lon="0.20419">
        <ele>2008.6</ele>
        <time>2017-02-23T09:11:05Z</time>
      </trkpt>
      <trkpt lat="42.76057" lon="0.20418">
        <ele>2009.2</ele>
        <time>2017-02-23T09:11:10Z</time>
      </trkpt>
      <trkpt lat="42.76055" lon="0.20416">
        <ele>2010.8</ele>
        <time>2017-02-23T09:11:15Z</time>
      </trkpt>
      <trkpt lat="42.76053" lon="0.20414">
        <ele>2011</ele>
        <time>2017-02-23T09:11:20Z</time>
      </trkpt>
      <trkpt lat="42.76051" lon="0.20412">
        <ele>2011.8</ele>
        <time>2017-02-23T09:11:25Z</time>
      </trkpt>
      <trkpt lat="42.76049" lon="0.20411">
        <ele>2011.6</ele>
        <time>2017-02-23T09:11:30Z</time>
      </trkpt>
      <trkpt lat="42.76047" lon="0.2041">
        <ele>2013.6</ele>
        <time>2017-02-23T09:11:35Z</time>
      </trkpt>
      <trkpt lat="42.76047" lon="0.2041">
        <ele>2012.4</ele>
        <time>2017-02-23T09:11:40Z</time>
      </trkpt>
      <trkpt lat="42.76047" lon="0.2041">
        <ele>2012.6</ele>
        <time>2017-02-23T09:11:45Z</time>
      </trkpt>
      <trkpt lat="42.76047" lon="0.20411">
        <ele>2012.6</ele>
        <time>2017-02-23T09:11:50Z</time>
      </trkpt>
      <trkpt lat="42.76047" lon="0.20411">
        <ele>2012.4</ele>
        <time>2017-02-23T09:11:55Z</time>
      </trkpt>
      <trkpt lat="42.76047" lon="0.20412">
        <ele>2012.2</ele>
        <time>2017-02-23T09:12:00Z</time>
      </trkpt>
      <trkpt lat="42.76046" lon="0.20412">
        <ele>2012</ele>
        <time>2017-02-23T09:12:05Z</time>
      </trkpt>
      <trkpt lat="42.76046" lon="0.20412">
        <ele>2011.8</ele>
        <time>2017-02-23T09:12:10Z</time>
      </trkpt>
      <trkpt lat="42.76046" lon="0.20412">
        <ele>2011.6</ele>
        <time>2017-02-23T09:12:15Z</time>
      </trkpt>
      <trkpt lat="42.76046" lon="0.20412">
        <ele>2011.6</ele>
        <time>2017-02-23T09:12:20Z</time>
      </trkpt>
      <trkpt lat="42.76046" lon="0.20412">
        <ele>2011.6</ele>
        <time>2017-02-23T09:12:25Z</time>
      </trkpt>
      <trkpt lat="42.76046" lon="0.20412">
        <ele>2011.4</ele>
        <time>2017-02-23T09:12:30Z</time>
      </trkpt>
      <trkpt lat="42.76046" lon="0.20412">
        <ele>2011.4</ele>
        <time>2017-02-23T09:12:35Z</time>
      </trkpt>
      <trkpt lat="42.76046" lon="0.20412">
        <ele>2011.4</ele>
        <time>2017-02-23T09:12:40Z</time>
      </trkpt>
      <trkpt lat="42.76046" lon="0.20412">
        <ele>2011.4</ele>
        <time>2017-02-23T09:12:45Z</time>
      </trkpt>
      <trkpt lat="42.76046" lon="0.20412">
        <ele>2011.4</ele>
        <time>2017-02-23T09:12:50Z</time>
      </trkpt>
      <trkpt lat="42.76046" lon="0.20412">
        <ele>2011.6</ele>
        <time>2017-02-23T09:12:55Z</time>
      </trkpt>
      <trkpt lat="42.76046" lon="0.20412">
        <ele>2011.6</ele>
        <time>2017-02-23T09:13:00Z</time>
      </trkpt>
      <trkpt lat="42.76046" lon="0.20412">
        <ele>2011.6</ele>
        <time>2017-02-23T09:13:05Z</time>
      </trkpt>
      <trkpt lat="42.76046" lon="0.20412">
        <ele>2011.6</ele>
        <time>2017-02-23T09:13:10Z</time>
      </trkpt>
      <trkpt lat="42.76046" lon="0.20412">
        <ele>2011.8</ele>
        <time>2017-02-23T09:13:15Z</time>
      </trkpt>
      <trkpt lat="42.76046" lon="0.20412">
        <ele>2011.8</ele>
        <time>2017-02-23T09:13:20Z</time>
      </trkpt>
      <trkpt lat="42.76046" lon="0.20412">
        <ele>2012</ele>
        <time>2017-02-23T09:13:25Z</time>
      </trkpt>
      <trkpt lat="42.76046" lon="0.20412">
        <ele>2012.2</ele>
        <time>2017-02-23T09:13:30Z</time>
      </trkpt>
      <trkpt lat="42.76046" lon="0.20412">
        <ele>2012.4</ele>
        <time>2017-02-23T09:13:35Z</time>
      </trkpt>
      <trkpt lat="42.76046" lon="0.20412">
        <ele>2012.6</ele>
        <time>2017-02-23T09:13:40Z</time>
      </trkpt>
      <trkpt lat="42.76046" lon="0.20412">
        <ele>2012.8</ele>
        <time>2017-02-23T09:13:45Z</time>
      </trkpt>
      <trkpt lat="42.76046" lon="0.20412">
        <ele>2013</ele>
        <time>2017-02-23T09:13:50Z</time>
      </trkpt>
      <trkpt lat="42.76046" lon="0.20412">
        <ele>2013.2</ele>
        <time>2017-02-23T09:13:55Z</time>
      </trkpt>
      <trkpt lat="42.76046" lon="0.20412">
        <ele>2013.4</ele>
        <time>2017-02-23T09:14:00Z</time>
      </trkpt>
      <trkpt lat="42.76046" lon="0.20412">
        <ele>2013.6</ele>
        <time>2017-02-23T09:14:05Z</time>
      </trkpt>
      <trkpt lat="42.76046" lon="0.20412">
        <ele>2013.6</ele>
        <time>2017-02-23T09:14:10Z</time>
      </trkpt>
      <trkpt lat="42.76046" lon="0.20412">
        <ele>2013.8</ele>
        <time>2017-02-23T09:14:15Z</time>
      </trkpt>
      <trkpt lat="42.76046" lon="0.20412">
        <ele>2013.8</ele>
        <time>2017-02-23T09:14:20Z</time>
      </trkpt>
      <trkpt lat="42.76046" lon="0.20412">
        <ele>2014</ele>
        <time>2017-02-23T09:14:25Z</time>
      </trkpt>
      <trkpt lat="42.76046" lon="0.20412">
        <ele>2014</ele>
        <time>2017-02-23T09:14:30Z</time>
      </trkpt>
      <trkpt lat="42.76046" lon="0.20412">
        <ele>2014</ele>
        <time>2017-02-23T09:14:35Z</time>
      </trkpt>
      <trkpt lat="42.76046" lon="0.20412">
        <ele>2014</ele>
        <time>2017-02-23T09:14:40Z</time>
      </trkpt>
      <trkpt lat="42.76046" lon="0.20412">
        <ele>2014</ele>
        <time>2017-02-23T09:14:45Z</time>
      </trkpt>
      <trkpt lat="42.76046" lon="0.20412">
        <ele>2014</ele>
        <time>2017-02-23T09:14:50Z</time>
      </trkpt>
      <trkpt lat="42.76046" lon="0.20412">
        <ele>2014</ele>
        <time>2017-02-23T09:14:55Z</time>
      </trkpt>
      <trkpt lat="42.76046" lon="0.20412">
        <ele>2014</ele>
        <time>2017-02-23T09:15:00Z</time>
      </trkpt>
      <trkpt lat="42.76047" lon="0.20413">
        <ele>2014</ele>
        <time>2017-02-23T09:15:05Z</time>
      </trkpt>
      <trkpt lat="42.76047" lon="0.20412">
        <ele>2014</ele>
        <time>2017-02-23T09:15:10Z</time>
      </trkpt>
      <trkpt lat="42.76047" lon="0.20412">
        <ele>2013.8</ele>
        <time>2017-02-23T09:15:15Z</time>
      </trkpt>
      <trkpt lat="42.76047" lon="0.20412">
        <ele>2013.8</ele>
        <time>2017-02-23T09:15:20Z</time>
      </trkpt>
      <trkpt lat="42.76048" lon="0.20412">
        <ele>2013.6</ele>
        <time>2017-02-23T09:15:25Z</time>
      </trkpt>
      <trkpt lat="42.76048" lon="0.20412">
        <ele>2013.4</ele>
        <time>2017-02-23T09:15:31Z</time>
      </trkpt>
      <trkpt lat="42.76048" lon="0.20412">
        <ele>2013.4</ele>
        <time>2017-02-23T09:15:36Z</time>
      </trkpt>
      <trkpt lat="42.76048" lon="0.20412">
        <ele>2013.2</ele>
        <time>2017-02-23T09:15:41Z</time>
      </trkpt>
      <trkpt lat="42.76048" lon="0.20412">
        <ele>2013.2</ele>
        <time>2017-02-23T09:15:46Z</time>
      </trkpt>
      <trkpt lat="42.76048" lon="0.20412">
        <ele>2013</ele>
        <time>2017-02-23T09:15:51Z</time>
      </trkpt>
      <trkpt lat="42.76048" lon="0.20412">
        <ele>2013</ele>
        <time>2017-02-23T09:15:56Z</time>
      </trkpt>
      <trkpt lat="42.76048" lon="0.20412">
        <ele>2013</ele>
        <time>2017-02-23T09:16:01Z</time>
      </trkpt>
      <trkpt lat="42.76048" lon="0.20412">
        <ele>2013</ele>
        <time>2017-02-23T09:16:06Z</time>
      </trkpt>
      <trkpt lat="42.76048" lon="0.20412">
        <ele>2013</ele>
        <time>2017-02-23T09:16:11Z</time>
      </trkpt>
      <trkpt lat="42.76048" lon="0.20412">
        <ele>2013</ele>
        <time>2017-02-23T09:16:16Z</time>
      </trkpt>
      <trkpt lat="42.76048" lon="0.20412">
        <ele>2012.8</ele>
        <time>2017-02-23T09:16:21Z</time>
      </trkpt>
      <trkpt lat="42.76048" lon="0.20412">
        <ele>2012.8</ele>
        <time>2017-02-23T09:16:26Z</time>
      </trkpt>
      <trkpt lat="42.76048" lon="0.20412">
        <ele>2012.8</ele>
        <time>2017-02-23T09:16:31Z</time>
      </trkpt>
      <trkpt lat="42.76048" lon="0.20411">
        <ele>2012.8</ele>
        <time>2017-02-23T09:16:36Z</time>
      </trkpt>
      <trkpt lat="42.76046" lon="0.20413">
        <ele>2010.6</ele>
        <time>2017-02-23T09:16:41Z</time>
      </trkpt>
      <trkpt lat="42.76044" lon="0.20415">
        <ele>2011.6</ele>
        <time>2017-02-23T09:16:46Z</time>
      </trkpt>
      <trkpt lat="42.76042" lon="0.20417">
        <ele>2012.4</ele>
        <time>2017-02-23T09:16:51Z</time>
      </trkpt>
      <trkpt lat="42.7604" lon="0.20419">
        <ele>2016.2</ele>
        <time>2017-02-23T09:16:56Z</time>
      </trkpt>
      <trkpt lat="42.76038" lon="0.20421">
        <ele>2015.8</ele>
        <time>2017-02-23T09:17:01Z</time>
      </trkpt>
      <trkpt lat="42.76036" lon="0.20423">
        <ele>2015.8</ele>
        <time>2017-02-23T09:17:06Z</time>
      </trkpt>
      <trkpt lat="42.76035" lon="0.20426">
        <ele>2017</ele>
        <time>2017-02-23T09:17:11Z</time>
      </trkpt>
      <trkpt lat="42.76034" lon="0.2043">
        <ele>2017.8</ele>
        <time>2017-02-23T09:17:16Z</time>
      </trkpt>
      <trkpt lat="42.76034" lon="0.20433">
        <ele>2018.4</ele>
        <time>2017-02-23T09:17:21Z</time>
      </trkpt>
      <trkpt lat="42.76034" lon="0.20436">
        <ele>2018.4</ele>
        <time>2017-02-23T09:17:26Z</time>
      </trkpt>
      <trkpt lat="42.76034" lon="0.2044">
        <ele>2021</ele>
        <time>2017-02-23T09:17:31Z</time>
      </trkpt>
      <trkpt lat="42.76034" lon="0.20443">
        <ele>2019.8</ele>
        <time>2017-02-23T09:17:36Z</time>
      </trkpt>
      <trkpt lat="42.76034" lon="0.20446">
        <ele>2020.6</ele>
        <time>2017-02-23T09:17:41Z</time>
      </trkpt>
      <trkpt lat="42.76034" lon="0.2045">
        <ele>2021.8</ele>
        <time>2017-02-23T09:17:46Z</time>
      </trkpt>
      <trkpt lat="42.76035" lon="0.20454">
        <ele>2021.2</ele>
        <time>2017-02-23T09:17:51Z</time>
      </trkpt>
      <trkpt lat="42.76033" lon="0.20456">
        <ele>2024.2</ele>
        <time>2017-02-23T09:17:56Z</time>
      </trkpt>
      <trkpt lat="42.7603" lon="0.20455">
        <ele>2024.2</ele>
        <time>2017-02-23T09:18:01Z</time>
      </trkpt>
      <trkpt lat="42.76028" lon="0.20453">
        <ele>2028</ele>
        <time>2017-02-23T09:18:06Z</time>
      </trkpt>
      <trkpt lat="42.76025" lon="0.20453">
        <ele>2028.4</ele>
        <time>2017-02-23T09:18:11Z</time>
      </trkpt>
      <trkpt lat="42.76023" lon="0.20453">
        <ele>2030.6</ele>
        <time>2017-02-23T09:18:16Z</time>
      </trkpt>
      <trkpt lat="42.7602" lon="0.20452">
        <ele>2028.8</ele>
        <time>2017-02-23T09:18:21Z</time>
      </trkpt>
      <trkpt lat="42.76018" lon="0.20451">
        <ele>2029.4</ele>
        <time>2017-02-23T09:18:26Z</time>
      </trkpt>
      <trkpt lat="42.76016" lon="0.2045">
        <ele>2029</ele>
        <time>2017-02-23T09:18:31Z</time>
      </trkpt>
      <trkpt lat="42.76016" lon="0.2045">
        <ele>2028.6</ele>
        <time>2017-02-23T09:18:36Z</time>
      </trkpt>
      <trkpt lat="42.76015" lon="0.2045">
        <ele>2028.8</ele>
        <time>2017-02-23T09:18:41Z</time>
      </trkpt>
      <trkpt lat="42.76016" lon="0.2045">
        <ele>2029</ele>
        <time>2017-02-23T09:18:46Z</time>
      </trkpt>
      <trkpt lat="42.76016" lon="0.2045">
        <ele>2029.2</ele>
        <time>2017-02-23T09:18:51Z</time>
      </trkpt>
      <trkpt lat="42.76016" lon="0.2045">
        <ele>2029.2</ele>
        <time>2017-02-23T09:18:56Z</time>
      </trkpt>
      <trkpt lat="42.76016" lon="0.2045">
        <ele>2029.2</ele>
        <time>2017-02-23T09:19:01Z</time>
      </trkpt>
      <trkpt lat="42.76016" lon="0.2045">
        <ele>2029.2</ele>
        <time>2017-02-23T09:19:06Z</time>
      </trkpt>
      <trkpt lat="42.76016" lon="0.2045">
        <ele>2029.2</ele>
        <time>2017-02-23T09:19:11Z</time>
      </trkpt>
      <trkpt lat="42.76016" lon="0.2045">
        <ele>2029.2</ele>
        <time>2017-02-23T09:19:16Z</time>
      </trkpt>
      <trkpt lat="42.76016" lon="0.2045">
        <ele>2029.2</ele>
        <time>2017-02-23T09:19:21Z</time>
      </trkpt>
      <trkpt lat="42.76016" lon="0.2045">
        <ele>2029</ele>
        <time>2017-02-23T09:19:26Z</time>
      </trkpt>
      <trkpt lat="42.76016" lon="0.2045">
        <ele>2029</ele>
        <time>2017-02-23T09:19:31Z</time>
      </trkpt>
      <trkpt lat="42.76016" lon="0.2045">
        <ele>2028.8</ele>
        <time>2017-02-23T09:19:36Z</time>
      </trkpt>
      <trkpt lat="42.76015" lon="0.20451">
        <ele>2031.2</ele>
        <time>2017-02-23T09:19:41Z</time>
      </trkpt>
      <trkpt lat="42.76012" lon="0.20452">
        <ele>2029.8</ele>
        <time>2017-02-23T09:19:46Z</time>
      </trkpt>
      <trkpt lat="42.7601" lon="0.20453">
        <ele>2030.6</ele>
        <time>2017-02-23T09:19:51Z</time>
      </trkpt>
      <trkpt lat="42.76007" lon="0.20454">
        <ele>2030.4</ele>
        <time>2017-02-23T09:19:56Z</time>
      </trkpt>
      <trkpt lat="42.76004" lon="0.20455">
        <ele>2032.8</ele>
        <time>2017-02-23T09:20:01Z</time>
      </trkpt>
      <trkpt lat="42.76002" lon="0.20456">
        <ele>2031</ele>
        <time>2017-02-23T09:20:06Z</time>
      </trkpt>
      <trkpt lat="42.75999" lon="0.20456">
        <ele>2031.8</ele>
        <time>2017-02-23T09:20:11Z</time>
      </trkpt>
      <trkpt lat="42.75997" lon="0.20455">
        <ele>2035.2</ele>
        <time>2017-02-23T09:20:16Z</time>
      </trkpt>
      <trkpt lat="42.75995" lon="0.20455">
        <ele>2033.6</ele>
        <time>2017-02-23T09:20:21Z</time>
      </trkpt>
      <trkpt lat="42.75992" lon="0.20455">
        <ele>2033.8</ele>
        <time>2017-02-23T09:20:26Z</time>
      </trkpt>
      <trkpt lat="42.7599" lon="0.20455">
        <ele>2037.2</ele>
        <time>2017-02-23T09:20:31Z</time>
      </trkpt>
      <trkpt lat="42.75988" lon="0.20454">
        <ele>2035.4</ele>
        <time>2017-02-23T09:20:36Z</time>
      </trkpt>
      <trkpt lat="42.75986" lon="0.20454">
        <ele>2037</ele>
        <time>2017-02-23T09:20:41Z</time>
      </trkpt>
      <trkpt lat="42.75983" lon="0.20454">
        <ele>2036.8</ele>
        <time>2017-02-23T09:20:46Z</time>
      </trkpt>
      <trkpt lat="42.75981" lon="0.20454">
        <ele>2039.4</ele>
        <time>2017-02-23T09:20:51Z</time>
      </trkpt>
      <trkpt lat="42.75978" lon="0.20454">
        <ele>2039.6</ele>
        <time>2017-02-23T09:20:56Z</time>
      </trkpt>
      <trkpt lat="42.75977" lon="0.20454">
        <ele>2038.6</ele>
        <time>2017-02-23T09:21:01Z</time>
      </trkpt>
      <trkpt lat="42.75978" lon="0.20457">
        <ele>2036.6</ele>
        <time>2017-02-23T09:21:06Z</time>
      </trkpt>
      <trkpt lat="42.75978" lon="0.2046">
        <ele>2042</ele>
        <time>2017-02-23T09:21:11Z</time>
      </trkpt>
      <trkpt lat="42.75979" lon="0.20464">
        <ele>2043.4</ele>
        <time>2017-02-23T09:21:16Z</time>
      </trkpt>
      <trkpt lat="42.7598" lon="0.20467">
        <ele>2038.4</ele>
        <time>2017-02-23T09:21:21Z</time>
      </trkpt>
      <trkpt lat="42.75981" lon="0.20471">
        <ele>2042.2</ele>
        <time>2017-02-23T09:21:26Z</time>
      </trkpt>
      <trkpt lat="42.75981" lon="0.20474">
        <ele>2045</ele>
        <time>2017-02-23T09:21:31Z</time>
      </trkpt>
      <trkpt lat="42.75982" lon="0.20477">
        <ele>2044.4</ele>
        <time>2017-02-23T09:21:36Z</time>
      </trkpt>
      <trkpt lat="42.75982" lon="0.2048">
        <ele>2044.8</ele>
        <time>2017-02-23T09:21:41Z</time>
      </trkpt>
      <trkpt lat="42.75983" lon="0.20483">
        <ele>2045.4</ele>
        <time>2017-02-23T09:21:46Z</time>
      </trkpt>
      <trkpt lat="42.75983" lon="0.20487">
        <ele>2044.8</ele>
        <time>2017-02-23T09:21:51Z</time>
      </trkpt>
      <trkpt lat="42.75983" lon="0.2049">
        <ele>2048.6</ele>
        <time>2017-02-23T09:21:56Z</time>
      </trkpt>
      <trkpt lat="42.75984" lon="0.20494">
        <ele>2045.6</ele>
        <time>2017-02-23T09:22:01Z</time>
      </trkpt>
      <trkpt lat="42.75985" lon="0.20497">
        <ele>2049.4</ele>
        <time>2017-02-23T09:22:06Z</time>
      </trkpt>
      <trkpt lat="42.75985" lon="0.205">
        <ele>2047.4</ele>
        <time>2017-02-23T09:22:11Z</time>
      </trkpt>
      <trkpt lat="42.75984" lon="0.205">
        <ele>2051.2</ele>
        <time>2017-02-23T09:22:16Z</time>
      </trkpt>
      <trkpt lat="42.75981" lon="0.205">
        <ele>2050.2</ele>
        <time>2017-02-23T09:22:21Z</time>
      </trkpt>
      <trkpt lat="42.75979" lon="0.20499">
        <ele>2051.8</ele>
        <time>2017-02-23T09:22:26Z</time>
      </trkpt>
      <trkpt lat="42.75977" lon="0.20498">
        <ele>2048.4</ele>
        <time>2017-02-23T09:22:31Z</time>
      </trkpt>
      <trkpt lat="42.75975" lon="0.20497">
        <ele>2050.4</ele>
        <time>2017-02-23T09:22:36Z</time>
      </trkpt>
      <trkpt lat="42.75973" lon="0.20496">
        <ele>2050</ele>
        <time>2017-02-23T09:22:41Z</time>
      </trkpt>
      <trkpt lat="42.75971" lon="0.20495">
        <ele>2053</ele>
        <time>2017-02-23T09:22:46Z</time>
      </trkpt>
      <trkpt lat="42.75969" lon="0.20495">
        <ele>2055.2</ele>
        <time>2017-02-23T09:22:51Z</time>
      </trkpt>
      <trkpt lat="42.75967" lon="0.20494">
        <ele>2057</ele>
        <time>2017-02-23T09:22:56Z</time>
      </trkpt>
      <trkpt lat="42.75965" lon="0.20493">
        <ele>2055.4</ele>
        <time>2017-02-23T09:23:01Z</time>
      </trkpt>
      <trkpt lat="42.75963" lon="0.20492">
        <ele>2055.2</ele>
        <time>2017-02-23T09:23:06Z</time>
      </trkpt>
      <trkpt lat="42.75962" lon="0.20492">
        <ele>2055</ele>
        <time>2017-02-23T09:23:11Z</time>
      </trkpt>
      <trkpt lat="42.75962" lon="0.20492">
        <ele>2054</ele>
        <time>2017-02-23T09:23:16Z</time>
      </trkpt>
      <trkpt lat="42.75961" lon="0.20492">
        <ele>2055.4</ele>
        <time>2017-02-23T09:23:21Z</time>
      </trkpt>
      <trkpt lat="42.75962" lon="0.20495">
        <ele>2056</ele>
        <time>2017-02-23T09:23:26Z</time>
      </trkpt>
      <trkpt lat="42.75963" lon="0.20498">
        <ele>2057.4</ele>
        <time>2017-02-23T09:23:31Z</time>
      </trkpt>
      <trkpt lat="42.75964" lon="0.20501">
        <ele>2056.4</ele>
        <time>2017-02-23T09:23:36Z</time>
      </trkpt>
      <trkpt lat="42.75965" lon="0.20504">
        <ele>2058.2</ele>
        <time>2017-02-23T09:23:41Z</time>
      </trkpt>
      <trkpt lat="42.75965" lon="0.20507">
        <ele>2057</ele>
        <time>2017-02-23T09:23:46Z</time>
      </trkpt>
      <trkpt lat="42.75966" lon="0.20511">
        <ele>2060.4</ele>
        <time>2017-02-23T09:23:51Z</time>
      </trkpt>
      <trkpt lat="42.75966" lon="0.20514">
        <ele>2059.4</ele>
        <time>2017-02-23T09:23:56Z</time>
      </trkpt>
      <trkpt lat="42.75967" lon="0.20517">
        <ele>2064.4</ele>
        <time>2017-02-23T09:24:01Z</time>
      </trkpt>
      <trkpt lat="42.75967" lon="0.2052">
        <ele>2064.4</ele>
        <time>2017-02-23T09:24:06Z</time>
      </trkpt>
      <trkpt lat="42.75967" lon="0.20524">
        <ele>2065.6</ele>
        <time>2017-02-23T09:24:11Z</time>
      </trkpt>
      <trkpt lat="42.75967" lon="0.20527">
        <ele>2063.6</ele>
        <time>2017-02-23T09:24:16Z</time>
      </trkpt>
      <trkpt lat="42.75967" lon="0.2053">
        <ele>2067.6</ele>
        <time>2017-02-23T09:24:21Z</time>
      </trkpt>
      <trkpt lat="42.75967" lon="0.20533">
        <ele>2066.6</ele>
        <time>2017-02-23T09:24:26Z</time>
      </trkpt>
      <trkpt lat="42.75967" lon="0.20536">
        <ele>2068.2</ele>
        <time>2017-02-23T09:24:31Z</time>
      </trkpt>
      <trkpt lat="42.75967" lon="0.20536">
        <ele>2067.2</ele>
        <time>2017-02-23T09:24:36Z</time>
      </trkpt>
      <trkpt lat="42.75967" lon="0.2054">
        <ele>2065.4</ele>
        <time>2017-02-23T09:24:41Z</time>
      </trkpt>
      <trkpt lat="42.75968" lon="0.20543">
        <ele>2065.4</ele>
        <time>2017-02-23T09:24:46Z</time>
      </trkpt>
      <trkpt lat="42.75969" lon="0.20546">
        <ele>2068</ele>
        <time>2017-02-23T09:24:51Z</time>
      </trkpt>
      <trkpt lat="42.7597" lon="0.20549">
        <ele>2067.6</ele>
        <time>2017-02-23T09:24:56Z</time>
      </trkpt>
      <trkpt lat="42.75972" lon="0.20552">
        <ele>2066.4</ele>
        <time>2017-02-23T09:25:01Z</time>
      </trkpt>
      <trkpt lat="42.75973" lon="0.20554">
        <ele>2066.8</ele>
        <time>2017-02-23T09:25:06Z</time>
      </trkpt>
      <trkpt lat="42.75974" lon="0.20555">
        <ele>2067.4</ele>
        <time>2017-02-23T09:25:11Z</time>
      </trkpt>
      <trkpt lat="42.75974" lon="0.20555">
        <ele>2068</ele>
        <time>2017-02-23T09:25:16Z</time>
      </trkpt>
      <trkpt lat="42.75974" lon="0.20556">
        <ele>2069.2</ele>
        <time>2017-02-23T09:25:21Z</time>
      </trkpt>
      <trkpt lat="42.75971" lon="0.20556">
        <ele>2071.6</ele>
        <time>2017-02-23T09:25:26Z</time>
      </trkpt>
      <trkpt lat="42.75969" lon="0.20557">
        <ele>2071</ele>
        <time>2017-02-23T09:25:31Z</time>
      </trkpt>
      <trkpt lat="42.75967" lon="0.20557">
        <ele>2073.2</ele>
        <time>2017-02-23T09:25:36Z</time>
      </trkpt>
      <trkpt lat="42.75965" lon="0.20558">
        <ele>2068.8</ele>
        <time>2017-02-23T09:25:41Z</time>
      </trkpt>
      <trkpt lat="42.75962" lon="0.20558">
        <ele>2069.8</ele>
        <time>2017-02-23T09:25:46Z</time>
      </trkpt>
      <trkpt lat="42.7596" lon="0.20559">
        <ele>2072.6</ele>
        <time>2017-02-23T09:25:51Z</time>
      </trkpt>
      <trkpt lat="42.75958" lon="0.20559">
        <ele>2071</ele>
        <time>2017-02-23T09:25:56Z</time>
      </trkpt>
      <trkpt lat="42.75956" lon="0.20559">
        <ele>2073.2</ele>
        <time>2017-02-23T09:26:01Z</time>
      </trkpt>
      <trkpt lat="42.75954" lon="0.20559">
        <ele>2075.8</ele>
        <time>2017-02-23T09:26:06Z</time>
      </trkpt>
      <trkpt lat="42.75952" lon="0.20558">
        <ele>2073.6</ele>
        <time>2017-02-23T09:26:11Z</time>
      </trkpt>
      <trkpt lat="42.7595" lon="0.20557">
        <ele>2076</ele>
        <time>2017-02-23T09:26:16Z</time>
      </trkpt>
      <trkpt lat="42.7595" lon="0.20556">
        <ele>2075.2</ele>
        <time>2017-02-23T09:26:21Z</time>
      </trkpt>
      <trkpt lat="42.7595" lon="0.20556">
        <ele>2075.2</ele>
        <time>2017-02-23T09:26:26Z</time>
      </trkpt>
      <trkpt lat="42.75949" lon="0.20556">
        <ele>2075.4</ele>
        <time>2017-02-23T09:26:31Z</time>
      </trkpt>
      <trkpt lat="42.75949" lon="0.20555">
        <ele>2076.2</ele>
        <time>2017-02-23T09:26:36Z</time>
      </trkpt>
      <trkpt lat="42.75949" lon="0.20557">
        <ele>2076.6</ele>
        <time>2017-02-23T09:26:42Z</time>
      </trkpt>
      <trkpt lat="42.75949" lon="0.20561">
        <ele>2076.6</ele>
        <time>2017-02-23T09:26:47Z</time>
      </trkpt>
      <trkpt lat="42.7595" lon="0.20564">
        <ele>2075.6</ele>
        <time>2017-02-23T09:26:52Z</time>
      </trkpt>
      <trkpt lat="42.7595" lon="0.20568">
        <ele>2082.2</ele>
        <time>2017-02-23T09:26:57Z</time>
      </trkpt>
      <trkpt lat="42.75951" lon="0.20571">
        <ele>2081.6</ele>
        <time>2017-02-23T09:27:02Z</time>
      </trkpt>
      <trkpt lat="42.75951" lon="0.20574">
        <ele>2084.8</ele>
        <time>2017-02-23T09:27:07Z</time>
      </trkpt>
      <trkpt lat="42.75952" lon="0.20577">
        <ele>2087.8</ele>
        <time>2017-02-23T09:27:12Z</time>
      </trkpt>
      <trkpt lat="42.75953" lon="0.20578">
        <ele>2087</ele>
        <time>2017-02-23T09:27:17Z</time>
      </trkpt>
      <trkpt lat="42.75954" lon="0.20581">
        <ele>2088.4</ele>
        <time>2017-02-23T09:27:22Z</time>
      </trkpt>
      <trkpt lat="42.75956" lon="0.20583">
        <ele>2088.2</ele>
        <time>2017-02-23T09:27:27Z</time>
      </trkpt>
      <trkpt lat="42.75957" lon="0.20586">
        <ele>2087</ele>
        <time>2017-02-23T09:27:32Z</time>
      </trkpt>
      <trkpt lat="42.7596" lon="0.20588">
        <ele>2087.4</ele>
        <time>2017-02-23T09:27:37Z</time>
      </trkpt>
      <trkpt lat="42.75962" lon="0.20589">
        <ele>2088</ele>
        <time>2017-02-23T09:27:42Z</time>
      </trkpt>
      <trkpt lat="42.75962" lon="0.20589">
        <ele>2088.4</ele>
        <time>2017-02-23T09:27:47Z</time>
      </trkpt>
      <trkpt lat="42.75962" lon="0.20589">
        <ele>2089</ele>
        <time>2017-02-23T09:27:52Z</time>
      </trkpt>
      <trkpt lat="42.75962" lon="0.20589">
        <ele>2089.2</ele>
        <time>2017-02-23T09:27:57Z</time>
      </trkpt>
      <trkpt lat="42.75962" lon="0.20589">
        <ele>2088.6</ele>
        <time>2017-02-23T09:28:02Z</time>
      </trkpt>
      <trkpt lat="42.75961" lon="0.2059">
        <ele>2089.6</ele>
        <time>2017-02-23T09:28:07Z</time>
      </trkpt>
      <trkpt lat="42.75959" lon="0.20592">
        <ele>2091.4</ele>
        <time>2017-02-23T09:28:12Z</time>
      </trkpt>
      <trkpt lat="42.75957" lon="0.20592">
        <ele>2092.4</ele>
        <time>2017-02-23T09:28:17Z</time>
      </trkpt>
      <trkpt lat="42.75955" lon="0.20593">
        <ele>2089.4</ele>
        <time>2017-02-23T09:28:22Z</time>
      </trkpt>
      <trkpt lat="42.75953" lon="0.20594">
        <ele>2091</ele>
        <time>2017-02-23T09:28:27Z</time>
      </trkpt>
      <trkpt lat="42.7595" lon="0.20595">
        <ele>2092.8</ele>
        <time>2017-02-23T09:28:32Z</time>
      </trkpt>
      <trkpt lat="42.75949" lon="0.20595">
        <ele>2090.4</ele>
        <time>2017-02-23T09:28:37Z</time>
      </trkpt>
      <trkpt lat="42.75949" lon="0.20595">
        <ele>2091.8</ele>
        <time>2017-02-23T09:28:42Z</time>
      </trkpt>
      <trkpt lat="42.75948" lon="0.20595">
        <ele>2093.8</ele>
        <time>2017-02-23T09:28:47Z</time>
      </trkpt>
      <trkpt lat="42.75949" lon="0.20598">
        <ele>2096.2</ele>
        <time>2017-02-23T09:28:52Z</time>
      </trkpt>
      <trkpt lat="42.75951" lon="0.206">
        <ele>2096.2</ele>
        <time>2017-02-23T09:28:57Z</time>
      </trkpt>
      <trkpt lat="42.75953" lon="0.20602">
        <ele>2095.4</ele>
        <time>2017-02-23T09:29:02Z</time>
      </trkpt>
      <trkpt lat="42.75954" lon="0.20604">
        <ele>2092</ele>
        <time>2017-02-23T09:29:07Z</time>
      </trkpt>
      <trkpt lat="42.75957" lon="0.20606">
        <ele>2098.2</ele>
        <time>2017-02-23T09:29:12Z</time>
      </trkpt>
      <trkpt lat="42.75958" lon="0.20606">
        <ele>2098.6</ele>
        <time>2017-02-23T09:29:17Z</time>
      </trkpt>
      <trkpt lat="42.75958" lon="0.20606">
        <ele>2098.8</ele>
        <time>2017-02-23T09:29:22Z</time>
      </trkpt>
      <trkpt lat="42.75958" lon="0.20606">
        <ele>2099</ele>
        <time>2017-02-23T09:29:27Z</time>
      </trkpt>
      <trkpt lat="42.75958" lon="0.20606">
        <ele>2099.2</ele>
        <time>2017-02-23T09:29:32Z</time>
      </trkpt>
      <trkpt lat="42.75957" lon="0.20607">
        <ele>2099.6</ele>
        <time>2017-02-23T09:29:37Z</time>
      </trkpt>
      <trkpt lat="42.75953" lon="0.20609">
        <ele>2101.2</ele>
        <time>2017-02-23T09:29:43Z</time>
      </trkpt>
      <trkpt lat="42.7595" lon="0.20611">
        <ele>2102.2</ele>
        <time>2017-02-23T09:29:48Z</time>
      </trkpt>
      <trkpt lat="42.75946" lon="0.20612">
        <ele>2101.6</ele>
        <time>2017-02-23T09:29:53Z</time>
      </trkpt>
      <trkpt lat="42.75942" lon="0.20613">
        <ele>2107</ele>
        <time>2017-02-23T09:29:58Z</time>
      </trkpt>
      <trkpt lat="42.7594" lon="0.20614">
        <ele>2105</ele>
        <time>2017-02-23T09:30:03Z</time>
      </trkpt>
      <trkpt lat="42.75937" lon="0.20615">
        <ele>2106.8</ele>
        <time>2017-02-23T09:30:08Z</time>
      </trkpt>
      <trkpt lat="42.75934" lon="0.20615">
        <ele>2105.8</ele>
        <time>2017-02-23T09:30:13Z</time>
      </trkpt>
      <trkpt lat="42.75932" lon="0.20615">
        <ele>2108.2</ele>
        <time>2017-02-23T09:30:18Z</time>
      </trkpt>
      <trkpt lat="42.75931" lon="0.20615">
        <ele>2108</ele>
        <time>2017-02-23T09:30:23Z</time>
      </trkpt>
      <trkpt lat="42.75931" lon="0.20615">
        <ele>2108.4</ele>
        <time>2017-02-23T09:30:28Z</time>
      </trkpt>
      <trkpt lat="42.75931" lon="0.20615">
        <ele>2108.6</ele>
        <time>2017-02-23T09:30:33Z</time>
      </trkpt>
      <trkpt lat="42.75932" lon="0.20616">
        <ele>2108.6</ele>
        <time>2017-02-23T09:30:38Z</time>
      </trkpt>
      <trkpt lat="42.75932" lon="0.20618">
        <ele>2109</ele>
        <time>2017-02-23T09:30:43Z</time>
      </trkpt>
      <trkpt lat="42.75934" lon="0.20621">
        <ele>2111</ele>
        <time>2017-02-23T09:30:48Z</time>
      </trkpt>
      <trkpt lat="42.75936" lon="0.20623">
        <ele>2105.6</ele>
        <time>2017-02-23T09:30:53Z</time>
      </trkpt>
      <trkpt lat="42.75939" lon="0.20624">
        <ele>2103.6</ele>
        <time>2017-02-23T09:30:58Z</time>
      </trkpt>
      <trkpt lat="42.75941" lon="0.20626">
        <ele>2104.8</ele>
        <time>2017-02-23T09:31:03Z</time>
      </trkpt>
      <trkpt lat="42.75942" lon="0.20626">
        <ele>2101.4</ele>
        <time>2017-02-23T09:31:08Z</time>
      </trkpt>
      <trkpt lat="42.75944" lon="0.20628">
        <ele>2103.6</ele>
        <time>2017-02-23T09:31:13Z</time>
      </trkpt>
      <trkpt lat="42.75945" lon="0.20629">
        <ele>2106.2</ele>
        <time>2017-02-23T09:31:18Z</time>
      </trkpt>
      <trkpt lat="42.75948" lon="0.20631">
        <ele>2106.8</ele>
        <time>2017-02-23T09:31:23Z</time>
      </trkpt>
      <trkpt lat="42.7595" lon="0.20633">
        <ele>2107.6</ele>
        <time>2017-02-23T09:31:28Z</time>
      </trkpt>
      <trkpt lat="42.75952" lon="0.20634">
        <ele>2110</ele>
        <time>2017-02-23T09:31:33Z</time>
      </trkpt>
      <trkpt lat="42.75954" lon="0.20636">
        <ele>2107.8</ele>
        <time>2017-02-23T09:31:38Z</time>
      </trkpt>
      <trkpt lat="42.75955" lon="0.20637">
        <ele>2109.8</ele>
        <time>2017-02-23T09:31:43Z</time>
      </trkpt>
      <trkpt lat="42.75955" lon="0.20637">
        <ele>2110.8</ele>
        <time>2017-02-23T09:31:48Z</time>
      </trkpt>
      <trkpt lat="42.75955" lon="0.20637">
        <ele>2111.6</ele>
        <time>2017-02-23T09:31:53Z</time>
      </trkpt>
      <trkpt lat="42.75955" lon="0.20638">
        <ele>2114.2</ele>
        <time>2017-02-23T09:31:58Z</time>
      </trkpt>
      <trkpt lat="42.75952" lon="0.2064">
        <ele>2114.2</ele>
        <time>2017-02-23T09:32:03Z</time>
      </trkpt>
      <trkpt lat="42.7595" lon="0.2064">
        <ele>2113.8</ele>
        <time>2017-02-23T09:32:08Z</time>
      </trkpt>
      <trkpt lat="42.75948" lon="0.20641">
        <ele>2116.6</ele>
        <time>2017-02-23T09:32:13Z</time>
      </trkpt>
      <trkpt lat="42.75945" lon="0.20642">
        <ele>2114.8</ele>
        <time>2017-02-23T09:32:18Z</time>
      </trkpt>
      <trkpt lat="42.75943" lon="0.20642">
        <ele>2116.4</ele>
        <time>2017-02-23T09:32:23Z</time>
      </trkpt>
      <trkpt lat="42.75941" lon="0.20642">
        <ele>2115.4</ele>
        <time>2017-02-23T09:32:28Z</time>
      </trkpt>
      <trkpt lat="42.7594" lon="0.20642">
        <ele>2113.8</ele>
        <time>2017-02-23T09:32:33Z</time>
      </trkpt>
      <trkpt lat="42.75937" lon="0.20643">
        <ele>2116.6</ele>
        <time>2017-02-23T09:32:38Z</time>
      </trkpt>
      <trkpt lat="42.75935" lon="0.20645">
        <ele>2116.4</ele>
        <time>2017-02-23T09:32:43Z</time>
      </trkpt>
      <trkpt lat="42.75933" lon="0.20646">
        <ele>2118</ele>
        <time>2017-02-23T09:32:48Z</time>
      </trkpt>
      <trkpt lat="42.75931" lon="0.20647">
        <ele>2120.8</ele>
        <time>2017-02-23T09:32:53Z</time>
      </trkpt>
      <trkpt lat="42.75931" lon="0.20647">
        <ele>2121.2</ele>
        <time>2017-02-23T09:32:58Z</time>
      </trkpt>
      <trkpt lat="42.75931" lon="0.20647">
        <ele>2121.4</ele>
        <time>2017-02-23T09:33:03Z</time>
      </trkpt>
      <trkpt lat="42.75932" lon="0.20647">
        <ele>2121.6</ele>
        <time>2017-02-23T09:33:08Z</time>
      </trkpt>
      <trkpt lat="42.75931" lon="0.20648">
        <ele>2121.6</ele>
        <time>2017-02-23T09:33:13Z</time>
      </trkpt>
      <trkpt lat="42.75933" lon="0.2065">
        <ele>2118</ele>
        <time>2017-02-23T09:33:18Z</time>
      </trkpt>
      <trkpt lat="42.75933" lon="0.20651">
        <ele>2120.8</ele>
        <time>2017-02-23T09:33:23Z</time>
      </trkpt>
      <trkpt lat="42.75933" lon="0.20651">
        <ele>2121</ele>
        <time>2017-02-23T09:33:28Z</time>
      </trkpt>
      <trkpt lat="42.75933" lon="0.20651">
        <ele>2121.2</ele>
        <time>2017-02-23T09:33:33Z</time>
      </trkpt>
      <trkpt lat="42.75933" lon="0.20651">
        <ele>2121.2</ele>
        <time>2017-02-23T09:33:38Z</time>
      </trkpt>
      <trkpt lat="42.75933" lon="0.20651">
        <ele>2121.4</ele>
        <time>2017-02-23T09:33:43Z</time>
      </trkpt>
      <trkpt lat="42.75934" lon="0.2065">
        <ele>2121.6</ele>
        <time>2017-02-23T09:33:48Z</time>
      </trkpt>
      <trkpt lat="42.75934" lon="0.20649">
        <ele>2121</ele>
        <time>2017-02-23T09:33:53Z</time>
      </trkpt>
      <trkpt lat="42.75935" lon="0.20651">
        <ele>2121.4</ele>
        <time>2017-02-23T09:33:58Z</time>
      </trkpt>
      <trkpt lat="42.75936" lon="0.20653">
        <ele>2120.4</ele>
        <time>2017-02-23T09:34:03Z</time>
      </trkpt>
      <trkpt lat="42.75938" lon="0.20655">
        <ele>2122.8</ele>
        <time>2017-02-23T09:34:08Z</time>
      </trkpt>
      <trkpt lat="42.75939" lon="0.20657">
        <ele>2120.8</ele>
        <time>2017-02-23T09:34:13Z</time>
      </trkpt>
      <trkpt lat="42.7594" lon="0.20661">
        <ele>2123.8</ele>
        <time>2017-02-23T09:34:18Z</time>
      </trkpt>
      <trkpt lat="42.75941" lon="0.20664">
        <ele>2124</ele>
        <time>2017-02-23T09:34:23Z</time>
      </trkpt>
      <trkpt lat="42.75942" lon="0.20666">
        <ele>2124.4</ele>
        <time>2017-02-23T09:34:28Z</time>
      </trkpt>
      <trkpt lat="42.75944" lon="0.20667">
        <ele>2125.8</ele>
        <time>2017-02-23T09:34:33Z</time>
      </trkpt>
      <trkpt lat="42.75946" lon="0.20668">
        <ele>2129</ele>
        <time>2017-02-23T09:34:38Z</time>
      </trkpt>
      <trkpt lat="42.75948" lon="0.20669">
        <ele>2128.8</ele>
        <time>2017-02-23T09:34:43Z</time>
      </trkpt>
      <trkpt lat="42.75951" lon="0.2067">
        <ele>2127.6</ele>
        <time>2017-02-23T09:34:48Z</time>
      </trkpt>
      <trkpt lat="42.75951" lon="0.2067">
        <ele>2127.8</ele>
        <time>2017-02-23T09:34:53Z</time>
      </trkpt>
      <trkpt lat="42.75952" lon="0.2067">
        <ele>2128.2</ele>
        <time>2017-02-23T09:34:58Z</time>
      </trkpt>
      <trkpt lat="42.75952" lon="0.2067">
        <ele>2128.4</ele>
        <time>2017-02-23T09:35:03Z</time>
      </trkpt>
      <trkpt lat="42.75952" lon="0.2067">
        <ele>2128.6</ele>
        <time>2017-02-23T09:35:08Z</time>
      </trkpt>
      <trkpt lat="42.75953" lon="0.20669">
        <ele>2128.6</ele>
        <time>2017-02-23T09:35:13Z</time>
      </trkpt>
      <trkpt lat="42.75953" lon="0.20669">
        <ele>2128.8</ele>
        <time>2017-02-23T09:35:18Z</time>
      </trkpt>
      <trkpt lat="42.75953" lon="0.20668">
        <ele>2129</ele>
        <time>2017-02-23T09:35:23Z</time>
      </trkpt>
      <trkpt lat="42.75953" lon="0.20668">
        <ele>2129.4</ele>
        <time>2017-02-23T09:35:28Z</time>
      </trkpt>
      <trkpt lat="42.75954" lon="0.20668">
        <ele>2129.6</ele>
        <time>2017-02-23T09:35:33Z</time>
      </trkpt>
      <trkpt lat="42.75954" lon="0.20668">
        <ele>2129.8</ele>
        <time>2017-02-23T09:35:38Z</time>
      </trkpt>
      <trkpt lat="42.75954" lon="0.20668">
        <ele>2130</ele>
        <time>2017-02-23T09:35:43Z</time>
      </trkpt>
      <trkpt lat="42.75954" lon="0.20668">
        <ele>2130.2</ele>
        <time>2017-02-23T09:35:48Z</time>
      </trkpt>
      <trkpt lat="42.75954" lon="0.20668">
        <ele>2130.2</ele>
        <time>2017-02-23T09:35:53Z</time>
      </trkpt>
      <trkpt lat="42.75954" lon="0.20668">
        <ele>2130.4</ele>
        <time>2017-02-23T09:35:58Z</time>
      </trkpt>
      <trkpt lat="42.75953" lon="0.20668">
        <ele>2130.4</ele>
        <time>2017-02-23T09:36:03Z</time>
      </trkpt>
      <trkpt lat="42.75953" lon="0.20668">
        <ele>2130.4</ele>
        <time>2017-02-23T09:36:08Z</time>
      </trkpt>
      <trkpt lat="42.75952" lon="0.2067">
        <ele>2131.2</ele>
        <time>2017-02-23T09:36:13Z</time>
      </trkpt>
      <trkpt lat="42.75951" lon="0.20672">
        <ele>2133.6</ele>
        <time>2017-02-23T09:36:18Z</time>
      </trkpt>
      <trkpt lat="42.75952" lon="0.20672">
        <ele>2131.8</ele>
        <time>2017-02-23T09:36:24Z</time>
      </trkpt>
      <trkpt lat="42.75952" lon="0.20671">
        <ele>2131.2</ele>
        <time>2017-02-23T09:36:29Z</time>
      </trkpt>
      <trkpt lat="42.75952" lon="0.20671">
        <ele>2130.6</ele>
        <time>2017-02-23T09:36:34Z</time>
      </trkpt>
      <trkpt lat="42.75952" lon="0.20671">
        <ele>2130.2</ele>
        <time>2017-02-23T09:36:39Z</time>
      </trkpt>
      <trkpt lat="42.75952" lon="0.20671">
        <ele>2130</ele>
        <time>2017-02-23T09:36:44Z</time>
      </trkpt>
      <trkpt lat="42.7595" lon="0.20672">
        <ele>2132.4</ele>
        <time>2017-02-23T09:36:49Z</time>
      </trkpt>
      <trkpt lat="42.75946" lon="0.20676">
        <ele>2132.2</ele>
        <time>2017-02-23T09:36:54Z</time>
      </trkpt>
      <trkpt lat="42.75943" lon="0.20677">
        <ele>2132</ele>
        <time>2017-02-23T09:36:59Z</time>
      </trkpt>
      <trkpt lat="42.75939" lon="0.20678">
        <ele>2134.8</ele>
        <time>2017-02-23T09:37:04Z</time>
      </trkpt>
      <trkpt lat="42.75936" lon="0.20679">
        <ele>2133.2</ele>
        <time>2017-02-23T09:37:09Z</time>
      </trkpt>
      <trkpt lat="42.75932" lon="0.20681">
        <ele>2133</ele>
        <time>2017-02-23T09:37:14Z</time>
      </trkpt>
      <trkpt lat="42.75929" lon="0.20683">
        <ele>2134.2</ele>
        <time>2017-02-23T09:37:19Z</time>
      </trkpt>
      <trkpt lat="42.75927" lon="0.20685">
        <ele>2138</ele>
        <time>2017-02-23T09:37:24Z</time>
      </trkpt>
      <trkpt lat="42.75925" lon="0.20686">
        <ele>2137.2</ele>
        <time>2017-02-23T09:37:29Z</time>
      </trkpt>
      <trkpt lat="42.75923" lon="0.20686">
        <ele>2139</ele>
        <time>2017-02-23T09:37:34Z</time>
      </trkpt>
      <trkpt lat="42.75921" lon="0.20686">
        <ele>2138.6</ele>
        <time>2017-02-23T09:37:39Z</time>
      </trkpt>
      <trkpt lat="42.75919" lon="0.20686">
        <ele>2140.8</ele>
        <time>2017-02-23T09:37:44Z</time>
      </trkpt>
      <trkpt lat="42.75917" lon="0.20686">
        <ele>2141.6</ele>
        <time>2017-02-23T09:37:49Z</time>
      </trkpt>
      <trkpt lat="42.75915" lon="0.20686">
        <ele>2140</ele>
        <time>2017-02-23T09:37:54Z</time>
      </trkpt>
      <trkpt lat="42.75915" lon="0.20686">
        <ele>2140</ele>
        <time>2017-02-23T09:37:59Z</time>
      </trkpt>
      <trkpt lat="42.75915" lon="0.20686">
        <ele>2140</ele>
        <time>2017-02-23T09:38:04Z</time>
      </trkpt>
      <trkpt lat="42.75915" lon="0.20687">
        <ele>2142.8</ele>
        <time>2017-02-23T09:38:09Z</time>
      </trkpt>
      <trkpt lat="42.75915" lon="0.20689">
        <ele>2145.6</ele>
        <time>2017-02-23T09:38:14Z</time>
      </trkpt>
      <trkpt lat="42.75916" lon="0.20692">
        <ele>2144.4</ele>
        <time>2017-02-23T09:38:19Z</time>
      </trkpt>
      <trkpt lat="42.75918" lon="0.20695">
        <ele>2143</ele>
        <time>2017-02-23T09:38:24Z</time>
      </trkpt>
      <trkpt lat="42.75919" lon="0.20699">
        <ele>2145.2</ele>
        <time>2017-02-23T09:38:29Z</time>
      </trkpt>
      <trkpt lat="42.7592" lon="0.20701">
        <ele>2146.4</ele>
        <time>2017-02-23T09:38:34Z</time>
      </trkpt>
      <trkpt lat="42.7592" lon="0.20701">
        <ele>2145.8</ele>
        <time>2017-02-23T09:38:39Z</time>
      </trkpt>
      <trkpt lat="42.7592" lon="0.20701">
        <ele>2145.4</ele>
        <time>2017-02-23T09:38:44Z</time>
      </trkpt>
      <trkpt lat="42.75921" lon="0.20701">
        <ele>2145.2</ele>
        <time>2017-02-23T09:38:49Z</time>
      </trkpt>
      <trkpt lat="42.75919" lon="0.20703">
        <ele>2145</ele>
        <time>2017-02-23T09:38:54Z</time>
      </trkpt>
      <trkpt lat="42.75916" lon="0.20703">
        <ele>2145.6</ele>
        <time>2017-02-23T09:38:59Z</time>
      </trkpt>
      <trkpt lat="42.75914" lon="0.20704">
        <ele>2147.4</ele>
        <time>2017-02-23T09:39:04Z</time>
      </trkpt>
      <trkpt lat="42.75912" lon="0.20704">
        <ele>2146.6</ele>
        <time>2017-02-23T09:39:09Z</time>
      </trkpt>
      <trkpt lat="42.75909" lon="0.20704">
        <ele>2148.6</ele>
        <time>2017-02-23T09:39:14Z</time>
      </trkpt>
      <trkpt lat="42.75909" lon="0.20705">
        <ele>2148.4</ele>
        <time>2017-02-23T09:39:19Z</time>
      </trkpt>
      <trkpt lat="42.75909" lon="0.20704">
        <ele>2148</ele>
        <time>2017-02-23T09:39:25Z</time>
      </trkpt>
      <trkpt lat="42.75909" lon="0.20704">
        <ele>2148</ele>
        <time>2017-02-23T09:39:30Z</time>
      </trkpt>
      <trkpt lat="42.7591" lon="0.20708">
        <ele>2149</ele>
        <time>2017-02-23T09:39:35Z</time>
      </trkpt>
      <trkpt lat="42.75912" lon="0.20711">
        <ele>2149</ele>
        <time>2017-02-23T09:39:40Z</time>
      </trkpt>
      <trkpt lat="42.75914" lon="0.20714">
        <ele>2146.6</ele>
        <time>2017-02-23T09:39:45Z</time>
      </trkpt>
      <trkpt lat="42.75914" lon="0.20714">
        <ele>2149.6</ele>
        <time>2017-02-23T09:39:50Z</time>
      </trkpt>
      <trkpt lat="42.75914" lon="0.20714">
        <ele>2149.6</ele>
        <time>2017-02-23T09:39:55Z</time>
      </trkpt>
      <trkpt lat="42.75914" lon="0.20714">
        <ele>2149.8</ele>
        <time>2017-02-23T09:40:00Z</time>
      </trkpt>
      <trkpt lat="42.75914" lon="0.20714">
        <ele>2149.8</ele>
        <time>2017-02-23T09:40:05Z</time>
      </trkpt>
      <trkpt lat="42.75913" lon="0.20715">
        <ele>2151.8</ele>
        <time>2017-02-23T09:40:10Z</time>
      </trkpt>
      <trkpt lat="42.7591" lon="0.20716">
        <ele>2150.4</ele>
        <time>2017-02-23T09:40:15Z</time>
      </trkpt>
      <trkpt lat="42.75907" lon="0.20717">
        <ele>2149.4</ele>
        <time>2017-02-23T09:40:20Z</time>
      </trkpt>
      <trkpt lat="42.75904" lon="0.20716">
        <ele>2152.8</ele>
        <time>2017-02-23T09:40:25Z</time>
      </trkpt>
      <trkpt lat="42.759" lon="0.20716">
        <ele>2152.4</ele>
        <time>2017-02-23T09:40:30Z</time>
      </trkpt>
      <trkpt lat="42.75897" lon="0.20716">
        <ele>2153.4</ele>
        <time>2017-02-23T09:40:35Z</time>
      </trkpt>
      <trkpt lat="42.75894" lon="0.20716">
        <ele>2156</ele>
        <time>2017-02-23T09:40:40Z</time>
      </trkpt>
      <trkpt lat="42.75891" lon="0.20716">
        <ele>2157</ele>
        <time>2017-02-23T09:40:45Z</time>
      </trkpt>
      <trkpt lat="42.75892" lon="0.2072">
        <ele>2159.2</ele>
        <time>2017-02-23T09:40:50Z</time>
      </trkpt>
      <trkpt lat="42.75893" lon="0.20724">
        <ele>2157.6</ele>
        <time>2017-02-23T09:40:55Z</time>
      </trkpt>
      <trkpt lat="42.75894" lon="0.20727">
        <ele>2161</ele>
        <time>2017-02-23T09:41:00Z</time>
      </trkpt>
      <trkpt lat="42.75895" lon="0.2073">
        <ele>2160.4</ele>
        <time>2017-02-23T09:41:05Z</time>
      </trkpt>
      <trkpt lat="42.75895" lon="0.20731">
        <ele>2161.2</ele>
        <time>2017-02-23T09:41:10Z</time>
      </trkpt>
      <trkpt lat="42.75896" lon="0.20731">
        <ele>2161</ele>
        <time>2017-02-23T09:41:15Z</time>
      </trkpt>
      <trkpt lat="42.75894" lon="0.20732">
        <ele>2161</ele>
        <time>2017-02-23T09:41:20Z</time>
      </trkpt>
      <trkpt lat="42.75893" lon="0.20733">
        <ele>2161</ele>
        <time>2017-02-23T09:41:25Z</time>
      </trkpt>
      <trkpt lat="42.75893" lon="0.20733">
        <ele>2161</ele>
        <time>2017-02-23T09:41:30Z</time>
      </trkpt>
      <trkpt lat="42.75893" lon="0.20733">
        <ele>2161.2</ele>
        <time>2017-02-23T09:41:35Z</time>
      </trkpt>
      <trkpt lat="42.75893" lon="0.20733">
        <ele>2161.2</ele>
        <time>2017-02-23T09:41:40Z</time>
      </trkpt>
      <trkpt lat="42.75893" lon="0.20733">
        <ele>2161.2</ele>
        <time>2017-02-23T09:41:45Z</time>
      </trkpt>
      <trkpt lat="42.75893" lon="0.20732">
        <ele>2161.2</ele>
        <time>2017-02-23T09:41:50Z</time>
      </trkpt>
      <trkpt lat="42.75894" lon="0.20732">
        <ele>2161.4</ele>
        <time>2017-02-23T09:41:55Z</time>
      </trkpt>
      <trkpt lat="42.75894" lon="0.20732">
        <ele>2161.4</ele>
        <time>2017-02-23T09:42:00Z</time>
      </trkpt>
      <trkpt lat="42.75894" lon="0.20733">
        <ele>2161.4</ele>
        <time>2017-02-23T09:42:05Z</time>
      </trkpt>
      <trkpt lat="42.75894" lon="0.20733">
        <ele>2161.4</ele>
        <time>2017-02-23T09:42:10Z</time>
      </trkpt>
      <trkpt lat="42.75894" lon="0.20732">
        <ele>2161.2</ele>
        <time>2017-02-23T09:42:15Z</time>
      </trkpt>
      <trkpt lat="42.75893" lon="0.20732">
        <ele>2159.8</ele>
        <time>2017-02-23T09:42:20Z</time>
      </trkpt>
      <trkpt lat="42.7589" lon="0.20733">
        <ele>2160.6</ele>
        <time>2017-02-23T09:42:25Z</time>
      </trkpt>
      <trkpt lat="42.75887" lon="0.20733">
        <ele>2160.2</ele>
        <time>2017-02-23T09:42:30Z</time>
      </trkpt>
      <trkpt lat="42.75883" lon="0.20733">
        <ele>2163.2</ele>
        <time>2017-02-23T09:42:35Z</time>
      </trkpt>
      <trkpt lat="42.75879" lon="0.20733">
        <ele>2163.4</ele>
        <time>2017-02-23T09:42:40Z</time>
      </trkpt>
      <trkpt lat="42.75876" lon="0.20733">
        <ele>2166.4</ele>
        <time>2017-02-23T09:42:45Z</time>
      </trkpt>
      <trkpt lat="42.75875" lon="0.20733">
        <ele>2163.6</ele>
        <time>2017-02-23T09:42:50Z</time>
      </trkpt>
      <trkpt lat="42.75875" lon="0.20733">
        <ele>2163.8</ele>
        <time>2017-02-23T09:42:55Z</time>
      </trkpt>
      <trkpt lat="42.75875" lon="0.20733">
        <ele>2164</ele>
        <time>2017-02-23T09:43:00Z</time>
      </trkpt>
      <trkpt lat="42.75875" lon="0.20733">
        <ele>2164</ele>
        <time>2017-02-23T09:43:05Z</time>
      </trkpt>
      <trkpt lat="42.75875" lon="0.20733">
        <ele>2164.2</ele>
        <time>2017-02-23T09:43:10Z</time>
      </trkpt>
      <trkpt lat="42.75875" lon="0.20733">
        <ele>2164.2</ele>
        <time>2017-02-23T09:43:15Z</time>
      </trkpt>
      <trkpt lat="42.75875" lon="0.20733">
        <ele>2164.2</ele>
        <time>2017-02-23T09:43:20Z</time>
      </trkpt>
      <trkpt lat="42.75875" lon="0.20733">
        <ele>2164.2</ele>
        <time>2017-02-23T09:43:25Z</time>
      </trkpt>
      <trkpt lat="42.75875" lon="0.20733">
        <ele>2164.4</ele>
        <time>2017-02-23T09:43:30Z</time>
      </trkpt>
      <trkpt lat="42.75875" lon="0.20733">
        <ele>2164.4</ele>
        <time>2017-02-23T09:43:35Z</time>
      </trkpt>
      <trkpt lat="42.75875" lon="0.20733">
        <ele>2164.4</ele>
        <time>2017-02-23T09:43:40Z</time>
      </trkpt>
      <trkpt lat="42.75875" lon="0.20733">
        <ele>2164.4</ele>
        <time>2017-02-23T09:43:45Z</time>
      </trkpt>
      <trkpt lat="42.75875" lon="0.20733">
        <ele>2164.4</ele>
        <time>2017-02-23T09:43:50Z</time>
      </trkpt>
      <trkpt lat="42.75875" lon="0.20733">
        <ele>2164.4</ele>
        <time>2017-02-23T09:43:55Z</time>
      </trkpt>
      <trkpt lat="42.75875" lon="0.20733">
        <ele>2164.4</ele>
        <time>2017-02-23T09:44:00Z</time>
      </trkpt>
      <trkpt lat="42.75875" lon="0.20733">
        <ele>2164.4</ele>
        <time>2017-02-23T09:44:05Z</time>
      </trkpt>
      <trkpt lat="42.75876" lon="0.20733">
        <ele>2164.4</ele>
        <time>2017-02-23T09:44:10Z</time>
      </trkpt>
      <trkpt lat="42.75876" lon="0.20733">
        <ele>2164.4</ele>
        <time>2017-02-23T09:44:15Z</time>
      </trkpt>
      <trkpt lat="42.75875" lon="0.20733">
        <ele>2165.6</ele>
        <time>2017-02-23T09:44:20Z</time>
      </trkpt>
      <trkpt lat="42.75871" lon="0.20733">
        <ele>2163.8</ele>
        <time>2017-02-23T09:44:25Z</time>
      </trkpt>
      <trkpt lat="42.75868" lon="0.20732">
        <ele>2165.2</ele>
        <time>2017-02-23T09:44:30Z</time>
      </trkpt>
      <trkpt lat="42.75865" lon="0.20731">
        <ele>2168.6</ele>
        <time>2017-02-23T09:44:35Z</time>
      </trkpt>
      <trkpt lat="42.75862" lon="0.2073">
        <ele>2165.4</ele>
        <time>2017-02-23T09:44:40Z</time>
      </trkpt>
      <trkpt lat="42.7586" lon="0.20728">
        <ele>2170.6</ele>
        <time>2017-02-23T09:44:45Z</time>
      </trkpt>
      <trkpt lat="42.75858" lon="0.20725">
        <ele>2170.2</ele>
        <time>2017-02-23T09:44:50Z</time>
      </trkpt>
      <trkpt lat="42.75858" lon="0.20724">
        <ele>2169.4</ele>
        <time>2017-02-23T09:44:55Z</time>
      </trkpt>
      <trkpt lat="42.75855" lon="0.20722">
        <ele>2176.8</ele>
        <time>2017-02-23T09:45:00Z</time>
      </trkpt>
      <trkpt lat="42.75853" lon="0.2072">
        <ele>2173</ele>
        <time>2017-02-23T09:45:05Z</time>
      </trkpt>
      <trkpt lat="42.7585" lon="0.20719">
        <ele>2171.8</ele>
        <time>2017-02-23T09:45:10Z</time>
      </trkpt>
      <trkpt lat="42.75849" lon="0.20718">
        <ele>2173.2</ele>
        <time>2017-02-23T09:45:15Z</time>
      </trkpt>
      <trkpt lat="42.75846" lon="0.20717">
        <ele>2176</ele>
        <time>2017-02-23T09:45:20Z</time>
      </trkpt>
      <trkpt lat="42.75844" lon="0.20715">
        <ele>2174.6</ele>
        <time>2017-02-23T09:45:25Z</time>
      </trkpt>
      <trkpt lat="42.75842" lon="0.20714">
        <ele>2177.2</ele>
        <time>2017-02-23T09:45:30Z</time>
      </trkpt>
      <trkpt lat="42.7584" lon="0.20712">
        <ele>2179</ele>
        <time>2017-02-23T09:45:35Z</time>
      </trkpt>
      <trkpt lat="42.75837" lon="0.20711">
        <ele>2178.8</ele>
        <time>2017-02-23T09:45:40Z</time>
      </trkpt>
      <trkpt lat="42.75835" lon="0.20711">
        <ele>2179</ele>
        <time>2017-02-23T09:45:45Z</time>
      </trkpt>
      <trkpt lat="42.75832" lon="0.2071">
        <ele>2180</ele>
        <time>2017-02-23T09:45:50Z</time>
      </trkpt>
      <trkpt lat="42.75829" lon="0.20709">
        <ele>2178.8</ele>
        <time>2017-02-23T09:45:55Z</time>
      </trkpt>
      <trkpt lat="42.75829" lon="0.20709">
        <ele>2179.2</ele>
        <time>2017-02-23T09:46:00Z</time>
      </trkpt>
      <trkpt lat="42.7583" lon="0.20709">
        <ele>2179.6</ele>
        <time>2017-02-23T09:46:05Z</time>
      </trkpt>
      <trkpt lat="42.7583" lon="0.20709">
        <ele>2180</ele>
        <time>2017-02-23T09:46:10Z</time>
      </trkpt>
      <trkpt lat="42.7583" lon="0.20709">
        <ele>2180.2</ele>
        <time>2017-02-23T09:46:15Z</time>
      </trkpt>
      <trkpt lat="42.75829" lon="0.20709">
        <ele>2180.4</ele>
        <time>2017-02-23T09:46:20Z</time>
      </trkpt>
      <trkpt lat="42.75826" lon="0.20708">
        <ele>2183.8</ele>
        <time>2017-02-23T09:46:25Z</time>
      </trkpt>
      <trkpt lat="42.75823" lon="0.20708">
        <ele>2182.2</ele>
        <time>2017-02-23T09:46:30Z</time>
      </trkpt>
      <trkpt lat="42.75821" lon="0.20708">
        <ele>2186.2</ele>
        <time>2017-02-23T09:46:35Z</time>
      </trkpt>
      <trkpt lat="42.75818" lon="0.20708">
        <ele>2184.6</ele>
        <time>2017-02-23T09:46:40Z</time>
      </trkpt>
      <trkpt lat="42.75815" lon="0.20708">
        <ele>2181.2</ele>
        <time>2017-02-23T09:46:45Z</time>
      </trkpt>
      <trkpt lat="42.75814" lon="0.20708">
        <ele>2184.2</ele>
        <time>2017-02-23T09:46:50Z</time>
      </trkpt>
      <trkpt lat="42.75811" lon="0.20707">
        <ele>2185</ele>
        <time>2017-02-23T09:46:55Z</time>
      </trkpt>
      <trkpt lat="42.75809" lon="0.20705">
        <ele>2186.6</ele>
        <time>2017-02-23T09:47:00Z</time>
      </trkpt>
      <trkpt lat="42.75806" lon="0.20704">
        <ele>2186.4</ele>
        <time>2017-02-23T09:47:05Z</time>
      </trkpt>
      <trkpt lat="42.75805" lon="0.20706">
        <ele>2191</ele>
        <time>2017-02-23T09:47:10Z</time>
      </trkpt>
      <trkpt lat="42.75803" lon="0.20709">
        <ele>2187.2</ele>
        <time>2017-02-23T09:47:15Z</time>
      </trkpt>
      <trkpt lat="42.75803" lon="0.2071">
        <ele>2187.8</ele>
        <time>2017-02-23T09:47:20Z</time>
      </trkpt>
      <trkpt lat="42.75803" lon="0.2071">
        <ele>2188.2</ele>
        <time>2017-02-23T09:47:25Z</time>
      </trkpt>
      <trkpt lat="42.75802" lon="0.20713">
        <ele>2185.4</ele>
        <time>2017-02-23T09:47:30Z</time>
      </trkpt>
      <trkpt lat="42.75799" lon="0.20713">
        <ele>2189.2</ele>
        <time>2017-02-23T09:47:35Z</time>
      </trkpt>
      <trkpt lat="42.75797" lon="0.20713">
        <ele>2188.8</ele>
        <time>2017-02-23T09:47:40Z</time>
      </trkpt>
      <trkpt lat="42.75794" lon="0.20714">
        <ele>2192.6</ele>
        <time>2017-02-23T09:47:45Z</time>
      </trkpt>
      <trkpt lat="42.75791" lon="0.20714">
        <ele>2195</ele>
        <time>2017-02-23T09:47:50Z</time>
      </trkpt>
      <trkpt lat="42.75789" lon="0.20714">
        <ele>2192.2</ele>
        <time>2017-02-23T09:47:55Z</time>
      </trkpt>
      <trkpt lat="42.75789" lon="0.20714">
        <ele>2193.4</ele>
        <time>2017-02-23T09:48:00Z</time>
      </trkpt>
      <trkpt lat="42.75789" lon="0.20714">
        <ele>2193.6</ele>
        <time>2017-02-23T09:48:05Z</time>
      </trkpt>
      <trkpt lat="42.75788" lon="0.20714">
        <ele>2192.6</ele>
        <time>2017-02-23T09:48:10Z</time>
      </trkpt>
      <trkpt lat="42.75785" lon="0.20715">
        <ele>2195.6</ele>
        <time>2017-02-23T09:48:15Z</time>
      </trkpt>
      <trkpt lat="42.75783" lon="0.20715">
        <ele>2197.4</ele>
        <time>2017-02-23T09:48:20Z</time>
      </trkpt>
      <trkpt lat="42.7578" lon="0.20715">
        <ele>2196.6</ele>
        <time>2017-02-23T09:48:25Z</time>
      </trkpt>
      <trkpt lat="42.75778" lon="0.20716">
        <ele>2197.6</ele>
        <time>2017-02-23T09:48:30Z</time>
      </trkpt>
      <trkpt lat="42.75776" lon="0.20716">
        <ele>2203</ele>
        <time>2017-02-23T09:48:35Z</time>
      </trkpt>
      <trkpt lat="42.75774" lon="0.20717">
        <ele>2205.4</ele>
        <time>2017-02-23T09:48:40Z</time>
      </trkpt>
      <trkpt lat="42.75772" lon="0.20717">
        <ele>2201.6</ele>
        <time>2017-02-23T09:48:45Z</time>
      </trkpt>
      <trkpt lat="42.75772" lon="0.20717">
        <ele>2202.2</ele>
        <time>2017-02-23T09:48:50Z</time>
      </trkpt>
      <trkpt lat="42.75772" lon="0.20717">
        <ele>2202.6</ele>
        <time>2017-02-23T09:48:55Z</time>
      </trkpt>
      <trkpt lat="42.75772" lon="0.20717">
        <ele>2202.8</ele>
        <time>2017-02-23T09:49:00Z</time>
      </trkpt>
      <trkpt lat="42.75771" lon="0.20719">
        <ele>2200.8</ele>
        <time>2017-02-23T09:49:05Z</time>
      </trkpt>
      <trkpt lat="42.7577" lon="0.20722">
        <ele>2201</ele>
        <time>2017-02-23T09:49:10Z</time>
      </trkpt>
      <trkpt lat="42.75767" lon="0.20723">
        <ele>2204</ele>
        <time>2017-02-23T09:49:15Z</time>
      </trkpt>
      <trkpt lat="42.75764" lon="0.20724">
        <ele>2204.6</ele>
        <time>2017-02-23T09:49:20Z</time>
      </trkpt>
      <trkpt lat="42.75763" lon="0.20723">
        <ele>2203.6</ele>
        <time>2017-02-23T09:49:25Z</time>
      </trkpt>
      <trkpt lat="42.7576" lon="0.20724">
        <ele>2205.4</ele>
        <time>2017-02-23T09:49:30Z</time>
      </trkpt>
      <trkpt lat="42.75757" lon="0.20725">
        <ele>2205.6</ele>
        <time>2017-02-23T09:49:35Z</time>
      </trkpt>
      <trkpt lat="42.75755" lon="0.20726">
        <ele>2202.6</ele>
        <time>2017-02-23T09:49:40Z</time>
      </trkpt>
      <trkpt lat="42.75752" lon="0.20728">
        <ele>2202.4</ele>
        <time>2017-02-23T09:49:45Z</time>
      </trkpt>
      <trkpt lat="42.75751" lon="0.20729">
        <ele>2201.4</ele>
        <time>2017-02-23T09:49:50Z</time>
      </trkpt>
      <trkpt lat="42.7575" lon="0.2073">
        <ele>2201.8</ele>
        <time>2017-02-23T09:49:55Z</time>
      </trkpt>
      <trkpt lat="42.75747" lon="0.20732">
        <ele>2199.6</ele>
        <time>2017-02-23T09:50:00Z</time>
      </trkpt>
      <trkpt lat="42.75746" lon="0.20733">
        <ele>2204.8</ele>
        <time>2017-02-23T09:50:05Z</time>
      </trkpt>
      <trkpt lat="42.75744" lon="0.20734">
        <ele>2201.4</ele>
        <time>2017-02-23T09:50:10Z</time>
      </trkpt>
      <trkpt lat="42.75742" lon="0.20735">
        <ele>2200</ele>
        <time>2017-02-23T09:50:15Z</time>
      </trkpt>
      <trkpt lat="42.75739" lon="0.20735">
        <ele>2199.4</ele>
        <time>2017-02-23T09:50:20Z</time>
      </trkpt>
      <trkpt lat="42.75737" lon="0.20736">
        <ele>2202</ele>
        <time>2017-02-23T09:50:25Z</time>
      </trkpt>
      <trkpt lat="42.75737" lon="0.20736">
        <ele>2202.4</ele>
        <time>2017-02-23T09:50:30Z</time>
      </trkpt>
      <trkpt lat="42.75736" lon="0.20738">
        <ele>2203.8</ele>
        <time>2017-02-23T09:50:35Z</time>
      </trkpt>
      <trkpt lat="42.75734" lon="0.20739">
        <ele>2200.6</ele>
        <time>2017-02-23T09:50:40Z</time>
      </trkpt>
      <trkpt lat="42.75733" lon="0.20741">
        <ele>2203.6</ele>
        <time>2017-02-23T09:50:45Z</time>
      </trkpt>
      <trkpt lat="42.75731" lon="0.20742">
        <ele>2207.4</ele>
        <time>2017-02-23T09:50:50Z</time>
      </trkpt>
      <trkpt lat="42.75729" lon="0.20744">
        <ele>2205.6</ele>
        <time>2017-02-23T09:50:55Z</time>
      </trkpt>
      <trkpt lat="42.75727" lon="0.20746">
        <ele>2207.6</ele>
        <time>2017-02-23T09:51:00Z</time>
      </trkpt>
      <trkpt lat="42.75726" lon="0.20748">
        <ele>2209.8</ele>
        <time>2017-02-23T09:51:05Z</time>
      </trkpt>
      <trkpt lat="42.75724" lon="0.20749">
        <ele>2208.8</ele>
        <time>2017-02-23T09:51:10Z</time>
      </trkpt>
      <trkpt lat="42.75723" lon="0.20749">
        <ele>2210.8</ele>
        <time>2017-02-23T09:51:15Z</time>
      </trkpt>
      <trkpt lat="42.75721" lon="0.2075">
        <ele>2208.6</ele>
        <time>2017-02-23T09:51:20Z</time>
      </trkpt>
      <trkpt lat="42.75719" lon="0.20751">
        <ele>2210.6</ele>
        <time>2017-02-23T09:51:25Z</time>
      </trkpt>
      <trkpt lat="42.75717" lon="0.20752">
        <ele>2213.8</ele>
        <time>2017-02-23T09:51:30Z</time>
      </trkpt>
      <trkpt lat="42.75715" lon="0.20754">
        <ele>2216.4</ele>
        <time>2017-02-23T09:51:35Z</time>
      </trkpt>
      <trkpt lat="42.75713" lon="0.20756">
        <ele>2216.8</ele>
        <time>2017-02-23T09:51:40Z</time>
      </trkpt>
      <trkpt lat="42.75711" lon="0.20757">
        <ele>2215</ele>
        <time>2017-02-23T09:51:45Z</time>
      </trkpt>
      <trkpt lat="42.75709" lon="0.20758">
        <ele>2218.2</ele>
        <time>2017-02-23T09:51:50Z</time>
      </trkpt>
      <trkpt lat="42.75706" lon="0.20759">
        <ele>2218.8</ele>
        <time>2017-02-23T09:51:55Z</time>
      </trkpt>
      <trkpt lat="42.75704" lon="0.20759">
        <ele>2218.8</ele>
        <time>2017-02-23T09:52:00Z</time>
      </trkpt>
      <trkpt lat="42.75702" lon="0.2076">
        <ele>2220</ele>
        <time>2017-02-23T09:52:05Z</time>
      </trkpt>
      <trkpt lat="42.75699" lon="0.2076">
        <ele>2217.4</ele>
        <time>2017-02-23T09:52:10Z</time>
      </trkpt>
      <trkpt lat="42.75696" lon="0.2076">
        <ele>2217.2</ele>
        <time>2017-02-23T09:52:15Z</time>
      </trkpt>
      <trkpt lat="42.75694" lon="0.2076">
        <ele>2222.8</ele>
        <time>2017-02-23T09:52:20Z</time>
      </trkpt>
      <trkpt lat="42.7569" lon="0.2076">
        <ele>2224.2</ele>
        <time>2017-02-23T09:52:25Z</time>
      </trkpt>
      <trkpt lat="42.75687" lon="0.2076">
        <ele>2222.8</ele>
        <time>2017-02-23T09:52:30Z</time>
      </trkpt>
      <trkpt lat="42.75683" lon="0.2076">
        <ele>2224.2</ele>
        <time>2017-02-23T09:52:35Z</time>
      </trkpt>
      <trkpt lat="42.7568" lon="0.2076">
        <ele>2224.6</ele>
        <time>2017-02-23T09:52:40Z</time>
      </trkpt>
      <trkpt lat="42.75677" lon="0.20759">
        <ele>2225.2</ele>
        <time>2017-02-23T09:52:45Z</time>
      </trkpt>
      <trkpt lat="42.75673" lon="0.20758">
        <ele>2223.2</ele>
        <time>2017-02-23T09:52:50Z</time>
      </trkpt>
      <trkpt lat="42.75672" lon="0.20757">
        <ele>2228.2</ele>
        <time>2017-02-23T09:52:56Z</time>
      </trkpt>
      <trkpt lat="42.75672" lon="0.20757">
        <ele>2229.4</ele>
        <time>2017-02-23T09:53:01Z</time>
      </trkpt>
      <trkpt lat="42.75672" lon="0.20757">
        <ele>2231.6</ele>
        <time>2017-02-23T09:53:06Z</time>
      </trkpt>
      <trkpt lat="42.75672" lon="0.20757">
        <ele>2232</ele>
        <time>2017-02-23T09:53:11Z</time>
      </trkpt>
      <trkpt lat="42.75673" lon="0.20757">
        <ele>2232.4</ele>
        <time>2017-02-23T09:53:16Z</time>
      </trkpt>
      <trkpt lat="42.75673" lon="0.20757">
        <ele>2232.6</ele>
        <time>2017-02-23T09:53:21Z</time>
      </trkpt>
      <trkpt lat="42.75673" lon="0.20757">
        <ele>2232.8</ele>
        <time>2017-02-23T09:53:26Z</time>
      </trkpt>
      <trkpt lat="42.75674" lon="0.20758">
        <ele>2233</ele>
        <time>2017-02-23T09:53:31Z</time>
      </trkpt>
      <trkpt lat="42.75674" lon="0.20758">
        <ele>2233.2</ele>
        <time>2017-02-23T09:53:36Z</time>
      </trkpt>
      <trkpt lat="42.75674" lon="0.20758">
        <ele>2233.4</ele>
        <time>2017-02-23T09:53:41Z</time>
      </trkpt>
      <trkpt lat="42.75674" lon="0.20758">
        <ele>2233.8</ele>
        <time>2017-02-23T09:53:46Z</time>
      </trkpt>
      <trkpt lat="42.75674" lon="0.20758">
        <ele>2234.2</ele>
        <time>2017-02-23T09:53:51Z</time>
      </trkpt>
      <trkpt lat="42.75674" lon="0.20758">
        <ele>2234.4</ele>
        <time>2017-02-23T09:53:56Z</time>
      </trkpt>
      <trkpt lat="42.75674" lon="0.20758">
        <ele>2233.6</ele>
        <time>2017-02-23T09:54:01Z</time>
      </trkpt>
      <trkpt lat="42.75674" lon="0.20758">
        <ele>2234</ele>
        <time>2017-02-23T09:54:06Z</time>
      </trkpt>
      <trkpt lat="42.75674" lon="0.20758">
        <ele>2234.2</ele>
        <time>2017-02-23T09:54:11Z</time>
      </trkpt>
      <trkpt lat="42.75674" lon="0.20758">
        <ele>2234.4</ele>
        <time>2017-02-23T09:54:16Z</time>
      </trkpt>
      <trkpt lat="42.75674" lon="0.20758">
        <ele>2234.6</ele>
        <time>2017-02-23T09:54:21Z</time>
      </trkpt>
      <trkpt lat="42.75674" lon="0.20758">
        <ele>2234.6</ele>
        <time>2017-02-23T09:54:26Z</time>
      </trkpt>
      <trkpt lat="42.75674" lon="0.20758">
        <ele>2234.6</ele>
        <time>2017-02-23T09:54:31Z</time>
      </trkpt>
      <trkpt lat="42.75674" lon="0.20758">
        <ele>2234.6</ele>
        <time>2017-02-23T09:54:36Z</time>
      </trkpt>
      <trkpt lat="42.75674" lon="0.20758">
        <ele>2234.8</ele>
        <time>2017-02-23T09:54:41Z</time>
      </trkpt>
      <trkpt lat="42.75674" lon="0.20758">
        <ele>2234.8</ele>
        <time>2017-02-23T09:54:46Z</time>
      </trkpt>
      <trkpt lat="42.75674" lon="0.20758">
        <ele>2234.8</ele>
        <time>2017-02-23T09:54:51Z</time>
      </trkpt>
      <trkpt lat="42.75674" lon="0.20758">
        <ele>2234.8</ele>
        <time>2017-02-23T09:54:56Z</time>
      </trkpt>
      <trkpt lat="42.75674" lon="0.20758">
        <ele>2234.8</ele>
        <time>2017-02-23T09:55:01Z</time>
      </trkpt>
      <trkpt lat="42.75674" lon="0.20758">
        <ele>2234.8</ele>
        <time>2017-02-23T09:55:06Z</time>
      </trkpt>
      <trkpt lat="42.75674" lon="0.20758">
        <ele>2234.8</ele>
        <time>2017-02-23T09:55:11Z</time>
      </trkpt>
      <trkpt lat="42.75674" lon="0.20758">
        <ele>2234.8</ele>
        <time>2017-02-23T09:55:16Z</time>
      </trkpt>
      <trkpt lat="42.75674" lon="0.20758">
        <ele>2234.8</ele>
        <time>2017-02-23T09:55:21Z</time>
      </trkpt>
      <trkpt lat="42.75674" lon="0.20758">
        <ele>2234.6</ele>
        <time>2017-02-23T09:55:26Z</time>
      </trkpt>
      <trkpt lat="42.75674" lon="0.20758">
        <ele>2234.6</ele>
        <time>2017-02-23T09:55:31Z</time>
      </trkpt>
      <trkpt lat="42.75674" lon="0.20758">
        <ele>2234.6</ele>
        <time>2017-02-23T09:55:36Z</time>
      </trkpt>
      <trkpt lat="42.75674" lon="0.20758">
        <ele>2234.6</ele>
        <time>2017-02-23T09:55:41Z</time>
      </trkpt>
      <trkpt lat="42.75674" lon="0.20758">
        <ele>2234.6</ele>
        <time>2017-02-23T09:55:46Z</time>
      </trkpt>
      <trkpt lat="42.75674" lon="0.20758">
        <ele>2234.6</ele>
        <time>2017-02-23T09:55:51Z</time>
      </trkpt>
      <trkpt lat="42.75674" lon="0.20758">
        <ele>2234.6</ele>
        <time>2017-02-23T09:55:56Z</time>
      </trkpt>
      <trkpt lat="42.75674" lon="0.20758">
        <ele>2234.6</ele>
        <time>2017-02-23T09:56:01Z</time>
      </trkpt>
      <trkpt lat="42.75674" lon="0.20758">
        <ele>2234.6</ele>
        <time>2017-02-23T09:56:06Z</time>
      </trkpt>
      <trkpt lat="42.75674" lon="0.20758">
        <ele>2234.6</ele>
        <time>2017-02-23T09:56:11Z</time>
      </trkpt>
      <trkpt lat="42.75674" lon="0.20758">
        <ele>2234.4</ele>
        <time>2017-02-23T09:56:16Z</time>
      </trkpt>
      <trkpt lat="42.75674" lon="0.20758">
        <ele>2234.4</ele>
        <time>2017-02-23T09:56:21Z</time>
      </trkpt>
      <trkpt lat="42.75674" lon="0.20758">
        <ele>2234.4</ele>
        <time>2017-02-23T09:56:26Z</time>
      </trkpt>
      <trkpt lat="42.75674" lon="0.20758">
        <ele>2234.4</ele>
        <time>2017-02-23T09:56:31Z</time>
      </trkpt>
      <trkpt lat="42.75674" lon="0.20758">
        <ele>2234.4</ele>
        <time>2017-02-23T09:56:36Z</time>
      </trkpt>
      <trkpt lat="42.75674" lon="0.20758">
        <ele>2234.4</ele>
        <time>2017-02-23T09:56:41Z</time>
      </trkpt>
      <trkpt lat="42.75674" lon="0.20757">
        <ele>2234.4</ele>
        <time>2017-02-23T09:56:46Z</time>
      </trkpt>
      <trkpt lat="42.75674" lon="0.20757">
        <ele>2234.4</ele>
        <time>2017-02-23T09:56:51Z</time>
      </trkpt>
      <trkpt lat="42.75674" lon="0.20757">
        <ele>2234.4</ele>
        <time>2017-02-23T09:56:56Z</time>
      </trkpt>
      <trkpt lat="42.75674" lon="0.20757">
        <ele>2234.4</ele>
        <time>2017-02-23T09:57:01Z</time>
      </trkpt>
      <trkpt lat="42.75674" lon="0.20757">
        <ele>2234.4</ele>
        <time>2017-02-23T09:57:06Z</time>
      </trkpt>
      <trkpt lat="42.75674" lon="0.20757">
        <ele>2234.4</ele>
        <time>2017-02-23T09:57:11Z</time>
      </trkpt>
      <trkpt lat="42.75674" lon="0.20757">
        <ele>2234.4</ele>
        <time>2017-02-23T09:57:16Z</time>
      </trkpt>
      <trkpt lat="42.75674" lon="0.20757">
        <ele>2234.2</ele>
        <time>2017-02-23T09:57:21Z</time>
      </trkpt>
      <trkpt lat="42.75674" lon="0.20757">
        <ele>2234.2</ele>
        <time>2017-02-23T09:57:26Z</time>
      </trkpt>
      <trkpt lat="42.75674" lon="0.20757">
        <ele>2234.2</ele>
        <time>2017-02-23T09:57:31Z</time>
      </trkpt>
      <trkpt lat="42.75674" lon="0.20757">
        <ele>2234.2</ele>
        <time>2017-02-23T09:57:36Z</time>
      </trkpt>
      <trkpt lat="42.75674" lon="0.20757">
        <ele>2234.2</ele>
        <time>2017-02-23T09:57:41Z</time>
      </trkpt>
      <trkpt lat="42.75674" lon="0.20757">
        <ele>2234.2</ele>
        <time>2017-02-23T09:57:46Z</time>
      </trkpt>
      <trkpt lat="42.75674" lon="0.20757">
        <ele>2234.2</ele>
        <time>2017-02-23T09:57:51Z</time>
      </trkpt>
      <trkpt lat="42.75674" lon="0.20757">
        <ele>2234.2</ele>
        <time>2017-02-23T09:57:56Z</time>
      </trkpt>
      <trkpt lat="42.75674" lon="0.20757">
        <ele>2234.4</ele>
        <time>2017-02-23T09:58:01Z</time>
      </trkpt>
      <trkpt lat="42.75674" lon="0.20757">
        <ele>2234.4</ele>
        <time>2017-02-23T09:58:06Z</time>
      </trkpt>
      <trkpt lat="42.75674" lon="0.20757">
        <ele>2234.4</ele>
        <time>2017-02-23T09:58:11Z</time>
      </trkpt>
      <trkpt lat="42.75674" lon="0.20756">
        <ele>2234.4</ele>
        <time>2017-02-23T09:58:16Z</time>
      </trkpt>
      <trkpt lat="42.75674" lon="0.20756">
        <ele>2234.4</ele>
        <time>2017-02-23T09:58:21Z</time>
      </trkpt>
      <trkpt lat="42.75674" lon="0.20756">
        <ele>2234.6</ele>
        <time>2017-02-23T09:58:26Z</time>
      </trkpt>
      <trkpt lat="42.75674" lon="0.20756">
        <ele>2234.6</ele>
        <time>2017-02-23T09:58:31Z</time>
      </trkpt>
      <trkpt lat="42.75674" lon="0.20756">
        <ele>2234.6</ele>
        <time>2017-02-23T09:58:36Z</time>
      </trkpt>
      <trkpt lat="42.75674" lon="0.20756">
        <ele>2234.6</ele>
        <time>2017-02-23T09:58:41Z</time>
      </trkpt>
      <trkpt lat="42.75674" lon="0.20756">
        <ele>2234.6</ele>
        <time>2017-02-23T09:58:46Z</time>
      </trkpt>
      <trkpt lat="42.75674" lon="0.20756">
        <ele>2234.6</ele>
        <time>2017-02-23T09:58:51Z</time>
      </trkpt>
      <trkpt lat="42.75674" lon="0.20756">
        <ele>2234.6</ele>
        <time>2017-02-23T09:58:56Z</time>
      </trkpt>
      <trkpt lat="42.75674" lon="0.20756">
        <ele>2234.6</ele>
        <time>2017-02-23T09:59:01Z</time>
      </trkpt>
      <trkpt lat="42.75674" lon="0.20756">
        <ele>2234.6</ele>
        <time>2017-02-23T09:59:06Z</time>
      </trkpt>
      <trkpt lat="42.75674" lon="0.20756">
        <ele>2234.6</ele>
        <time>2017-02-23T09:59:11Z</time>
      </trkpt>
      <trkpt lat="42.75674" lon="0.20756">
        <ele>2234.6</ele>
        <time>2017-02-23T09:59:16Z</time>
      </trkpt>
      <trkpt lat="42.75674" lon="0.20756">
        <ele>2234.6</ele>
        <time>2017-02-23T09:59:21Z</time>
      </trkpt>
      <trkpt lat="42.75674" lon="0.20756">
        <ele>2234.6</ele>
        <time>2017-02-23T09:59:26Z</time>
      </trkpt>
      <trkpt lat="42.75674" lon="0.20756">
        <ele>2234.6</ele>
        <time>2017-02-23T09:59:31Z</time>
      </trkpt>
      <trkpt lat="42.75674" lon="0.20756">
        <ele>2234.6</ele>
        <time>2017-02-23T09:59:36Z</time>
      </trkpt>
      <trkpt lat="42.75674" lon="0.20756">
        <ele>2234.8</ele>
        <time>2017-02-23T09:59:41Z</time>
      </trkpt>
      <trkpt lat="42.75674" lon="0.20756">
        <ele>2234.8</ele>
        <time>2017-02-23T09:59:46Z</time>
      </trkpt>
      <trkpt lat="42.75674" lon="0.20756">
        <ele>2234.8</ele>
        <time>2017-02-23T09:59:51Z</time>
      </trkpt>
      <trkpt lat="42.75674" lon="0.20756">
        <ele>2234.8</ele>
        <time>2017-02-23T09:59:56Z</time>
      </trkpt>
      <trkpt lat="42.75674" lon="0.20756">
        <ele>2234.8</ele>
        <time>2017-02-23T10:00:01Z</time>
      </trkpt>
      <trkpt lat="42.75674" lon="0.20756">
        <ele>2234.6</ele>
        <time>2017-02-23T10:00:06Z</time>
      </trkpt>
      <trkpt lat="42.75674" lon="0.20756">
        <ele>2234.6</ele>
        <time>2017-02-23T10:00:11Z</time>
      </trkpt>
      <trkpt lat="42.75673" lon="0.20756">
        <ele>2234.6</ele>
        <time>2017-02-23T10:00:16Z</time>
      </trkpt>
      <trkpt lat="42.75673" lon="0.20756">
        <ele>2234.6</ele>
        <time>2017-02-23T10:00:21Z</time>
      </trkpt>
      <trkpt lat="42.75673" lon="0.20756">
        <ele>2234.6</ele>
        <time>2017-02-23T10:00:26Z</time>
      </trkpt>
      <trkpt lat="42.75673" lon="0.20756">
        <ele>2234.6</ele>
        <time>2017-02-23T10:00:31Z</time>
      </trkpt>
      <trkpt lat="42.75673" lon="0.20756">
        <ele>2234.6</ele>
        <time>2017-02-23T10:00:36Z</time>
      </trkpt>
      <trkpt lat="42.75673" lon="0.20756">
        <ele>2234.6</ele>
        <time>2017-02-23T10:00:41Z</time>
      </trkpt>
      <trkpt lat="42.75673" lon="0.20756">
        <ele>2234.6</ele>
        <time>2017-02-23T10:00:47Z</time>
      </trkpt>
      <trkpt lat="42.75673" lon="0.20756">
        <ele>2234.6</ele>
        <time>2017-02-23T10:00:52Z</time>
      </trkpt>
      <trkpt lat="42.75673" lon="0.20756">
        <ele>2234.6</ele>
        <time>2017-02-23T10:00:57Z</time>
      </trkpt>
      <trkpt lat="42.75673" lon="0.20756">
        <ele>2234.6</ele>
        <time>2017-02-23T10:01:02Z</time>
      </trkpt>
      <trkpt lat="42.75673" lon="0.20756">
        <ele>2234.4</ele>
        <time>2017-02-23T10:01:07Z</time>
      </trkpt>
      <trkpt lat="42.75673" lon="0.20756">
        <ele>2234.4</ele>
        <time>2017-02-23T10:01:12Z</time>
      </trkpt>
      <trkpt lat="42.75673" lon="0.20756">
        <ele>2234.4</ele>
        <time>2017-02-23T10:01:17Z</time>
      </trkpt>
      <trkpt lat="42.75673" lon="0.20756">
        <ele>2234.4</ele>
        <time>2017-02-23T10:01:22Z</time>
      </trkpt>
      <trkpt lat="42.75673" lon="0.20756">
        <ele>2234.4</ele>
        <time>2017-02-23T10:01:27Z</time>
      </trkpt>
      <trkpt lat="42.75673" lon="0.20756">
        <ele>2234.4</ele>
        <time>2017-02-23T10:01:32Z</time>
      </trkpt>
      <trkpt lat="42.75673" lon="0.20756">
        <ele>2234.4</ele>
        <time>2017-02-23T10:01:37Z</time>
      </trkpt>
      <trkpt lat="42.75673" lon="0.20756">
        <ele>2234.4</ele>
        <time>2017-02-23T10:01:42Z</time>
      </trkpt>
      <trkpt lat="42.75673" lon="0.20756">
        <ele>2234.4</ele>
        <time>2017-02-23T10:01:47Z</time>
      </trkpt>
      <trkpt lat="42.75673" lon="0.20756">
        <ele>2234.4</ele>
        <time>2017-02-23T10:01:52Z</time>
      </trkpt>
      <trkpt lat="42.75673" lon="0.20756">
        <ele>2234.4</ele>
        <time>2017-02-23T10:01:57Z</time>
      </trkpt>
      <trkpt lat="42.75673" lon="0.20756">
        <ele>2234.4</ele>
        <time>2017-02-23T10:02:02Z</time>
      </trkpt>
      <trkpt lat="42.75673" lon="0.20756">
        <ele>2234.2</ele>
        <time>2017-02-23T10:02:07Z</time>
      </trkpt>
      <trkpt lat="42.75673" lon="0.20756">
        <ele>2234.2</ele>
        <time>2017-02-23T10:02:12Z</time>
      </trkpt>
      <trkpt lat="42.75673" lon="0.20756">
        <ele>2234.2</ele>
        <time>2017-02-23T10:02:17Z</time>
      </trkpt>
      <trkpt lat="42.75673" lon="0.20756">
        <ele>2234.2</ele>
        <time>2017-02-23T10:02:22Z</time>
      </trkpt>
      <trkpt lat="42.75673" lon="0.20756">
        <ele>2234.2</ele>
        <time>2017-02-23T10:02:27Z</time>
      </trkpt>
      <trkpt lat="42.75673" lon="0.20756">
        <ele>2234.2</ele>
        <time>2017-02-23T10:02:32Z</time>
      </trkpt>
      <trkpt lat="42.75673" lon="0.20756">
        <ele>2234.2</ele>
        <time>2017-02-23T10:02:37Z</time>
      </trkpt>
      <trkpt lat="42.75673" lon="0.20756">
        <ele>2234.2</ele>
        <time>2017-02-23T10:02:42Z</time>
      </trkpt>
      <trkpt lat="42.75673" lon="0.20756">
        <ele>2234.2</ele>
        <time>2017-02-23T10:02:47Z</time>
      </trkpt>
      <trkpt lat="42.75673" lon="0.20756">
        <ele>2234.2</ele>
        <time>2017-02-23T10:02:52Z</time>
      </trkpt>
      <trkpt lat="42.75673" lon="0.20756">
        <ele>2234.2</ele>
        <time>2017-02-23T10:02:57Z</time>
      </trkpt>
      <trkpt lat="42.75673" lon="0.20756">
        <ele>2234</ele>
        <time>2017-02-23T10:03:02Z</time>
      </trkpt>
      <trkpt lat="42.75673" lon="0.20756">
        <ele>2234</ele>
        <time>2017-02-23T10:03:07Z</time>
      </trkpt>
      <trkpt lat="42.75673" lon="0.20756">
        <ele>2233.6</ele>
        <time>2017-02-23T10:03:12Z</time>
      </trkpt>
      <trkpt lat="42.75673" lon="0.20756">
        <ele>2233.4</ele>
        <time>2017-02-23T10:03:17Z</time>
      </trkpt>
      <trkpt lat="42.75673" lon="0.20756">
        <ele>2233.2</ele>
        <time>2017-02-23T10:03:22Z</time>
      </trkpt>
      <trkpt lat="42.75673" lon="0.20755">
        <ele>2232.8</ele>
        <time>2017-02-23T10:03:27Z</time>
      </trkpt>
      <trkpt lat="42.75673" lon="0.20755">
        <ele>2235</ele>
        <time>2017-02-23T10:03:32Z</time>
      </trkpt>
      <trkpt lat="42.75673" lon="0.20755">
        <ele>2233.8</ele>
        <time>2017-02-23T10:03:37Z</time>
      </trkpt>
      <trkpt lat="42.75673" lon="0.20755">
        <ele>2233</ele>
        <time>2017-02-23T10:03:42Z</time>
      </trkpt>
      <trkpt lat="42.75673" lon="0.20755">
        <ele>2232.4</ele>
        <time>2017-02-23T10:03:47Z</time>
      </trkpt>
      <trkpt lat="42.75673" lon="0.20755">
        <ele>2232</ele>
        <time>2017-02-23T10:03:52Z</time>
      </trkpt>
      <trkpt lat="42.75673" lon="0.20755">
        <ele>2231.6</ele>
        <time>2017-02-23T10:03:57Z</time>
      </trkpt>
      <trkpt lat="42.75672" lon="0.20754">
        <ele>2229.2</ele>
        <time>2017-02-23T10:04:02Z</time>
      </trkpt>
      <trkpt lat="42.75668" lon="0.20753">
        <ele>2228.8</ele>
        <time>2017-02-23T10:04:07Z</time>
      </trkpt>
      <trkpt lat="42.75664" lon="0.20751">
        <ele>2232.8</ele>
        <time>2017-02-23T10:04:12Z</time>
      </trkpt>
      <trkpt lat="42.7566" lon="0.20747">
        <ele>2229.6</ele>
        <time>2017-02-23T10:04:17Z</time>
      </trkpt>
      <trkpt lat="42.75658" lon="0.20744">
        <ele>2230.6</ele>
        <time>2017-02-23T10:04:22Z</time>
      </trkpt>
      <trkpt lat="42.7566" lon="0.20744">
        <ele>2230.2</ele>
        <time>2017-02-23T10:04:27Z</time>
      </trkpt>
      <trkpt lat="42.75659" lon="0.20742">
        <ele>2229.8</ele>
        <time>2017-02-23T10:04:32Z</time>
      </trkpt>
      <trkpt lat="42.75657" lon="0.20738">
        <ele>2229.8</ele>
        <time>2017-02-23T10:04:37Z</time>
      </trkpt>
      <trkpt lat="42.75657" lon="0.20738">
        <ele>2229.4</ele>
        <time>2017-02-23T10:04:42Z</time>
      </trkpt>
      <trkpt lat="42.75657" lon="0.20737">
        <ele>2229</ele>
        <time>2017-02-23T10:04:47Z</time>
      </trkpt>
      <trkpt lat="42.75657" lon="0.20737">
        <ele>2228.8</ele>
        <time>2017-02-23T10:04:52Z</time>
      </trkpt>
      <trkpt lat="42.75657" lon="0.20737">
        <ele>2228.6</ele>
        <time>2017-02-23T10:04:57Z</time>
      </trkpt>
      <trkpt lat="42.75656" lon="0.20737">
        <ele>2228.2</ele>
        <time>2017-02-23T10:05:02Z</time>
      </trkpt>
      <trkpt lat="42.75655" lon="0.20734">
        <ele>2227</ele>
        <time>2017-02-23T10:05:07Z</time>
      </trkpt>
      <trkpt lat="42.75652" lon="0.20729">
        <ele>2226.2</ele>
        <time>2017-02-23T10:05:12Z</time>
      </trkpt>
      <trkpt lat="42.7565" lon="0.20725">
        <ele>2221.6</ele>
        <time>2017-02-23T10:05:17Z</time>
      </trkpt>
      <trkpt lat="42.75643" lon="0.20719">
        <ele>2219.8</ele>
        <time>2017-02-23T10:05:22Z</time>
      </trkpt>
      <trkpt lat="42.75638" lon="0.20716">
        <ele>2216.2</ele>
        <time>2017-02-23T10:05:27Z</time>
      </trkpt>
      <trkpt lat="42.7563" lon="0.20713">
        <ele>2220.2</ele>
        <time>2017-02-23T10:05:32Z</time>
      </trkpt>
      <trkpt lat="42.75623" lon="0.20712">
        <ele>2217.6</ele>
        <time>2017-02-23T10:05:37Z</time>
      </trkpt>
      <trkpt lat="42.75617" lon="0.20713">
        <ele>2211.8</ele>
        <time>2017-02-23T10:05:42Z</time>
      </trkpt>
      <trkpt lat="42.75611" lon="0.20714">
        <ele>2213.4</ele>
        <time>2017-02-23T10:05:47Z</time>
      </trkpt>
      <trkpt lat="42.75607" lon="0.20714">
        <ele>2210</ele>
        <time>2017-02-23T10:05:52Z</time>
      </trkpt>
      <trkpt lat="42.75604" lon="0.20714">
        <ele>2210</ele>
        <time>2017-02-23T10:05:57Z</time>
      </trkpt>
      <trkpt lat="42.75601" lon="0.20713">
        <ele>2206.6</ele>
        <time>2017-02-23T10:06:02Z</time>
      </trkpt>
      <trkpt lat="42.75597" lon="0.20713">
        <ele>2208.4</ele>
        <time>2017-02-23T10:06:07Z</time>
      </trkpt>
      <trkpt lat="42.75592" lon="0.20713">
        <ele>2207.8</ele>
        <time>2017-02-23T10:06:12Z</time>
      </trkpt>
      <trkpt lat="42.75586" lon="0.20713">
        <ele>2206.6</ele>
        <time>2017-02-23T10:06:18Z</time>
      </trkpt>
      <trkpt lat="42.75582" lon="0.20713">
        <ele>2202.2</ele>
        <time>2017-02-23T10:06:23Z</time>
      </trkpt>
      <trkpt lat="42.75578" lon="0.20714">
        <ele>2204.2</ele>
        <time>2017-02-23T10:06:28Z</time>
      </trkpt>
      <trkpt lat="42.75575" lon="0.20715">
        <ele>2204.4</ele>
        <time>2017-02-23T10:06:33Z</time>
      </trkpt>
      <trkpt lat="42.75573" lon="0.20716">
        <ele>2206.4</ele>
        <time>2017-02-23T10:06:38Z</time>
      </trkpt>
      <trkpt lat="42.7557" lon="0.20718">
        <ele>2203.2</ele>
        <time>2017-02-23T10:06:43Z</time>
      </trkpt>
      <trkpt lat="42.75567" lon="0.20719">
        <ele>2210</ele>
        <time>2017-02-23T10:06:48Z</time>
      </trkpt>
      <trkpt lat="42.75564" lon="0.2072">
        <ele>2208.2</ele>
        <time>2017-02-23T10:06:53Z</time>
      </trkpt>
      <trkpt lat="42.75562" lon="0.20721">
        <ele>2213.4</ele>
        <time>2017-02-23T10:06:58Z</time>
      </trkpt>
      <trkpt lat="42.75558" lon="0.20721">
        <ele>2214.6</ele>
        <time>2017-02-23T10:07:03Z</time>
      </trkpt>
      <trkpt lat="42.75556" lon="0.20722">
        <ele>2217.4</ele>
        <time>2017-02-23T10:07:08Z</time>
      </trkpt>
      <trkpt lat="42.75554" lon="0.20723">
        <ele>2220.6</ele>
        <time>2017-02-23T10:07:13Z</time>
      </trkpt>
      <trkpt lat="42.7555" lon="0.20723">
        <ele>2224.2</ele>
        <time>2017-02-23T10:07:18Z</time>
      </trkpt>
      <trkpt lat="42.75547" lon="0.20726">
        <ele>2228.6</ele>
        <time>2017-02-23T10:07:23Z</time>
      </trkpt>
      <trkpt lat="42.75542" lon="0.20728">
        <ele>2228.4</ele>
        <time>2017-02-23T10:07:28Z</time>
      </trkpt>
      <trkpt lat="42.75539" lon="0.20727">
        <ele>2229.8</ele>
        <time>2017-02-23T10:07:33Z</time>
      </trkpt>
      <trkpt lat="42.75536" lon="0.20727">
        <ele>2231</ele>
        <time>2017-02-23T10:07:38Z</time>
      </trkpt>
      <trkpt lat="42.75534" lon="0.20728">
        <ele>2226.4</ele>
        <time>2017-02-23T10:07:43Z</time>
      </trkpt>
      <trkpt lat="42.75532" lon="0.20729">
        <ele>2230.8</ele>
        <time>2017-02-23T10:07:48Z</time>
      </trkpt>
      <trkpt lat="42.75532" lon="0.20729">
        <ele>2232</ele>
        <time>2017-02-23T10:07:53Z</time>
      </trkpt>
      <trkpt lat="42.75532" lon="0.20729">
        <ele>2232.8</ele>
        <time>2017-02-23T10:07:58Z</time>
      </trkpt>
      <trkpt lat="42.75531" lon="0.2073">
        <ele>2230.4</ele>
        <time>2017-02-23T10:08:03Z</time>
      </trkpt>
      <trkpt lat="42.7553" lon="0.20731">
        <ele>2232.4</ele>
        <time>2017-02-23T10:08:08Z</time>
      </trkpt>
      <trkpt lat="42.7553" lon="0.20731">
        <ele>2233.6</ele>
        <time>2017-02-23T10:08:13Z</time>
      </trkpt>
      <trkpt lat="42.7553" lon="0.20731">
        <ele>2234.4</ele>
        <time>2017-02-23T10:08:18Z</time>
      </trkpt>
      <trkpt lat="42.75529" lon="0.2073">
        <ele>2237.2</ele>
        <time>2017-02-23T10:08:23Z</time>
      </trkpt>
      <trkpt lat="42.75529" lon="0.2073">
        <ele>2237.6</ele>
        <time>2017-02-23T10:08:28Z</time>
      </trkpt>
      <trkpt lat="42.75529" lon="0.2073">
        <ele>2237.8</ele>
        <time>2017-02-23T10:08:33Z</time>
      </trkpt>
      <trkpt lat="42.75529" lon="0.2073">
        <ele>2238</ele>
        <time>2017-02-23T10:08:38Z</time>
      </trkpt>
      <trkpt lat="42.75529" lon="0.2073">
        <ele>2238.2</ele>
        <time>2017-02-23T10:08:43Z</time>
      </trkpt>
      <trkpt lat="42.75529" lon="0.2073">
        <ele>2238.4</ele>
        <time>2017-02-23T10:08:48Z</time>
      </trkpt>
      <trkpt lat="42.75529" lon="0.2073">
        <ele>2238.4</ele>
        <time>2017-02-23T10:08:53Z</time>
      </trkpt>
      <trkpt lat="42.7553" lon="0.20731">
        <ele>2238.4</ele>
        <time>2017-02-23T10:08:58Z</time>
      </trkpt>
      <trkpt lat="42.75529" lon="0.20733">
        <ele>2237.2</ele>
        <time>2017-02-23T10:09:03Z</time>
      </trkpt>
      <trkpt lat="42.75529" lon="0.20733">
        <ele>2237.6</ele>
        <time>2017-02-23T10:09:08Z</time>
      </trkpt>
      <trkpt lat="42.75529" lon="0.20733">
        <ele>2238</ele>
        <time>2017-02-23T10:09:13Z</time>
      </trkpt>
      <trkpt lat="42.75529" lon="0.20733">
        <ele>2238.2</ele>
        <time>2017-02-23T10:09:18Z</time>
      </trkpt>
      <trkpt lat="42.75529" lon="0.20733">
        <ele>2238.4</ele>
        <time>2017-02-23T10:09:23Z</time>
      </trkpt>
      <trkpt lat="42.75529" lon="0.20733">
        <ele>2238.4</ele>
        <time>2017-02-23T10:09:28Z</time>
      </trkpt>
      <trkpt lat="42.75529" lon="0.20733">
        <ele>2238.6</ele>
        <time>2017-02-23T10:09:33Z</time>
      </trkpt>
      <trkpt lat="42.75529" lon="0.20733">
        <ele>2238.6</ele>
        <time>2017-02-23T10:09:38Z</time>
      </trkpt>
      <trkpt lat="42.75529" lon="0.20733">
        <ele>2238.6</ele>
        <time>2017-02-23T10:09:43Z</time>
      </trkpt>
      <trkpt lat="42.75529" lon="0.20733">
        <ele>2238.6</ele>
        <time>2017-02-23T10:09:48Z</time>
      </trkpt>
      <trkpt lat="42.75529" lon="0.20733">
        <ele>2237.8</ele>
        <time>2017-02-23T10:09:53Z</time>
      </trkpt>
      <trkpt lat="42.75526" lon="0.20733">
        <ele>2238.4</ele>
        <time>2017-02-23T10:09:58Z</time>
      </trkpt>
      <trkpt lat="42.75523" lon="0.20733">
        <ele>2236.6</ele>
        <time>2017-02-23T10:10:03Z</time>
      </trkpt>
      <trkpt lat="42.75519" lon="0.20734">
        <ele>2241.2</ele>
        <time>2017-02-23T10:10:08Z</time>
      </trkpt>
      <trkpt lat="42.75515" lon="0.20735">
        <ele>2238.6</ele>
        <time>2017-02-23T10:10:13Z</time>
      </trkpt>
      <trkpt lat="42.75511" lon="0.20736">
        <ele>2239.6</ele>
        <time>2017-02-23T10:10:18Z</time>
      </trkpt>
      <trkpt lat="42.75506" lon="0.20738">
        <ele>2241.2</ele>
        <time>2017-02-23T10:10:23Z</time>
      </trkpt>
      <trkpt lat="42.75502" lon="0.20738">
        <ele>2239.8</ele>
        <time>2017-02-23T10:10:28Z</time>
      </trkpt>
      <trkpt lat="42.75497" lon="0.2074">
        <ele>2244.2</ele>
        <time>2017-02-23T10:10:33Z</time>
      </trkpt>
      <trkpt lat="42.75493" lon="0.2074">
        <ele>2243.6</ele>
        <time>2017-02-23T10:10:38Z</time>
      </trkpt>
      <trkpt lat="42.7549" lon="0.2074">
        <ele>2243.4</ele>
        <time>2017-02-23T10:10:43Z</time>
      </trkpt>
      <trkpt lat="42.75486" lon="0.20742">
        <ele>2246.8</ele>
        <time>2017-02-23T10:10:48Z</time>
      </trkpt>
      <trkpt lat="42.75482" lon="0.20743">
        <ele>2245</ele>
        <time>2017-02-23T10:10:53Z</time>
      </trkpt>
      <trkpt lat="42.75479" lon="0.20744">
        <ele>2245.4</ele>
        <time>2017-02-23T10:10:58Z</time>
      </trkpt>
      <trkpt lat="42.75476" lon="0.20746">
        <ele>2245.6</ele>
        <time>2017-02-23T10:11:03Z</time>
      </trkpt>
      <trkpt lat="42.75473" lon="0.20747">
        <ele>2242.2</ele>
        <time>2017-02-23T10:11:08Z</time>
      </trkpt>
      <trkpt lat="42.75468" lon="0.20748">
        <ele>2244</ele>
        <time>2017-02-23T10:11:13Z</time>
      </trkpt>
      <trkpt lat="42.75464" lon="0.20749">
        <ele>2242.8</ele>
        <time>2017-02-23T10:11:18Z</time>
      </trkpt>
      <trkpt lat="42.75461" lon="0.2075">
        <ele>2246.8</ele>
        <time>2017-02-23T10:11:23Z</time>
      </trkpt>
      <trkpt lat="42.75458" lon="0.20751">
        <ele>2246.4</ele>
        <time>2017-02-23T10:11:28Z</time>
      </trkpt>
      <trkpt lat="42.75454" lon="0.20752">
        <ele>2248.6</ele>
        <time>2017-02-23T10:11:33Z</time>
      </trkpt>
      <trkpt lat="42.75451" lon="0.20753">
        <ele>2247.8</ele>
        <time>2017-02-23T10:11:38Z</time>
      </trkpt>
      <trkpt lat="42.75448" lon="0.20754">
        <ele>2248.8</ele>
        <time>2017-02-23T10:11:43Z</time>
      </trkpt>
      <trkpt lat="42.75445" lon="0.20755">
        <ele>2250.8</ele>
        <time>2017-02-23T10:11:48Z</time>
      </trkpt>
      <trkpt lat="42.75442" lon="0.20755">
        <ele>2250.6</ele>
        <time>2017-02-23T10:11:53Z</time>
      </trkpt>
      <trkpt lat="42.75439" lon="0.20756">
        <ele>2254.2</ele>
        <time>2017-02-23T10:11:58Z</time>
      </trkpt>
      <trkpt lat="42.75436" lon="0.20757">
        <ele>2252.8</ele>
        <time>2017-02-23T10:12:03Z</time>
      </trkpt>
      <trkpt lat="42.75434" lon="0.20758">
        <ele>2257</ele>
        <time>2017-02-23T10:12:08Z</time>
      </trkpt>
      <trkpt lat="42.75431" lon="0.20759">
        <ele>2254.4</ele>
        <time>2017-02-23T10:12:13Z</time>
      </trkpt>
      <trkpt lat="42.75429" lon="0.2076">
        <ele>2258.2</ele>
        <time>2017-02-23T10:12:18Z</time>
      </trkpt>
      <trkpt lat="42.75426" lon="0.20761">
        <ele>2258</ele>
        <time>2017-02-23T10:12:23Z</time>
      </trkpt>
      <trkpt lat="42.75423" lon="0.20762">
        <ele>2255.4</ele>
        <time>2017-02-23T10:12:28Z</time>
      </trkpt>
      <trkpt lat="42.75421" lon="0.20762">
        <ele>2258.4</ele>
        <time>2017-02-23T10:12:33Z</time>
      </trkpt>
      <trkpt lat="42.75418" lon="0.20764">
        <ele>2258.4</ele>
        <time>2017-02-23T10:12:38Z</time>
      </trkpt>
      <trkpt lat="42.75415" lon="0.20764">
        <ele>2258.8</ele>
        <time>2017-02-23T10:12:43Z</time>
      </trkpt>
      <trkpt lat="42.75413" lon="0.20764">
        <ele>2260.4</ele>
        <time>2017-02-23T10:12:48Z</time>
      </trkpt>
      <trkpt lat="42.7541" lon="0.20765">
        <ele>2261.2</ele>
        <time>2017-02-23T10:12:53Z</time>
      </trkpt>
      <trkpt lat="42.75407" lon="0.20767">
        <ele>2261.6</ele>
        <time>2017-02-23T10:12:58Z</time>
      </trkpt>
      <trkpt lat="42.75404" lon="0.20768">
        <ele>2261.4</ele>
        <time>2017-02-23T10:13:03Z</time>
      </trkpt>
      <trkpt lat="42.75401" lon="0.20769">
        <ele>2264</ele>
        <time>2017-02-23T10:13:08Z</time>
      </trkpt>
      <trkpt lat="42.75399" lon="0.2077">
        <ele>2263</ele>
        <time>2017-02-23T10:13:13Z</time>
      </trkpt>
      <trkpt lat="42.75396" lon="0.20771">
        <ele>2264.4</ele>
        <time>2017-02-23T10:13:18Z</time>
      </trkpt>
      <trkpt lat="42.75393" lon="0.20773">
        <ele>2264.6</ele>
        <time>2017-02-23T10:13:23Z</time>
      </trkpt>
      <trkpt lat="42.7539" lon="0.20774">
        <ele>2263.4</ele>
        <time>2017-02-23T10:13:28Z</time>
      </trkpt>
      <trkpt lat="42.75387" lon="0.20775">
        <ele>2263.4</ele>
        <time>2017-02-23T10:13:33Z</time>
      </trkpt>
      <trkpt lat="42.75383" lon="0.20776">
        <ele>2264.8</ele>
        <time>2017-02-23T10:13:38Z</time>
      </trkpt>
      <trkpt lat="42.75379" lon="0.20779">
        <ele>2265.6</ele>
        <time>2017-02-23T10:13:43Z</time>
      </trkpt>
      <trkpt lat="42.75377" lon="0.2078">
        <ele>2268.2</ele>
        <time>2017-02-23T10:13:48Z</time>
      </trkpt>
      <trkpt lat="42.75375" lon="0.20781">
        <ele>2266.8</ele>
        <time>2017-02-23T10:13:53Z</time>
      </trkpt>
      <trkpt lat="42.75372" lon="0.20783">
        <ele>2268.4</ele>
        <time>2017-02-23T10:13:58Z</time>
      </trkpt>
      <trkpt lat="42.75368" lon="0.20786">
        <ele>2266.2</ele>
        <time>2017-02-23T10:14:03Z</time>
      </trkpt>
      <trkpt lat="42.75367" lon="0.20787">
        <ele>2269</ele>
        <time>2017-02-23T10:14:08Z</time>
      </trkpt>
      <trkpt lat="42.75364" lon="0.20789">
        <ele>2271.4</ele>
        <time>2017-02-23T10:14:13Z</time>
      </trkpt>
      <trkpt lat="42.75361" lon="0.2079">
        <ele>2270.8</ele>
        <time>2017-02-23T10:14:18Z</time>
      </trkpt>
      <trkpt lat="42.75359" lon="0.20792">
        <ele>2271.6</ele>
        <time>2017-02-23T10:14:23Z</time>
      </trkpt>
      <trkpt lat="42.75356" lon="0.20794">
        <ele>2270.2</ele>
        <time>2017-02-23T10:14:28Z</time>
      </trkpt>
      <trkpt lat="42.75354" lon="0.20796">
        <ele>2274</ele>
        <time>2017-02-23T10:14:33Z</time>
      </trkpt>
      <trkpt lat="42.75351" lon="0.20798">
        <ele>2272</ele>
        <time>2017-02-23T10:14:38Z</time>
      </trkpt>
      <trkpt lat="42.75348" lon="0.20801">
        <ele>2272.8</ele>
        <time>2017-02-23T10:14:43Z</time>
      </trkpt>
      <trkpt lat="42.75348" lon="0.20801">
        <ele>2271</ele>
        <time>2017-02-23T10:14:48Z</time>
      </trkpt>
      <trkpt lat="42.75347" lon="0.20802">
        <ele>2271.8</ele>
        <time>2017-02-23T10:14:53Z</time>
      </trkpt>
      <trkpt lat="42.75345" lon="0.20805">
        <ele>2273.4</ele>
        <time>2017-02-23T10:14:58Z</time>
      </trkpt>
      <trkpt lat="42.75342" lon="0.20807">
        <ele>2274.4</ele>
        <time>2017-02-23T10:15:03Z</time>
      </trkpt>
      <trkpt lat="42.7534" lon="0.2081">
        <ele>2273.4</ele>
        <time>2017-02-23T10:15:08Z</time>
      </trkpt>
      <trkpt lat="42.75339" lon="0.20812">
        <ele>2274.2</ele>
        <time>2017-02-23T10:15:13Z</time>
      </trkpt>
      <trkpt lat="42.75337" lon="0.20814">
        <ele>2276.6</ele>
        <time>2017-02-23T10:15:18Z</time>
      </trkpt>
      <trkpt lat="42.75335" lon="0.20816">
        <ele>2274.8</ele>
        <time>2017-02-23T10:15:23Z</time>
      </trkpt>
      <trkpt lat="42.75334" lon="0.20818">
        <ele>2276.4</ele>
        <time>2017-02-23T10:15:28Z</time>
      </trkpt>
      <trkpt lat="42.75332" lon="0.20821">
        <ele>2276.8</ele>
        <time>2017-02-23T10:15:33Z</time>
      </trkpt>
      <trkpt lat="42.7533" lon="0.20825">
        <ele>2275</ele>
        <time>2017-02-23T10:15:38Z</time>
      </trkpt>
      <trkpt lat="42.75329" lon="0.20828">
        <ele>2277.4</ele>
        <time>2017-02-23T10:15:43Z</time>
      </trkpt>
      <trkpt lat="42.75327" lon="0.20832">
        <ele>2276</ele>
        <time>2017-02-23T10:15:48Z</time>
      </trkpt>
      <trkpt lat="42.75325" lon="0.20835">
        <ele>2276.2</ele>
        <time>2017-02-23T10:15:53Z</time>
      </trkpt>
      <trkpt lat="42.75322" lon="0.20838">
        <ele>2278</ele>
        <time>2017-02-23T10:15:58Z</time>
      </trkpt>
      <trkpt lat="42.7532" lon="0.2084">
        <ele>2279.4</ele>
        <time>2017-02-23T10:16:03Z</time>
      </trkpt>
      <trkpt lat="42.75319" lon="0.20842">
        <ele>2279</ele>
        <time>2017-02-23T10:16:08Z</time>
      </trkpt>
      <trkpt lat="42.75317" lon="0.20843">
        <ele>2277.8</ele>
        <time>2017-02-23T10:16:13Z</time>
      </trkpt>
      <trkpt lat="42.75315" lon="0.20845">
        <ele>2278.4</ele>
        <time>2017-02-23T10:16:18Z</time>
      </trkpt>
      <trkpt lat="42.75314" lon="0.20846">
        <ele>2278</ele>
        <time>2017-02-23T10:16:23Z</time>
      </trkpt>
      <trkpt lat="42.75312" lon="0.20847">
        <ele>2279</ele>
        <time>2017-02-23T10:16:28Z</time>
      </trkpt>
      <trkpt lat="42.75308" lon="0.2085">
        <ele>2278.6</ele>
        <time>2017-02-23T10:16:34Z</time>
      </trkpt>
      <trkpt lat="42.75307" lon="0.20851">
        <ele>2280.8</ele>
        <time>2017-02-23T10:16:39Z</time>
      </trkpt>
      <trkpt lat="42.75304" lon="0.20853">
        <ele>2280.6</ele>
        <time>2017-02-23T10:16:44Z</time>
      </trkpt>
      <trkpt lat="42.75302" lon="0.20855">
        <ele>2279.4</ele>
        <time>2017-02-23T10:16:49Z</time>
      </trkpt>
      <trkpt lat="42.75301" lon="0.20857">
        <ele>2282.8</ele>
        <time>2017-02-23T10:16:54Z</time>
      </trkpt>
      <trkpt lat="42.75299" lon="0.20859">
        <ele>2284</ele>
        <time>2017-02-23T10:16:59Z</time>
      </trkpt>
      <trkpt lat="42.75297" lon="0.2086">
        <ele>2285.2</ele>
        <time>2017-02-23T10:17:04Z</time>
      </trkpt>
      <trkpt lat="42.75294" lon="0.20863">
        <ele>2284.6</ele>
        <time>2017-02-23T10:17:09Z</time>
      </trkpt>
      <trkpt lat="42.75294" lon="0.20863">
        <ele>2286.4</ele>
        <time>2017-02-23T10:17:14Z</time>
      </trkpt>
      <trkpt lat="42.75293" lon="0.20864">
        <ele>2286.2</ele>
        <time>2017-02-23T10:17:19Z</time>
      </trkpt>
      <trkpt lat="42.75293" lon="0.20865">
        <ele>2286.4</ele>
        <time>2017-02-23T10:17:24Z</time>
      </trkpt>
      <trkpt lat="42.75292" lon="0.20866">
        <ele>2285</ele>
        <time>2017-02-23T10:17:29Z</time>
      </trkpt>
      <trkpt lat="42.75292" lon="0.20866">
        <ele>2285.8</ele>
        <time>2017-02-23T10:17:34Z</time>
      </trkpt>
      <trkpt lat="42.7529" lon="0.20868">
        <ele>2284.4</ele>
        <time>2017-02-23T10:17:39Z</time>
      </trkpt>
      <trkpt lat="42.75286" lon="0.2087">
        <ele>2289</ele>
        <time>2017-02-23T10:17:44Z</time>
      </trkpt>
      <trkpt lat="42.75282" lon="0.20873">
        <ele>2287.2</ele>
        <time>2017-02-23T10:17:49Z</time>
      </trkpt>
      <trkpt lat="42.75279" lon="0.20874">
        <ele>2288</ele>
        <time>2017-02-23T10:17:54Z</time>
      </trkpt>
      <trkpt lat="42.75277" lon="0.20875">
        <ele>2285.8</ele>
        <time>2017-02-23T10:17:59Z</time>
      </trkpt>
      <trkpt lat="42.75273" lon="0.20878">
        <ele>2284.6</ele>
        <time>2017-02-23T10:18:04Z</time>
      </trkpt>
      <trkpt lat="42.75271" lon="0.20878">
        <ele>2287</ele>
        <time>2017-02-23T10:18:09Z</time>
      </trkpt>
      <trkpt lat="42.75269" lon="0.20879">
        <ele>2285</ele>
        <time>2017-02-23T10:18:14Z</time>
      </trkpt>
      <trkpt lat="42.75268" lon="0.2088">
        <ele>2287.6</ele>
        <time>2017-02-23T10:18:19Z</time>
      </trkpt>
      <trkpt lat="42.75267" lon="0.20881">
        <ele>2287</ele>
        <time>2017-02-23T10:18:24Z</time>
      </trkpt>
      <trkpt lat="42.75268" lon="0.20881">
        <ele>2292.2</ele>
        <time>2017-02-23T10:18:29Z</time>
      </trkpt>
      <trkpt lat="42.75267" lon="0.20884">
        <ele>2292.8</ele>
        <time>2017-02-23T10:18:34Z</time>
      </trkpt>
      <trkpt lat="42.75266" lon="0.20887">
        <ele>2294</ele>
        <time>2017-02-23T10:18:39Z</time>
      </trkpt>
      <trkpt lat="42.75266" lon="0.20889">
        <ele>2294</ele>
        <time>2017-02-23T10:18:44Z</time>
      </trkpt>
      <trkpt lat="42.75264" lon="0.20892">
        <ele>2296</ele>
        <time>2017-02-23T10:18:49Z</time>
      </trkpt>
      <trkpt lat="42.75263" lon="0.20894">
        <ele>2296</ele>
        <time>2017-02-23T10:18:54Z</time>
      </trkpt>
      <trkpt lat="42.75262" lon="0.20895">
        <ele>2295.2</ele>
        <time>2017-02-23T10:18:59Z</time>
      </trkpt>
      <trkpt lat="42.7526" lon="0.20898">
        <ele>2295.2</ele>
        <time>2017-02-23T10:19:04Z</time>
      </trkpt>
      <trkpt lat="42.75259" lon="0.20898">
        <ele>2297.6</ele>
        <time>2017-02-23T10:19:09Z</time>
      </trkpt>
      <trkpt lat="42.75258" lon="0.20899">
        <ele>2295.8</ele>
        <time>2017-02-23T10:19:14Z</time>
      </trkpt>
      <trkpt lat="42.75256" lon="0.20901">
        <ele>2298.8</ele>
        <time>2017-02-23T10:19:19Z</time>
      </trkpt>
      <trkpt lat="42.75254" lon="0.20902">
        <ele>2297.4</ele>
        <time>2017-02-23T10:19:24Z</time>
      </trkpt>
      <trkpt lat="42.75253" lon="0.209">
        <ele>2298.6</ele>
        <time>2017-02-23T10:19:29Z</time>
      </trkpt>
      <trkpt lat="42.75252" lon="0.20897">
        <ele>2297.6</ele>
        <time>2017-02-23T10:19:34Z</time>
      </trkpt>
      <trkpt lat="42.75251" lon="0.20895">
        <ele>2299.6</ele>
        <time>2017-02-23T10:19:39Z</time>
      </trkpt>
      <trkpt lat="42.75249" lon="0.20893">
        <ele>2299.6</ele>
        <time>2017-02-23T10:19:44Z</time>
      </trkpt>
      <trkpt lat="42.75249" lon="0.2089">
        <ele>2298.6</ele>
        <time>2017-02-23T10:19:49Z</time>
      </trkpt>
      <trkpt lat="42.75248" lon="0.20887">
        <ele>2297.2</ele>
        <time>2017-02-23T10:19:54Z</time>
      </trkpt>
      <trkpt lat="42.75247" lon="0.20885">
        <ele>2297.4</ele>
        <time>2017-02-23T10:19:59Z</time>
      </trkpt>
      <trkpt lat="42.75246" lon="0.20883">
        <ele>2299.6</ele>
        <time>2017-02-23T10:20:04Z</time>
      </trkpt>
      <trkpt lat="42.75246" lon="0.2088">
        <ele>2301.4</ele>
        <time>2017-02-23T10:20:09Z</time>
      </trkpt>
      <trkpt lat="42.75246" lon="0.20878">
        <ele>2301.8</ele>
        <time>2017-02-23T10:20:14Z</time>
      </trkpt>
      <trkpt lat="42.75245" lon="0.20875">
        <ele>2303.2</ele>
        <time>2017-02-23T10:20:19Z</time>
      </trkpt>
      <trkpt lat="42.75245" lon="0.20872">
        <ele>2301.6</ele>
        <time>2017-02-23T10:20:24Z</time>
      </trkpt>
      <trkpt lat="42.75243" lon="0.2087">
        <ele>2303</ele>
        <time>2017-02-23T10:20:29Z</time>
      </trkpt>
      <trkpt lat="42.75242" lon="0.20868">
        <ele>2303.2</ele>
        <time>2017-02-23T10:20:34Z</time>
      </trkpt>
      <trkpt lat="42.7524" lon="0.2087">
        <ele>2305.8</ele>
        <time>2017-02-23T10:20:39Z</time>
      </trkpt>
      <trkpt lat="42.75238" lon="0.20871">
        <ele>2304.2</ele>
        <time>2017-02-23T10:20:44Z</time>
      </trkpt>
      <trkpt lat="42.75236" lon="0.20872">
        <ele>2306.8</ele>
        <time>2017-02-23T10:20:49Z</time>
      </trkpt>
      <trkpt lat="42.75235" lon="0.20873">
        <ele>2307.4</ele>
        <time>2017-02-23T10:20:54Z</time>
      </trkpt>
      <trkpt lat="42.75233" lon="0.20874">
        <ele>2309.2</ele>
        <time>2017-02-23T10:20:59Z</time>
      </trkpt>
      <trkpt lat="42.7523" lon="0.20877">
        <ele>2309.6</ele>
        <time>2017-02-23T10:21:04Z</time>
      </trkpt>
      <trkpt lat="42.75228" lon="0.20879">
        <ele>2310.6</ele>
        <time>2017-02-23T10:21:09Z</time>
      </trkpt>
      <trkpt lat="42.75229" lon="0.2088">
        <ele>2310.6</ele>
        <time>2017-02-23T10:21:14Z</time>
      </trkpt>
      <trkpt lat="42.75229" lon="0.20882">
        <ele>2309.6</ele>
        <time>2017-02-23T10:21:19Z</time>
      </trkpt>
      <trkpt lat="42.75228" lon="0.20884">
        <ele>2312.4</ele>
        <time>2017-02-23T10:21:24Z</time>
      </trkpt>
      <trkpt lat="42.75226" lon="0.20887">
        <ele>2311.2</ele>
        <time>2017-02-23T10:21:29Z</time>
      </trkpt>
      <trkpt lat="42.75224" lon="0.20889">
        <ele>2311.4</ele>
        <time>2017-02-23T10:21:34Z</time>
      </trkpt>
      <trkpt lat="42.75222" lon="0.20892">
        <ele>2312</ele>
        <time>2017-02-23T10:21:39Z</time>
      </trkpt>
      <trkpt lat="42.75219" lon="0.20896">
        <ele>2313.2</ele>
        <time>2017-02-23T10:21:44Z</time>
      </trkpt>
      <trkpt lat="42.75218" lon="0.20898">
        <ele>2312.2</ele>
        <time>2017-02-23T10:21:49Z</time>
      </trkpt>
      <trkpt lat="42.75219" lon="0.20899">
        <ele>2313.2</ele>
        <time>2017-02-23T10:21:54Z</time>
      </trkpt>
      <trkpt lat="42.75217" lon="0.20902">
        <ele>2316.4</ele>
        <time>2017-02-23T10:21:59Z</time>
      </trkpt>
      <trkpt lat="42.75217" lon="0.20905">
        <ele>2317.2</ele>
        <time>2017-02-23T10:22:04Z</time>
      </trkpt>
      <trkpt lat="42.75216" lon="0.20907">
        <ele>2315.2</ele>
        <time>2017-02-23T10:22:09Z</time>
      </trkpt>
      <trkpt lat="42.75217" lon="0.2091">
        <ele>2315.4</ele>
        <time>2017-02-23T10:22:14Z</time>
      </trkpt>
      <trkpt lat="42.75217" lon="0.20912">
        <ele>2316.2</ele>
        <time>2017-02-23T10:22:19Z</time>
      </trkpt>
      <trkpt lat="42.75218" lon="0.20911">
        <ele>2319</ele>
        <time>2017-02-23T10:22:24Z</time>
      </trkpt>
      <trkpt lat="42.75218" lon="0.20911">
        <ele>2318.8</ele>
        <time>2017-02-23T10:22:29Z</time>
      </trkpt>
      <trkpt lat="42.75218" lon="0.2091">
        <ele>2319</ele>
        <time>2017-02-23T10:22:34Z</time>
      </trkpt>
      <trkpt lat="42.75218" lon="0.20908">
        <ele>2320.8</ele>
        <time>2017-02-23T10:22:39Z</time>
      </trkpt>
      <trkpt lat="42.75217" lon="0.20906">
        <ele>2320.6</ele>
        <time>2017-02-23T10:22:44Z</time>
      </trkpt>
      <trkpt lat="42.75216" lon="0.20903">
        <ele>2321</ele>
        <time>2017-02-23T10:22:49Z</time>
      </trkpt>
      <trkpt lat="42.75215" lon="0.20901">
        <ele>2321.2</ele>
        <time>2017-02-23T10:22:54Z</time>
      </trkpt>
      <trkpt lat="42.75214" lon="0.20899">
        <ele>2321.4</ele>
        <time>2017-02-23T10:22:59Z</time>
      </trkpt>
      <trkpt lat="42.75213" lon="0.20896">
        <ele>2322.6</ele>
        <time>2017-02-23T10:23:04Z</time>
      </trkpt>
      <trkpt lat="42.75212" lon="0.20894">
        <ele>2323.4</ele>
        <time>2017-02-23T10:23:09Z</time>
      </trkpt>
      <trkpt lat="42.75212" lon="0.20892">
        <ele>2326</ele>
        <time>2017-02-23T10:23:14Z</time>
      </trkpt>
      <trkpt lat="42.75211" lon="0.20892">
        <ele>2327</ele>
        <time>2017-02-23T10:23:19Z</time>
      </trkpt>
      <trkpt lat="42.7521" lon="0.20895">
        <ele>2325.8</ele>
        <time>2017-02-23T10:23:24Z</time>
      </trkpt>
      <trkpt lat="42.75209" lon="0.20897">
        <ele>2329.8</ele>
        <time>2017-02-23T10:23:29Z</time>
      </trkpt>
      <trkpt lat="42.75208" lon="0.209">
        <ele>2330</ele>
        <time>2017-02-23T10:23:34Z</time>
      </trkpt>
      <trkpt lat="42.75208" lon="0.20902">
        <ele>2329.8</ele>
        <time>2017-02-23T10:23:39Z</time>
      </trkpt>
      <trkpt lat="42.75207" lon="0.20904">
        <ele>2332.6</ele>
        <time>2017-02-23T10:23:44Z</time>
      </trkpt>
      <trkpt lat="42.75206" lon="0.20906">
        <ele>2331</ele>
        <time>2017-02-23T10:23:49Z</time>
      </trkpt>
      <trkpt lat="42.75205" lon="0.20909">
        <ele>2333.4</ele>
        <time>2017-02-23T10:23:54Z</time>
      </trkpt>
      <trkpt lat="42.75205" lon="0.20912">
        <ele>2334.2</ele>
        <time>2017-02-23T10:23:59Z</time>
      </trkpt>
      <trkpt lat="42.75205" lon="0.20913">
        <ele>2334.2</ele>
        <time>2017-02-23T10:24:04Z</time>
      </trkpt>
      <trkpt lat="42.75204" lon="0.20913">
        <ele>2334.4</ele>
        <time>2017-02-23T10:24:09Z</time>
      </trkpt>
      <trkpt lat="42.75204" lon="0.20913">
        <ele>2334.4</ele>
        <time>2017-02-23T10:24:14Z</time>
      </trkpt>
      <trkpt lat="42.75204" lon="0.20913">
        <ele>2334.8</ele>
        <time>2017-02-23T10:24:19Z</time>
      </trkpt>
      <trkpt lat="42.75204" lon="0.20912">
        <ele>2335</ele>
        <time>2017-02-23T10:24:24Z</time>
      </trkpt>
      <trkpt lat="42.75204" lon="0.20913">
        <ele>2335.2</ele>
        <time>2017-02-23T10:24:29Z</time>
      </trkpt>
      <trkpt lat="42.75204" lon="0.20913">
        <ele>2335.4</ele>
        <time>2017-02-23T10:24:34Z</time>
      </trkpt>
      <trkpt lat="42.75204" lon="0.20913">
        <ele>2335.4</ele>
        <time>2017-02-23T10:24:39Z</time>
      </trkpt>
      <trkpt lat="42.75205" lon="0.20913">
        <ele>2335.6</ele>
        <time>2017-02-23T10:24:44Z</time>
      </trkpt>
      <trkpt lat="42.75204" lon="0.20914">
        <ele>2335.2</ele>
        <time>2017-02-23T10:24:49Z</time>
      </trkpt>
      <trkpt lat="42.75204" lon="0.20914">
        <ele>2335.2</ele>
        <time>2017-02-23T10:24:54Z</time>
      </trkpt>
      <trkpt lat="42.75204" lon="0.20914">
        <ele>2335</ele>
        <time>2017-02-23T10:24:59Z</time>
      </trkpt>
      <trkpt lat="42.75204" lon="0.20914">
        <ele>2334.8</ele>
        <time>2017-02-23T10:25:04Z</time>
      </trkpt>
      <trkpt lat="42.75204" lon="0.20914">
        <ele>2334.6</ele>
        <time>2017-02-23T10:25:09Z</time>
      </trkpt>
      <trkpt lat="42.75204" lon="0.20915">
        <ele>2333.4</ele>
        <time>2017-02-23T10:25:14Z</time>
      </trkpt>
      <trkpt lat="42.75204" lon="0.20914">
        <ele>2335</ele>
        <time>2017-02-23T10:25:19Z</time>
      </trkpt>
      <trkpt lat="42.75203" lon="0.20911">
        <ele>2334.8</ele>
        <time>2017-02-23T10:25:24Z</time>
      </trkpt>
      <trkpt lat="42.75201" lon="0.20907">
        <ele>2337.2</ele>
        <time>2017-02-23T10:25:29Z</time>
      </trkpt>
      <trkpt lat="42.75201" lon="0.20907">
        <ele>2337.6</ele>
        <time>2017-02-23T10:25:34Z</time>
      </trkpt>
      <trkpt lat="42.75201" lon="0.20907">
        <ele>2338.8</ele>
        <time>2017-02-23T10:25:39Z</time>
      </trkpt>
      <trkpt lat="42.75199" lon="0.20904">
        <ele>2336</ele>
        <time>2017-02-23T10:25:44Z</time>
      </trkpt>
      <trkpt lat="42.75197" lon="0.20902">
        <ele>2338.2</ele>
        <time>2017-02-23T10:25:49Z</time>
      </trkpt>
      <trkpt lat="42.75196" lon="0.20899">
        <ele>2337</ele>
        <time>2017-02-23T10:25:54Z</time>
      </trkpt>
      <trkpt lat="42.75195" lon="0.20895">
        <ele>2339.8</ele>
        <time>2017-02-23T10:25:59Z</time>
      </trkpt>
      <trkpt lat="42.75195" lon="0.20894">
        <ele>2338</ele>
        <time>2017-02-23T10:26:04Z</time>
      </trkpt>
      <trkpt lat="42.75195" lon="0.20893">
        <ele>2339.4</ele>
        <time>2017-02-23T10:26:09Z</time>
      </trkpt>
      <trkpt lat="42.75194" lon="0.20893">
        <ele>2338.6</ele>
        <time>2017-02-23T10:26:14Z</time>
      </trkpt>
      <trkpt lat="42.75192" lon="0.20895">
        <ele>2342</ele>
        <time>2017-02-23T10:26:19Z</time>
      </trkpt>
      <trkpt lat="42.7519" lon="0.20898">
        <ele>2340.8</ele>
        <time>2017-02-23T10:26:24Z</time>
      </trkpt>
      <trkpt lat="42.75189" lon="0.20901">
        <ele>2343.6</ele>
        <time>2017-02-23T10:26:29Z</time>
      </trkpt>
      <trkpt lat="42.75187" lon="0.20904">
        <ele>2345.2</ele>
        <time>2017-02-23T10:26:34Z</time>
      </trkpt>
      <trkpt lat="42.75186" lon="0.20907">
        <ele>2344.8</ele>
        <time>2017-02-23T10:26:39Z</time>
      </trkpt>
      <trkpt lat="42.75185" lon="0.2091">
        <ele>2344.8</ele>
        <time>2017-02-23T10:26:44Z</time>
      </trkpt>
      <trkpt lat="42.75184" lon="0.20912">
        <ele>2344.4</ele>
        <time>2017-02-23T10:26:49Z</time>
      </trkpt>
      <trkpt lat="42.75185" lon="0.20915">
        <ele>2347</ele>
        <time>2017-02-23T10:26:54Z</time>
      </trkpt>
      <trkpt lat="42.75185" lon="0.20915">
        <ele>2346.4</ele>
        <time>2017-02-23T10:26:59Z</time>
      </trkpt>
      <trkpt lat="42.75185" lon="0.20915">
        <ele>2346.4</ele>
        <time>2017-02-23T10:27:04Z</time>
      </trkpt>
      <trkpt lat="42.75185" lon="0.20916">
        <ele>2346</ele>
        <time>2017-02-23T10:27:09Z</time>
      </trkpt>
      <trkpt lat="42.75185" lon="0.20915">
        <ele>2346.4</ele>
        <time>2017-02-23T10:27:14Z</time>
      </trkpt>
      <trkpt lat="42.75185" lon="0.20916">
        <ele>2346.8</ele>
        <time>2017-02-23T10:27:19Z</time>
      </trkpt>
      <trkpt lat="42.75184" lon="0.20917">
        <ele>2347</ele>
        <time>2017-02-23T10:27:24Z</time>
      </trkpt>
      <trkpt lat="42.75183" lon="0.20916">
        <ele>2348</ele>
        <time>2017-02-23T10:27:29Z</time>
      </trkpt>
      <trkpt lat="42.75182" lon="0.20915">
        <ele>2348</ele>
        <time>2017-02-23T10:27:34Z</time>
      </trkpt>
      <trkpt lat="42.7518" lon="0.20914">
        <ele>2348.4</ele>
        <time>2017-02-23T10:27:39Z</time>
      </trkpt>
      <trkpt lat="42.75179" lon="0.20913">
        <ele>2348.6</ele>
        <time>2017-02-23T10:27:44Z</time>
      </trkpt>
      <trkpt lat="42.75177" lon="0.20912">
        <ele>2349</ele>
        <time>2017-02-23T10:27:49Z</time>
      </trkpt>
      <trkpt lat="42.75176" lon="0.2091">
        <ele>2353.8</ele>
        <time>2017-02-23T10:27:54Z</time>
      </trkpt>
      <trkpt lat="42.75175" lon="0.20908">
        <ele>2351.6</ele>
        <time>2017-02-23T10:27:59Z</time>
      </trkpt>
      <trkpt lat="42.75175" lon="0.20907">
        <ele>2351.8</ele>
        <time>2017-02-23T10:28:04Z</time>
      </trkpt>
      <trkpt lat="42.75175" lon="0.20907">
        <ele>2351.8</ele>
        <time>2017-02-23T10:28:09Z</time>
      </trkpt>
      <trkpt lat="42.75175" lon="0.20906">
        <ele>2352</ele>
        <time>2017-02-23T10:28:14Z</time>
      </trkpt>
      <trkpt lat="42.75174" lon="0.20904">
        <ele>2351.8</ele>
        <time>2017-02-23T10:28:19Z</time>
      </trkpt>
      <trkpt lat="42.75173" lon="0.20906">
        <ele>2348.2</ele>
        <time>2017-02-23T10:28:24Z</time>
      </trkpt>
      <trkpt lat="42.75172" lon="0.20909">
        <ele>2350.4</ele>
        <time>2017-02-23T10:28:29Z</time>
      </trkpt>
      <trkpt lat="42.75171" lon="0.20912">
        <ele>2353</ele>
        <time>2017-02-23T10:28:34Z</time>
      </trkpt>
      <trkpt lat="42.75169" lon="0.20914">
        <ele>2354.4</ele>
        <time>2017-02-23T10:28:39Z</time>
      </trkpt>
      <trkpt lat="42.75169" lon="0.20917">
        <ele>2356.6</ele>
        <time>2017-02-23T10:28:44Z</time>
      </trkpt>
      <trkpt lat="42.75168" lon="0.2092">
        <ele>2353.2</ele>
        <time>2017-02-23T10:28:49Z</time>
      </trkpt>
      <trkpt lat="42.75168" lon="0.20923">
        <ele>2357.4</ele>
        <time>2017-02-23T10:28:54Z</time>
      </trkpt>
      <trkpt lat="42.75168" lon="0.20927">
        <ele>2353.2</ele>
        <time>2017-02-23T10:28:59Z</time>
      </trkpt>
      <trkpt lat="42.75168" lon="0.2093">
        <ele>2358.6</ele>
        <time>2017-02-23T10:29:04Z</time>
      </trkpt>
      <trkpt lat="42.75167" lon="0.20933">
        <ele>2358.4</ele>
        <time>2017-02-23T10:29:09Z</time>
      </trkpt>
      <trkpt lat="42.75167" lon="0.20934">
        <ele>2355.8</ele>
        <time>2017-02-23T10:29:14Z</time>
      </trkpt>
      <trkpt lat="42.75167" lon="0.20936">
        <ele>2360.8</ele>
        <time>2017-02-23T10:29:19Z</time>
      </trkpt>
      <trkpt lat="42.75166" lon="0.20939">
        <ele>2359.2</ele>
        <time>2017-02-23T10:29:24Z</time>
      </trkpt>
      <trkpt lat="42.75166" lon="0.20941">
        <ele>2361.2</ele>
        <time>2017-02-23T10:29:29Z</time>
      </trkpt>
      <trkpt lat="42.75166" lon="0.20941">
        <ele>2361.2</ele>
        <time>2017-02-23T10:29:34Z</time>
      </trkpt>
      <trkpt lat="42.75166" lon="0.20941">
        <ele>2361.8</ele>
        <time>2017-02-23T10:29:39Z</time>
      </trkpt>
      <trkpt lat="42.75167" lon="0.20942">
        <ele>2361.8</ele>
        <time>2017-02-23T10:29:44Z</time>
      </trkpt>
      <trkpt lat="42.75166" lon="0.20946">
        <ele>2362.4</ele>
        <time>2017-02-23T10:29:49Z</time>
      </trkpt>
      <trkpt lat="42.75166" lon="0.20949">
        <ele>2364</ele>
        <time>2017-02-23T10:29:54Z</time>
      </trkpt>
      <trkpt lat="42.75165" lon="0.20953">
        <ele>2361.2</ele>
        <time>2017-02-23T10:29:59Z</time>
      </trkpt>
      <trkpt lat="42.75164" lon="0.20956">
        <ele>2364.6</ele>
        <time>2017-02-23T10:30:04Z</time>
      </trkpt>
      <trkpt lat="42.75163" lon="0.20959">
        <ele>2365</ele>
        <time>2017-02-23T10:30:09Z</time>
      </trkpt>
      <trkpt lat="42.75161" lon="0.20961">
        <ele>2365.4</ele>
        <time>2017-02-23T10:30:14Z</time>
      </trkpt>
      <trkpt lat="42.7516" lon="0.20963">
        <ele>2366.4</ele>
        <time>2017-02-23T10:30:19Z</time>
      </trkpt>
      <trkpt lat="42.75158" lon="0.20965">
        <ele>2364</ele>
        <time>2017-02-23T10:30:24Z</time>
      </trkpt>
      <trkpt lat="42.75156" lon="0.20967">
        <ele>2368</ele>
        <time>2017-02-23T10:30:29Z</time>
      </trkpt>
      <trkpt lat="42.75154" lon="0.20968">
        <ele>2367.4</ele>
        <time>2017-02-23T10:30:34Z</time>
      </trkpt>
      <trkpt lat="42.75152" lon="0.20969">
        <ele>2368.4</ele>
        <time>2017-02-23T10:30:39Z</time>
      </trkpt>
      <trkpt lat="42.75153" lon="0.20969">
        <ele>2368.2</ele>
        <time>2017-02-23T10:30:44Z</time>
      </trkpt>
      <trkpt lat="42.75153" lon="0.20968">
        <ele>2368</ele>
        <time>2017-02-23T10:30:49Z</time>
      </trkpt>
      <trkpt lat="42.75153" lon="0.20968">
        <ele>2368</ele>
        <time>2017-02-23T10:30:54Z</time>
      </trkpt>
      <trkpt lat="42.75153" lon="0.20968">
        <ele>2368</ele>
        <time>2017-02-23T10:30:59Z</time>
      </trkpt>
      <trkpt lat="42.75152" lon="0.20968">
        <ele>2368</ele>
        <time>2017-02-23T10:31:04Z</time>
      </trkpt>
      <trkpt lat="42.75152" lon="0.20968">
        <ele>2368</ele>
        <time>2017-02-23T10:31:09Z</time>
      </trkpt>
      <trkpt lat="42.75153" lon="0.20968">
        <ele>2368</ele>
        <time>2017-02-23T10:31:14Z</time>
      </trkpt>
      <trkpt lat="42.75153" lon="0.20968">
        <ele>2368.2</ele>
        <time>2017-02-23T10:31:19Z</time>
      </trkpt>
      <trkpt lat="42.75153" lon="0.20969">
        <ele>2368.4</ele>
        <time>2017-02-23T10:31:24Z</time>
      </trkpt>
      <trkpt lat="42.75153" lon="0.20969">
        <ele>2368.6</ele>
        <time>2017-02-23T10:31:29Z</time>
      </trkpt>
      <trkpt lat="42.75153" lon="0.20969">
        <ele>2368.6</ele>
        <time>2017-02-23T10:31:34Z</time>
      </trkpt>
      <trkpt lat="42.75153" lon="0.20969">
        <ele>2368.8</ele>
        <time>2017-02-23T10:31:39Z</time>
      </trkpt>
      <trkpt lat="42.75153" lon="0.20969">
        <ele>2368.8</ele>
        <time>2017-02-23T10:31:44Z</time>
      </trkpt>
      <trkpt lat="42.75153" lon="0.20968">
        <ele>2368.8</ele>
        <time>2017-02-23T10:31:49Z</time>
      </trkpt>
      <trkpt lat="42.75153" lon="0.20968">
        <ele>2368.8</ele>
        <time>2017-02-23T10:31:55Z</time>
      </trkpt>
      <trkpt lat="42.75152" lon="0.20968">
        <ele>2368.8</ele>
        <time>2017-02-23T10:32:00Z</time>
      </trkpt>
      <trkpt lat="42.75152" lon="0.20968">
        <ele>2368.8</ele>
        <time>2017-02-23T10:32:05Z</time>
      </trkpt>
      <trkpt lat="42.75152" lon="0.20968">
        <ele>2368</ele>
        <time>2017-02-23T10:32:10Z</time>
      </trkpt>
      <trkpt lat="42.75151" lon="0.20968">
        <ele>2368.2</ele>
        <time>2017-02-23T10:32:15Z</time>
      </trkpt>
      <trkpt lat="42.75151" lon="0.20968">
        <ele>2368.4</ele>
        <time>2017-02-23T10:32:20Z</time>
      </trkpt>
      <trkpt lat="42.7515" lon="0.20968">
        <ele>2368.6</ele>
        <time>2017-02-23T10:32:25Z</time>
      </trkpt>
      <trkpt lat="42.7515" lon="0.20968">
        <ele>2368.8</ele>
        <time>2017-02-23T10:32:30Z</time>
      </trkpt>
      <trkpt lat="42.75149" lon="0.20968">
        <ele>2368.6</ele>
        <time>2017-02-23T10:32:35Z</time>
      </trkpt>
      <trkpt lat="42.75149" lon="0.20968">
        <ele>2368.6</ele>
        <time>2017-02-23T10:32:40Z</time>
      </trkpt>
      <trkpt lat="42.7515" lon="0.20968">
        <ele>2368.4</ele>
        <time>2017-02-23T10:32:45Z</time>
      </trkpt>
      <trkpt lat="42.7515" lon="0.20968">
        <ele>2368.4</ele>
        <time>2017-02-23T10:32:50Z</time>
      </trkpt>
      <trkpt lat="42.75149" lon="0.20968">
        <ele>2368.4</ele>
        <time>2017-02-23T10:32:55Z</time>
      </trkpt>
      <trkpt lat="42.7515" lon="0.20968">
        <ele>2368.4</ele>
        <time>2017-02-23T10:33:00Z</time>
      </trkpt>
      <trkpt lat="42.7515" lon="0.20967">
        <ele>2368.6</ele>
        <time>2017-02-23T10:33:05Z</time>
      </trkpt>
      <trkpt lat="42.7515" lon="0.20967">
        <ele>2368.6</ele>
        <time>2017-02-23T10:33:10Z</time>
      </trkpt>
      <trkpt lat="42.7515" lon="0.20966">
        <ele>2368.8</ele>
        <time>2017-02-23T10:33:15Z</time>
      </trkpt>
      <trkpt lat="42.7515" lon="0.20966">
        <ele>2369</ele>
        <time>2017-02-23T10:33:20Z</time>
      </trkpt>
      <trkpt lat="42.75151" lon="0.20966">
        <ele>2369.2</ele>
        <time>2017-02-23T10:33:25Z</time>
      </trkpt>
      <trkpt lat="42.75151" lon="0.20966">
        <ele>2369.2</ele>
        <time>2017-02-23T10:33:30Z</time>
      </trkpt>
      <trkpt lat="42.75149" lon="0.20965">
        <ele>2369.6</ele>
        <time>2017-02-23T10:33:35Z</time>
      </trkpt>
      <trkpt lat="42.75147" lon="0.20964">
        <ele>2369.6</ele>
        <time>2017-02-23T10:33:40Z</time>
      </trkpt>
      <trkpt lat="42.75145" lon="0.20961">
        <ele>2372</ele>
        <time>2017-02-23T10:33:45Z</time>
      </trkpt>
      <trkpt lat="42.75143" lon="0.2096">
        <ele>2372.2</ele>
        <time>2017-02-23T10:33:50Z</time>
      </trkpt>
      <trkpt lat="42.75141" lon="0.20958">
        <ele>2373.6</ele>
        <time>2017-02-23T10:33:55Z</time>
      </trkpt>
      <trkpt lat="42.75139" lon="0.20956">
        <ele>2371.6</ele>
        <time>2017-02-23T10:34:00Z</time>
      </trkpt>
      <trkpt lat="42.75138" lon="0.20955">
        <ele>2372.4</ele>
        <time>2017-02-23T10:34:05Z</time>
      </trkpt>
      <trkpt lat="42.75138" lon="0.20953">
        <ele>2375.8</ele>
        <time>2017-02-23T10:34:10Z</time>
      </trkpt>
      <trkpt lat="42.75136" lon="0.20951">
        <ele>2376</ele>
        <time>2017-02-23T10:34:15Z</time>
      </trkpt>
      <trkpt lat="42.75135" lon="0.20948">
        <ele>2376</ele>
        <time>2017-02-23T10:34:20Z</time>
      </trkpt>
      <trkpt lat="42.75134" lon="0.20946">
        <ele>2376.2</ele>
        <time>2017-02-23T10:34:25Z</time>
      </trkpt>
      <trkpt lat="42.75133" lon="0.20946">
        <ele>2374.4</ele>
        <time>2017-02-23T10:34:30Z</time>
      </trkpt>
      <trkpt lat="42.75132" lon="0.20948">
        <ele>2377.2</ele>
        <time>2017-02-23T10:34:35Z</time>
      </trkpt>
      <trkpt lat="42.75131" lon="0.2095">
        <ele>2376.8</ele>
        <time>2017-02-23T10:34:40Z</time>
      </trkpt>
      <trkpt lat="42.7513" lon="0.20952">
        <ele>2376</ele>
        <time>2017-02-23T10:34:45Z</time>
      </trkpt>
      <trkpt lat="42.75129" lon="0.20954">
        <ele>2377.6</ele>
        <time>2017-02-23T10:34:50Z</time>
      </trkpt>
      <trkpt lat="42.75127" lon="0.20956">
        <ele>2380</ele>
        <time>2017-02-23T10:34:55Z</time>
      </trkpt>
      <trkpt lat="42.75126" lon="0.20958">
        <ele>2382.2</ele>
        <time>2017-02-23T10:35:00Z</time>
      </trkpt>
      <trkpt lat="42.75125" lon="0.20959">
        <ele>2381.8</ele>
        <time>2017-02-23T10:35:05Z</time>
      </trkpt>
      <trkpt lat="42.75125" lon="0.20959">
        <ele>2382</ele>
        <time>2017-02-23T10:35:10Z</time>
      </trkpt>
      <trkpt lat="42.75125" lon="0.20959">
        <ele>2382.2</ele>
        <time>2017-02-23T10:35:15Z</time>
      </trkpt>
      <trkpt lat="42.75124" lon="0.20959">
        <ele>2382.4</ele>
        <time>2017-02-23T10:35:20Z</time>
      </trkpt>
      <trkpt lat="42.75125" lon="0.20959">
        <ele>2382.6</ele>
        <time>2017-02-23T10:35:25Z</time>
      </trkpt>
      <trkpt lat="42.75125" lon="0.20959">
        <ele>2382.8</ele>
        <time>2017-02-23T10:35:30Z</time>
      </trkpt>
      <trkpt lat="42.75125" lon="0.2096">
        <ele>2382.8</ele>
        <time>2017-02-23T10:35:35Z</time>
      </trkpt>
      <trkpt lat="42.75125" lon="0.2096">
        <ele>2383</ele>
        <time>2017-02-23T10:35:40Z</time>
      </trkpt>
      <trkpt lat="42.75125" lon="0.2096">
        <ele>2383</ele>
        <time>2017-02-23T10:35:45Z</time>
      </trkpt>
      <trkpt lat="42.75124" lon="0.20961">
        <ele>2387.2</ele>
        <time>2017-02-23T10:35:50Z</time>
      </trkpt>
      <trkpt lat="42.75122" lon="0.20963">
        <ele>2383.2</ele>
        <time>2017-02-23T10:35:55Z</time>
      </trkpt>
      <trkpt lat="42.7512" lon="0.20965">
        <ele>2384.6</ele>
        <time>2017-02-23T10:36:00Z</time>
      </trkpt>
      <trkpt lat="42.75118" lon="0.20967">
        <ele>2388.8</ele>
        <time>2017-02-23T10:36:05Z</time>
      </trkpt>
      <trkpt lat="42.75116" lon="0.20969">
        <ele>2385.4</ele>
        <time>2017-02-23T10:36:10Z</time>
      </trkpt>
      <trkpt lat="42.75114" lon="0.20971">
        <ele>2387.2</ele>
        <time>2017-02-23T10:36:15Z</time>
      </trkpt>
      <trkpt lat="42.75112" lon="0.20973">
        <ele>2389.2</ele>
        <time>2017-02-23T10:36:20Z</time>
      </trkpt>
      <trkpt lat="42.7511" lon="0.20974">
        <ele>2387.8</ele>
        <time>2017-02-23T10:36:25Z</time>
      </trkpt>
      <trkpt lat="42.75108" lon="0.20973">
        <ele>2387.6</ele>
        <time>2017-02-23T10:36:30Z</time>
      </trkpt>
      <trkpt lat="42.75106" lon="0.20972">
        <ele>2391</ele>
        <time>2017-02-23T10:36:35Z</time>
      </trkpt>
      <trkpt lat="42.75104" lon="0.20969">
        <ele>2391.6</ele>
        <time>2017-02-23T10:36:40Z</time>
      </trkpt>
      <trkpt lat="42.75102" lon="0.20967">
        <ele>2391.8</ele>
        <time>2017-02-23T10:36:45Z</time>
      </trkpt>
      <trkpt lat="42.751" lon="0.20965">
        <ele>2396.4</ele>
        <time>2017-02-23T10:36:50Z</time>
      </trkpt>
      <trkpt lat="42.75099" lon="0.20962">
        <ele>2392.2</ele>
        <time>2017-02-23T10:36:55Z</time>
      </trkpt>
      <trkpt lat="42.75097" lon="0.2096">
        <ele>2392.2</ele>
        <time>2017-02-23T10:37:00Z</time>
      </trkpt>
      <trkpt lat="42.75094" lon="0.20957">
        <ele>2398.6</ele>
        <time>2017-02-23T10:37:05Z</time>
      </trkpt>
      <trkpt lat="42.75092" lon="0.20955">
        <ele>2396.8</ele>
        <time>2017-02-23T10:37:10Z</time>
      </trkpt>
      <trkpt lat="42.7509" lon="0.20952">
        <ele>2394.6</ele>
        <time>2017-02-23T10:37:15Z</time>
      </trkpt>
      <trkpt lat="42.75088" lon="0.20949">
        <ele>2395.8</ele>
        <time>2017-02-23T10:37:20Z</time>
      </trkpt>
      <trkpt lat="42.75086" lon="0.20947">
        <ele>2394.8</ele>
        <time>2017-02-23T10:37:25Z</time>
      </trkpt>
      <trkpt lat="42.75084" lon="0.20944">
        <ele>2397.8</ele>
        <time>2017-02-23T10:37:30Z</time>
      </trkpt>
      <trkpt lat="42.75083" lon="0.20941">
        <ele>2398.6</ele>
        <time>2017-02-23T10:37:35Z</time>
      </trkpt>
      <trkpt lat="42.75081" lon="0.20939">
        <ele>2401.4</ele>
        <time>2017-02-23T10:37:40Z</time>
      </trkpt>
      <trkpt lat="42.75081" lon="0.20936">
        <ele>2400.4</ele>
        <time>2017-02-23T10:37:45Z</time>
      </trkpt>
      <trkpt lat="42.7508" lon="0.20934">
        <ele>2400.8</ele>
        <time>2017-02-23T10:37:50Z</time>
      </trkpt>
      <trkpt lat="42.75079" lon="0.20931">
        <ele>2396.2</ele>
        <time>2017-02-23T10:37:55Z</time>
      </trkpt>
      <trkpt lat="42.75078" lon="0.20928">
        <ele>2400.4</ele>
        <time>2017-02-23T10:38:00Z</time>
      </trkpt>
      <trkpt lat="42.75078" lon="0.20925">
        <ele>2402</ele>
        <time>2017-02-23T10:38:05Z</time>
      </trkpt>
      <trkpt lat="42.75077" lon="0.20922">
        <ele>2403.8</ele>
        <time>2017-02-23T10:38:10Z</time>
      </trkpt>
      <trkpt lat="42.75076" lon="0.20919">
        <ele>2401.6</ele>
        <time>2017-02-23T10:38:15Z</time>
      </trkpt>
      <trkpt lat="42.75075" lon="0.20916">
        <ele>2404.2</ele>
        <time>2017-02-23T10:38:20Z</time>
      </trkpt>
      <trkpt lat="42.75073" lon="0.20913">
        <ele>2406.6</ele>
        <time>2017-02-23T10:38:25Z</time>
      </trkpt>
      <trkpt lat="42.75071" lon="0.20911">
        <ele>2406.8</ele>
        <time>2017-02-23T10:38:30Z</time>
      </trkpt>
      <trkpt lat="42.75069" lon="0.20909">
        <ele>2410.4</ele>
        <time>2017-02-23T10:38:35Z</time>
      </trkpt>
      <trkpt lat="42.75068" lon="0.20909">
        <ele>2408.8</ele>
        <time>2017-02-23T10:38:40Z</time>
      </trkpt>
      <trkpt lat="42.75065" lon="0.2091">
        <ele>2413.8</ele>
        <time>2017-02-23T10:38:45Z</time>
      </trkpt>
      <trkpt lat="42.75062" lon="0.20911">
        <ele>2412.6</ele>
        <time>2017-02-23T10:38:50Z</time>
      </trkpt>
      <trkpt lat="42.75059" lon="0.20912">
        <ele>2410</ele>
        <time>2017-02-23T10:38:55Z</time>
      </trkpt>
      <trkpt lat="42.75056" lon="0.20913">
        <ele>2411.2</ele>
        <time>2017-02-23T10:39:00Z</time>
      </trkpt>
      <trkpt lat="42.75054" lon="0.20915">
        <ele>2413.4</ele>
        <time>2017-02-23T10:39:05Z</time>
      </trkpt>
      <trkpt lat="42.75052" lon="0.20917">
        <ele>2415.2</ele>
        <time>2017-02-23T10:39:10Z</time>
      </trkpt>
      <trkpt lat="42.75049" lon="0.2092">
        <ele>2412.4</ele>
        <time>2017-02-23T10:39:15Z</time>
      </trkpt>
      <trkpt lat="42.75046" lon="0.20923">
        <ele>2412.8</ele>
        <time>2017-02-23T10:39:20Z</time>
      </trkpt>
      <trkpt lat="42.75044" lon="0.20925">
        <ele>2415.6</ele>
        <time>2017-02-23T10:39:25Z</time>
      </trkpt>
      <trkpt lat="42.75042" lon="0.20927">
        <ele>2419.2</ele>
        <time>2017-02-23T10:39:30Z</time>
      </trkpt>
      <trkpt lat="42.7504" lon="0.20928">
        <ele>2413.8</ele>
        <time>2017-02-23T10:39:35Z</time>
      </trkpt>
      <trkpt lat="42.75037" lon="0.2093">
        <ele>2415.8</ele>
        <time>2017-02-23T10:39:40Z</time>
      </trkpt>
      <trkpt lat="42.75033" lon="0.20932">
        <ele>2414.8</ele>
        <time>2017-02-23T10:39:45Z</time>
      </trkpt>
      <trkpt lat="42.7503" lon="0.20934">
        <ele>2418.6</ele>
        <time>2017-02-23T10:39:50Z</time>
      </trkpt>
      <trkpt lat="42.75027" lon="0.20935">
        <ele>2416.2</ele>
        <time>2017-02-23T10:39:55Z</time>
      </trkpt>
      <trkpt lat="42.75023" lon="0.20936">
        <ele>2415.8</ele>
        <time>2017-02-23T10:40:00Z</time>
      </trkpt>
      <trkpt lat="42.75019" lon="0.20936">
        <ele>2417.4</ele>
        <time>2017-02-23T10:40:06Z</time>
      </trkpt>
      <trkpt lat="42.75016" lon="0.20936">
        <ele>2418.6</ele>
        <time>2017-02-23T10:40:11Z</time>
      </trkpt>
      <trkpt lat="42.75013" lon="0.20936">
        <ele>2419.2</ele>
        <time>2017-02-23T10:40:16Z</time>
      </trkpt>
      <trkpt lat="42.7501" lon="0.20935">
        <ele>2421.4</ele>
        <time>2017-02-23T10:40:21Z</time>
      </trkpt>
      <trkpt lat="42.75007" lon="0.20934">
        <ele>2422.4</ele>
        <time>2017-02-23T10:40:26Z</time>
      </trkpt>
      <trkpt lat="42.75005" lon="0.20933">
        <ele>2422</ele>
        <time>2017-02-23T10:40:31Z</time>
      </trkpt>
      <trkpt lat="42.75003" lon="0.20932">
        <ele>2417.4</ele>
        <time>2017-02-23T10:40:36Z</time>
      </trkpt>
      <trkpt lat="42.75" lon="0.20931">
        <ele>2421.2</ele>
        <time>2017-02-23T10:40:41Z</time>
      </trkpt>
      <trkpt lat="42.74998" lon="0.20929">
        <ele>2425.6</ele>
        <time>2017-02-23T10:40:46Z</time>
      </trkpt>
      <trkpt lat="42.74996" lon="0.20927">
        <ele>2424.2</ele>
        <time>2017-02-23T10:40:51Z</time>
      </trkpt>
      <trkpt lat="42.74994" lon="0.20925">
        <ele>2426.2</ele>
        <time>2017-02-23T10:40:56Z</time>
      </trkpt>
      <trkpt lat="42.74991" lon="0.20923">
        <ele>2428</ele>
        <time>2017-02-23T10:41:01Z</time>
      </trkpt>
      <trkpt lat="42.7499" lon="0.20923">
        <ele>2428.6</ele>
        <time>2017-02-23T10:41:06Z</time>
      </trkpt>
      <trkpt lat="42.7499" lon="0.20923">
        <ele>2427.8</ele>
        <time>2017-02-23T10:41:11Z</time>
      </trkpt>
      <trkpt lat="42.74991" lon="0.20923">
        <ele>2429.2</ele>
        <time>2017-02-23T10:41:16Z</time>
      </trkpt>
      <trkpt lat="42.74989" lon="0.20923">
        <ele>2426.6</ele>
        <time>2017-02-23T10:41:21Z</time>
      </trkpt>
      <trkpt lat="42.74988" lon="0.20924">
        <ele>2426.6</ele>
        <time>2017-02-23T10:41:26Z</time>
      </trkpt>
      <trkpt lat="42.74988" lon="0.20924">
        <ele>2426.6</ele>
        <time>2017-02-23T10:41:31Z</time>
      </trkpt>
      <trkpt lat="42.74989" lon="0.20925">
        <ele>2426.8</ele>
        <time>2017-02-23T10:41:36Z</time>
      </trkpt>
      <trkpt lat="42.74989" lon="0.20926">
        <ele>2427</ele>
        <time>2017-02-23T10:41:41Z</time>
      </trkpt>
      <trkpt lat="42.7499" lon="0.20927">
        <ele>2427.2</ele>
        <time>2017-02-23T10:41:46Z</time>
      </trkpt>
      <trkpt lat="42.74989" lon="0.20926">
        <ele>2427</ele>
        <time>2017-02-23T10:41:51Z</time>
      </trkpt>
      <trkpt lat="42.74987" lon="0.20924">
        <ele>2426.6</ele>
        <time>2017-02-23T10:41:56Z</time>
      </trkpt>
      <trkpt lat="42.74983" lon="0.20922">
        <ele>2426.4</ele>
        <time>2017-02-23T10:42:01Z</time>
      </trkpt>
      <trkpt lat="42.74981" lon="0.20921">
        <ele>2425.8</ele>
        <time>2017-02-23T10:42:06Z</time>
      </trkpt>
      <trkpt lat="42.7498" lon="0.20921">
        <ele>2424.8</ele>
        <time>2017-02-23T10:42:11Z</time>
      </trkpt>
      <trkpt lat="42.7498" lon="0.20921">
        <ele>2424</ele>
        <time>2017-02-23T10:42:16Z</time>
      </trkpt>
      <trkpt lat="42.74979" lon="0.20921">
        <ele>2423</ele>
        <time>2017-02-23T10:42:21Z</time>
      </trkpt>
      <trkpt lat="42.74979" lon="0.20922">
        <ele>2422.2</ele>
        <time>2017-02-23T10:42:26Z</time>
      </trkpt>
      <trkpt lat="42.74979" lon="0.20922">
        <ele>2421.4</ele>
        <time>2017-02-23T10:42:31Z</time>
      </trkpt>
      <trkpt lat="42.7498" lon="0.20922">
        <ele>2421.2</ele>
        <time>2017-02-23T10:42:36Z</time>
      </trkpt>
      <trkpt lat="42.7498" lon="0.20923">
        <ele>2420.6</ele>
        <time>2017-02-23T10:42:41Z</time>
      </trkpt>
      <trkpt lat="42.74981" lon="0.20923">
        <ele>2418.8</ele>
        <time>2017-02-23T10:42:46Z</time>
      </trkpt>
      <trkpt lat="42.74981" lon="0.20923">
        <ele>2417.2</ele>
        <time>2017-02-23T10:42:51Z</time>
      </trkpt>
      <trkpt lat="42.74981" lon="0.20923">
        <ele>2415.8</ele>
        <time>2017-02-23T10:42:56Z</time>
      </trkpt>
      <trkpt lat="42.74981" lon="0.20923">
        <ele>2414.4</ele>
        <time>2017-02-23T10:43:01Z</time>
      </trkpt>
      <trkpt lat="42.74981" lon="0.20923">
        <ele>2413.6</ele>
        <time>2017-02-23T10:43:06Z</time>
      </trkpt>
      <trkpt lat="42.74981" lon="0.20923">
        <ele>2413</ele>
        <time>2017-02-23T10:43:11Z</time>
      </trkpt>
      <trkpt lat="42.74981" lon="0.20923">
        <ele>2412.6</ele>
        <time>2017-02-23T10:43:16Z</time>
      </trkpt>
      <trkpt lat="42.74982" lon="0.20923">
        <ele>2412.6</ele>
        <time>2017-02-23T10:43:21Z</time>
      </trkpt>
      <trkpt lat="42.74983" lon="0.20923">
        <ele>2413</ele>
        <time>2017-02-23T10:43:26Z</time>
      </trkpt>
      <trkpt lat="42.74983" lon="0.20923">
        <ele>2413.8</ele>
        <time>2017-02-23T10:43:31Z</time>
      </trkpt>
      <trkpt lat="42.74984" lon="0.20923">
        <ele>2414.6</ele>
        <time>2017-02-23T10:43:36Z</time>
      </trkpt>
      <trkpt lat="42.74984" lon="0.20923">
        <ele>2415.4</ele>
        <time>2017-02-23T10:43:41Z</time>
      </trkpt>
      <trkpt lat="42.74984" lon="0.20923">
        <ele>2416</ele>
        <time>2017-02-23T10:43:46Z</time>
      </trkpt>
      <trkpt lat="42.74984" lon="0.20923">
        <ele>2416.4</ele>
        <time>2017-02-23T10:43:51Z</time>
      </trkpt>
      <trkpt lat="42.74983" lon="0.20923">
        <ele>2416.8</ele>
        <time>2017-02-23T10:43:56Z</time>
      </trkpt>
      <trkpt lat="42.74983" lon="0.20923">
        <ele>2417</ele>
        <time>2017-02-23T10:44:01Z</time>
      </trkpt>
      <trkpt lat="42.74983" lon="0.20923">
        <ele>2417.2</ele>
        <time>2017-02-23T10:44:06Z</time>
      </trkpt>
      <trkpt lat="42.74983" lon="0.20923">
        <ele>2417.2</ele>
        <time>2017-02-23T10:44:11Z</time>
      </trkpt>
      <trkpt lat="42.74983" lon="0.20923">
        <ele>2417.4</ele>
        <time>2017-02-23T10:44:16Z</time>
      </trkpt>
      <trkpt lat="42.74983" lon="0.20923">
        <ele>2417.6</ele>
        <time>2017-02-23T10:44:21Z</time>
      </trkpt>
      <trkpt lat="42.74983" lon="0.20923">
        <ele>2417.8</ele>
        <time>2017-02-23T10:44:26Z</time>
      </trkpt>
      <trkpt lat="42.74983" lon="0.20923">
        <ele>2418</ele>
        <time>2017-02-23T10:44:31Z</time>
      </trkpt>
      <trkpt lat="42.74983" lon="0.20923">
        <ele>2418.2</ele>
        <time>2017-02-23T10:44:36Z</time>
      </trkpt>
      <trkpt lat="42.74983" lon="0.20923">
        <ele>2418.2</ele>
        <time>2017-02-23T10:44:41Z</time>
      </trkpt>
      <trkpt lat="42.74983" lon="0.20922">
        <ele>2418.4</ele>
        <time>2017-02-23T10:44:46Z</time>
      </trkpt>
      <trkpt lat="42.74982" lon="0.20922">
        <ele>2418.6</ele>
        <time>2017-02-23T10:44:51Z</time>
      </trkpt>
      <trkpt lat="42.74982" lon="0.2092">
        <ele>2418.8</ele>
        <time>2017-02-23T10:44:56Z</time>
      </trkpt>
      <trkpt lat="42.74982" lon="0.2092">
        <ele>2419.4</ele>
        <time>2017-02-23T10:45:01Z</time>
      </trkpt>
      <trkpt lat="42.74983" lon="0.2092">
        <ele>2420</ele>
        <time>2017-02-23T10:45:06Z</time>
      </trkpt>
      <trkpt lat="42.74983" lon="0.20919">
        <ele>2420.8</ele>
        <time>2017-02-23T10:45:11Z</time>
      </trkpt>
      <trkpt lat="42.74985" lon="0.20919">
        <ele>2421.8</ele>
        <time>2017-02-23T10:45:16Z</time>
      </trkpt>
      <trkpt lat="42.74986" lon="0.2092">
        <ele>2422.8</ele>
        <time>2017-02-23T10:45:21Z</time>
      </trkpt>
      <trkpt lat="42.74986" lon="0.2092">
        <ele>2423.6</ele>
        <time>2017-02-23T10:45:26Z</time>
      </trkpt>
      <trkpt lat="42.74985" lon="0.20921">
        <ele>2424</ele>
        <time>2017-02-23T10:45:31Z</time>
      </trkpt>
      <trkpt lat="42.74984" lon="0.20922">
        <ele>2423.6</ele>
        <time>2017-02-23T10:45:36Z</time>
      </trkpt>
      <trkpt lat="42.74983" lon="0.20922">
        <ele>2422.8</ele>
        <time>2017-02-23T10:45:41Z</time>
      </trkpt>
      <trkpt lat="42.74982" lon="0.20922">
        <ele>2421.6</ele>
        <time>2017-02-23T10:45:46Z</time>
      </trkpt>
      <trkpt lat="42.74981" lon="0.20922">
        <ele>2420.2</ele>
        <time>2017-02-23T10:45:51Z</time>
      </trkpt>
      <trkpt lat="42.7498" lon="0.20922">
        <ele>2418</ele>
        <time>2017-02-23T10:45:56Z</time>
      </trkpt>
      <trkpt lat="42.74978" lon="0.2092">
        <ele>2419</ele>
        <time>2017-02-23T10:46:01Z</time>
      </trkpt>
      <trkpt lat="42.74976" lon="0.20919">
        <ele>2417.2</ele>
        <time>2017-02-23T10:46:06Z</time>
      </trkpt>
      <trkpt lat="42.74973" lon="0.20919">
        <ele>2417.8</ele>
        <time>2017-02-23T10:46:11Z</time>
      </trkpt>
      <trkpt lat="42.7497" lon="0.20917">
        <ele>2421.2</ele>
        <time>2017-02-23T10:46:16Z</time>
      </trkpt>
      <trkpt lat="42.74967" lon="0.20916">
        <ele>2421.2</ele>
        <time>2017-02-23T10:46:21Z</time>
      </trkpt>
      <trkpt lat="42.74963" lon="0.20914">
        <ele>2421</ele>
        <time>2017-02-23T10:46:26Z</time>
      </trkpt>
      <trkpt lat="42.74963" lon="0.20914">
        <ele>2423.2</ele>
        <time>2017-02-23T10:46:31Z</time>
      </trkpt>
      <trkpt lat="42.74963" lon="0.20914">
        <ele>2423.6</ele>
        <time>2017-02-23T10:46:36Z</time>
      </trkpt>
      <trkpt lat="42.74964" lon="0.20915">
        <ele>2424.2</ele>
        <time>2017-02-23T10:46:41Z</time>
      </trkpt>
      <trkpt lat="42.74965" lon="0.20915">
        <ele>2424.8</ele>
        <time>2017-02-23T10:46:46Z</time>
      </trkpt>
      <trkpt lat="42.74965" lon="0.20915">
        <ele>2425.2</ele>
        <time>2017-02-23T10:46:51Z</time>
      </trkpt>
      <trkpt lat="42.74966" lon="0.20915">
        <ele>2425.8</ele>
        <time>2017-02-23T10:46:56Z</time>
      </trkpt>
      <trkpt lat="42.74967" lon="0.20915">
        <ele>2426.2</ele>
        <time>2017-02-23T10:47:01Z</time>
      </trkpt>
      <trkpt lat="42.74966" lon="0.20915">
        <ele>2426.6</ele>
        <time>2017-02-23T10:47:06Z</time>
      </trkpt>
      <trkpt lat="42.74966" lon="0.20914">
        <ele>2426.8</ele>
        <time>2017-02-23T10:47:11Z</time>
      </trkpt>
      <trkpt lat="42.74964" lon="0.20913">
        <ele>2427.2</ele>
        <time>2017-02-23T10:47:16Z</time>
      </trkpt>
      <trkpt lat="42.74964" lon="0.20912">
        <ele>2427.2</ele>
        <time>2017-02-23T10:47:21Z</time>
      </trkpt>
      <trkpt lat="42.74964" lon="0.20912">
        <ele>2427.4</ele>
        <time>2017-02-23T10:47:26Z</time>
      </trkpt>
      <trkpt lat="42.74966" lon="0.20913">
        <ele>2427.6</ele>
        <time>2017-02-23T10:47:31Z</time>
      </trkpt>
      <trkpt lat="42.74967" lon="0.20914">
        <ele>2428.2</ele>
        <time>2017-02-23T10:47:36Z</time>
      </trkpt>
      <trkpt lat="42.74965" lon="0.20912">
        <ele>2429</ele>
        <time>2017-02-23T10:47:41Z</time>
      </trkpt>
      <trkpt lat="42.74961" lon="0.2091">
        <ele>2429.8</ele>
        <time>2017-02-23T10:47:46Z</time>
      </trkpt>
      <trkpt lat="42.74959" lon="0.20909">
        <ele>2427</ele>
        <time>2017-02-23T10:47:51Z</time>
      </trkpt>
      <trkpt lat="42.74956" lon="0.20905">
        <ele>2429</ele>
        <time>2017-02-23T10:47:56Z</time>
      </trkpt>
      <trkpt lat="42.74953" lon="0.209">
        <ele>2432</ele>
        <time>2017-02-23T10:48:01Z</time>
      </trkpt>
      <trkpt lat="42.7495" lon="0.20896">
        <ele>2431.8</ele>
        <time>2017-02-23T10:48:06Z</time>
      </trkpt>
      <trkpt lat="42.74947" lon="0.20891">
        <ele>2430.6</ele>
        <time>2017-02-23T10:48:11Z</time>
      </trkpt>
      <trkpt lat="42.74945" lon="0.20887">
        <ele>2430.2</ele>
        <time>2017-02-23T10:48:16Z</time>
      </trkpt>
      <trkpt lat="42.7494" lon="0.20883">
        <ele>2433.4</ele>
        <time>2017-02-23T10:48:21Z</time>
      </trkpt>
      <trkpt lat="42.74937" lon="0.20879">
        <ele>2432.6</ele>
        <time>2017-02-23T10:48:26Z</time>
      </trkpt>
      <trkpt lat="42.74937" lon="0.20876">
        <ele>2427.4</ele>
        <time>2017-02-23T10:48:31Z</time>
      </trkpt>
      <trkpt lat="42.74938" lon="0.20876">
        <ele>2430.4</ele>
        <time>2017-02-23T10:48:36Z</time>
      </trkpt>
      <trkpt lat="42.74938" lon="0.2088">
        <ele>2427.8</ele>
        <time>2017-02-23T10:48:41Z</time>
      </trkpt>
      <trkpt lat="42.74937" lon="0.20882">
        <ele>2429.2</ele>
        <time>2017-02-23T10:48:46Z</time>
      </trkpt>
      <trkpt lat="42.74935" lon="0.20883">
        <ele>2428.6</ele>
        <time>2017-02-23T10:48:51Z</time>
      </trkpt>
      <trkpt lat="42.74934" lon="0.20884">
        <ele>2431.6</ele>
        <time>2017-02-23T10:48:56Z</time>
      </trkpt>
      <trkpt lat="42.74933" lon="0.20886">
        <ele>2430.4</ele>
        <time>2017-02-23T10:49:01Z</time>
      </trkpt>
      <trkpt lat="42.74932" lon="0.20887">
        <ele>2432.6</ele>
        <time>2017-02-23T10:49:06Z</time>
      </trkpt>
      <trkpt lat="42.7493" lon="0.20888">
        <ele>2431.8</ele>
        <time>2017-02-23T10:49:11Z</time>
      </trkpt>
      <trkpt lat="42.74931" lon="0.20888">
        <ele>2433.6</ele>
        <time>2017-02-23T10:49:16Z</time>
      </trkpt>
      <trkpt lat="42.7493" lon="0.20885">
        <ele>2436.4</ele>
        <time>2017-02-23T10:49:21Z</time>
      </trkpt>
      <trkpt lat="42.74931" lon="0.20882">
        <ele>2438.4</ele>
        <time>2017-02-23T10:49:26Z</time>
      </trkpt>
      <trkpt lat="42.74931" lon="0.2088">
        <ele>2438.2</ele>
        <time>2017-02-23T10:49:31Z</time>
      </trkpt>
      <trkpt lat="42.74932" lon="0.20877">
        <ele>2440</ele>
        <time>2017-02-23T10:49:36Z</time>
      </trkpt>
      <trkpt lat="42.74933" lon="0.20875">
        <ele>2441</ele>
        <time>2017-02-23T10:49:41Z</time>
      </trkpt>
      <trkpt lat="42.74934" lon="0.20873">
        <ele>2439</ele>
        <time>2017-02-23T10:49:46Z</time>
      </trkpt>
      <trkpt lat="42.74935" lon="0.2087">
        <ele>2438.4</ele>
        <time>2017-02-23T10:49:51Z</time>
      </trkpt>
      <trkpt lat="42.74936" lon="0.20867">
        <ele>2439.6</ele>
        <time>2017-02-23T10:49:56Z</time>
      </trkpt>
      <trkpt lat="42.74937" lon="0.20865">
        <ele>2436.8</ele>
        <time>2017-02-23T10:50:01Z</time>
      </trkpt>
      <trkpt lat="42.74937" lon="0.20862">
        <ele>2439.6</ele>
        <time>2017-02-23T10:50:06Z</time>
      </trkpt>
      <trkpt lat="42.74938" lon="0.2086">
        <ele>2441.8</ele>
        <time>2017-02-23T10:50:11Z</time>
      </trkpt>
      <trkpt lat="42.74939" lon="0.20857">
        <ele>2439.6</ele>
        <time>2017-02-23T10:50:16Z</time>
      </trkpt>
      <trkpt lat="42.7494" lon="0.20855">
        <ele>2440</ele>
        <time>2017-02-23T10:50:21Z</time>
      </trkpt>
      <trkpt lat="42.74941" lon="0.20855">
        <ele>2441.4</ele>
        <time>2017-02-23T10:50:26Z</time>
      </trkpt>
      <trkpt lat="42.74942" lon="0.20857">
        <ele>2443.2</ele>
        <time>2017-02-23T10:50:31Z</time>
      </trkpt>
      <trkpt lat="42.74941" lon="0.20859">
        <ele>2445.8</ele>
        <time>2017-02-23T10:50:36Z</time>
      </trkpt>
      <trkpt lat="42.7494" lon="0.2086">
        <ele>2447.2</ele>
        <time>2017-02-23T10:50:41Z</time>
      </trkpt>
      <trkpt lat="42.74938" lon="0.20862">
        <ele>2447.8</ele>
        <time>2017-02-23T10:50:46Z</time>
      </trkpt>
      <trkpt lat="42.74937" lon="0.20863">
        <ele>2450.4</ele>
        <time>2017-02-23T10:50:51Z</time>
      </trkpt>
      <trkpt lat="42.74935" lon="0.20865">
        <ele>2449.6</ele>
        <time>2017-02-23T10:50:56Z</time>
      </trkpt>
      <trkpt lat="42.74934" lon="0.20866">
        <ele>2450.6</ele>
        <time>2017-02-23T10:51:01Z</time>
      </trkpt>
      <trkpt lat="42.74932" lon="0.20867">
        <ele>2455.8</ele>
        <time>2017-02-23T10:51:06Z</time>
      </trkpt>
      <trkpt lat="42.74931" lon="0.20868">
        <ele>2454</ele>
        <time>2017-02-23T10:51:11Z</time>
      </trkpt>
      <trkpt lat="42.7493" lon="0.20869">
        <ele>2451.8</ele>
        <time>2017-02-23T10:51:16Z</time>
      </trkpt>
      <trkpt lat="42.74928" lon="0.2087">
        <ele>2455.8</ele>
        <time>2017-02-23T10:51:21Z</time>
      </trkpt>
      <trkpt lat="42.74928" lon="0.20871">
        <ele>2455.8</ele>
        <time>2017-02-23T10:51:26Z</time>
      </trkpt>
      <trkpt lat="42.74928" lon="0.20871">
        <ele>2455.6</ele>
        <time>2017-02-23T10:51:31Z</time>
      </trkpt>
      <trkpt lat="42.74928" lon="0.20872">
        <ele>2455.6</ele>
        <time>2017-02-23T10:51:36Z</time>
      </trkpt>
      <trkpt lat="42.74928" lon="0.20872">
        <ele>2455.6</ele>
        <time>2017-02-23T10:51:41Z</time>
      </trkpt>
      <trkpt lat="42.74927" lon="0.20871">
        <ele>2455.8</ele>
        <time>2017-02-23T10:51:46Z</time>
      </trkpt>
      <trkpt lat="42.74925" lon="0.2087">
        <ele>2455.6</ele>
        <time>2017-02-23T10:51:51Z</time>
      </trkpt>
      <trkpt lat="42.74921" lon="0.20869">
        <ele>2455.4</ele>
        <time>2017-02-23T10:51:56Z</time>
      </trkpt>
      <trkpt lat="42.74918" lon="0.20867">
        <ele>2455.8</ele>
        <time>2017-02-23T10:52:01Z</time>
      </trkpt>
      <trkpt lat="42.74919" lon="0.20867">
        <ele>2455.2</ele>
        <time>2017-02-23T10:52:06Z</time>
      </trkpt>
      <trkpt lat="42.74921" lon="0.20867">
        <ele>2455</ele>
        <time>2017-02-23T10:52:11Z</time>
      </trkpt>
      <trkpt lat="42.74923" lon="0.20869">
        <ele>2455.2</ele>
        <time>2017-02-23T10:52:16Z</time>
      </trkpt>
      <trkpt lat="42.74923" lon="0.20869">
        <ele>2455.4</ele>
        <time>2017-02-23T10:52:21Z</time>
      </trkpt>
      <trkpt lat="42.74924" lon="0.20869">
        <ele>2455.2</ele>
        <time>2017-02-23T10:52:26Z</time>
      </trkpt>
      <trkpt lat="42.74923" lon="0.20869">
        <ele>2455.2</ele>
        <time>2017-02-23T10:52:31Z</time>
      </trkpt>
      <trkpt lat="42.74925" lon="0.20869">
        <ele>2455.2</ele>
        <time>2017-02-23T10:52:36Z</time>
      </trkpt>
      <trkpt lat="42.74925" lon="0.20869">
        <ele>2455.4</ele>
        <time>2017-02-23T10:52:41Z</time>
      </trkpt>
      <trkpt lat="42.74926" lon="0.2087">
        <ele>2455.6</ele>
        <time>2017-02-23T10:52:46Z</time>
      </trkpt>
      <trkpt lat="42.74926" lon="0.2087">
        <ele>2455.6</ele>
        <time>2017-02-23T10:52:51Z</time>
      </trkpt>
      <trkpt lat="42.74926" lon="0.2087">
        <ele>2455.6</ele>
        <time>2017-02-23T10:52:56Z</time>
      </trkpt>
      <trkpt lat="42.74926" lon="0.2087">
        <ele>2455.6</ele>
        <time>2017-02-23T10:53:01Z</time>
      </trkpt>
      <trkpt lat="42.74925" lon="0.20871">
        <ele>2455.8</ele>
        <time>2017-02-23T10:53:06Z</time>
      </trkpt>
      <trkpt lat="42.74925" lon="0.20871">
        <ele>2456.2</ele>
        <time>2017-02-23T10:53:11Z</time>
      </trkpt>
      <trkpt lat="42.74926" lon="0.2087">
        <ele>2455.6</ele>
        <time>2017-02-23T10:53:16Z</time>
      </trkpt>
      <trkpt lat="42.74926" lon="0.2087">
        <ele>2456.2</ele>
        <time>2017-02-23T10:53:21Z</time>
      </trkpt>
      <trkpt lat="42.74927" lon="0.2087">
        <ele>2457</ele>
        <time>2017-02-23T10:53:26Z</time>
      </trkpt>
      <trkpt lat="42.74928" lon="0.2087">
        <ele>2457.6</ele>
        <time>2017-02-23T10:53:31Z</time>
      </trkpt>
      <trkpt lat="42.74929" lon="0.2087">
        <ele>2458.4</ele>
        <time>2017-02-23T10:53:36Z</time>
      </trkpt>
      <trkpt lat="42.74929" lon="0.2087">
        <ele>2459</ele>
        <time>2017-02-23T10:53:41Z</time>
      </trkpt>
      <trkpt lat="42.74928" lon="0.2087">
        <ele>2459.4</ele>
        <time>2017-02-23T10:53:46Z</time>
      </trkpt>
      <trkpt lat="42.74928" lon="0.2087">
        <ele>2459.6</ele>
        <time>2017-02-23T10:53:51Z</time>
      </trkpt>
      <trkpt lat="42.74928" lon="0.20868">
        <ele>2459.4</ele>
        <time>2017-02-23T10:53:56Z</time>
      </trkpt>
      <trkpt lat="42.74928" lon="0.20866">
        <ele>2460.8</ele>
        <time>2017-02-23T10:54:01Z</time>
      </trkpt>
      <trkpt lat="42.74929" lon="0.20863">
        <ele>2464.2</ele>
        <time>2017-02-23T10:54:06Z</time>
      </trkpt>
      <trkpt lat="42.7493" lon="0.2086">
        <ele>2465.4</ele>
        <time>2017-02-23T10:54:11Z</time>
      </trkpt>
      <trkpt lat="42.74933" lon="0.20859">
        <ele>2464.6</ele>
        <time>2017-02-23T10:54:16Z</time>
      </trkpt>
      <trkpt lat="42.74936" lon="0.20856">
        <ele>2463.4</ele>
        <time>2017-02-23T10:54:21Z</time>
      </trkpt>
      <trkpt lat="42.74937" lon="0.20855">
        <ele>2463.6</ele>
        <time>2017-02-23T10:54:26Z</time>
      </trkpt>
      <trkpt lat="42.74933" lon="0.20855">
        <ele>2462.6</ele>
        <time>2017-02-23T10:54:31Z</time>
      </trkpt>
      <trkpt lat="42.74931" lon="0.20856">
        <ele>2465.2</ele>
        <time>2017-02-23T10:54:36Z</time>
      </trkpt>
      <trkpt lat="42.74928" lon="0.20857">
        <ele>2463</ele>
        <time>2017-02-23T10:54:41Z</time>
      </trkpt>
      <trkpt lat="42.74925" lon="0.20857">
        <ele>2464.4</ele>
        <time>2017-02-23T10:54:46Z</time>
      </trkpt>
      <trkpt lat="42.74922" lon="0.20858">
        <ele>2464.4</ele>
        <time>2017-02-23T10:54:51Z</time>
      </trkpt>
      <trkpt lat="42.7492" lon="0.20859">
        <ele>2466.8</ele>
        <time>2017-02-23T10:54:56Z</time>
      </trkpt>
      <trkpt lat="42.74918" lon="0.20861">
        <ele>2467</ele>
        <time>2017-02-23T10:55:01Z</time>
      </trkpt>
      <trkpt lat="42.74917" lon="0.20861">
        <ele>2467.8</ele>
        <time>2017-02-23T10:55:06Z</time>
      </trkpt>
      <trkpt lat="42.74916" lon="0.2086">
        <ele>2467.6</ele>
        <time>2017-02-23T10:55:11Z</time>
      </trkpt>
      <trkpt lat="42.74916" lon="0.2086">
        <ele>2467.6</ele>
        <time>2017-02-23T10:55:16Z</time>
      </trkpt>
      <trkpt lat="42.74916" lon="0.2086">
        <ele>2467.6</ele>
        <time>2017-02-23T10:55:21Z</time>
      </trkpt>
      <trkpt lat="42.74917" lon="0.2086">
        <ele>2467.6</ele>
        <time>2017-02-23T10:55:26Z</time>
      </trkpt>
      <trkpt lat="42.74917" lon="0.20859">
        <ele>2467.2</ele>
        <time>2017-02-23T10:55:31Z</time>
      </trkpt>
      <trkpt lat="42.74914" lon="0.20859">
        <ele>2467</ele>
        <time>2017-02-23T10:55:36Z</time>
      </trkpt>
      <trkpt lat="42.74913" lon="0.20858">
        <ele>2467</ele>
        <time>2017-02-23T10:55:41Z</time>
      </trkpt>
      <trkpt lat="42.74914" lon="0.20858">
        <ele>2467.2</ele>
        <time>2017-02-23T10:55:46Z</time>
      </trkpt>
      <trkpt lat="42.74915" lon="0.20857">
        <ele>2467.4</ele>
        <time>2017-02-23T10:55:51Z</time>
      </trkpt>
      <trkpt lat="42.74918" lon="0.20857">
        <ele>2467.8</ele>
        <time>2017-02-23T10:55:56Z</time>
      </trkpt>
      <trkpt lat="42.74921" lon="0.20857">
        <ele>2469.4</ele>
        <time>2017-02-23T10:56:01Z</time>
      </trkpt>
      <trkpt lat="42.74924" lon="0.20853">
        <ele>2470</ele>
        <time>2017-02-23T10:56:06Z</time>
      </trkpt>
      <trkpt lat="42.74927" lon="0.20851">
        <ele>2469.8</ele>
        <time>2017-02-23T10:56:11Z</time>
      </trkpt>
      <trkpt lat="42.7493" lon="0.20847">
        <ele>2470.2</ele>
        <time>2017-02-23T10:56:16Z</time>
      </trkpt>
      <trkpt lat="42.74932" lon="0.20844">
        <ele>2469.4</ele>
        <time>2017-02-23T10:56:21Z</time>
      </trkpt>
      <trkpt lat="42.74934" lon="0.20842">
        <ele>2473.6</ele>
        <time>2017-02-23T10:56:26Z</time>
      </trkpt>
      <trkpt lat="42.74931" lon="0.20842">
        <ele>2474.6</ele>
        <time>2017-02-23T10:56:31Z</time>
      </trkpt>
      <trkpt lat="42.74925" lon="0.20842">
        <ele>2474</ele>
        <time>2017-02-23T10:56:36Z</time>
      </trkpt>
      <trkpt lat="42.74925" lon="0.20843">
        <ele>2473.4</ele>
        <time>2017-02-23T10:56:41Z</time>
      </trkpt>
      <trkpt lat="42.74924" lon="0.20843">
        <ele>2472.8</ele>
        <time>2017-02-23T10:56:46Z</time>
      </trkpt>
      <trkpt lat="42.7492" lon="0.20843">
        <ele>2472.6</ele>
        <time>2017-02-23T10:56:51Z</time>
      </trkpt>
      <trkpt lat="42.74917" lon="0.20844">
        <ele>2470.8</ele>
        <time>2017-02-23T10:56:56Z</time>
      </trkpt>
      <trkpt lat="42.74914" lon="0.20845">
        <ele>2473.6</ele>
        <time>2017-02-23T10:57:01Z</time>
      </trkpt>
      <trkpt lat="42.74912" lon="0.20845">
        <ele>2476.2</ele>
        <time>2017-02-23T10:57:06Z</time>
      </trkpt>
      <trkpt lat="42.74911" lon="0.20846">
        <ele>2475</ele>
        <time>2017-02-23T10:57:11Z</time>
      </trkpt>
      <trkpt lat="42.74913" lon="0.20843">
        <ele>2476.4</ele>
        <time>2017-02-23T10:57:16Z</time>
      </trkpt>
      <trkpt lat="42.74915" lon="0.20841">
        <ele>2478.4</ele>
        <time>2017-02-23T10:57:21Z</time>
      </trkpt>
      <trkpt lat="42.74915" lon="0.2084">
        <ele>2474.8</ele>
        <time>2017-02-23T10:57:26Z</time>
      </trkpt>
      <trkpt lat="42.74915" lon="0.2084">
        <ele>2475.2</ele>
        <time>2017-02-23T10:57:31Z</time>
      </trkpt>
      <trkpt lat="42.74915" lon="0.2084">
        <ele>2475.4</ele>
        <time>2017-02-23T10:57:36Z</time>
      </trkpt>
      <trkpt lat="42.74914" lon="0.2084">
        <ele>2475.6</ele>
        <time>2017-02-23T10:57:41Z</time>
      </trkpt>
      <trkpt lat="42.74915" lon="0.2084">
        <ele>2475.8</ele>
        <time>2017-02-23T10:57:46Z</time>
      </trkpt>
      <trkpt lat="42.74917" lon="0.2084">
        <ele>2476</ele>
        <time>2017-02-23T10:57:51Z</time>
      </trkpt>
      <trkpt lat="42.74918" lon="0.20838">
        <ele>2477.4</ele>
        <time>2017-02-23T10:57:56Z</time>
      </trkpt>
      <trkpt lat="42.7492" lon="0.20835">
        <ele>2479.6</ele>
        <time>2017-02-23T10:58:01Z</time>
      </trkpt>
      <trkpt lat="42.74922" lon="0.20833">
        <ele>2479.6</ele>
        <time>2017-02-23T10:58:06Z</time>
      </trkpt>
      <trkpt lat="42.74924" lon="0.2083">
        <ele>2477.4</ele>
        <time>2017-02-23T10:58:11Z</time>
      </trkpt>
      <trkpt lat="42.74925" lon="0.20828">
        <ele>2478</ele>
        <time>2017-02-23T10:58:16Z</time>
      </trkpt>
      <trkpt lat="42.74925" lon="0.20827">
        <ele>2478.4</ele>
        <time>2017-02-23T10:58:21Z</time>
      </trkpt>
      <trkpt lat="42.74923" lon="0.20828">
        <ele>2477.8</ele>
        <time>2017-02-23T10:58:26Z</time>
      </trkpt>
      <trkpt lat="42.74921" lon="0.2083">
        <ele>2480.2</ele>
        <time>2017-02-23T10:58:31Z</time>
      </trkpt>
      <trkpt lat="42.74919" lon="0.20831">
        <ele>2480.8</ele>
        <time>2017-02-23T10:58:36Z</time>
      </trkpt>
      <trkpt lat="42.74917" lon="0.20832">
        <ele>2480.8</ele>
        <time>2017-02-23T10:58:41Z</time>
      </trkpt>
      <trkpt lat="42.74915" lon="0.20834">
        <ele>2481</ele>
        <time>2017-02-23T10:58:46Z</time>
      </trkpt>
      <trkpt lat="42.74913" lon="0.20835">
        <ele>2481.6</ele>
        <time>2017-02-23T10:58:51Z</time>
      </trkpt>
      <trkpt lat="42.74911" lon="0.20836">
        <ele>2484.4</ele>
        <time>2017-02-23T10:58:56Z</time>
      </trkpt>
      <trkpt lat="42.74909" lon="0.20837">
        <ele>2483.8</ele>
        <time>2017-02-23T10:59:01Z</time>
      </trkpt>
      <trkpt lat="42.74909" lon="0.20837">
        <ele>2483.4</ele>
        <time>2017-02-23T10:59:06Z</time>
      </trkpt>
      <trkpt lat="42.74909" lon="0.20837">
        <ele>2483</ele>
        <time>2017-02-23T10:59:11Z</time>
      </trkpt>
      <trkpt lat="42.74908" lon="0.20837">
        <ele>2482.8</ele>
        <time>2017-02-23T10:59:16Z</time>
      </trkpt>
      <trkpt lat="42.74908" lon="0.20838">
        <ele>2482.6</ele>
        <time>2017-02-23T10:59:21Z</time>
      </trkpt>
      <trkpt lat="42.74908" lon="0.20838">
        <ele>2482.4</ele>
        <time>2017-02-23T10:59:26Z</time>
      </trkpt>
      <trkpt lat="42.74908" lon="0.20838">
        <ele>2482.2</ele>
        <time>2017-02-23T10:59:31Z</time>
      </trkpt>
      <trkpt lat="42.74908" lon="0.20838">
        <ele>2482.2</ele>
        <time>2017-02-23T10:59:36Z</time>
      </trkpt>
      <trkpt lat="42.74908" lon="0.20838">
        <ele>2482.2</ele>
        <time>2017-02-23T10:59:41Z</time>
      </trkpt>
      <trkpt lat="42.74908" lon="0.20838">
        <ele>2482</ele>
        <time>2017-02-23T10:59:46Z</time>
      </trkpt>
      <trkpt lat="42.74908" lon="0.20838">
        <ele>2481.8</ele>
        <time>2017-02-23T10:59:51Z</time>
      </trkpt>
      <trkpt lat="42.74908" lon="0.20838">
        <ele>2481.8</ele>
        <time>2017-02-23T10:59:56Z</time>
      </trkpt>
      <trkpt lat="42.74908" lon="0.20838">
        <ele>2481.6</ele>
        <time>2017-02-23T11:00:01Z</time>
      </trkpt>
      <trkpt lat="42.74907" lon="0.20838">
        <ele>2481.6</ele>
        <time>2017-02-23T11:00:06Z</time>
      </trkpt>
      <trkpt lat="42.74907" lon="0.20839">
        <ele>2480.6</ele>
        <time>2017-02-23T11:00:11Z</time>
      </trkpt>
      <trkpt lat="42.74907" lon="0.2084">
        <ele>2481.6</ele>
        <time>2017-02-23T11:00:16Z</time>
      </trkpt>
      <trkpt lat="42.74907" lon="0.20837">
        <ele>2481.2</ele>
        <time>2017-02-23T11:00:21Z</time>
      </trkpt>
      <trkpt lat="42.74908" lon="0.20834">
        <ele>2483.4</ele>
        <time>2017-02-23T11:00:26Z</time>
      </trkpt>
      <trkpt lat="42.74909" lon="0.20833">
        <ele>2483.8</ele>
        <time>2017-02-23T11:00:31Z</time>
      </trkpt>
      <trkpt lat="42.7491" lon="0.2083">
        <ele>2484</ele>
        <time>2017-02-23T11:00:36Z</time>
      </trkpt>
      <trkpt lat="42.74912" lon="0.20827">
        <ele>2483.8</ele>
        <time>2017-02-23T11:00:41Z</time>
      </trkpt>
      <trkpt lat="42.74913" lon="0.20824">
        <ele>2485.6</ele>
        <time>2017-02-23T11:00:46Z</time>
      </trkpt>
      <trkpt lat="42.74912" lon="0.20824">
        <ele>2484.8</ele>
        <time>2017-02-23T11:00:51Z</time>
      </trkpt>
      <trkpt lat="42.74911" lon="0.20825">
        <ele>2484</ele>
        <time>2017-02-23T11:00:56Z</time>
      </trkpt>
      <trkpt lat="42.74909" lon="0.20825">
        <ele>2485.2</ele>
        <time>2017-02-23T11:01:01Z</time>
      </trkpt>
      <trkpt lat="42.74907" lon="0.20826">
        <ele>2482.8</ele>
        <time>2017-02-23T11:01:06Z</time>
      </trkpt>
      <trkpt lat="42.74905" lon="0.20827">
        <ele>2484.4</ele>
        <time>2017-02-23T11:01:11Z</time>
      </trkpt>
      <trkpt lat="42.74902" lon="0.20829">
        <ele>2482.8</ele>
        <time>2017-02-23T11:01:16Z</time>
      </trkpt>
      <trkpt lat="42.74902" lon="0.20829">
        <ele>2486.4</ele>
        <time>2017-02-23T11:01:21Z</time>
      </trkpt>
      <trkpt lat="42.74902" lon="0.20827">
        <ele>2484.2</ele>
        <time>2017-02-23T11:01:26Z</time>
      </trkpt>
      <trkpt lat="42.74903" lon="0.20823">
        <ele>2488.6</ele>
        <time>2017-02-23T11:01:31Z</time>
      </trkpt>
      <trkpt lat="42.74903" lon="0.20822">
        <ele>2487.4</ele>
        <time>2017-02-23T11:01:37Z</time>
      </trkpt>
      <trkpt lat="42.74903" lon="0.20821">
        <ele>2487.4</ele>
        <time>2017-02-23T11:01:42Z</time>
      </trkpt>
      <trkpt lat="42.74904" lon="0.20819">
        <ele>2487.6</ele>
        <time>2017-02-23T11:01:47Z</time>
      </trkpt>
      <trkpt lat="42.74904" lon="0.20819">
        <ele>2487.6</ele>
        <time>2017-02-23T11:01:52Z</time>
      </trkpt>
      <trkpt lat="42.74903" lon="0.20818">
        <ele>2487.6</ele>
        <time>2017-02-23T11:01:57Z</time>
      </trkpt>
      <trkpt lat="42.74902" lon="0.20818">
        <ele>2485</ele>
        <time>2017-02-23T11:02:02Z</time>
      </trkpt>
      <trkpt lat="42.749" lon="0.20819">
        <ele>2485.8</ele>
        <time>2017-02-23T11:02:08Z</time>
      </trkpt>
      <trkpt lat="42.74899" lon="0.20821">
        <ele>2483.2</ele>
        <time>2017-02-23T11:02:13Z</time>
      </trkpt>
      <trkpt lat="42.74899" lon="0.2082">
        <ele>2484.2</ele>
        <time>2017-02-23T11:02:18Z</time>
      </trkpt>
      <trkpt lat="42.74901" lon="0.20817">
        <ele>2487.2</ele>
        <time>2017-02-23T11:02:23Z</time>
      </trkpt>
      <trkpt lat="42.74902" lon="0.20814">
        <ele>2488.4</ele>
        <time>2017-02-23T11:02:28Z</time>
      </trkpt>
      <trkpt lat="42.74903" lon="0.20812">
        <ele>2490.2</ele>
        <time>2017-02-23T11:02:33Z</time>
      </trkpt>
      <trkpt lat="42.74898" lon="0.20814">
        <ele>2485.2</ele>
        <time>2017-02-23T11:02:38Z</time>
      </trkpt>
      <trkpt lat="42.74897" lon="0.20816">
        <ele>2488.2</ele>
        <time>2017-02-23T11:02:43Z</time>
      </trkpt>
      <trkpt lat="42.74897" lon="0.20818">
        <ele>2489.4</ele>
        <time>2017-02-23T11:02:48Z</time>
      </trkpt>
      <trkpt lat="42.74896" lon="0.20818">
        <ele>2490.8</ele>
        <time>2017-02-23T11:02:53Z</time>
      </trkpt>
      <trkpt lat="42.74896" lon="0.20817">
        <ele>2490</ele>
        <time>2017-02-23T11:02:58Z</time>
      </trkpt>
      <trkpt lat="42.74896" lon="0.20816">
        <ele>2491</ele>
        <time>2017-02-23T11:03:03Z</time>
      </trkpt>
      <trkpt lat="42.74896" lon="0.20813">
        <ele>2495.8</ele>
        <time>2017-02-23T11:03:08Z</time>
      </trkpt>
      <trkpt lat="42.74897" lon="0.20809">
        <ele>2493.8</ele>
        <time>2017-02-23T11:03:13Z</time>
      </trkpt>
      <trkpt lat="42.74897" lon="0.20807">
        <ele>2494.2</ele>
        <time>2017-02-23T11:03:18Z</time>
      </trkpt>
      <trkpt lat="42.74898" lon="0.20805">
        <ele>2493.6</ele>
        <time>2017-02-23T11:03:23Z</time>
      </trkpt>
      <trkpt lat="42.74899" lon="0.20803">
        <ele>2493.2</ele>
        <time>2017-02-23T11:03:28Z</time>
      </trkpt>
      <trkpt lat="42.749" lon="0.20803">
        <ele>2494.2</ele>
        <time>2017-02-23T11:03:33Z</time>
      </trkpt>
      <trkpt lat="42.749" lon="0.20804">
        <ele>2494.8</ele>
        <time>2017-02-23T11:03:38Z</time>
      </trkpt>
      <trkpt lat="42.749" lon="0.20804">
        <ele>2495.2</ele>
        <time>2017-02-23T11:03:43Z</time>
      </trkpt>
      <trkpt lat="42.749" lon="0.20804">
        <ele>2495.4</ele>
        <time>2017-02-23T11:03:48Z</time>
      </trkpt>
      <trkpt lat="42.749" lon="0.20804">
        <ele>2495.6</ele>
        <time>2017-02-23T11:03:53Z</time>
      </trkpt>
      <trkpt lat="42.749" lon="0.20804">
        <ele>2495.8</ele>
        <time>2017-02-23T11:03:58Z</time>
      </trkpt>
      <trkpt lat="42.749" lon="0.20804">
        <ele>2495.8</ele>
        <time>2017-02-23T11:04:03Z</time>
      </trkpt>
      <trkpt lat="42.749" lon="0.20804">
        <ele>2496</ele>
        <time>2017-02-23T11:04:08Z</time>
      </trkpt>
      <trkpt lat="42.74899" lon="0.20804">
        <ele>2493.2</ele>
        <time>2017-02-23T11:04:13Z</time>
      </trkpt>
      <trkpt lat="42.74897" lon="0.20804">
        <ele>2494</ele>
        <time>2017-02-23T11:04:18Z</time>
      </trkpt>
      <trkpt lat="42.74894" lon="0.20805">
        <ele>2493.6</ele>
        <time>2017-02-23T11:04:23Z</time>
      </trkpt>
      <trkpt lat="42.74892" lon="0.20806">
        <ele>2495.2</ele>
        <time>2017-02-23T11:04:28Z</time>
      </trkpt>
      <trkpt lat="42.7489" lon="0.20807">
        <ele>2498.6</ele>
        <time>2017-02-23T11:04:33Z</time>
      </trkpt>
      <trkpt lat="42.74889" lon="0.20809">
        <ele>2498.6</ele>
        <time>2017-02-23T11:04:38Z</time>
      </trkpt>
      <trkpt lat="42.74887" lon="0.2081">
        <ele>2498.6</ele>
        <time>2017-02-23T11:04:43Z</time>
      </trkpt>
      <trkpt lat="42.74887" lon="0.20811">
        <ele>2498.6</ele>
        <time>2017-02-23T11:04:48Z</time>
      </trkpt>
      <trkpt lat="42.74886" lon="0.2081">
        <ele>2499.8</ele>
        <time>2017-02-23T11:04:53Z</time>
      </trkpt>
      <trkpt lat="42.74886" lon="0.20808">
        <ele>2497.4</ele>
        <time>2017-02-23T11:04:58Z</time>
      </trkpt>
      <trkpt lat="42.74886" lon="0.20805">
        <ele>2498.4</ele>
        <time>2017-02-23T11:05:03Z</time>
      </trkpt>
      <trkpt lat="42.74886" lon="0.20802">
        <ele>2499.2</ele>
        <time>2017-02-23T11:05:08Z</time>
      </trkpt>
      <trkpt lat="42.74887" lon="0.20799">
        <ele>2500.4</ele>
        <time>2017-02-23T11:05:13Z</time>
      </trkpt>
      <trkpt lat="42.74889" lon="0.20795">
        <ele>2500</ele>
        <time>2017-02-23T11:05:18Z</time>
      </trkpt>
      <trkpt lat="42.74889" lon="0.20794">
        <ele>2503</ele>
        <time>2017-02-23T11:05:23Z</time>
      </trkpt>
      <trkpt lat="42.7489" lon="0.20793">
        <ele>2502.8</ele>
        <time>2017-02-23T11:05:28Z</time>
      </trkpt>
      <trkpt lat="42.7489" lon="0.20793">
        <ele>2502</ele>
        <time>2017-02-23T11:05:33Z</time>
      </trkpt>
      <trkpt lat="42.74887" lon="0.20794">
        <ele>2500.2</ele>
        <time>2017-02-23T11:05:38Z</time>
      </trkpt>
      <trkpt lat="42.74885" lon="0.20796">
        <ele>2499.6</ele>
        <time>2017-02-23T11:05:43Z</time>
      </trkpt>
      <trkpt lat="42.74883" lon="0.20798">
        <ele>2500.4</ele>
        <time>2017-02-23T11:05:48Z</time>
      </trkpt>
      <trkpt lat="42.74881" lon="0.20801">
        <ele>2501.2</ele>
        <time>2017-02-23T11:05:53Z</time>
      </trkpt>
      <trkpt lat="42.74879" lon="0.20804">
        <ele>2504.4</ele>
        <time>2017-02-23T11:05:58Z</time>
      </trkpt>
      <trkpt lat="42.74877" lon="0.20807">
        <ele>2505.6</ele>
        <time>2017-02-23T11:06:03Z</time>
      </trkpt>
      <trkpt lat="42.74877" lon="0.20807">
        <ele>2507.4</ele>
        <time>2017-02-23T11:06:08Z</time>
      </trkpt>
      <trkpt lat="42.74876" lon="0.20807">
        <ele>2508.4</ele>
        <time>2017-02-23T11:06:13Z</time>
      </trkpt>
      <trkpt lat="42.74876" lon="0.20808">
        <ele>2509.2</ele>
        <time>2017-02-23T11:06:18Z</time>
      </trkpt>
      <trkpt lat="42.74875" lon="0.20808">
        <ele>2509.8</ele>
        <time>2017-02-23T11:06:23Z</time>
      </trkpt>
      <trkpt lat="42.74874" lon="0.20809">
        <ele>2510.4</ele>
        <time>2017-02-23T11:06:28Z</time>
      </trkpt>
      <trkpt lat="42.74874" lon="0.20808">
        <ele>2510.8</ele>
        <time>2017-02-23T11:06:33Z</time>
      </trkpt>
      <trkpt lat="42.74874" lon="0.20808">
        <ele>2511</ele>
        <time>2017-02-23T11:06:38Z</time>
      </trkpt>
      <trkpt lat="42.74873" lon="0.20809">
        <ele>2511.4</ele>
        <time>2017-02-23T11:06:43Z</time>
      </trkpt>
      <trkpt lat="42.74873" lon="0.20809">
        <ele>2511.6</ele>
        <time>2017-02-23T11:06:48Z</time>
      </trkpt>
      <trkpt lat="42.74873" lon="0.20809">
        <ele>2511.8</ele>
        <time>2017-02-23T11:06:53Z</time>
      </trkpt>
      <trkpt lat="42.74873" lon="0.20809">
        <ele>2512</ele>
        <time>2017-02-23T11:06:58Z</time>
      </trkpt>
      <trkpt lat="42.74873" lon="0.20808">
        <ele>2512.8</ele>
        <time>2017-02-23T11:07:03Z</time>
      </trkpt>
      <trkpt lat="42.74874" lon="0.20804">
        <ele>2513.6</ele>
        <time>2017-02-23T11:07:08Z</time>
      </trkpt>
      <trkpt lat="42.74874" lon="0.20801">
        <ele>2513.6</ele>
        <time>2017-02-23T11:07:13Z</time>
      </trkpt>
      <trkpt lat="42.74874" lon="0.20797">
        <ele>2510</ele>
        <time>2017-02-23T11:07:18Z</time>
      </trkpt>
      <trkpt lat="42.74874" lon="0.20793">
        <ele>2513</ele>
        <time>2017-02-23T11:07:23Z</time>
      </trkpt>
      <trkpt lat="42.74874" lon="0.20791">
        <ele>2509.2</ele>
        <time>2017-02-23T11:07:28Z</time>
      </trkpt>
      <trkpt lat="42.74873" lon="0.20792">
        <ele>2509.2</ele>
        <time>2017-02-23T11:07:33Z</time>
      </trkpt>
      <trkpt lat="42.74873" lon="0.20794">
        <ele>2510.6</ele>
        <time>2017-02-23T11:07:38Z</time>
      </trkpt>
      <trkpt lat="42.74872" lon="0.20796">
        <ele>2509.8</ele>
        <time>2017-02-23T11:07:43Z</time>
      </trkpt>
      <trkpt lat="42.7487" lon="0.20799">
        <ele>2508.2</ele>
        <time>2017-02-23T11:07:49Z</time>
      </trkpt>
      <trkpt lat="42.74868" lon="0.20802">
        <ele>2506.4</ele>
        <time>2017-02-23T11:07:54Z</time>
      </trkpt>
      <trkpt lat="42.74867" lon="0.20804">
        <ele>2510.6</ele>
        <time>2017-02-23T11:07:59Z</time>
      </trkpt>
      <trkpt lat="42.74866" lon="0.20803">
        <ele>2512.4</ele>
        <time>2017-02-23T11:08:04Z</time>
      </trkpt>
      <trkpt lat="42.74865" lon="0.20801">
        <ele>2513.8</ele>
        <time>2017-02-23T11:08:09Z</time>
      </trkpt>
      <trkpt lat="42.74864" lon="0.20799">
        <ele>2516.4</ele>
        <time>2017-02-23T11:08:14Z</time>
      </trkpt>
      <trkpt lat="42.74864" lon="0.20797">
        <ele>2516.6</ele>
        <time>2017-02-23T11:08:19Z</time>
      </trkpt>
      <trkpt lat="42.74863" lon="0.20794">
        <ele>2515.6</ele>
        <time>2017-02-23T11:08:24Z</time>
      </trkpt>
      <trkpt lat="42.74863" lon="0.20791">
        <ele>2518.6</ele>
        <time>2017-02-23T11:08:29Z</time>
      </trkpt>
      <trkpt lat="42.74862" lon="0.20795">
        <ele>2519.8</ele>
        <time>2017-02-23T11:08:34Z</time>
      </trkpt>
      <trkpt lat="42.74861" lon="0.20797">
        <ele>2523.4</ele>
        <time>2017-02-23T11:08:39Z</time>
      </trkpt>
      <trkpt lat="42.7486" lon="0.20799">
        <ele>2524.4</ele>
        <time>2017-02-23T11:08:44Z</time>
      </trkpt>
      <trkpt lat="42.74859" lon="0.20801">
        <ele>2524</ele>
        <time>2017-02-23T11:08:49Z</time>
      </trkpt>
      <trkpt lat="42.74859" lon="0.20801">
        <ele>2524.2</ele>
        <time>2017-02-23T11:08:54Z</time>
      </trkpt>
      <trkpt lat="42.7486" lon="0.20801">
        <ele>2524.2</ele>
        <time>2017-02-23T11:08:59Z</time>
      </trkpt>
      <trkpt lat="42.7486" lon="0.20802">
        <ele>2524.2</ele>
        <time>2017-02-23T11:09:04Z</time>
      </trkpt>
      <trkpt lat="42.7486" lon="0.20802">
        <ele>2524.4</ele>
        <time>2017-02-23T11:09:09Z</time>
      </trkpt>
      <trkpt lat="42.7486" lon="0.20802">
        <ele>2524.4</ele>
        <time>2017-02-23T11:09:14Z</time>
      </trkpt>
      <trkpt lat="42.7486" lon="0.20803">
        <ele>2524.6</ele>
        <time>2017-02-23T11:09:19Z</time>
      </trkpt>
      <trkpt lat="42.74859" lon="0.20803">
        <ele>2526.6</ele>
        <time>2017-02-23T11:09:24Z</time>
      </trkpt>
      <trkpt lat="42.74859" lon="0.20803">
        <ele>2526.4</ele>
        <time>2017-02-23T11:09:29Z</time>
      </trkpt>
      <trkpt lat="42.7486" lon="0.20803">
        <ele>2526.2</ele>
        <time>2017-02-23T11:09:34Z</time>
      </trkpt>
      <trkpt lat="42.7486" lon="0.20803">
        <ele>2526</ele>
        <time>2017-02-23T11:09:39Z</time>
      </trkpt>
      <trkpt lat="42.7486" lon="0.20803">
        <ele>2526</ele>
        <time>2017-02-23T11:09:44Z</time>
      </trkpt>
      <trkpt lat="42.7486" lon="0.20803">
        <ele>2526</ele>
        <time>2017-02-23T11:09:49Z</time>
      </trkpt>
      <trkpt lat="42.7486" lon="0.20803">
        <ele>2526.4</ele>
        <time>2017-02-23T11:09:54Z</time>
      </trkpt>
      <trkpt lat="42.74859" lon="0.208">
        <ele>2526.4</ele>
        <time>2017-02-23T11:09:59Z</time>
      </trkpt>
      <trkpt lat="42.74857" lon="0.20797">
        <ele>2524.8</ele>
        <time>2017-02-23T11:10:04Z</time>
      </trkpt>
      <trkpt lat="42.74856" lon="0.20794">
        <ele>2527.8</ele>
        <time>2017-02-23T11:10:09Z</time>
      </trkpt>
      <trkpt lat="42.74856" lon="0.2079">
        <ele>2528.2</ele>
        <time>2017-02-23T11:10:14Z</time>
      </trkpt>
      <trkpt lat="42.74856" lon="0.20789">
        <ele>2525.8</ele>
        <time>2017-02-23T11:10:19Z</time>
      </trkpt>
      <trkpt lat="42.74857" lon="0.20792">
        <ele>2524</ele>
        <time>2017-02-23T11:10:24Z</time>
      </trkpt>
      <trkpt lat="42.74856" lon="0.20794">
        <ele>2526</ele>
        <time>2017-02-23T11:10:29Z</time>
      </trkpt>
      <trkpt lat="42.74854" lon="0.20798">
        <ele>2525.4</ele>
        <time>2017-02-23T11:10:34Z</time>
      </trkpt>
      <trkpt lat="42.74854" lon="0.20801">
        <ele>2525.2</ele>
        <time>2017-02-23T11:10:39Z</time>
      </trkpt>
      <trkpt lat="42.74854" lon="0.208">
        <ele>2529.2</ele>
        <time>2017-02-23T11:10:44Z</time>
      </trkpt>
      <trkpt lat="42.74852" lon="0.20798">
        <ele>2529.4</ele>
        <time>2017-02-23T11:10:49Z</time>
      </trkpt>
      <trkpt lat="42.7485" lon="0.20795">
        <ele>2532</ele>
        <time>2017-02-23T11:10:54Z</time>
      </trkpt>
      <trkpt lat="42.74848" lon="0.20793">
        <ele>2531.4</ele>
        <time>2017-02-23T11:10:59Z</time>
      </trkpt>
      <trkpt lat="42.74846" lon="0.20792">
        <ele>2531</ele>
        <time>2017-02-23T11:11:04Z</time>
      </trkpt>
      <trkpt lat="42.74848" lon="0.20787">
        <ele>2532.6</ele>
        <time>2017-02-23T11:11:09Z</time>
      </trkpt>
      <trkpt lat="42.74849" lon="0.20783">
        <ele>2535.6</ele>
        <time>2017-02-23T11:11:14Z</time>
      </trkpt>
      <trkpt lat="42.74849" lon="0.2078">
        <ele>2531.6</ele>
        <time>2017-02-23T11:11:19Z</time>
      </trkpt>
      <trkpt lat="42.74851" lon="0.20775">
        <ele>2533.4</ele>
        <time>2017-02-23T11:11:25Z</time>
      </trkpt>
      <trkpt lat="42.74852" lon="0.20772">
        <ele>2534.4</ele>
        <time>2017-02-23T11:11:30Z</time>
      </trkpt>
      <trkpt lat="42.74853" lon="0.20769">
        <ele>2533.6</ele>
        <time>2017-02-23T11:11:35Z</time>
      </trkpt>
      <trkpt lat="42.74855" lon="0.20766">
        <ele>2534.4</ele>
        <time>2017-02-23T11:11:40Z</time>
      </trkpt>
      <trkpt lat="42.74855" lon="0.20766">
        <ele>2534.4</ele>
        <time>2017-02-23T11:11:45Z</time>
      </trkpt>
      <trkpt lat="42.74856" lon="0.20765">
        <ele>2534.6</ele>
        <time>2017-02-23T11:11:50Z</time>
      </trkpt>
      <trkpt lat="42.74856" lon="0.20765">
        <ele>2534.8</ele>
        <time>2017-02-23T11:11:55Z</time>
      </trkpt>
      <trkpt lat="42.74856" lon="0.20765">
        <ele>2535</ele>
        <time>2017-02-23T11:12:00Z</time>
      </trkpt>
      <trkpt lat="42.74855" lon="0.20766">
        <ele>2535.4</ele>
        <time>2017-02-23T11:12:05Z</time>
      </trkpt>
      <trkpt lat="42.74854" lon="0.20765">
        <ele>2535.8</ele>
        <time>2017-02-23T11:12:10Z</time>
      </trkpt>
      <trkpt lat="42.74854" lon="0.20762">
        <ele>2539.4</ele>
        <time>2017-02-23T11:12:15Z</time>
      </trkpt>
      <trkpt lat="42.74854" lon="0.2076">
        <ele>2540.4</ele>
        <time>2017-02-23T11:12:20Z</time>
      </trkpt>
      <trkpt lat="42.74852" lon="0.2076">
        <ele>2537.6</ele>
        <time>2017-02-23T11:12:25Z</time>
      </trkpt>
      <trkpt lat="42.7485" lon="0.20762">
        <ele>2537.2</ele>
        <time>2017-02-23T11:12:30Z</time>
      </trkpt>
      <trkpt lat="42.74848" lon="0.20764">
        <ele>2537.8</ele>
        <time>2017-02-23T11:12:35Z</time>
      </trkpt>
      <trkpt lat="42.74845" lon="0.20765">
        <ele>2538.2</ele>
        <time>2017-02-23T11:12:40Z</time>
      </trkpt>
      <trkpt lat="42.74842" lon="0.20767">
        <ele>2540.8</ele>
        <time>2017-02-23T11:12:45Z</time>
      </trkpt>
      <trkpt lat="42.74841" lon="0.20769">
        <ele>2543.2</ele>
        <time>2017-02-23T11:12:50Z</time>
      </trkpt>
      <trkpt lat="42.7484" lon="0.20771">
        <ele>2544</ele>
        <time>2017-02-23T11:12:55Z</time>
      </trkpt>
      <trkpt lat="42.74838" lon="0.20773">
        <ele>2542.4</ele>
        <time>2017-02-23T11:13:00Z</time>
      </trkpt>
      <trkpt lat="42.74837" lon="0.20775">
        <ele>2544</ele>
        <time>2017-02-23T11:13:05Z</time>
      </trkpt>
      <trkpt lat="42.74835" lon="0.20777">
        <ele>2543.8</ele>
        <time>2017-02-23T11:13:10Z</time>
      </trkpt>
      <trkpt lat="42.74835" lon="0.20777">
        <ele>2545.6</ele>
        <time>2017-02-23T11:13:15Z</time>
      </trkpt>
      <trkpt lat="42.74833" lon="0.20776">
        <ele>2546.8</ele>
        <time>2017-02-23T11:13:20Z</time>
      </trkpt>
      <trkpt lat="42.74833" lon="0.20775">
        <ele>2546.2</ele>
        <time>2017-02-23T11:13:25Z</time>
      </trkpt>
      <trkpt lat="42.74833" lon="0.20775">
        <ele>2545.8</ele>
        <time>2017-02-23T11:13:30Z</time>
      </trkpt>
      <trkpt lat="42.74832" lon="0.20773">
        <ele>2543.6</ele>
        <time>2017-02-23T11:13:35Z</time>
      </trkpt>
      <trkpt lat="42.74832" lon="0.2077">
        <ele>2543.8</ele>
        <time>2017-02-23T11:13:40Z</time>
      </trkpt>
      <trkpt lat="42.74831" lon="0.20768">
        <ele>2542.6</ele>
        <time>2017-02-23T11:13:45Z</time>
      </trkpt>
      <trkpt lat="42.74831" lon="0.20765">
        <ele>2546.2</ele>
        <time>2017-02-23T11:13:50Z</time>
      </trkpt>
      <trkpt lat="42.74831" lon="0.20762">
        <ele>2547.4</ele>
        <time>2017-02-23T11:13:55Z</time>
      </trkpt>
      <trkpt lat="42.7483" lon="0.2076">
        <ele>2546.8</ele>
        <time>2017-02-23T11:14:00Z</time>
      </trkpt>
      <trkpt lat="42.74828" lon="0.20759">
        <ele>2551.2</ele>
        <time>2017-02-23T11:14:05Z</time>
      </trkpt>
      <trkpt lat="42.74826" lon="0.20759">
        <ele>2550.4</ele>
        <time>2017-02-23T11:14:10Z</time>
      </trkpt>
      <trkpt lat="42.74824" lon="0.20759">
        <ele>2553.6</ele>
        <time>2017-02-23T11:14:15Z</time>
      </trkpt>
      <trkpt lat="42.74822" lon="0.20759">
        <ele>2554.6</ele>
        <time>2017-02-23T11:14:20Z</time>
      </trkpt>
      <trkpt lat="42.7482" lon="0.20759">
        <ele>2555.2</ele>
        <time>2017-02-23T11:14:25Z</time>
      </trkpt>
      <trkpt lat="42.74819" lon="0.20758">
        <ele>2555.6</ele>
        <time>2017-02-23T11:14:31Z</time>
      </trkpt>
      <trkpt lat="42.74816" lon="0.20757">
        <ele>2556.6</ele>
        <time>2017-02-23T11:14:36Z</time>
      </trkpt>
      <trkpt lat="42.74814" lon="0.20756">
        <ele>2560.8</ele>
        <time>2017-02-23T11:14:41Z</time>
      </trkpt>
      <trkpt lat="42.7481" lon="0.20755">
        <ele>2562.2</ele>
        <time>2017-02-23T11:14:47Z</time>
      </trkpt>
      <trkpt lat="42.74808" lon="0.20755">
        <ele>2561.8</ele>
        <time>2017-02-23T11:14:52Z</time>
      </trkpt>
      <trkpt lat="42.74807" lon="0.20755">
        <ele>2562.6</ele>
        <time>2017-02-23T11:14:57Z</time>
      </trkpt>
      <trkpt lat="42.74805" lon="0.20756">
        <ele>2560.8</ele>
        <time>2017-02-23T11:15:02Z</time>
      </trkpt>
      <trkpt lat="42.74802" lon="0.20756">
        <ele>2561.8</ele>
        <time>2017-02-23T11:15:07Z</time>
      </trkpt>
      <trkpt lat="42.748" lon="0.20757">
        <ele>2560.8</ele>
        <time>2017-02-23T11:15:12Z</time>
      </trkpt>
      <trkpt lat="42.74798" lon="0.20758">
        <ele>2560.8</ele>
        <time>2017-02-23T11:15:17Z</time>
      </trkpt>
      <trkpt lat="42.74796" lon="0.20759">
        <ele>2563.6</ele>
        <time>2017-02-23T11:15:22Z</time>
      </trkpt>
      <trkpt lat="42.74794" lon="0.20761">
        <ele>2563.6</ele>
        <time>2017-02-23T11:15:27Z</time>
      </trkpt>
      <trkpt lat="42.74793" lon="0.20762">
        <ele>2563.4</ele>
        <time>2017-02-23T11:15:32Z</time>
      </trkpt>
      <trkpt lat="42.74791" lon="0.20764">
        <ele>2561.2</ele>
        <time>2017-02-23T11:15:37Z</time>
      </trkpt>
      <trkpt lat="42.74789" lon="0.20766">
        <ele>2564</ele>
        <time>2017-02-23T11:15:42Z</time>
      </trkpt>
      <trkpt lat="42.74787" lon="0.20768">
        <ele>2564.4</ele>
        <time>2017-02-23T11:15:47Z</time>
      </trkpt>
      <trkpt lat="42.74786" lon="0.2077">
        <ele>2565.2</ele>
        <time>2017-02-23T11:15:52Z</time>
      </trkpt>
      <trkpt lat="42.74784" lon="0.20773">
        <ele>2566</ele>
        <time>2017-02-23T11:15:57Z</time>
      </trkpt>
      <trkpt lat="42.74782" lon="0.20774">
        <ele>2565.2</ele>
        <time>2017-02-23T11:16:02Z</time>
      </trkpt>
      <trkpt lat="42.7478" lon="0.20776">
        <ele>2566.4</ele>
        <time>2017-02-23T11:16:07Z</time>
      </trkpt>
      <trkpt lat="42.74778" lon="0.20777">
        <ele>2568.8</ele>
        <time>2017-02-23T11:16:12Z</time>
      </trkpt>
      <trkpt lat="42.74776" lon="0.20779">
        <ele>2570.4</ele>
        <time>2017-02-23T11:16:17Z</time>
      </trkpt>
      <trkpt lat="42.74774" lon="0.2078">
        <ele>2570.6</ele>
        <time>2017-02-23T11:16:22Z</time>
      </trkpt>
      <trkpt lat="42.74774" lon="0.2078">
        <ele>2569.8</ele>
        <time>2017-02-23T11:16:27Z</time>
      </trkpt>
      <trkpt lat="42.74774" lon="0.2078">
        <ele>2569.2</ele>
        <time>2017-02-23T11:16:32Z</time>
      </trkpt>
      <trkpt lat="42.74774" lon="0.2078">
        <ele>2568.8</ele>
        <time>2017-02-23T11:16:37Z</time>
      </trkpt>
      <trkpt lat="42.74773" lon="0.20781">
        <ele>2566.4</ele>
        <time>2017-02-23T11:16:42Z</time>
      </trkpt>
      <trkpt lat="42.74771" lon="0.20782">
        <ele>2567.6</ele>
        <time>2017-02-23T11:16:47Z</time>
      </trkpt>
      <trkpt lat="42.74769" lon="0.20783">
        <ele>2572</ele>
        <time>2017-02-23T11:16:52Z</time>
      </trkpt>
      <trkpt lat="42.74767" lon="0.20785">
        <ele>2571.2</ele>
        <time>2017-02-23T11:16:57Z</time>
      </trkpt>
      <trkpt lat="42.74765" lon="0.20787">
        <ele>2569.2</ele>
        <time>2017-02-23T11:17:02Z</time>
      </trkpt>
      <trkpt lat="42.74763" lon="0.20788">
        <ele>2574.4</ele>
        <time>2017-02-23T11:17:07Z</time>
      </trkpt>
      <trkpt lat="42.74761" lon="0.20789">
        <ele>2573.2</ele>
        <time>2017-02-23T11:17:12Z</time>
      </trkpt>
      <trkpt lat="42.74759" lon="0.2079">
        <ele>2571.8</ele>
        <time>2017-02-23T11:17:17Z</time>
      </trkpt>
      <trkpt lat="42.74757" lon="0.20791">
        <ele>2574.6</ele>
        <time>2017-02-23T11:17:22Z</time>
      </trkpt>
      <trkpt lat="42.74755" lon="0.20792">
        <ele>2574.4</ele>
        <time>2017-02-23T11:17:27Z</time>
      </trkpt>
      <trkpt lat="42.74753" lon="0.20793">
        <ele>2575.4</ele>
        <time>2017-02-23T11:17:32Z</time>
      </trkpt>
      <trkpt lat="42.74751" lon="0.20794">
        <ele>2574</ele>
        <time>2017-02-23T11:17:37Z</time>
      </trkpt>
      <trkpt lat="42.74749" lon="0.20795">
        <ele>2574.4</ele>
        <time>2017-02-23T11:17:42Z</time>
      </trkpt>
      <trkpt lat="42.74747" lon="0.20796">
        <ele>2576</ele>
        <time>2017-02-23T11:17:47Z</time>
      </trkpt>
      <trkpt lat="42.74745" lon="0.20797">
        <ele>2576</ele>
        <time>2017-02-23T11:17:52Z</time>
      </trkpt>
      <trkpt lat="42.74746" lon="0.20799">
        <ele>2577.8</ele>
        <time>2017-02-23T11:17:57Z</time>
      </trkpt>
      <trkpt lat="42.74747" lon="0.20802">
        <ele>2577.4</ele>
        <time>2017-02-23T11:18:02Z</time>
      </trkpt>
      <trkpt lat="42.74748" lon="0.20804">
        <ele>2575</ele>
        <time>2017-02-23T11:18:07Z</time>
      </trkpt>
      <trkpt lat="42.74749" lon="0.20807">
        <ele>2580</ele>
        <time>2017-02-23T11:18:12Z</time>
      </trkpt>
      <trkpt lat="42.7475" lon="0.20809">
        <ele>2579.6</ele>
        <time>2017-02-23T11:18:17Z</time>
      </trkpt>
      <trkpt lat="42.7475" lon="0.20812">
        <ele>2581.6</ele>
        <time>2017-02-23T11:18:22Z</time>
      </trkpt>
      <trkpt lat="42.74751" lon="0.20814">
        <ele>2582.2</ele>
        <time>2017-02-23T11:18:27Z</time>
      </trkpt>
      <trkpt lat="42.74752" lon="0.20817">
        <ele>2584.4</ele>
        <time>2017-02-23T11:18:32Z</time>
      </trkpt>
      <trkpt lat="42.74753" lon="0.2082">
        <ele>2583.4</ele>
        <time>2017-02-23T11:18:37Z</time>
      </trkpt>
      <trkpt lat="42.74753" lon="0.20822">
        <ele>2585.2</ele>
        <time>2017-02-23T11:18:42Z</time>
      </trkpt>
      <trkpt lat="42.74754" lon="0.20825">
        <ele>2587.8</ele>
        <time>2017-02-23T11:18:47Z</time>
      </trkpt>
      <trkpt lat="42.74755" lon="0.20829">
        <ele>2588.2</ele>
        <time>2017-02-23T11:18:52Z</time>
      </trkpt>
      <trkpt lat="42.74755" lon="0.20831">
        <ele>2585.6</ele>
        <time>2017-02-23T11:18:57Z</time>
      </trkpt>
      <trkpt lat="42.74756" lon="0.20834">
        <ele>2590.2</ele>
        <time>2017-02-23T11:19:02Z</time>
      </trkpt>
      <trkpt lat="42.74756" lon="0.20837">
        <ele>2589</ele>
        <time>2017-02-23T11:19:07Z</time>
      </trkpt>
      <trkpt lat="42.74756" lon="0.2084">
        <ele>2589</ele>
        <time>2017-02-23T11:19:12Z</time>
      </trkpt>
      <trkpt lat="42.74756" lon="0.20842">
        <ele>2588.4</ele>
        <time>2017-02-23T11:19:17Z</time>
      </trkpt>
      <trkpt lat="42.74756" lon="0.20845">
        <ele>2590.6</ele>
        <time>2017-02-23T11:19:22Z</time>
      </trkpt>
      <trkpt lat="42.74756" lon="0.20848">
        <ele>2589.6</ele>
        <time>2017-02-23T11:19:27Z</time>
      </trkpt>
      <trkpt lat="42.74756" lon="0.20851">
        <ele>2589.8</ele>
        <time>2017-02-23T11:19:32Z</time>
      </trkpt>
      <trkpt lat="42.74756" lon="0.20854">
        <ele>2593.8</ele>
        <time>2017-02-23T11:19:37Z</time>
      </trkpt>
      <trkpt lat="42.74757" lon="0.20857">
        <ele>2591.4</ele>
        <time>2017-02-23T11:19:42Z</time>
      </trkpt>
      <trkpt lat="42.74757" lon="0.2086">
        <ele>2594.2</ele>
        <time>2017-02-23T11:19:47Z</time>
      </trkpt>
      <trkpt lat="42.74756" lon="0.20862">
        <ele>2597.4</ele>
        <time>2017-02-23T11:19:52Z</time>
      </trkpt>
      <trkpt lat="42.74756" lon="0.20865">
        <ele>2595</ele>
        <time>2017-02-23T11:19:57Z</time>
      </trkpt>
      <trkpt lat="42.74755" lon="0.20868">
        <ele>2594.6</ele>
        <time>2017-02-23T11:20:02Z</time>
      </trkpt>
      <trkpt lat="42.74755" lon="0.20871">
        <ele>2595</ele>
        <time>2017-02-23T11:20:07Z</time>
      </trkpt>
      <trkpt lat="42.74754" lon="0.20873">
        <ele>2594.6</ele>
        <time>2017-02-23T11:20:12Z</time>
      </trkpt>
      <trkpt lat="42.74753" lon="0.20876">
        <ele>2595.6</ele>
        <time>2017-02-23T11:20:17Z</time>
      </trkpt>
      <trkpt lat="42.74752" lon="0.20879">
        <ele>2597.6</ele>
        <time>2017-02-23T11:20:22Z</time>
      </trkpt>
      <trkpt lat="42.74751" lon="0.20882">
        <ele>2598.6</ele>
        <time>2017-02-23T11:20:27Z</time>
      </trkpt>
      <trkpt lat="42.74749" lon="0.20884">
        <ele>2599.2</ele>
        <time>2017-02-23T11:20:32Z</time>
      </trkpt>
      <trkpt lat="42.74747" lon="0.20885">
        <ele>2596.4</ele>
        <time>2017-02-23T11:20:37Z</time>
      </trkpt>
      <trkpt lat="42.74745" lon="0.20887">
        <ele>2600.2</ele>
        <time>2017-02-23T11:20:42Z</time>
      </trkpt>
      <trkpt lat="42.74743" lon="0.20888">
        <ele>2601</ele>
        <time>2017-02-23T11:20:47Z</time>
      </trkpt>
      <trkpt lat="42.74741" lon="0.20889">
        <ele>2601.6</ele>
        <time>2017-02-23T11:20:52Z</time>
      </trkpt>
      <trkpt lat="42.74739" lon="0.2089">
        <ele>2601.2</ele>
        <time>2017-02-23T11:20:57Z</time>
      </trkpt>
      <trkpt lat="42.74737" lon="0.20891">
        <ele>2602.6</ele>
        <time>2017-02-23T11:21:02Z</time>
      </trkpt>
      <trkpt lat="42.74734" lon="0.20891">
        <ele>2602.2</ele>
        <time>2017-02-23T11:21:07Z</time>
      </trkpt>
      <trkpt lat="42.74732" lon="0.20892">
        <ele>2602.6</ele>
        <time>2017-02-23T11:21:12Z</time>
      </trkpt>
      <trkpt lat="42.74729" lon="0.20893">
        <ele>2602.4</ele>
        <time>2017-02-23T11:21:17Z</time>
      </trkpt>
      <trkpt lat="42.74727" lon="0.20894">
        <ele>2603.4</ele>
        <time>2017-02-23T11:21:22Z</time>
      </trkpt>
      <trkpt lat="42.74725" lon="0.20895">
        <ele>2604.8</ele>
        <time>2017-02-23T11:21:27Z</time>
      </trkpt>
      <trkpt lat="42.74723" lon="0.20896">
        <ele>2602.2</ele>
        <time>2017-02-23T11:21:32Z</time>
      </trkpt>
      <trkpt lat="42.74721" lon="0.20896">
        <ele>2602.8</ele>
        <time>2017-02-23T11:21:37Z</time>
      </trkpt>
      <trkpt lat="42.74719" lon="0.20897">
        <ele>2600.2</ele>
        <time>2017-02-23T11:21:42Z</time>
      </trkpt>
      <trkpt lat="42.74718" lon="0.20895">
        <ele>2601.4</ele>
        <time>2017-02-23T11:21:47Z</time>
      </trkpt>
      <trkpt lat="42.74718" lon="0.20893">
        <ele>2604.8</ele>
        <time>2017-02-23T11:21:52Z</time>
      </trkpt>
      <trkpt lat="42.74717" lon="0.20891">
        <ele>2607.2</ele>
        <time>2017-02-23T11:21:58Z</time>
      </trkpt>
      <trkpt lat="42.74716" lon="0.20888">
        <ele>2609.8</ele>
        <time>2017-02-23T11:22:03Z</time>
      </trkpt>
      <trkpt lat="42.74715" lon="0.20886">
        <ele>2609.4</ele>
        <time>2017-02-23T11:22:08Z</time>
      </trkpt>
      <trkpt lat="42.74714" lon="0.20884">
        <ele>2608.4</ele>
        <time>2017-02-23T11:22:13Z</time>
      </trkpt>
      <trkpt lat="42.74712" lon="0.20882">
        <ele>2606.8</ele>
        <time>2017-02-23T11:22:18Z</time>
      </trkpt>
      <trkpt lat="42.74711" lon="0.20879">
        <ele>2607.4</ele>
        <time>2017-02-23T11:22:23Z</time>
      </trkpt>
      <trkpt lat="42.74709" lon="0.20877">
        <ele>2611.2</ele>
        <time>2017-02-23T11:22:28Z</time>
      </trkpt>
      <trkpt lat="42.74708" lon="0.20877">
        <ele>2610.6</ele>
        <time>2017-02-23T11:22:33Z</time>
      </trkpt>
      <trkpt lat="42.74706" lon="0.20878">
        <ele>2612</ele>
        <time>2017-02-23T11:22:38Z</time>
      </trkpt>
      <trkpt lat="42.74704" lon="0.2088">
        <ele>2614.8</ele>
        <time>2017-02-23T11:22:43Z</time>
      </trkpt>
      <trkpt lat="42.74703" lon="0.20881">
        <ele>2617.4</ele>
        <time>2017-02-23T11:22:48Z</time>
      </trkpt>
      <trkpt lat="42.74701" lon="0.20883">
        <ele>2615.2</ele>
        <time>2017-02-23T11:22:53Z</time>
      </trkpt>
      <trkpt lat="42.74699" lon="0.20886">
        <ele>2615</ele>
        <time>2017-02-23T11:22:58Z</time>
      </trkpt>
      <trkpt lat="42.74698" lon="0.20888">
        <ele>2615</ele>
        <time>2017-02-23T11:23:03Z</time>
      </trkpt>
      <trkpt lat="42.74698" lon="0.20886">
        <ele>2616.4</ele>
        <time>2017-02-23T11:23:08Z</time>
      </trkpt>
      <trkpt lat="42.74697" lon="0.20883">
        <ele>2614.2</ele>
        <time>2017-02-23T11:23:13Z</time>
      </trkpt>
      <trkpt lat="42.74696" lon="0.2088">
        <ele>2618.8</ele>
        <time>2017-02-23T11:23:18Z</time>
      </trkpt>
      <trkpt lat="42.74696" lon="0.2088">
        <ele>2619.4</ele>
        <time>2017-02-23T11:23:23Z</time>
      </trkpt>
      <trkpt lat="42.74696" lon="0.2088">
        <ele>2618.6</ele>
        <time>2017-02-23T11:23:28Z</time>
      </trkpt>
      <trkpt lat="42.74696" lon="0.2088">
        <ele>2618.2</ele>
        <time>2017-02-23T11:23:33Z</time>
      </trkpt>
      <trkpt lat="42.74696" lon="0.2088">
        <ele>2617.8</ele>
        <time>2017-02-23T11:23:38Z</time>
      </trkpt>
      <trkpt lat="42.74695" lon="0.20879">
        <ele>2618.4</ele>
        <time>2017-02-23T11:23:43Z</time>
      </trkpt>
      <trkpt lat="42.74694" lon="0.20877">
        <ele>2619.6</ele>
        <time>2017-02-23T11:23:48Z</time>
      </trkpt>
      <trkpt lat="42.74694" lon="0.20875">
        <ele>2618.6</ele>
        <time>2017-02-23T11:23:53Z</time>
      </trkpt>
      <trkpt lat="42.74693" lon="0.20874">
        <ele>2619.4</ele>
        <time>2017-02-23T11:23:58Z</time>
      </trkpt>
      <trkpt lat="42.74692" lon="0.20872">
        <ele>2620.4</ele>
        <time>2017-02-23T11:24:03Z</time>
      </trkpt>
      <trkpt lat="42.7469" lon="0.20871">
        <ele>2621.4</ele>
        <time>2017-02-23T11:24:08Z</time>
      </trkpt>
      <trkpt lat="42.74688" lon="0.20869">
        <ele>2621.6</ele>
        <time>2017-02-23T11:24:13Z</time>
      </trkpt>
      <trkpt lat="42.74688" lon="0.20869">
        <ele>2620.2</ele>
        <time>2017-02-23T11:24:18Z</time>
      </trkpt>
      <trkpt lat="42.74687" lon="0.20868">
        <ele>2620.8</ele>
        <time>2017-02-23T11:24:23Z</time>
      </trkpt>
      <trkpt lat="42.74685" lon="0.20866">
        <ele>2620.2</ele>
        <time>2017-02-23T11:24:28Z</time>
      </trkpt>
      <trkpt lat="42.74682" lon="0.20864">
        <ele>2623.2</ele>
        <time>2017-02-23T11:24:33Z</time>
      </trkpt>
      <trkpt lat="42.74682" lon="0.20864">
        <ele>2623.8</ele>
        <time>2017-02-23T11:24:38Z</time>
      </trkpt>
      <trkpt lat="42.74681" lon="0.20864">
        <ele>2623</ele>
        <time>2017-02-23T11:24:43Z</time>
      </trkpt>
      <trkpt lat="42.7468" lon="0.20864">
        <ele>2627.2</ele>
        <time>2017-02-23T11:24:48Z</time>
      </trkpt>
      <trkpt lat="42.74681" lon="0.20866">
        <ele>2625.4</ele>
        <time>2017-02-23T11:24:53Z</time>
      </trkpt>
      <trkpt lat="42.74681" lon="0.20868">
        <ele>2624.4</ele>
        <time>2017-02-23T11:24:58Z</time>
      </trkpt>
      <trkpt lat="42.74681" lon="0.20872">
        <ele>2624.8</ele>
        <time>2017-02-23T11:25:03Z</time>
      </trkpt>
      <trkpt lat="42.7468" lon="0.20875">
        <ele>2624.8</ele>
        <time>2017-02-23T11:25:08Z</time>
      </trkpt>
      <trkpt lat="42.7468" lon="0.20876">
        <ele>2625.6</ele>
        <time>2017-02-23T11:25:13Z</time>
      </trkpt>
      <trkpt lat="42.7468" lon="0.20876">
        <ele>2626.2</ele>
        <time>2017-02-23T11:25:18Z</time>
      </trkpt>
      <trkpt lat="42.7468" lon="0.20876">
        <ele>2626.4</ele>
        <time>2017-02-23T11:25:23Z</time>
      </trkpt>
      <trkpt lat="42.7468" lon="0.20876">
        <ele>2626.8</ele>
        <time>2017-02-23T11:25:28Z</time>
      </trkpt>
      <trkpt lat="42.74679" lon="0.20878">
        <ele>2624.8</ele>
        <time>2017-02-23T11:25:33Z</time>
      </trkpt>
      <trkpt lat="42.74678" lon="0.20881">
        <ele>2626.4</ele>
        <time>2017-02-23T11:25:38Z</time>
      </trkpt>
      <trkpt lat="42.74677" lon="0.20882">
        <ele>2626</ele>
        <time>2017-02-23T11:25:43Z</time>
      </trkpt>
      <trkpt lat="42.74675" lon="0.20884">
        <ele>2624</ele>
        <time>2017-02-23T11:25:48Z</time>
      </trkpt>
      <trkpt lat="42.74674" lon="0.20885">
        <ele>2627</ele>
        <time>2017-02-23T11:25:53Z</time>
      </trkpt>
      <trkpt lat="42.74672" lon="0.20885">
        <ele>2628.4</ele>
        <time>2017-02-23T11:25:58Z</time>
      </trkpt>
      <trkpt lat="42.74671" lon="0.20887">
        <ele>2628.6</ele>
        <time>2017-02-23T11:26:04Z</time>
      </trkpt>
      <trkpt lat="42.74671" lon="0.20885">
        <ele>2630.2</ele>
        <time>2017-02-23T11:26:09Z</time>
      </trkpt>
      <trkpt lat="42.74672" lon="0.20882">
        <ele>2631.6</ele>
        <time>2017-02-23T11:26:14Z</time>
      </trkpt>
      <trkpt lat="42.74672" lon="0.2088">
        <ele>2631.4</ele>
        <time>2017-02-23T11:26:19Z</time>
      </trkpt>
      <trkpt lat="42.74671" lon="0.20879">
        <ele>2632.4</ele>
        <time>2017-02-23T11:26:24Z</time>
      </trkpt>
      <trkpt lat="42.74671" lon="0.20879">
        <ele>2633</ele>
        <time>2017-02-23T11:26:29Z</time>
      </trkpt>
      <trkpt lat="42.74671" lon="0.20879">
        <ele>2633.4</ele>
        <time>2017-02-23T11:26:34Z</time>
      </trkpt>
      <trkpt lat="42.7467" lon="0.20877">
        <ele>2635</ele>
        <time>2017-02-23T11:26:39Z</time>
      </trkpt>
      <trkpt lat="42.74668" lon="0.20876">
        <ele>2635.4</ele>
        <time>2017-02-23T11:26:44Z</time>
      </trkpt>
      <trkpt lat="42.74667" lon="0.20875">
        <ele>2635.6</ele>
        <time>2017-02-23T11:26:49Z</time>
      </trkpt>
      <trkpt lat="42.74665" lon="0.20873">
        <ele>2634.2</ele>
        <time>2017-02-23T11:26:54Z</time>
      </trkpt>
      <trkpt lat="42.74662" lon="0.20871">
        <ele>2633.6</ele>
        <time>2017-02-23T11:26:59Z</time>
      </trkpt>
      <trkpt lat="42.74662" lon="0.20871">
        <ele>2634.8</ele>
        <time>2017-02-23T11:27:04Z</time>
      </trkpt>
      <trkpt lat="42.74661" lon="0.20871">
        <ele>2635.6</ele>
        <time>2017-02-23T11:27:09Z</time>
      </trkpt>
      <trkpt lat="42.74661" lon="0.2087">
        <ele>2636.4</ele>
        <time>2017-02-23T11:27:14Z</time>
      </trkpt>
      <trkpt lat="42.74661" lon="0.20872">
        <ele>2638.8</ele>
        <time>2017-02-23T11:27:19Z</time>
      </trkpt>
      <trkpt lat="42.74661" lon="0.20874">
        <ele>2639.2</ele>
        <time>2017-02-23T11:27:24Z</time>
      </trkpt>
      <trkpt lat="42.74662" lon="0.20875">
        <ele>2638.8</ele>
        <time>2017-02-23T11:27:29Z</time>
      </trkpt>
      <trkpt lat="42.74662" lon="0.20875">
        <ele>2638.8</ele>
        <time>2017-02-23T11:27:34Z</time>
      </trkpt>
      <trkpt lat="42.74662" lon="0.20875">
        <ele>2639</ele>
        <time>2017-02-23T11:27:39Z</time>
      </trkpt>
      <trkpt lat="42.74662" lon="0.20875">
        <ele>2639</ele>
        <time>2017-02-23T11:27:44Z</time>
      </trkpt>
      <trkpt lat="42.74662" lon="0.20875">
        <ele>2639</ele>
        <time>2017-02-23T11:27:49Z</time>
      </trkpt>
      <trkpt lat="42.74662" lon="0.20875">
        <ele>2639</ele>
        <time>2017-02-23T11:27:54Z</time>
      </trkpt>
      <trkpt lat="42.74662" lon="0.20875">
        <ele>2639</ele>
        <time>2017-02-23T11:27:59Z</time>
      </trkpt>
      <trkpt lat="42.74662" lon="0.20875">
        <ele>2639</ele>
        <time>2017-02-23T11:28:04Z</time>
      </trkpt>
      <trkpt lat="42.74662" lon="0.20875">
        <ele>2639</ele>
        <time>2017-02-23T11:28:09Z</time>
      </trkpt>
      <trkpt lat="42.74662" lon="0.20875">
        <ele>2639</ele>
        <time>2017-02-23T11:28:14Z</time>
      </trkpt>
      <trkpt lat="42.74662" lon="0.20875">
        <ele>2639</ele>
        <time>2017-02-23T11:28:19Z</time>
      </trkpt>
      <trkpt lat="42.74663" lon="0.20875">
        <ele>2639.2</ele>
        <time>2017-02-23T11:28:24Z</time>
      </trkpt>
      <trkpt lat="42.74663" lon="0.20875">
        <ele>2639.2</ele>
        <time>2017-02-23T11:28:29Z</time>
      </trkpt>
      <trkpt lat="42.74662" lon="0.20875">
        <ele>2639.4</ele>
        <time>2017-02-23T11:28:34Z</time>
      </trkpt>
      <trkpt lat="42.74662" lon="0.20875">
        <ele>2639.6</ele>
        <time>2017-02-23T11:28:39Z</time>
      </trkpt>
      <trkpt lat="42.74662" lon="0.20875">
        <ele>2639.6</ele>
        <time>2017-02-23T11:28:44Z</time>
      </trkpt>
      <trkpt lat="42.74662" lon="0.20875">
        <ele>2639.8</ele>
        <time>2017-02-23T11:28:49Z</time>
      </trkpt>
      <trkpt lat="42.74662" lon="0.20875">
        <ele>2639.8</ele>
        <time>2017-02-23T11:28:54Z</time>
      </trkpt>
      <trkpt lat="42.74662" lon="0.20876">
        <ele>2640</ele>
        <time>2017-02-23T11:28:59Z</time>
      </trkpt>
      <trkpt lat="42.74663" lon="0.20876">
        <ele>2640</ele>
        <time>2017-02-23T11:29:05Z</time>
      </trkpt>
      <trkpt lat="42.74663" lon="0.20876">
        <ele>2640</ele>
        <time>2017-02-23T11:29:10Z</time>
      </trkpt>
      <trkpt lat="42.74663" lon="0.20876">
        <ele>2641.8</ele>
        <time>2017-02-23T11:29:15Z</time>
      </trkpt>
      <trkpt lat="42.74663" lon="0.20876">
        <ele>2641</ele>
        <time>2017-02-23T11:29:20Z</time>
      </trkpt>
      <trkpt lat="42.74663" lon="0.20877">
        <ele>2640.6</ele>
        <time>2017-02-23T11:29:25Z</time>
      </trkpt>
      <trkpt lat="42.74663" lon="0.20877">
        <ele>2640.2</ele>
        <time>2017-02-23T11:29:30Z</time>
      </trkpt>
      <trkpt lat="42.74663" lon="0.20877">
        <ele>2639.8</ele>
        <time>2017-02-23T11:29:35Z</time>
      </trkpt>
      <trkpt lat="42.74663" lon="0.20877">
        <ele>2639.6</ele>
        <time>2017-02-23T11:29:40Z</time>
      </trkpt>
      <trkpt lat="42.74663" lon="0.20877">
        <ele>2639.4</ele>
        <time>2017-02-23T11:29:45Z</time>
      </trkpt>
      <trkpt lat="42.74663" lon="0.20877">
        <ele>2639.4</ele>
        <time>2017-02-23T11:29:50Z</time>
      </trkpt>
      <trkpt lat="42.74663" lon="0.20877">
        <ele>2639.2</ele>
        <time>2017-02-23T11:29:55Z</time>
      </trkpt>
      <trkpt lat="42.74663" lon="0.20877">
        <ele>2639.2</ele>
        <time>2017-02-23T11:30:00Z</time>
      </trkpt>
      <trkpt lat="42.74663" lon="0.20877">
        <ele>2639.2</ele>
        <time>2017-02-23T11:30:05Z</time>
      </trkpt>
      <trkpt lat="42.74663" lon="0.20877">
        <ele>2639.2</ele>
        <time>2017-02-23T11:30:10Z</time>
      </trkpt>
      <trkpt lat="42.74663" lon="0.20877">
        <ele>2639</ele>
        <time>2017-02-23T11:30:15Z</time>
      </trkpt>
      <trkpt lat="42.74663" lon="0.20877">
        <ele>2639</ele>
        <time>2017-02-23T11:30:20Z</time>
      </trkpt>
      <trkpt lat="42.74663" lon="0.20877">
        <ele>2639</ele>
        <time>2017-02-23T11:30:25Z</time>
      </trkpt>
      <trkpt lat="42.74663" lon="0.20877">
        <ele>2639</ele>
        <time>2017-02-23T11:30:30Z</time>
      </trkpt>
      <trkpt lat="42.74663" lon="0.20877">
        <ele>2639</ele>
        <time>2017-02-23T11:30:35Z</time>
      </trkpt>
      <trkpt lat="42.74663" lon="0.20877">
        <ele>2639</ele>
        <time>2017-02-23T11:30:40Z</time>
      </trkpt>
      <trkpt lat="42.74663" lon="0.20877">
        <ele>2639</ele>
        <time>2017-02-23T11:30:45Z</time>
      </trkpt>
      <trkpt lat="42.74663" lon="0.20877">
        <ele>2639</ele>
        <time>2017-02-23T11:30:50Z</time>
      </trkpt>
      <trkpt lat="42.74663" lon="0.20877">
        <ele>2639</ele>
        <time>2017-02-23T11:30:55Z</time>
      </trkpt>
      <trkpt lat="42.74663" lon="0.20877">
        <ele>2639</ele>
        <time>2017-02-23T11:31:00Z</time>
      </trkpt>
      <trkpt lat="42.74663" lon="0.20877">
        <ele>2639</ele>
        <time>2017-02-23T11:31:05Z</time>
      </trkpt>
      <trkpt lat="42.74663" lon="0.20877">
        <ele>2638.8</ele>
        <time>2017-02-23T11:31:10Z</time>
      </trkpt>
      <trkpt lat="42.74663" lon="0.20877">
        <ele>2638.8</ele>
        <time>2017-02-23T11:31:15Z</time>
      </trkpt>
      <trkpt lat="42.74663" lon="0.20877">
        <ele>2638.8</ele>
        <time>2017-02-23T11:31:20Z</time>
      </trkpt>
      <trkpt lat="42.74663" lon="0.20877">
        <ele>2638.8</ele>
        <time>2017-02-23T11:31:25Z</time>
      </trkpt>
      <trkpt lat="42.74663" lon="0.20877">
        <ele>2638.8</ele>
        <time>2017-02-23T11:31:30Z</time>
      </trkpt>
      <trkpt lat="42.74663" lon="0.20877">
        <ele>2638.6</ele>
        <time>2017-02-23T11:31:35Z</time>
      </trkpt>
      <trkpt lat="42.74663" lon="0.20877">
        <ele>2638.6</ele>
        <time>2017-02-23T11:31:40Z</time>
      </trkpt>
      <trkpt lat="42.74663" lon="0.20877">
        <ele>2638.6</ele>
        <time>2017-02-23T11:31:45Z</time>
      </trkpt>
      <trkpt lat="42.74663" lon="0.20877">
        <ele>2638.6</ele>
        <time>2017-02-23T11:31:50Z</time>
      </trkpt>
      <trkpt lat="42.74663" lon="0.20877">
        <ele>2638.6</ele>
        <time>2017-02-23T11:31:55Z</time>
      </trkpt>
      <trkpt lat="42.74663" lon="0.20877">
        <ele>2638.6</ele>
        <time>2017-02-23T11:32:00Z</time>
      </trkpt>
      <trkpt lat="42.74663" lon="0.20877">
        <ele>2638.6</ele>
        <time>2017-02-23T11:32:05Z</time>
      </trkpt>
      <trkpt lat="42.74663" lon="0.20877">
        <ele>2638.6</ele>
        <time>2017-02-23T11:32:10Z</time>
      </trkpt>
      <trkpt lat="42.74663" lon="0.20877">
        <ele>2638.6</ele>
        <time>2017-02-23T11:32:15Z</time>
      </trkpt>
      <trkpt lat="42.74663" lon="0.20877">
        <ele>2638.6</ele>
        <time>2017-02-23T11:32:20Z</time>
      </trkpt>
      <trkpt lat="42.74663" lon="0.20877">
        <ele>2638.6</ele>
        <time>2017-02-23T11:32:25Z</time>
      </trkpt>
      <trkpt lat="42.74663" lon="0.20877">
        <ele>2638.6</ele>
        <time>2017-02-23T11:32:30Z</time>
      </trkpt>
      <trkpt lat="42.74663" lon="0.20877">
        <ele>2638.6</ele>
        <time>2017-02-23T11:32:35Z</time>
      </trkpt>
      <trkpt lat="42.74663" lon="0.20877">
        <ele>2638.6</ele>
        <time>2017-02-23T11:32:40Z</time>
      </trkpt>
      <trkpt lat="42.74663" lon="0.20877">
        <ele>2638.6</ele>
        <time>2017-02-23T11:32:45Z</time>
      </trkpt>
      <trkpt lat="42.74663" lon="0.20877">
        <ele>2638.6</ele>
        <time>2017-02-23T11:32:50Z</time>
      </trkpt>
      <trkpt lat="42.74663" lon="0.20877">
        <ele>2638.4</ele>
        <time>2017-02-23T11:32:55Z</time>
      </trkpt>
      <trkpt lat="42.74663" lon="0.20877">
        <ele>2638.4</ele>
        <time>2017-02-23T11:33:00Z</time>
      </trkpt>
      <trkpt lat="42.74663" lon="0.20877">
        <ele>2638.2</ele>
        <time>2017-02-23T11:33:05Z</time>
      </trkpt>
      <trkpt lat="42.74663" lon="0.20877">
        <ele>2638.2</ele>
        <time>2017-02-23T11:33:10Z</time>
      </trkpt>
      <trkpt lat="42.74663" lon="0.20877">
        <ele>2638.2</ele>
        <time>2017-02-23T11:33:16Z</time>
      </trkpt>
      <trkpt lat="42.74663" lon="0.20876">
        <ele>2638.2</ele>
        <time>2017-02-23T11:33:21Z</time>
      </trkpt>
      <trkpt lat="42.74663" lon="0.20877">
        <ele>2638.2</ele>
        <time>2017-02-23T11:33:26Z</time>
      </trkpt>
      <trkpt lat="42.74663" lon="0.20877">
        <ele>2638.2</ele>
        <time>2017-02-23T11:33:31Z</time>
      </trkpt>
      <trkpt lat="42.74663" lon="0.20876">
        <ele>2638.2</ele>
        <time>2017-02-23T11:33:36Z</time>
      </trkpt>
      <trkpt lat="42.74663" lon="0.20876">
        <ele>2638.2</ele>
        <time>2017-02-23T11:33:41Z</time>
      </trkpt>
      <trkpt lat="42.74663" lon="0.20876">
        <ele>2638.2</ele>
        <time>2017-02-23T11:33:46Z</time>
      </trkpt>
      <trkpt lat="42.74663" lon="0.20876">
        <ele>2638</ele>
        <time>2017-02-23T11:33:51Z</time>
      </trkpt>
      <trkpt lat="42.74663" lon="0.20876">
        <ele>2638</ele>
        <time>2017-02-23T11:33:56Z</time>
      </trkpt>
      <trkpt lat="42.74663" lon="0.20876">
        <ele>2638</ele>
        <time>2017-02-23T11:34:01Z</time>
      </trkpt>
      <trkpt lat="42.74663" lon="0.20876">
        <ele>2638</ele>
        <time>2017-02-23T11:34:06Z</time>
      </trkpt>
      <trkpt lat="42.74663" lon="0.20876">
        <ele>2638</ele>
        <time>2017-02-23T11:34:11Z</time>
      </trkpt>
      <trkpt lat="42.74663" lon="0.20876">
        <ele>2638</ele>
        <time>2017-02-23T11:34:16Z</time>
      </trkpt>
      <trkpt lat="42.74664" lon="0.20876">
        <ele>2638</ele>
        <time>2017-02-23T11:34:21Z</time>
      </trkpt>
      <trkpt lat="42.74664" lon="0.20876">
        <ele>2638</ele>
        <time>2017-02-23T11:34:26Z</time>
      </trkpt>
      <trkpt lat="42.74664" lon="0.20876">
        <ele>2638</ele>
        <time>2017-02-23T11:34:31Z</time>
      </trkpt>
      <trkpt lat="42.74664" lon="0.20876">
        <ele>2638</ele>
        <time>2017-02-23T11:34:36Z</time>
      </trkpt>
      <trkpt lat="42.74664" lon="0.20876">
        <ele>2638</ele>
        <time>2017-02-23T11:34:41Z</time>
      </trkpt>
      <trkpt lat="42.74664" lon="0.20876">
        <ele>2637.8</ele>
        <time>2017-02-23T11:34:46Z</time>
      </trkpt>
      <trkpt lat="42.74664" lon="0.20876">
        <ele>2637.8</ele>
        <time>2017-02-23T11:34:51Z</time>
      </trkpt>
      <trkpt lat="42.74664" lon="0.20876">
        <ele>2637.8</ele>
        <time>2017-02-23T11:34:56Z</time>
      </trkpt>
      <trkpt lat="42.74664" lon="0.20876">
        <ele>2637.8</ele>
        <time>2017-02-23T11:35:01Z</time>
      </trkpt>
      <trkpt lat="42.74664" lon="0.20876">
        <ele>2637.8</ele>
        <time>2017-02-23T11:35:06Z</time>
      </trkpt>
      <trkpt lat="42.74664" lon="0.20876">
        <ele>2637.8</ele>
        <time>2017-02-23T11:35:11Z</time>
      </trkpt>
      <trkpt lat="42.74664" lon="0.20876">
        <ele>2637.8</ele>
        <time>2017-02-23T11:35:16Z</time>
      </trkpt>
      <trkpt lat="42.74664" lon="0.20876">
        <ele>2637.8</ele>
        <time>2017-02-23T11:35:21Z</time>
      </trkpt>
      <trkpt lat="42.74664" lon="0.20876">
        <ele>2637.8</ele>
        <time>2017-02-23T11:35:26Z</time>
      </trkpt>
      <trkpt lat="42.74664" lon="0.20876">
        <ele>2637.6</ele>
        <time>2017-02-23T11:35:31Z</time>
      </trkpt>
      <trkpt lat="42.74664" lon="0.20876">
        <ele>2637.6</ele>
        <time>2017-02-23T11:35:36Z</time>
      </trkpt>
      <trkpt lat="42.74664" lon="0.20876">
        <ele>2637.6</ele>
        <time>2017-02-23T11:35:41Z</time>
      </trkpt>
      <trkpt lat="42.74664" lon="0.20876">
        <ele>2637.8</ele>
        <time>2017-02-23T11:35:46Z</time>
      </trkpt>
      <trkpt lat="42.74664" lon="0.20876">
        <ele>2638</ele>
        <time>2017-02-23T11:35:51Z</time>
      </trkpt>
      <trkpt lat="42.74664" lon="0.20876">
        <ele>2638</ele>
        <time>2017-02-23T11:35:56Z</time>
      </trkpt>
      <trkpt lat="42.74664" lon="0.20876">
        <ele>2638.2</ele>
        <time>2017-02-23T11:36:01Z</time>
      </trkpt>
      <trkpt lat="42.74664" lon="0.20876">
        <ele>2638.2</ele>
        <time>2017-02-23T11:36:06Z</time>
      </trkpt>
      <trkpt lat="42.74664" lon="0.20876">
        <ele>2638.2</ele>
        <time>2017-02-23T11:36:11Z</time>
      </trkpt>
      <trkpt lat="42.74663" lon="0.20879">
        <ele>2638.4</ele>
        <time>2017-02-23T11:36:16Z</time>
      </trkpt>
      <trkpt lat="42.74663" lon="0.20878">
        <ele>2638.6</ele>
        <time>2017-02-23T11:36:21Z</time>
      </trkpt>
      <trkpt lat="42.74663" lon="0.20878">
        <ele>2639</ele>
        <time>2017-02-23T11:36:26Z</time>
      </trkpt>
      <trkpt lat="42.74662" lon="0.20878">
        <ele>2639.2</ele>
        <time>2017-02-23T11:36:31Z</time>
      </trkpt>
      <trkpt lat="42.74662" lon="0.20878">
        <ele>2639.4</ele>
        <time>2017-02-23T11:36:36Z</time>
      </trkpt>
      <trkpt lat="42.74662" lon="0.20878">
        <ele>2639.6</ele>
        <time>2017-02-23T11:36:41Z</time>
      </trkpt>
      <trkpt lat="42.74662" lon="0.20878">
        <ele>2639.6</ele>
        <time>2017-02-23T11:36:46Z</time>
      </trkpt>
      <trkpt lat="42.74662" lon="0.20878">
        <ele>2639.8</ele>
        <time>2017-02-23T11:36:51Z</time>
      </trkpt>
      <trkpt lat="42.74662" lon="0.20878">
        <ele>2639.8</ele>
        <time>2017-02-23T11:36:57Z</time>
      </trkpt>
      <trkpt lat="42.74662" lon="0.20878">
        <ele>2639.8</ele>
        <time>2017-02-23T11:37:02Z</time>
      </trkpt>
      <trkpt lat="42.74662" lon="0.20877">
        <ele>2639.8</ele>
        <time>2017-02-23T11:37:08Z</time>
      </trkpt>
      <trkpt lat="42.74661" lon="0.20876">
        <ele>2639.8</ele>
        <time>2017-02-23T11:37:13Z</time>
      </trkpt>
      <trkpt lat="42.74661" lon="0.20876">
        <ele>2639.8</ele>
        <time>2017-02-23T11:37:18Z</time>
      </trkpt>
      <trkpt lat="42.7466" lon="0.20877">
        <ele>2640</ele>
        <time>2017-02-23T11:37:23Z</time>
      </trkpt>
      <trkpt lat="42.7466" lon="0.20878">
        <ele>2640.2</ele>
        <time>2017-02-23T11:37:28Z</time>
      </trkpt>
      <trkpt lat="42.74659" lon="0.20878">
        <ele>2640.4</ele>
        <time>2017-02-23T11:37:33Z</time>
      </trkpt>
      <trkpt lat="42.74658" lon="0.20878">
        <ele>2640.8</ele>
        <time>2017-02-23T11:37:38Z</time>
      </trkpt>
      <trkpt lat="42.74657" lon="0.20879">
        <ele>2641.2</ele>
        <time>2017-02-23T11:37:43Z</time>
      </trkpt>
      <trkpt lat="42.74656" lon="0.20881">
        <ele>2641.8</ele>
        <time>2017-02-23T11:37:48Z</time>
      </trkpt>
      <trkpt lat="42.74655" lon="0.20882">
        <ele>2642.6</ele>
        <time>2017-02-23T11:37:53Z</time>
      </trkpt>
      <trkpt lat="42.74654" lon="0.20882">
        <ele>2644.2</ele>
        <time>2017-02-23T11:37:58Z</time>
      </trkpt>
      <trkpt lat="42.74653" lon="0.20882">
        <ele>2643.8</ele>
        <time>2017-02-23T11:38:03Z</time>
      </trkpt>
      <trkpt lat="42.74652" lon="0.20882">
        <ele>2643.4</ele>
        <time>2017-02-23T11:38:08Z</time>
      </trkpt>
      <trkpt lat="42.74652" lon="0.20882">
        <ele>2643.4</ele>
        <time>2017-02-23T11:38:13Z</time>
      </trkpt>
      <trkpt lat="42.7465" lon="0.20883">
        <ele>2644.4</ele>
        <time>2017-02-23T11:38:18Z</time>
      </trkpt>
      <trkpt lat="42.74649" lon="0.20884">
        <ele>2643.4</ele>
        <time>2017-02-23T11:38:23Z</time>
      </trkpt>
      <trkpt lat="42.74648" lon="0.20884">
        <ele>2644.8</ele>
        <time>2017-02-23T11:38:28Z</time>
      </trkpt>
      <trkpt lat="42.74646" lon="0.20885">
        <ele>2643.4</ele>
        <time>2017-02-23T11:38:33Z</time>
      </trkpt>
      <trkpt lat="42.74647" lon="0.20885">
        <ele>2645.4</ele>
        <time>2017-02-23T11:38:38Z</time>
      </trkpt>
      <trkpt lat="42.74646" lon="0.20885">
        <ele>2648.8</ele>
        <time>2017-02-23T11:38:43Z</time>
      </trkpt>
      <trkpt lat="42.74645" lon="0.20887">
        <ele>2652</ele>
        <time>2017-02-23T11:38:48Z</time>
      </trkpt>
      <trkpt lat="42.74645" lon="0.20886">
        <ele>2650.6</ele>
        <time>2017-02-23T11:38:53Z</time>
      </trkpt>
      <trkpt lat="42.74644" lon="0.20886">
        <ele>2650.6</ele>
        <time>2017-02-23T11:38:58Z</time>
      </trkpt>
      <trkpt lat="42.74643" lon="0.20886">
        <ele>2650.2</ele>
        <time>2017-02-23T11:39:03Z</time>
      </trkpt>
      <trkpt lat="42.74642" lon="0.20886">
        <ele>2653</ele>
        <time>2017-02-23T11:39:08Z</time>
      </trkpt>
      <trkpt lat="42.74642" lon="0.20886">
        <ele>2652.6</ele>
        <time>2017-02-23T11:39:13Z</time>
      </trkpt>
      <trkpt lat="42.74641" lon="0.20887">
        <ele>2652.6</ele>
        <time>2017-02-23T11:39:18Z</time>
      </trkpt>
      <trkpt lat="42.7464" lon="0.20887">
        <ele>2652.6</ele>
        <time>2017-02-23T11:39:23Z</time>
      </trkpt>
      <trkpt lat="42.74639" lon="0.20889">
        <ele>2651</ele>
        <time>2017-02-23T11:39:28Z</time>
      </trkpt>
      <trkpt lat="42.74638" lon="0.20889">
        <ele>2652</ele>
        <time>2017-02-23T11:39:33Z</time>
      </trkpt>
      <trkpt lat="42.74637" lon="0.20889">
        <ele>2653.8</ele>
        <time>2017-02-23T11:39:38Z</time>
      </trkpt>
      <trkpt lat="42.74637" lon="0.20889">
        <ele>2654</ele>
        <time>2017-02-23T11:39:43Z</time>
      </trkpt>
      <trkpt lat="42.74637" lon="0.20889">
        <ele>2654</ele>
        <time>2017-02-23T11:39:48Z</time>
      </trkpt>
      <trkpt lat="42.74636" lon="0.20889">
        <ele>2654.4</ele>
        <time>2017-02-23T11:39:53Z</time>
      </trkpt>
      <trkpt lat="42.74636" lon="0.20889">
        <ele>2656.4</ele>
        <time>2017-02-23T11:39:58Z</time>
      </trkpt>
      <trkpt lat="42.74635" lon="0.20889">
        <ele>2658</ele>
        <time>2017-02-23T11:40:03Z</time>
      </trkpt>
      <trkpt lat="42.74634" lon="0.2089">
        <ele>2655.8</ele>
        <time>2017-02-23T11:40:08Z</time>
      </trkpt>
      <trkpt lat="42.74633" lon="0.20889">
        <ele>2657.8</ele>
        <time>2017-02-23T11:40:13Z</time>
      </trkpt>
      <trkpt lat="42.74633" lon="0.20889">
        <ele>2658.2</ele>
        <time>2017-02-23T11:40:18Z</time>
      </trkpt>
      <trkpt lat="42.74632" lon="0.20888">
        <ele>2659.8</ele>
        <time>2017-02-23T11:40:23Z</time>
      </trkpt>
      <trkpt lat="42.74631" lon="0.20889">
        <ele>2660.4</ele>
        <time>2017-02-23T11:40:28Z</time>
      </trkpt>
      <trkpt lat="42.74631" lon="0.20889">
        <ele>2661</ele>
        <time>2017-02-23T11:40:33Z</time>
      </trkpt>
      <trkpt lat="42.7463" lon="0.20889">
        <ele>2661.4</ele>
        <time>2017-02-23T11:40:38Z</time>
      </trkpt>
      <trkpt lat="42.7463" lon="0.20889">
        <ele>2661.8</ele>
        <time>2017-02-23T11:40:43Z</time>
      </trkpt>
      <trkpt lat="42.74629" lon="0.20889">
        <ele>2662.2</ele>
        <time>2017-02-23T11:40:48Z</time>
      </trkpt>
      <trkpt lat="42.74629" lon="0.20889">
        <ele>2662.4</ele>
        <time>2017-02-23T11:40:53Z</time>
      </trkpt>
      <trkpt lat="42.74629" lon="0.20889">
        <ele>2662.4</ele>
        <time>2017-02-23T11:40:58Z</time>
      </trkpt>
      <trkpt lat="42.74629" lon="0.20889">
        <ele>2662.6</ele>
        <time>2017-02-23T11:41:03Z</time>
      </trkpt>
      <trkpt lat="42.74629" lon="0.20889">
        <ele>2662.6</ele>
        <time>2017-02-23T11:41:08Z</time>
      </trkpt>
      <trkpt lat="42.74629" lon="0.20889">
        <ele>2662.6</ele>
        <time>2017-02-23T11:41:13Z</time>
      </trkpt>
      <trkpt lat="42.74629" lon="0.20889">
        <ele>2662.8</ele>
        <time>2017-02-23T11:41:18Z</time>
      </trkpt>
      <trkpt lat="42.74629" lon="0.20889">
        <ele>2662.8</ele>
        <time>2017-02-23T11:41:23Z</time>
      </trkpt>
      <trkpt lat="42.74629" lon="0.20889">
        <ele>2662.8</ele>
        <time>2017-02-23T11:41:28Z</time>
      </trkpt>
      <trkpt lat="42.74629" lon="0.2089">
        <ele>2662.8</ele>
        <time>2017-02-23T11:41:33Z</time>
      </trkpt>
      <trkpt lat="42.74627" lon="0.20889">
        <ele>2663.2</ele>
        <time>2017-02-23T11:41:38Z</time>
      </trkpt>
      <trkpt lat="42.74626" lon="0.20889">
        <ele>2666.4</ele>
        <time>2017-02-23T11:41:43Z</time>
      </trkpt>
      <trkpt lat="42.74626" lon="0.20889">
        <ele>2665.4</ele>
        <time>2017-02-23T11:41:48Z</time>
      </trkpt>
      <trkpt lat="42.74625" lon="0.20889">
        <ele>2664.2</ele>
        <time>2017-02-23T11:41:53Z</time>
      </trkpt>
      <trkpt lat="42.74625" lon="0.20889">
        <ele>2663.8</ele>
        <time>2017-02-23T11:41:58Z</time>
      </trkpt>
      <trkpt lat="42.74624" lon="0.20889">
        <ele>2663</ele>
        <time>2017-02-23T11:42:03Z</time>
      </trkpt>
      <trkpt lat="42.74623" lon="0.20889">
        <ele>2663.8</ele>
        <time>2017-02-23T11:42:08Z</time>
      </trkpt>
      <trkpt lat="42.74623" lon="0.20889">
        <ele>2664.2</ele>
        <time>2017-02-23T11:42:13Z</time>
      </trkpt>
      <trkpt lat="42.74623" lon="0.20889">
        <ele>2664.6</ele>
        <time>2017-02-23T11:42:18Z</time>
      </trkpt>
      <trkpt lat="42.74622" lon="0.20889">
        <ele>2663.6</ele>
        <time>2017-02-23T11:42:23Z</time>
      </trkpt>
      <trkpt lat="42.74621" lon="0.20889">
        <ele>2664.2</ele>
        <time>2017-02-23T11:42:28Z</time>
      </trkpt>
      <trkpt lat="42.74621" lon="0.2089">
        <ele>2665.2</ele>
        <time>2017-02-23T11:42:33Z</time>
      </trkpt>
      <trkpt lat="42.7462" lon="0.2089">
        <ele>2664.8</ele>
        <time>2017-02-23T11:42:38Z</time>
      </trkpt>
      <trkpt lat="42.74618" lon="0.20891">
        <ele>2664.8</ele>
        <time>2017-02-23T11:42:43Z</time>
      </trkpt>
      <trkpt lat="42.74618" lon="0.20892">
        <ele>2665.4</ele>
        <time>2017-02-23T11:42:48Z</time>
      </trkpt>
      <trkpt lat="42.74617" lon="0.20893">
        <ele>2667.2</ele>
        <time>2017-02-23T11:42:53Z</time>
      </trkpt>
      <trkpt lat="42.74616" lon="0.20893">
        <ele>2668</ele>
        <time>2017-02-23T11:42:58Z</time>
      </trkpt>
      <trkpt lat="42.74614" lon="0.20893">
        <ele>2668.8</ele>
        <time>2017-02-23T11:43:03Z</time>
      </trkpt>
      <trkpt lat="42.74613" lon="0.20894">
        <ele>2669.8</ele>
        <time>2017-02-23T11:43:08Z</time>
      </trkpt>
      <trkpt lat="42.74613" lon="0.20894">
        <ele>2670.2</ele>
        <time>2017-02-23T11:43:13Z</time>
      </trkpt>
      <trkpt lat="42.74612" lon="0.20892">
        <ele>2667.2</ele>
        <time>2017-02-23T11:43:18Z</time>
      </trkpt>
      <trkpt lat="42.7461" lon="0.20893">
        <ele>2670.2</ele>
        <time>2017-02-23T11:43:23Z</time>
      </trkpt>
      <trkpt lat="42.74609" lon="0.20894">
        <ele>2672</ele>
        <time>2017-02-23T11:43:28Z</time>
      </trkpt>
      <trkpt lat="42.74609" lon="0.20894">
        <ele>2672.2</ele>
        <time>2017-02-23T11:43:33Z</time>
      </trkpt>
      <trkpt lat="42.74609" lon="0.20894">
        <ele>2672.2</ele>
        <time>2017-02-23T11:43:38Z</time>
      </trkpt>
      <trkpt lat="42.74609" lon="0.20894">
        <ele>2672.2</ele>
        <time>2017-02-23T11:43:43Z</time>
      </trkpt>
      <trkpt lat="42.74608" lon="0.20893">
        <ele>2672.2</ele>
        <time>2017-02-23T11:43:48Z</time>
      </trkpt>
      <trkpt lat="42.74608" lon="0.20893">
        <ele>2672.2</ele>
        <time>2017-02-23T11:43:53Z</time>
      </trkpt>
      <trkpt lat="42.74606" lon="0.20893">
        <ele>2669.4</ele>
        <time>2017-02-23T11:43:58Z</time>
      </trkpt>
      <trkpt lat="42.74606" lon="0.20893">
        <ele>2671.2</ele>
        <time>2017-02-23T11:44:03Z</time>
      </trkpt>
      <trkpt lat="42.74606" lon="0.20893">
        <ele>2671.6</ele>
        <time>2017-02-23T11:44:08Z</time>
      </trkpt>
      <trkpt lat="42.74606" lon="0.20893">
        <ele>2672</ele>
        <time>2017-02-23T11:44:13Z</time>
      </trkpt>
      <trkpt lat="42.74606" lon="0.20892">
        <ele>2670.6</ele>
        <time>2017-02-23T11:44:18Z</time>
      </trkpt>
      <trkpt lat="42.74606" lon="0.20892">
        <ele>2671.4</ele>
        <time>2017-02-23T11:44:23Z</time>
      </trkpt>
      <trkpt lat="42.74606" lon="0.20892">
        <ele>2671.8</ele>
        <time>2017-02-23T11:44:28Z</time>
      </trkpt>
      <trkpt lat="42.74606" lon="0.20892">
        <ele>2672</ele>
        <time>2017-02-23T11:44:33Z</time>
      </trkpt>
      <trkpt lat="42.74606" lon="0.20892">
        <ele>2672.2</ele>
        <time>2017-02-23T11:44:38Z</time>
      </trkpt>
      <trkpt lat="42.74606" lon="0.20892">
        <ele>2672.4</ele>
        <time>2017-02-23T11:44:43Z</time>
      </trkpt>
      <trkpt lat="42.74605" lon="0.20892">
        <ele>2672.4</ele>
        <time>2017-02-23T11:44:48Z</time>
      </trkpt>
      <trkpt lat="42.74605" lon="0.20892">
        <ele>2672.4</ele>
        <time>2017-02-23T11:44:53Z</time>
      </trkpt>
      <trkpt lat="42.74605" lon="0.20892">
        <ele>2672.4</ele>
        <time>2017-02-23T11:44:58Z</time>
      </trkpt>
      <trkpt lat="42.74605" lon="0.20892">
        <ele>2672.4</ele>
        <time>2017-02-23T11:45:03Z</time>
      </trkpt>
      <trkpt lat="42.74605" lon="0.20892">
        <ele>2672.4</ele>
        <time>2017-02-23T11:45:08Z</time>
      </trkpt>
      <trkpt lat="42.74605" lon="0.20892">
        <ele>2672.4</ele>
        <time>2017-02-23T11:45:13Z</time>
      </trkpt>
      <trkpt lat="42.74605" lon="0.20892">
        <ele>2672.4</ele>
        <time>2017-02-23T11:45:18Z</time>
      </trkpt>
      <trkpt lat="42.74605" lon="0.20892">
        <ele>2672.4</ele>
        <time>2017-02-23T11:45:23Z</time>
      </trkpt>
      <trkpt lat="42.74605" lon="0.20892">
        <ele>2672.4</ele>
        <time>2017-02-23T11:45:28Z</time>
      </trkpt>
      <trkpt lat="42.74605" lon="0.20892">
        <ele>2672.4</ele>
        <time>2017-02-23T11:45:33Z</time>
      </trkpt>
      <trkpt lat="42.74605" lon="0.20892">
        <ele>2672.4</ele>
        <time>2017-02-23T11:45:38Z</time>
      </trkpt>
      <trkpt lat="42.74605" lon="0.20892">
        <ele>2672.4</ele>
        <time>2017-02-23T11:45:43Z</time>
      </trkpt>
      <trkpt lat="42.74605" lon="0.20892">
        <ele>2670.4</ele>
        <time>2017-02-23T11:45:48Z</time>
      </trkpt>
      <trkpt lat="42.74605" lon="0.20891">
        <ele>2671</ele>
        <time>2017-02-23T11:45:53Z</time>
      </trkpt>
      <trkpt lat="42.74605" lon="0.20891">
        <ele>2671.2</ele>
        <time>2017-02-23T11:45:58Z</time>
      </trkpt>
      <trkpt lat="42.74605" lon="0.20891">
        <ele>2671.2</ele>
        <time>2017-02-23T11:46:03Z</time>
      </trkpt>
      <trkpt lat="42.74605" lon="0.20891">
        <ele>2671.4</ele>
        <time>2017-02-23T11:46:08Z</time>
      </trkpt>
      <trkpt lat="42.74605" lon="0.20891">
        <ele>2671.4</ele>
        <time>2017-02-23T11:46:13Z</time>
      </trkpt>
      <trkpt lat="42.74605" lon="0.20891">
        <ele>2671.4</ele>
        <time>2017-02-23T11:46:18Z</time>
      </trkpt>
      <trkpt lat="42.74605" lon="0.20891">
        <ele>2671.4</ele>
        <time>2017-02-23T11:46:23Z</time>
      </trkpt>
      <trkpt lat="42.74605" lon="0.20891">
        <ele>2671.4</ele>
        <time>2017-02-23T11:46:28Z</time>
      </trkpt>
      <trkpt lat="42.74605" lon="0.20891">
        <ele>2671.4</ele>
        <time>2017-02-23T11:46:33Z</time>
      </trkpt>
      <trkpt lat="42.74605" lon="0.20891">
        <ele>2671.4</ele>
        <time>2017-02-23T11:46:38Z</time>
      </trkpt>
      <trkpt lat="42.74605" lon="0.20891">
        <ele>2671.4</ele>
        <time>2017-02-23T11:46:43Z</time>
      </trkpt>
      <trkpt lat="42.74605" lon="0.20891">
        <ele>2671.4</ele>
        <time>2017-02-23T11:46:48Z</time>
      </trkpt>
      <trkpt lat="42.74605" lon="0.20891">
        <ele>2671.4</ele>
        <time>2017-02-23T11:46:53Z</time>
      </trkpt>
      <trkpt lat="42.74605" lon="0.20892">
        <ele>2671.4</ele>
        <time>2017-02-23T11:46:58Z</time>
      </trkpt>
      <trkpt lat="42.74605" lon="0.20892">
        <ele>2671.4</ele>
        <time>2017-02-23T11:47:03Z</time>
      </trkpt>
      <trkpt lat="42.74605" lon="0.20892">
        <ele>2671.4</ele>
        <time>2017-02-23T11:47:08Z</time>
      </trkpt>
      <trkpt lat="42.74605" lon="0.20892">
        <ele>2671.4</ele>
        <time>2017-02-23T11:47:13Z</time>
      </trkpt>
      <trkpt lat="42.74605" lon="0.20892">
        <ele>2671.4</ele>
        <time>2017-02-23T11:47:18Z</time>
      </trkpt>
      <trkpt lat="42.74605" lon="0.20892">
        <ele>2671.4</ele>
        <time>2017-02-23T11:47:23Z</time>
      </trkpt>
      <trkpt lat="42.74605" lon="0.20892">
        <ele>2671.4</ele>
        <time>2017-02-23T11:47:28Z</time>
      </trkpt>
      <trkpt lat="42.74605" lon="0.20892">
        <ele>2671.4</ele>
        <time>2017-02-23T11:47:33Z</time>
      </trkpt>
      <trkpt lat="42.74605" lon="0.20892">
        <ele>2671.4</ele>
        <time>2017-02-23T11:47:38Z</time>
      </trkpt>
      <trkpt lat="42.74605" lon="0.20892">
        <ele>2671.4</ele>
        <time>2017-02-23T11:47:43Z</time>
      </trkpt>
      <trkpt lat="42.74605" lon="0.20892">
        <ele>2671.4</ele>
        <time>2017-02-23T11:47:48Z</time>
      </trkpt>
      <trkpt lat="42.74605" lon="0.20892">
        <ele>2671.2</ele>
        <time>2017-02-23T11:47:53Z</time>
      </trkpt>
      <trkpt lat="42.74605" lon="0.20892">
        <ele>2671.2</ele>
        <time>2017-02-23T11:47:58Z</time>
      </trkpt>
      <trkpt lat="42.74605" lon="0.20892">
        <ele>2671.2</ele>
        <time>2017-02-23T11:48:03Z</time>
      </trkpt>
      <trkpt lat="42.74605" lon="0.20892">
        <ele>2671.2</ele>
        <time>2017-02-23T11:48:08Z</time>
      </trkpt>
      <trkpt lat="42.74605" lon="0.20892">
        <ele>2671.2</ele>
        <time>2017-02-23T11:48:13Z</time>
      </trkpt>
      <trkpt lat="42.74605" lon="0.20892">
        <ele>2671.2</ele>
        <time>2017-02-23T11:48:18Z</time>
      </trkpt>
      <trkpt lat="42.74605" lon="0.20892">
        <ele>2671.2</ele>
        <time>2017-02-23T11:48:23Z</time>
      </trkpt>
      <trkpt lat="42.74605" lon="0.20892">
        <ele>2671.2</ele>
        <time>2017-02-23T11:48:28Z</time>
      </trkpt>
      <trkpt lat="42.74605" lon="0.20892">
        <ele>2671.2</ele>
        <time>2017-02-23T11:48:33Z</time>
      </trkpt>
      <trkpt lat="42.74605" lon="0.20892">
        <ele>2671.2</ele>
        <time>2017-02-23T11:48:38Z</time>
      </trkpt>
      <trkpt lat="42.74605" lon="0.20892">
        <ele>2671.2</ele>
        <time>2017-02-23T11:48:43Z</time>
      </trkpt>
      <trkpt lat="42.74605" lon="0.20892">
        <ele>2671.2</ele>
        <time>2017-02-23T11:48:48Z</time>
      </trkpt>
      <trkpt lat="42.74605" lon="0.20892">
        <ele>2671.2</ele>
        <time>2017-02-23T11:48:53Z</time>
      </trkpt>
      <trkpt lat="42.74605" lon="0.20892">
        <ele>2671.2</ele>
        <time>2017-02-23T11:48:58Z</time>
      </trkpt>
      <trkpt lat="42.74605" lon="0.20892">
        <ele>2671.2</ele>
        <time>2017-02-23T11:49:03Z</time>
      </trkpt>
      <trkpt lat="42.74605" lon="0.20892">
        <ele>2671.2</ele>
        <time>2017-02-23T11:49:08Z</time>
      </trkpt>
      <trkpt lat="42.74605" lon="0.20892">
        <ele>2671.2</ele>
        <time>2017-02-23T11:49:13Z</time>
      </trkpt>
      <trkpt lat="42.74605" lon="0.20892">
        <ele>2671.2</ele>
        <time>2017-02-23T11:49:18Z</time>
      </trkpt>
      <trkpt lat="42.74605" lon="0.20892">
        <ele>2671</ele>
        <time>2017-02-23T11:49:23Z</time>
      </trkpt>
      <trkpt lat="42.74605" lon="0.20892">
        <ele>2671</ele>
        <time>2017-02-23T11:49:28Z</time>
      </trkpt>
      <trkpt lat="42.74605" lon="0.20892">
        <ele>2671</ele>
        <time>2017-02-23T11:49:33Z</time>
      </trkpt>
      <trkpt lat="42.74605" lon="0.20892">
        <ele>2671</ele>
        <time>2017-02-23T11:49:38Z</time>
      </trkpt>
      <trkpt lat="42.74605" lon="0.20892">
        <ele>2671</ele>
        <time>2017-02-23T11:49:43Z</time>
      </trkpt>
      <trkpt lat="42.74605" lon="0.20892">
        <ele>2671</ele>
        <time>2017-02-23T11:49:48Z</time>
      </trkpt>
      <trkpt lat="42.74605" lon="0.20892">
        <ele>2671</ele>
        <time>2017-02-23T11:49:53Z</time>
      </trkpt>
      <trkpt lat="42.74605" lon="0.20892">
        <ele>2671</ele>
        <time>2017-02-23T11:49:58Z</time>
      </trkpt>
      <trkpt lat="42.74605" lon="0.20892">
        <ele>2671</ele>
        <time>2017-02-23T11:50:03Z</time>
      </trkpt>
      <trkpt lat="42.74605" lon="0.20892">
        <ele>2671</ele>
        <time>2017-02-23T11:50:08Z</time>
      </trkpt>
      <trkpt lat="42.74605" lon="0.20892">
        <ele>2671</ele>
        <time>2017-02-23T11:50:13Z</time>
      </trkpt>
      <trkpt lat="42.74605" lon="0.20892">
        <ele>2671</ele>
        <time>2017-02-23T11:50:18Z</time>
      </trkpt>
      <trkpt lat="42.74605" lon="0.20892">
        <ele>2671</ele>
        <time>2017-02-23T11:50:23Z</time>
      </trkpt>
      <trkpt lat="42.74605" lon="0.20892">
        <ele>2671</ele>
        <time>2017-02-23T11:50:28Z</time>
      </trkpt>
      <trkpt lat="42.74605" lon="0.20892">
        <ele>2671</ele>
        <time>2017-02-23T11:50:33Z</time>
      </trkpt>
      <trkpt lat="42.74605" lon="0.20892">
        <ele>2671</ele>
        <time>2017-02-23T11:50:38Z</time>
      </trkpt>
      <trkpt lat="42.74605" lon="0.20892">
        <ele>2670.8</ele>
        <time>2017-02-23T11:50:43Z</time>
      </trkpt>
      <trkpt lat="42.74605" lon="0.20892">
        <ele>2670.8</ele>
        <time>2017-02-23T11:50:48Z</time>
      </trkpt>
      <trkpt lat="42.74605" lon="0.20892">
        <ele>2670.8</ele>
        <time>2017-02-23T11:50:53Z</time>
      </trkpt>
      <trkpt lat="42.74605" lon="0.20892">
        <ele>2670.8</ele>
        <time>2017-02-23T11:50:58Z</time>
      </trkpt>
      <trkpt lat="42.74605" lon="0.20892">
        <ele>2670.8</ele>
        <time>2017-02-23T11:51:03Z</time>
      </trkpt>
      <trkpt lat="42.74605" lon="0.20892">
        <ele>2670.8</ele>
        <time>2017-02-23T11:51:08Z</time>
      </trkpt>
      <trkpt lat="42.74605" lon="0.20892">
        <ele>2670.8</ele>
        <time>2017-02-23T11:51:13Z</time>
      </trkpt>
      <trkpt lat="42.74605" lon="0.20892">
        <ele>2670.8</ele>
        <time>2017-02-23T11:51:18Z</time>
      </trkpt>
      <trkpt lat="42.74605" lon="0.20892">
        <ele>2670.8</ele>
        <time>2017-02-23T11:51:23Z</time>
      </trkpt>
      <trkpt lat="42.74605" lon="0.20892">
        <ele>2670.8</ele>
        <time>2017-02-23T11:51:28Z</time>
      </trkpt>
      <trkpt lat="42.74605" lon="0.20892">
        <ele>2670.8</ele>
        <time>2017-02-23T11:51:33Z</time>
      </trkpt>
      <trkpt lat="42.74605" lon="0.20892">
        <ele>2670.8</ele>
        <time>2017-02-23T11:51:38Z</time>
      </trkpt>
      <trkpt lat="42.74605" lon="0.20892">
        <ele>2670.8</ele>
        <time>2017-02-23T11:51:43Z</time>
      </trkpt>
      <trkpt lat="42.74605" lon="0.20892">
        <ele>2670.8</ele>
        <time>2017-02-23T11:51:48Z</time>
      </trkpt>
      <trkpt lat="42.74605" lon="0.20892">
        <ele>2670.8</ele>
        <time>2017-02-23T11:51:54Z</time>
      </trkpt>
      <trkpt lat="42.74605" lon="0.20892">
        <ele>2670.8</ele>
        <time>2017-02-23T11:51:59Z</time>
      </trkpt>
      <trkpt lat="42.74605" lon="0.20892">
        <ele>2670.8</ele>
        <time>2017-02-23T11:52:04Z</time>
      </trkpt>
      <trkpt lat="42.74605" lon="0.20892">
        <ele>2670.8</ele>
        <time>2017-02-23T11:52:09Z</time>
      </trkpt>
      <trkpt lat="42.74605" lon="0.20892">
        <ele>2670.6</ele>
        <time>2017-02-23T11:52:14Z</time>
      </trkpt>
      <trkpt lat="42.74605" lon="0.20892">
        <ele>2670.6</ele>
        <time>2017-02-23T11:52:19Z</time>
      </trkpt>
      <trkpt lat="42.74605" lon="0.20892">
        <ele>2670.6</ele>
        <time>2017-02-23T11:52:24Z</time>
      </trkpt>
      <trkpt lat="42.74605" lon="0.20892">
        <ele>2670.6</ele>
        <time>2017-02-23T11:52:29Z</time>
      </trkpt>
      <trkpt lat="42.74605" lon="0.20892">
        <ele>2670.6</ele>
        <time>2017-02-23T11:52:34Z</time>
      </trkpt>
      <trkpt lat="42.74605" lon="0.20892">
        <ele>2670.6</ele>
        <time>2017-02-23T11:52:39Z</time>
      </trkpt>
      <trkpt lat="42.74605" lon="0.20892">
        <ele>2670.6</ele>
        <time>2017-02-23T11:52:44Z</time>
      </trkpt>
      <trkpt lat="42.74605" lon="0.20892">
        <ele>2670.6</ele>
        <time>2017-02-23T11:52:49Z</time>
      </trkpt>
      <trkpt lat="42.74605" lon="0.20892">
        <ele>2670.4</ele>
        <time>2017-02-23T11:52:54Z</time>
      </trkpt>
      <trkpt lat="42.74605" lon="0.20892">
        <ele>2670.4</ele>
        <time>2017-02-23T11:52:59Z</time>
      </trkpt>
      <trkpt lat="42.74605" lon="0.20892">
        <ele>2670.4</ele>
        <time>2017-02-23T11:53:04Z</time>
      </trkpt>
      <trkpt lat="42.74605" lon="0.20892">
        <ele>2670.4</ele>
        <time>2017-02-23T11:53:09Z</time>
      </trkpt>
      <trkpt lat="42.74605" lon="0.20892">
        <ele>2670.4</ele>
        <time>2017-02-23T11:53:14Z</time>
      </trkpt>
      <trkpt lat="42.74605" lon="0.20892">
        <ele>2670.4</ele>
        <time>2017-02-23T11:53:19Z</time>
      </trkpt>
      <trkpt lat="42.74605" lon="0.20892">
        <ele>2670.4</ele>
        <time>2017-02-23T11:53:24Z</time>
      </trkpt>
      <trkpt lat="42.74605" lon="0.20892">
        <ele>2670.4</ele>
        <time>2017-02-23T11:53:29Z</time>
      </trkpt>
      <trkpt lat="42.74605" lon="0.20892">
        <ele>2670.4</ele>
        <time>2017-02-23T11:53:34Z</time>
      </trkpt>
      <trkpt lat="42.74605" lon="0.20892">
        <ele>2670.4</ele>
        <time>2017-02-23T11:53:39Z</time>
      </trkpt>
      <trkpt lat="42.74605" lon="0.20892">
        <ele>2670.4</ele>
        <time>2017-02-23T11:53:44Z</time>
      </trkpt>
      <trkpt lat="42.74605" lon="0.20892">
        <ele>2670.4</ele>
        <time>2017-02-23T11:53:49Z</time>
      </trkpt>
      <trkpt lat="42.74605" lon="0.20892">
        <ele>2670.4</ele>
        <time>2017-02-23T11:53:54Z</time>
      </trkpt>
      <trkpt lat="42.74605" lon="0.20892">
        <ele>2670.4</ele>
        <time>2017-02-23T11:53:59Z</time>
      </trkpt>
      <trkpt lat="42.74605" lon="0.20892">
        <ele>2670.4</ele>
        <time>2017-02-23T11:54:04Z</time>
      </trkpt>
      <trkpt lat="42.74605" lon="0.20892">
        <ele>2670.4</ele>
        <time>2017-02-23T11:54:09Z</time>
      </trkpt>
      <trkpt lat="42.74605" lon="0.20892">
        <ele>2670.4</ele>
        <time>2017-02-23T11:54:14Z</time>
      </trkpt>
      <trkpt lat="42.74605" lon="0.20892">
        <ele>2670.4</ele>
        <time>2017-02-23T11:54:19Z</time>
      </trkpt>
      <trkpt lat="42.74605" lon="0.20892">
        <ele>2670.4</ele>
        <time>2017-02-23T11:54:24Z</time>
      </trkpt>
      <trkpt lat="42.74605" lon="0.20892">
        <ele>2670.4</ele>
        <time>2017-02-23T11:54:29Z</time>
      </trkpt>
      <trkpt lat="42.74605" lon="0.20892">
        <ele>2670.2</ele>
        <time>2017-02-23T11:54:34Z</time>
      </trkpt>
      <trkpt lat="42.74605" lon="0.20892">
        <ele>2670.2</ele>
        <time>2017-02-23T11:54:39Z</time>
      </trkpt>
      <trkpt lat="42.74605" lon="0.20892">
        <ele>2670.2</ele>
        <time>2017-02-23T11:54:44Z</time>
      </trkpt>
      <trkpt lat="42.74605" lon="0.20892">
        <ele>2670.2</ele>
        <time>2017-02-23T11:54:49Z</time>
      </trkpt>
      <trkpt lat="42.74605" lon="0.20892">
        <ele>2670.2</ele>
        <time>2017-02-23T11:54:54Z</time>
      </trkpt>
      <trkpt lat="42.74605" lon="0.20892">
        <ele>2670.2</ele>
        <time>2017-02-23T11:54:59Z</time>
      </trkpt>
      <trkpt lat="42.74605" lon="0.20892">
        <ele>2670.2</ele>
        <time>2017-02-23T11:55:04Z</time>
      </trkpt>
      <trkpt lat="42.74605" lon="0.20892">
        <ele>2670.2</ele>
        <time>2017-02-23T11:55:09Z</time>
      </trkpt>
      <trkpt lat="42.74605" lon="0.20892">
        <ele>2670.2</ele>
        <time>2017-02-23T11:55:14Z</time>
      </trkpt>
      <trkpt lat="42.74605" lon="0.20892">
        <ele>2670.2</ele>
        <time>2017-02-23T11:55:19Z</time>
      </trkpt>
      <trkpt lat="42.74605" lon="0.20892">
        <ele>2670.2</ele>
        <time>2017-02-23T11:55:24Z</time>
      </trkpt>
      <trkpt lat="42.74605" lon="0.20892">
        <ele>2670.2</ele>
        <time>2017-02-23T11:55:29Z</time>
      </trkpt>
      <trkpt lat="42.74605" lon="0.20892">
        <ele>2670.2</ele>
        <time>2017-02-23T11:55:34Z</time>
      </trkpt>
      <trkpt lat="42.74605" lon="0.20892">
        <ele>2670.2</ele>
        <time>2017-02-23T11:55:39Z</time>
      </trkpt>
      <trkpt lat="42.74605" lon="0.20892">
        <ele>2670.2</ele>
        <time>2017-02-23T11:55:44Z</time>
      </trkpt>
      <trkpt lat="42.74605" lon="0.20892">
        <ele>2670.2</ele>
        <time>2017-02-23T11:55:49Z</time>
      </trkpt>
      <trkpt lat="42.74605" lon="0.20892">
        <ele>2670.2</ele>
        <time>2017-02-23T11:55:54Z</time>
      </trkpt>
      <trkpt lat="42.74605" lon="0.20892">
        <ele>2670.2</ele>
        <time>2017-02-23T11:55:59Z</time>
      </trkpt>
      <trkpt lat="42.74605" lon="0.20892">
        <ele>2670.2</ele>
        <time>2017-02-23T11:56:04Z</time>
      </trkpt>
      <trkpt lat="42.74605" lon="0.20892">
        <ele>2670.2</ele>
        <time>2017-02-23T11:56:09Z</time>
      </trkpt>
      <trkpt lat="42.74605" lon="0.20892">
        <ele>2670</ele>
        <time>2017-02-23T11:56:14Z</time>
      </trkpt>
      <trkpt lat="42.74605" lon="0.20892">
        <ele>2670</ele>
        <time>2017-02-23T11:56:19Z</time>
      </trkpt>
      <trkpt lat="42.74605" lon="0.20892">
        <ele>2670</ele>
        <time>2017-02-23T11:56:24Z</time>
      </trkpt>
      <trkpt lat="42.74605" lon="0.20892">
        <ele>2670</ele>
        <time>2017-02-23T11:56:29Z</time>
      </trkpt>
      <trkpt lat="42.74605" lon="0.20892">
        <ele>2670</ele>
        <time>2017-02-23T11:56:34Z</time>
      </trkpt>
      <trkpt lat="42.74605" lon="0.20892">
        <ele>2670</ele>
        <time>2017-02-23T11:56:39Z</time>
      </trkpt>
      <trkpt lat="42.74605" lon="0.20892">
        <ele>2670</ele>
        <time>2017-02-23T11:56:44Z</time>
      </trkpt>
      <trkpt lat="42.74605" lon="0.20892">
        <ele>2670</ele>
        <time>2017-02-23T11:56:49Z</time>
      </trkpt>
      <trkpt lat="42.74605" lon="0.20892">
        <ele>2670</ele>
        <time>2017-02-23T11:56:54Z</time>
      </trkpt>
      <trkpt lat="42.74605" lon="0.20892">
        <ele>2670</ele>
        <time>2017-02-23T11:56:59Z</time>
      </trkpt>
      <trkpt lat="42.74605" lon="0.20892">
        <ele>2670</ele>
        <time>2017-02-23T11:57:04Z</time>
      </trkpt>
      <trkpt lat="42.74605" lon="0.20892">
        <ele>2670</ele>
        <time>2017-02-23T11:57:09Z</time>
      </trkpt>
      <trkpt lat="42.74605" lon="0.20892">
        <ele>2670</ele>
        <time>2017-02-23T11:57:14Z</time>
      </trkpt>
      <trkpt lat="42.74605" lon="0.20892">
        <ele>2670</ele>
        <time>2017-02-23T11:57:19Z</time>
      </trkpt>
      <trkpt lat="42.74605" lon="0.20892">
        <ele>2670</ele>
        <time>2017-02-23T11:57:24Z</time>
      </trkpt>
      <trkpt lat="42.74605" lon="0.20892">
        <ele>2670</ele>
        <time>2017-02-23T11:57:29Z</time>
      </trkpt>
      <trkpt lat="42.74605" lon="0.20892">
        <ele>2670</ele>
        <time>2017-02-23T11:57:34Z</time>
      </trkpt>
      <trkpt lat="42.74605" lon="0.20892">
        <ele>2670</ele>
        <time>2017-02-23T11:57:39Z</time>
      </trkpt>
      <trkpt lat="42.74605" lon="0.20892">
        <ele>2670</ele>
        <time>2017-02-23T11:57:44Z</time>
      </trkpt>
      <trkpt lat="42.74605" lon="0.20892">
        <ele>2669.8</ele>
        <time>2017-02-23T11:57:49Z</time>
      </trkpt>
      <trkpt lat="42.74605" lon="0.20892">
        <ele>2669.8</ele>
        <time>2017-02-23T11:57:54Z</time>
      </trkpt>
      <trkpt lat="42.74605" lon="0.20892">
        <ele>2669.8</ele>
        <time>2017-02-23T11:57:59Z</time>
      </trkpt>
      <trkpt lat="42.74605" lon="0.20892">
        <ele>2669.8</ele>
        <time>2017-02-23T11:58:04Z</time>
      </trkpt>
      <trkpt lat="42.74605" lon="0.20892">
        <ele>2669.8</ele>
        <time>2017-02-23T11:58:09Z</time>
      </trkpt>
      <trkpt lat="42.74605" lon="0.20892">
        <ele>2669.8</ele>
        <time>2017-02-23T11:58:14Z</time>
      </trkpt>
      <trkpt lat="42.74604" lon="0.20892">
        <ele>2669.8</ele>
        <time>2017-02-23T11:58:19Z</time>
      </trkpt>
      <trkpt lat="42.74604" lon="0.20892">
        <ele>2669.8</ele>
        <time>2017-02-23T11:58:24Z</time>
      </trkpt>
      <trkpt lat="42.74604" lon="0.20892">
        <ele>2669.8</ele>
        <time>2017-02-23T11:58:29Z</time>
      </trkpt>
      <trkpt lat="42.74604" lon="0.20892">
        <ele>2669.8</ele>
        <time>2017-02-23T11:58:34Z</time>
      </trkpt>
      <trkpt lat="42.74604" lon="0.20892">
        <ele>2669.8</ele>
        <time>2017-02-23T11:58:40Z</time>
      </trkpt>
      <trkpt lat="42.74604" lon="0.20892">
        <ele>2669.8</ele>
        <time>2017-02-23T11:58:45Z</time>
      </trkpt>
      <trkpt lat="42.74604" lon="0.20892">
        <ele>2669.8</ele>
        <time>2017-02-23T11:58:50Z</time>
      </trkpt>
      <trkpt lat="42.74604" lon="0.20892">
        <ele>2669.8</ele>
        <time>2017-02-23T11:58:55Z</time>
      </trkpt>
      <trkpt lat="42.74604" lon="0.20892">
        <ele>2669.8</ele>
        <time>2017-02-23T11:59:00Z</time>
      </trkpt>
      <trkpt lat="42.74604" lon="0.20892">
        <ele>2669.8</ele>
        <time>2017-02-23T11:59:05Z</time>
      </trkpt>
      <trkpt lat="42.74604" lon="0.20892">
        <ele>2669.8</ele>
        <time>2017-02-23T11:59:10Z</time>
      </trkpt>
      <trkpt lat="42.74604" lon="0.20892">
        <ele>2669.8</ele>
        <time>2017-02-23T11:59:15Z</time>
      </trkpt>
      <trkpt lat="42.74604" lon="0.20892">
        <ele>2669.8</ele>
        <time>2017-02-23T11:59:20Z</time>
      </trkpt>
      <trkpt lat="42.74604" lon="0.20892">
        <ele>2669.6</ele>
        <time>2017-02-23T11:59:25Z</time>
      </trkpt>
      <trkpt lat="42.74604" lon="0.20892">
        <ele>2669.6</ele>
        <time>2017-02-23T11:59:30Z</time>
      </trkpt>
      <trkpt lat="42.74604" lon="0.20892">
        <ele>2669.6</ele>
        <time>2017-02-23T11:59:35Z</time>
      </trkpt>
      <trkpt lat="42.74604" lon="0.20892">
        <ele>2669.6</ele>
        <time>2017-02-23T11:59:40Z</time>
      </trkpt>
      <trkpt lat="42.74604" lon="0.20892">
        <ele>2669.6</ele>
        <time>2017-02-23T11:59:45Z</time>
      </trkpt>
      <trkpt lat="42.74604" lon="0.20892">
        <ele>2669.6</ele>
        <time>2017-02-23T11:59:50Z</time>
      </trkpt>
      <trkpt lat="42.74604" lon="0.20892">
        <ele>2669.6</ele>
        <time>2017-02-23T11:59:55Z</time>
      </trkpt>
      <trkpt lat="42.74604" lon="0.20892">
        <ele>2669.6</ele>
        <time>2017-02-23T12:00:00Z</time>
      </trkpt>
      <trkpt lat="42.74604" lon="0.20892">
        <ele>2669.6</ele>
        <time>2017-02-23T12:00:05Z</time>
      </trkpt>
      <trkpt lat="42.74604" lon="0.20892">
        <ele>2669.6</ele>
        <time>2017-02-23T12:00:10Z</time>
      </trkpt>
      <trkpt lat="42.74604" lon="0.20892">
        <ele>2669.6</ele>
        <time>2017-02-23T12:00:15Z</time>
      </trkpt>
      <trkpt lat="42.74604" lon="0.20892">
        <ele>2669.6</ele>
        <time>2017-02-23T12:00:20Z</time>
      </trkpt>
      <trkpt lat="42.74604" lon="0.20892">
        <ele>2669.6</ele>
        <time>2017-02-23T12:00:25Z</time>
      </trkpt>
      <trkpt lat="42.74604" lon="0.20892">
        <ele>2669.6</ele>
        <time>2017-02-23T12:00:30Z</time>
      </trkpt>
      <trkpt lat="42.74604" lon="0.20892">
        <ele>2669.6</ele>
        <time>2017-02-23T12:00:35Z</time>
      </trkpt>
      <trkpt lat="42.74604" lon="0.20892">
        <ele>2669.6</ele>
        <time>2017-02-23T12:00:40Z</time>
      </trkpt>
      <trkpt lat="42.74604" lon="0.20892">
        <ele>2669.6</ele>
        <time>2017-02-23T12:00:45Z</time>
      </trkpt>
      <trkpt lat="42.74604" lon="0.20892">
        <ele>2669.6</ele>
        <time>2017-02-23T12:00:50Z</time>
      </trkpt>
      <trkpt lat="42.74604" lon="0.20892">
        <ele>2669.4</ele>
        <time>2017-02-23T12:00:55Z</time>
      </trkpt>
      <trkpt lat="42.74604" lon="0.20892">
        <ele>2669.4</ele>
        <time>2017-02-23T12:01:00Z</time>
      </trkpt>
      <trkpt lat="42.74604" lon="0.20892">
        <ele>2669.4</ele>
        <time>2017-02-23T12:01:05Z</time>
      </trkpt>
      <trkpt lat="42.74604" lon="0.20892">
        <ele>2669.4</ele>
        <time>2017-02-23T12:01:10Z</time>
      </trkpt>
      <trkpt lat="42.74604" lon="0.20892">
        <ele>2669.4</ele>
        <time>2017-02-23T12:01:15Z</time>
      </trkpt>
      <trkpt lat="42.74604" lon="0.20892">
        <ele>2669.4</ele>
        <time>2017-02-23T12:01:20Z</time>
      </trkpt>
      <trkpt lat="42.74604" lon="0.20892">
        <ele>2669.4</ele>
        <time>2017-02-23T12:01:25Z</time>
      </trkpt>
      <trkpt lat="42.74604" lon="0.20892">
        <ele>2669.4</ele>
        <time>2017-02-23T12:01:30Z</time>
      </trkpt>
      <trkpt lat="42.74604" lon="0.20892">
        <ele>2669.4</ele>
        <time>2017-02-23T12:01:35Z</time>
      </trkpt>
      <trkpt lat="42.74604" lon="0.20892">
        <ele>2669.4</ele>
        <time>2017-02-23T12:01:40Z</time>
      </trkpt>
      <trkpt lat="42.74604" lon="0.20892">
        <ele>2669.4</ele>
        <time>2017-02-23T12:01:45Z</time>
      </trkpt>
      <trkpt lat="42.74604" lon="0.20892">
        <ele>2669.4</ele>
        <time>2017-02-23T12:01:50Z</time>
      </trkpt>
      <trkpt lat="42.74604" lon="0.20892">
        <ele>2669.4</ele>
        <time>2017-02-23T12:01:55Z</time>
      </trkpt>
      <trkpt lat="42.74604" lon="0.20892">
        <ele>2669.4</ele>
        <time>2017-02-23T12:02:00Z</time>
      </trkpt>
      <trkpt lat="42.74604" lon="0.20892">
        <ele>2669.4</ele>
        <time>2017-02-23T12:02:05Z</time>
      </trkpt>
      <trkpt lat="42.74604" lon="0.20892">
        <ele>2669.4</ele>
        <time>2017-02-23T12:02:10Z</time>
      </trkpt>
      <trkpt lat="42.74604" lon="0.20892">
        <ele>2669.4</ele>
        <time>2017-02-23T12:02:15Z</time>
      </trkpt>
      <trkpt lat="42.74604" lon="0.20892">
        <ele>2669.4</ele>
        <time>2017-02-23T12:02:20Z</time>
      </trkpt>
      <trkpt lat="42.74604" lon="0.20892">
        <ele>2669.4</ele>
        <time>2017-02-23T12:02:25Z</time>
      </trkpt>
      <trkpt lat="42.74604" lon="0.20892">
        <ele>2669.2</ele>
        <time>2017-02-23T12:02:30Z</time>
      </trkpt>
      <trkpt lat="42.74605" lon="0.20892">
        <ele>2669.2</ele>
        <time>2017-02-23T12:02:35Z</time>
      </trkpt>
      <trkpt lat="42.74605" lon="0.20892">
        <ele>2669.2</ele>
        <time>2017-02-23T12:02:40Z</time>
      </trkpt>
      <trkpt lat="42.74605" lon="0.20892">
        <ele>2669</ele>
        <time>2017-02-23T12:02:45Z</time>
      </trkpt>
      <trkpt lat="42.74605" lon="0.20892">
        <ele>2669</ele>
        <time>2017-02-23T12:02:50Z</time>
      </trkpt>
      <trkpt lat="42.74605" lon="0.20892">
        <ele>2669</ele>
        <time>2017-02-23T12:02:55Z</time>
      </trkpt>
      <trkpt lat="42.74605" lon="0.20892">
        <ele>2669.4</ele>
        <time>2017-02-23T12:03:00Z</time>
      </trkpt>
      <trkpt lat="42.74605" lon="0.20892">
        <ele>2669.2</ele>
        <time>2017-02-23T12:03:05Z</time>
      </trkpt>
      <trkpt lat="42.74605" lon="0.20892">
        <ele>2669</ele>
        <time>2017-02-23T12:03:10Z</time>
      </trkpt>
      <trkpt lat="42.74606" lon="0.20892">
        <ele>2668.8</ele>
        <time>2017-02-23T12:03:15Z</time>
      </trkpt>
      <trkpt lat="42.74605" lon="0.20892">
        <ele>2668.6</ele>
        <time>2017-02-23T12:03:20Z</time>
      </trkpt>
      <trkpt lat="42.74605" lon="0.20892">
        <ele>2668.4</ele>
        <time>2017-02-23T12:03:25Z</time>
      </trkpt>
      <trkpt lat="42.74605" lon="0.20892">
        <ele>2668.4</ele>
        <time>2017-02-23T12:03:30Z</time>
      </trkpt>
      <trkpt lat="42.74605" lon="0.20892">
        <ele>2668.2</ele>
        <time>2017-02-23T12:03:35Z</time>
      </trkpt>
      <trkpt lat="42.74605" lon="0.20892">
        <ele>2668.2</ele>
        <time>2017-02-23T12:03:40Z</time>
      </trkpt>
      <trkpt lat="42.74605" lon="0.20891">
        <ele>2667.8</ele>
        <time>2017-02-23T12:03:45Z</time>
      </trkpt>
      <trkpt lat="42.74606" lon="0.20891">
        <ele>2667.6</ele>
        <time>2017-02-23T12:03:50Z</time>
      </trkpt>
      <trkpt lat="42.74607" lon="0.2089">
        <ele>2669.4</ele>
        <time>2017-02-23T12:03:55Z</time>
      </trkpt>
      <trkpt lat="42.74608" lon="0.2089">
        <ele>2667.6</ele>
        <time>2017-02-23T12:04:00Z</time>
      </trkpt>
      <trkpt lat="42.74609" lon="0.20891">
        <ele>2667.8</ele>
        <time>2017-02-23T12:04:05Z</time>
      </trkpt>
      <trkpt lat="42.7461" lon="0.20891">
        <ele>2667.8</ele>
        <time>2017-02-23T12:04:10Z</time>
      </trkpt>
      <trkpt lat="42.74611" lon="0.20891">
        <ele>2667</ele>
        <time>2017-02-23T12:04:15Z</time>
      </trkpt>
      <trkpt lat="42.74611" lon="0.2089">
        <ele>2666.6</ele>
        <time>2017-02-23T12:04:20Z</time>
      </trkpt>
      <trkpt lat="42.74611" lon="0.2089">
        <ele>2666.4</ele>
        <time>2017-02-23T12:04:25Z</time>
      </trkpt>
      <trkpt lat="42.7461" lon="0.2089">
        <ele>2666.2</ele>
        <time>2017-02-23T12:04:30Z</time>
      </trkpt>
      <trkpt lat="42.74611" lon="0.2089">
        <ele>2666</ele>
        <time>2017-02-23T12:04:35Z</time>
      </trkpt>
      <trkpt lat="42.74613" lon="0.2089">
        <ele>2666.8</ele>
        <time>2017-02-23T12:04:40Z</time>
      </trkpt>
      <trkpt lat="42.74614" lon="0.2089">
        <ele>2665.2</ele>
        <time>2017-02-23T12:04:45Z</time>
      </trkpt>
      <trkpt lat="42.74615" lon="0.2089">
        <ele>2665.6</ele>
        <time>2017-02-23T12:04:50Z</time>
      </trkpt>
      <trkpt lat="42.74616" lon="0.20889">
        <ele>2668.2</ele>
        <time>2017-02-23T12:04:55Z</time>
      </trkpt>
      <trkpt lat="42.74617" lon="0.20888">
        <ele>2670.2</ele>
        <time>2017-02-23T12:05:00Z</time>
      </trkpt>
      <trkpt lat="42.74617" lon="0.20889">
        <ele>2669.4</ele>
        <time>2017-02-23T12:05:05Z</time>
      </trkpt>
      <trkpt lat="42.74618" lon="0.2089">
        <ele>2670.2</ele>
        <time>2017-02-23T12:05:10Z</time>
      </trkpt>
      <trkpt lat="42.74618" lon="0.2089">
        <ele>2669.4</ele>
        <time>2017-02-23T12:05:15Z</time>
      </trkpt>
      <trkpt lat="42.74618" lon="0.2089">
        <ele>2669</ele>
        <time>2017-02-23T12:05:20Z</time>
      </trkpt>
      <trkpt lat="42.74618" lon="0.2089">
        <ele>2668.6</ele>
        <time>2017-02-23T12:05:25Z</time>
      </trkpt>
      <trkpt lat="42.74619" lon="0.20889">
        <ele>2668.2</ele>
        <time>2017-02-23T12:05:30Z</time>
      </trkpt>
      <trkpt lat="42.7462" lon="0.20889">
        <ele>2668</ele>
        <time>2017-02-23T12:05:35Z</time>
      </trkpt>
      <trkpt lat="42.7462" lon="0.20889">
        <ele>2667.8</ele>
        <time>2017-02-23T12:05:40Z</time>
      </trkpt>
      <trkpt lat="42.7462" lon="0.20889">
        <ele>2667.6</ele>
        <time>2017-02-23T12:05:45Z</time>
      </trkpt>
      <trkpt lat="42.7462" lon="0.20888">
        <ele>2667.6</ele>
        <time>2017-02-23T12:05:50Z</time>
      </trkpt>
      <trkpt lat="42.7462" lon="0.20888">
        <ele>2667.4</ele>
        <time>2017-02-23T12:05:55Z</time>
      </trkpt>
      <trkpt lat="42.7462" lon="0.20888">
        <ele>2667.4</ele>
        <time>2017-02-23T12:06:00Z</time>
      </trkpt>
      <trkpt lat="42.74621" lon="0.20889">
        <ele>2667.4</ele>
        <time>2017-02-23T12:06:05Z</time>
      </trkpt>
      <trkpt lat="42.74622" lon="0.20888">
        <ele>2667.2</ele>
        <time>2017-02-23T12:06:10Z</time>
      </trkpt>
      <trkpt lat="42.74623" lon="0.20888">
        <ele>2667</ele>
        <time>2017-02-23T12:06:15Z</time>
      </trkpt>
      <trkpt lat="42.74623" lon="0.20888">
        <ele>2666.6</ele>
        <time>2017-02-23T12:06:20Z</time>
      </trkpt>
      <trkpt lat="42.74623" lon="0.20888">
        <ele>2666.6</ele>
        <time>2017-02-23T12:06:25Z</time>
      </trkpt>
      <trkpt lat="42.74624" lon="0.20888">
        <ele>2666.2</ele>
        <time>2017-02-23T12:06:30Z</time>
      </trkpt>
      <trkpt lat="42.74625" lon="0.20888">
        <ele>2666.4</ele>
        <time>2017-02-23T12:06:35Z</time>
      </trkpt>
      <trkpt lat="42.74625" lon="0.20887">
        <ele>2665.8</ele>
        <time>2017-02-23T12:06:40Z</time>
      </trkpt>
      <trkpt lat="42.74625" lon="0.20887">
        <ele>2665.2</ele>
        <time>2017-02-23T12:06:45Z</time>
      </trkpt>
      <trkpt lat="42.74626" lon="0.20887">
        <ele>2665</ele>
        <time>2017-02-23T12:06:50Z</time>
      </trkpt>
      <trkpt lat="42.74626" lon="0.20887">
        <ele>2664.8</ele>
        <time>2017-02-23T12:06:55Z</time>
      </trkpt>
      <trkpt lat="42.74627" lon="0.20887">
        <ele>2664.4</ele>
        <time>2017-02-23T12:07:00Z</time>
      </trkpt>
      <trkpt lat="42.74627" lon="0.20887">
        <ele>2664</ele>
        <time>2017-02-23T12:07:05Z</time>
      </trkpt>
      <trkpt lat="42.74628" lon="0.20887">
        <ele>2662.4</ele>
        <time>2017-02-23T12:07:10Z</time>
      </trkpt>
      <trkpt lat="42.74628" lon="0.20887">
        <ele>2661.6</ele>
        <time>2017-02-23T12:07:15Z</time>
      </trkpt>
      <trkpt lat="42.74628" lon="0.20887">
        <ele>2662</ele>
        <time>2017-02-23T12:07:20Z</time>
      </trkpt>
      <trkpt lat="42.74628" lon="0.20887">
        <ele>2662.2</ele>
        <time>2017-02-23T12:07:25Z</time>
      </trkpt>
      <trkpt lat="42.74628" lon="0.20887">
        <ele>2661.6</ele>
        <time>2017-02-23T12:07:30Z</time>
      </trkpt>
      <trkpt lat="42.7463" lon="0.20887">
        <ele>2663.2</ele>
        <time>2017-02-23T12:07:35Z</time>
      </trkpt>
      <trkpt lat="42.74629" lon="0.20887">
        <ele>2662.8</ele>
        <time>2017-02-23T12:07:40Z</time>
      </trkpt>
      <trkpt lat="42.74629" lon="0.20887">
        <ele>2662.6</ele>
        <time>2017-02-23T12:07:45Z</time>
      </trkpt>
      <trkpt lat="42.7463" lon="0.20886">
        <ele>2662.6</ele>
        <time>2017-02-23T12:07:50Z</time>
      </trkpt>
      <trkpt lat="42.7463" lon="0.20886">
        <ele>2662.2</ele>
        <time>2017-02-23T12:07:55Z</time>
      </trkpt>
      <trkpt lat="42.74631" lon="0.20887">
        <ele>2662</ele>
        <time>2017-02-23T12:08:00Z</time>
      </trkpt>
      <trkpt lat="42.74631" lon="0.20887">
        <ele>2661.8</ele>
        <time>2017-02-23T12:08:05Z</time>
      </trkpt>
      <trkpt lat="42.74632" lon="0.20887">
        <ele>2661.6</ele>
        <time>2017-02-23T12:08:10Z</time>
      </trkpt>
      <trkpt lat="42.74632" lon="0.20887">
        <ele>2661.4</ele>
        <time>2017-02-23T12:08:15Z</time>
      </trkpt>
      <trkpt lat="42.74632" lon="0.20887">
        <ele>2661.2</ele>
        <time>2017-02-23T12:08:20Z</time>
      </trkpt>
      <trkpt lat="42.74632" lon="0.20888">
        <ele>2661.2</ele>
        <time>2017-02-23T12:08:25Z</time>
      </trkpt>
      <trkpt lat="42.74633" lon="0.20888">
        <ele>2661</ele>
        <time>2017-02-23T12:08:30Z</time>
      </trkpt>
      <trkpt lat="42.74633" lon="0.20888">
        <ele>2660.8</ele>
        <time>2017-02-23T12:08:35Z</time>
      </trkpt>
      <trkpt lat="42.74634" lon="0.20889">
        <ele>2661.4</ele>
        <time>2017-02-23T12:08:40Z</time>
      </trkpt>
      <trkpt lat="42.74635" lon="0.20888">
        <ele>2661</ele>
        <time>2017-02-23T12:08:45Z</time>
      </trkpt>
      <trkpt lat="42.74636" lon="0.20888">
        <ele>2660.6</ele>
        <time>2017-02-23T12:08:50Z</time>
      </trkpt>
      <trkpt lat="42.74637" lon="0.20887">
        <ele>2660</ele>
        <time>2017-02-23T12:08:55Z</time>
      </trkpt>
      <trkpt lat="42.74637" lon="0.20887">
        <ele>2659.4</ele>
        <time>2017-02-23T12:09:00Z</time>
      </trkpt>
      <trkpt lat="42.74636" lon="0.20888">
        <ele>2659</ele>
        <time>2017-02-23T12:09:05Z</time>
      </trkpt>
      <trkpt lat="42.74636" lon="0.20888">
        <ele>2658.8</ele>
        <time>2017-02-23T12:09:10Z</time>
      </trkpt>
      <trkpt lat="42.74636" lon="0.20887">
        <ele>2658.6</ele>
        <time>2017-02-23T12:09:15Z</time>
      </trkpt>
      <trkpt lat="42.74637" lon="0.20887">
        <ele>2658.4</ele>
        <time>2017-02-23T12:09:20Z</time>
      </trkpt>
      <trkpt lat="42.74638" lon="0.20887">
        <ele>2658.2</ele>
        <time>2017-02-23T12:09:25Z</time>
      </trkpt>
      <trkpt lat="42.74638" lon="0.20887">
        <ele>2658</ele>
        <time>2017-02-23T12:09:30Z</time>
      </trkpt>
      <trkpt lat="42.74638" lon="0.20887">
        <ele>2657.8</ele>
        <time>2017-02-23T12:09:35Z</time>
      </trkpt>
      <trkpt lat="42.7464" lon="0.20887">
        <ele>2659</ele>
        <time>2017-02-23T12:09:40Z</time>
      </trkpt>
      <trkpt lat="42.74639" lon="0.20887">
        <ele>2658.2</ele>
        <time>2017-02-23T12:09:45Z</time>
      </trkpt>
      <trkpt lat="42.7464" lon="0.20887">
        <ele>2657.2</ele>
        <time>2017-02-23T12:09:50Z</time>
      </trkpt>
      <trkpt lat="42.7464" lon="0.20886">
        <ele>2655.8</ele>
        <time>2017-02-23T12:09:55Z</time>
      </trkpt>
      <trkpt lat="42.7464" lon="0.20886">
        <ele>2655</ele>
        <time>2017-02-23T12:10:00Z</time>
      </trkpt>
      <trkpt lat="42.74641" lon="0.20885">
        <ele>2654.2</ele>
        <time>2017-02-23T12:10:05Z</time>
      </trkpt>
      <trkpt lat="42.74642" lon="0.20885">
        <ele>2653.2</ele>
        <time>2017-02-23T12:10:10Z</time>
      </trkpt>
      <trkpt lat="42.74642" lon="0.20885">
        <ele>2652.6</ele>
        <time>2017-02-23T12:10:15Z</time>
      </trkpt>
      <trkpt lat="42.74642" lon="0.20885">
        <ele>2652.2</ele>
        <time>2017-02-23T12:10:20Z</time>
      </trkpt>
      <trkpt lat="42.74642" lon="0.20885">
        <ele>2651.8</ele>
        <time>2017-02-23T12:10:25Z</time>
      </trkpt>
      <trkpt lat="42.74642" lon="0.20885">
        <ele>2651.6</ele>
        <time>2017-02-23T12:10:30Z</time>
      </trkpt>
      <trkpt lat="42.74642" lon="0.20885">
        <ele>2651.4</ele>
        <time>2017-02-23T12:10:35Z</time>
      </trkpt>
      <trkpt lat="42.74643" lon="0.20885">
        <ele>2651.2</ele>
        <time>2017-02-23T12:10:40Z</time>
      </trkpt>
      <trkpt lat="42.74643" lon="0.20886">
        <ele>2651.2</ele>
        <time>2017-02-23T12:10:45Z</time>
      </trkpt>
      <trkpt lat="42.74643" lon="0.20885">
        <ele>2651</ele>
        <time>2017-02-23T12:10:50Z</time>
      </trkpt>
      <trkpt lat="42.74644" lon="0.20885">
        <ele>2650.6</ele>
        <time>2017-02-23T12:10:55Z</time>
      </trkpt>
      <trkpt lat="42.74644" lon="0.20885">
        <ele>2650.2</ele>
        <time>2017-02-23T12:11:00Z</time>
      </trkpt>
      <trkpt lat="42.74644" lon="0.20884">
        <ele>2650</ele>
        <time>2017-02-23T12:11:05Z</time>
      </trkpt>
      <trkpt lat="42.74645" lon="0.20884">
        <ele>2649</ele>
        <time>2017-02-23T12:11:10Z</time>
      </trkpt>
      <trkpt lat="42.74646" lon="0.20883">
        <ele>2646.2</ele>
        <time>2017-02-23T12:11:15Z</time>
      </trkpt>
      <trkpt lat="42.74648" lon="0.20882">
        <ele>2646.4</ele>
        <time>2017-02-23T12:11:20Z</time>
      </trkpt>
      <trkpt lat="42.74648" lon="0.20883">
        <ele>2644.2</ele>
        <time>2017-02-23T12:11:25Z</time>
      </trkpt>
      <trkpt lat="42.74649" lon="0.20882">
        <ele>2644.2</ele>
        <time>2017-02-23T12:11:30Z</time>
      </trkpt>
      <trkpt lat="42.7465" lon="0.20882">
        <ele>2644.4</ele>
        <time>2017-02-23T12:11:35Z</time>
      </trkpt>
      <trkpt lat="42.74651" lon="0.20881">
        <ele>2644.4</ele>
        <time>2017-02-23T12:11:40Z</time>
      </trkpt>
      <trkpt lat="42.74651" lon="0.20881">
        <ele>2644.4</ele>
        <time>2017-02-23T12:11:45Z</time>
      </trkpt>
      <trkpt lat="42.74652" lon="0.2088">
        <ele>2644.2</ele>
        <time>2017-02-23T12:11:50Z</time>
      </trkpt>
      <trkpt lat="42.74653" lon="0.2088">
        <ele>2642</ele>
        <time>2017-02-23T12:11:55Z</time>
      </trkpt>
      <trkpt lat="42.74655" lon="0.20879">
        <ele>2642.4</ele>
        <time>2017-02-23T12:12:00Z</time>
      </trkpt>
      <trkpt lat="42.74657" lon="0.20878">
        <ele>2639.6</ele>
        <time>2017-02-23T12:12:05Z</time>
      </trkpt>
      <trkpt lat="42.74659" lon="0.20877">
        <ele>2640.2</ele>
        <time>2017-02-23T12:12:10Z</time>
      </trkpt>
      <trkpt lat="42.74659" lon="0.20877">
        <ele>2639.6</ele>
        <time>2017-02-23T12:12:15Z</time>
      </trkpt>
      <trkpt lat="42.7466" lon="0.20877">
        <ele>2639.8</ele>
        <time>2017-02-23T12:12:20Z</time>
      </trkpt>
      <trkpt lat="42.74661" lon="0.20875">
        <ele>2640.6</ele>
        <time>2017-02-23T12:12:25Z</time>
      </trkpt>
      <trkpt lat="42.74663" lon="0.20875">
        <ele>2642</ele>
        <time>2017-02-23T12:12:30Z</time>
      </trkpt>
      <trkpt lat="42.74663" lon="0.20875">
        <ele>2640.8</ele>
        <time>2017-02-23T12:12:35Z</time>
      </trkpt>
      <trkpt lat="42.74663" lon="0.20875">
        <ele>2639.8</ele>
        <time>2017-02-23T12:12:40Z</time>
      </trkpt>
      <trkpt lat="42.74663" lon="0.20875">
        <ele>2639.2</ele>
        <time>2017-02-23T12:12:45Z</time>
      </trkpt>
      <trkpt lat="42.74663" lon="0.20875">
        <ele>2638.8</ele>
        <time>2017-02-23T12:12:50Z</time>
      </trkpt>
      <trkpt lat="42.74663" lon="0.20875">
        <ele>2638.2</ele>
        <time>2017-02-23T12:12:55Z</time>
      </trkpt>
      <trkpt lat="42.74663" lon="0.20875">
        <ele>2638</ele>
        <time>2017-02-23T12:13:00Z</time>
      </trkpt>
      <trkpt lat="42.74663" lon="0.20875">
        <ele>2637.8</ele>
        <time>2017-02-23T12:13:05Z</time>
      </trkpt>
      <trkpt lat="42.74663" lon="0.20875">
        <ele>2637.6</ele>
        <time>2017-02-23T12:13:10Z</time>
      </trkpt>
      <trkpt lat="42.74663" lon="0.20876">
        <ele>2637.4</ele>
        <time>2017-02-23T12:13:15Z</time>
      </trkpt>
      <trkpt lat="42.74663" lon="0.20876">
        <ele>2637.2</ele>
        <time>2017-02-23T12:13:21Z</time>
      </trkpt>
      <trkpt lat="42.74663" lon="0.20876">
        <ele>2637</ele>
        <time>2017-02-23T12:13:26Z</time>
      </trkpt>
      <trkpt lat="42.74663" lon="0.20876">
        <ele>2637</ele>
        <time>2017-02-23T12:13:31Z</time>
      </trkpt>
      <trkpt lat="42.74663" lon="0.20876">
        <ele>2636.8</ele>
        <time>2017-02-23T12:13:36Z</time>
      </trkpt>
      <trkpt lat="42.74663" lon="0.20876">
        <ele>2636.6</ele>
        <time>2017-02-23T12:13:41Z</time>
      </trkpt>
      <trkpt lat="42.74663" lon="0.20875">
        <ele>2636.6</ele>
        <time>2017-02-23T12:13:46Z</time>
      </trkpt>
      <trkpt lat="42.74663" lon="0.20875">
        <ele>2636.6</ele>
        <time>2017-02-23T12:13:51Z</time>
      </trkpt>
      <trkpt lat="42.74662" lon="0.20875">
        <ele>2636.4</ele>
        <time>2017-02-23T12:13:56Z</time>
      </trkpt>
      <trkpt lat="42.74662" lon="0.20875">
        <ele>2636.4</ele>
        <time>2017-02-23T12:14:01Z</time>
      </trkpt>
      <trkpt lat="42.74662" lon="0.20875">
        <ele>2636.2</ele>
        <time>2017-02-23T12:14:06Z</time>
      </trkpt>
      <trkpt lat="42.74662" lon="0.20875">
        <ele>2636.2</ele>
        <time>2017-02-23T12:14:11Z</time>
      </trkpt>
      <trkpt lat="42.74662" lon="0.20875">
        <ele>2636.2</ele>
        <time>2017-02-23T12:14:16Z</time>
      </trkpt>
      <trkpt lat="42.74662" lon="0.20875">
        <ele>2636.2</ele>
        <time>2017-02-23T12:14:21Z</time>
      </trkpt>
      <trkpt lat="42.74662" lon="0.20875">
        <ele>2636.2</ele>
        <time>2017-02-23T12:14:26Z</time>
      </trkpt>
      <trkpt lat="42.74662" lon="0.20875">
        <ele>2636.2</ele>
        <time>2017-02-23T12:14:31Z</time>
      </trkpt>
      <trkpt lat="42.74662" lon="0.20875">
        <ele>2636.2</ele>
        <time>2017-02-23T12:14:36Z</time>
      </trkpt>
      <trkpt lat="42.74662" lon="0.20875">
        <ele>2636.2</ele>
        <time>2017-02-23T12:14:41Z</time>
      </trkpt>
      <trkpt lat="42.74662" lon="0.20875">
        <ele>2636.2</ele>
        <time>2017-02-23T12:14:46Z</time>
      </trkpt>
      <trkpt lat="42.74662" lon="0.20875">
        <ele>2636.2</ele>
        <time>2017-02-23T12:14:51Z</time>
      </trkpt>
      <trkpt lat="42.74662" lon="0.20875">
        <ele>2636.2</ele>
        <time>2017-02-23T12:14:56Z</time>
      </trkpt>
      <trkpt lat="42.74662" lon="0.20875">
        <ele>2636</ele>
        <time>2017-02-23T12:15:01Z</time>
      </trkpt>
      <trkpt lat="42.74662" lon="0.20875">
        <ele>2636</ele>
        <time>2017-02-23T12:15:06Z</time>
      </trkpt>
      <trkpt lat="42.74662" lon="0.20875">
        <ele>2636</ele>
        <time>2017-02-23T12:15:11Z</time>
      </trkpt>
      <trkpt lat="42.74662" lon="0.20875">
        <ele>2636</ele>
        <time>2017-02-23T12:15:16Z</time>
      </trkpt>
      <trkpt lat="42.74662" lon="0.20875">
        <ele>2633.4</ele>
        <time>2017-02-23T12:15:21Z</time>
      </trkpt>
      <trkpt lat="42.74662" lon="0.20875">
        <ele>2634.2</ele>
        <time>2017-02-23T12:15:26Z</time>
      </trkpt>
      <trkpt lat="42.74662" lon="0.20875">
        <ele>2634.8</ele>
        <time>2017-02-23T12:15:31Z</time>
      </trkpt>
      <trkpt lat="42.74662" lon="0.20875">
        <ele>2635</ele>
        <time>2017-02-23T12:15:36Z</time>
      </trkpt>
      <trkpt lat="42.74662" lon="0.20876">
        <ele>2635.4</ele>
        <time>2017-02-23T12:15:41Z</time>
      </trkpt>
      <trkpt lat="42.74662" lon="0.20876">
        <ele>2635.6</ele>
        <time>2017-02-23T12:15:46Z</time>
      </trkpt>
      <trkpt lat="42.74662" lon="0.20876">
        <ele>2635.6</ele>
        <time>2017-02-23T12:15:51Z</time>
      </trkpt>
      <trkpt lat="42.74662" lon="0.20876">
        <ele>2635.8</ele>
        <time>2017-02-23T12:15:56Z</time>
      </trkpt>
      <trkpt lat="42.74662" lon="0.20876">
        <ele>2635.8</ele>
        <time>2017-02-23T12:16:01Z</time>
      </trkpt>
      <trkpt lat="42.74662" lon="0.20876">
        <ele>2635.8</ele>
        <time>2017-02-23T12:16:06Z</time>
      </trkpt>
      <trkpt lat="42.74662" lon="0.20876">
        <ele>2635.8</ele>
        <time>2017-02-23T12:16:11Z</time>
      </trkpt>
      <trkpt lat="42.74662" lon="0.20876">
        <ele>2635.8</ele>
        <time>2017-02-23T12:16:16Z</time>
      </trkpt>
      <trkpt lat="42.74662" lon="0.20876">
        <ele>2635.8</ele>
        <time>2017-02-23T12:16:21Z</time>
      </trkpt>
      <trkpt lat="42.74662" lon="0.20876">
        <ele>2635.8</ele>
        <time>2017-02-23T12:16:26Z</time>
      </trkpt>
      <trkpt lat="42.74662" lon="0.20876">
        <ele>2635.8</ele>
        <time>2017-02-23T12:16:31Z</time>
      </trkpt>
      <trkpt lat="42.74662" lon="0.20876">
        <ele>2635.8</ele>
        <time>2017-02-23T12:16:36Z</time>
      </trkpt>
      <trkpt lat="42.74662" lon="0.20876">
        <ele>2635.8</ele>
        <time>2017-02-23T12:16:41Z</time>
      </trkpt>
      <trkpt lat="42.74662" lon="0.20876">
        <ele>2635.8</ele>
        <time>2017-02-23T12:16:46Z</time>
      </trkpt>
      <trkpt lat="42.74662" lon="0.20876">
        <ele>2635.8</ele>
        <time>2017-02-23T12:16:51Z</time>
      </trkpt>
      <trkpt lat="42.74662" lon="0.20876">
        <ele>2635.8</ele>
        <time>2017-02-23T12:16:56Z</time>
      </trkpt>
      <trkpt lat="42.74662" lon="0.20876">
        <ele>2635.8</ele>
        <time>2017-02-23T12:17:01Z</time>
      </trkpt>
      <trkpt lat="42.74662" lon="0.20876">
        <ele>2635.8</ele>
        <time>2017-02-23T12:17:06Z</time>
      </trkpt>
      <trkpt lat="42.74662" lon="0.20875">
        <ele>2634.2</ele>
        <time>2017-02-23T12:17:11Z</time>
      </trkpt>
      <trkpt lat="42.74662" lon="0.20875">
        <ele>2634.8</ele>
        <time>2017-02-23T12:17:16Z</time>
      </trkpt>
      <trkpt lat="42.74662" lon="0.20875">
        <ele>2635</ele>
        <time>2017-02-23T12:17:21Z</time>
      </trkpt>
      <trkpt lat="42.74662" lon="0.20875">
        <ele>2635.2</ele>
        <time>2017-02-23T12:17:26Z</time>
      </trkpt>
      <trkpt lat="42.74662" lon="0.20875">
        <ele>2635.4</ele>
        <time>2017-02-23T12:17:31Z</time>
      </trkpt>
      <trkpt lat="42.74662" lon="0.20875">
        <ele>2635.4</ele>
        <time>2017-02-23T12:17:36Z</time>
      </trkpt>
      <trkpt lat="42.74662" lon="0.20875">
        <ele>2635.6</ele>
        <time>2017-02-23T12:17:41Z</time>
      </trkpt>
      <trkpt lat="42.74662" lon="0.20875">
        <ele>2635.6</ele>
        <time>2017-02-23T12:17:46Z</time>
      </trkpt>
      <trkpt lat="42.74662" lon="0.20875">
        <ele>2635.6</ele>
        <time>2017-02-23T12:17:51Z</time>
      </trkpt>
      <trkpt lat="42.74662" lon="0.20875">
        <ele>2635.6</ele>
        <time>2017-02-23T12:17:56Z</time>
      </trkpt>
      <trkpt lat="42.74662" lon="0.20875">
        <ele>2635.6</ele>
        <time>2017-02-23T12:18:01Z</time>
      </trkpt>
      <trkpt lat="42.74662" lon="0.20875">
        <ele>2635.6</ele>
        <time>2017-02-23T12:18:06Z</time>
      </trkpt>
      <trkpt lat="42.74662" lon="0.20875">
        <ele>2635.8</ele>
        <time>2017-02-23T12:18:11Z</time>
      </trkpt>
      <trkpt lat="42.74662" lon="0.20875">
        <ele>2635.8</ele>
        <time>2017-02-23T12:18:16Z</time>
      </trkpt>
      <trkpt lat="42.74662" lon="0.20875">
        <ele>2635.8</ele>
        <time>2017-02-23T12:18:21Z</time>
      </trkpt>
      <trkpt lat="42.74662" lon="0.20875">
        <ele>2635.8</ele>
        <time>2017-02-23T12:18:26Z</time>
      </trkpt>
      <trkpt lat="42.74662" lon="0.20875">
        <ele>2635.8</ele>
        <time>2017-02-23T12:18:31Z</time>
      </trkpt>
      <trkpt lat="42.74662" lon="0.20876">
        <ele>2635.8</ele>
        <time>2017-02-23T12:18:36Z</time>
      </trkpt>
      <trkpt lat="42.74661" lon="0.20876">
        <ele>2635.8</ele>
        <time>2017-02-23T12:18:41Z</time>
      </trkpt>
      <trkpt lat="42.74661" lon="0.20876">
        <ele>2636</ele>
        <time>2017-02-23T12:18:46Z</time>
      </trkpt>
      <trkpt lat="42.74661" lon="0.20876">
        <ele>2636.2</ele>
        <time>2017-02-23T12:18:51Z</time>
      </trkpt>
      <trkpt lat="42.74661" lon="0.20877">
        <ele>2636.4</ele>
        <time>2017-02-23T12:18:56Z</time>
      </trkpt>
      <trkpt lat="42.74661" lon="0.20876">
        <ele>2636.4</ele>
        <time>2017-02-23T12:19:01Z</time>
      </trkpt>
      <trkpt lat="42.74661" lon="0.20876">
        <ele>2636.6</ele>
        <time>2017-02-23T12:19:06Z</time>
      </trkpt>
      <trkpt lat="42.74661" lon="0.20876">
        <ele>2636.6</ele>
        <time>2017-02-23T12:19:11Z</time>
      </trkpt>
      <trkpt lat="42.74661" lon="0.20876">
        <ele>2636.6</ele>
        <time>2017-02-23T12:19:16Z</time>
      </trkpt>
      <trkpt lat="42.74661" lon="0.20876">
        <ele>2636.6</ele>
        <time>2017-02-23T12:19:21Z</time>
      </trkpt>
      <trkpt lat="42.74661" lon="0.20877">
        <ele>2636.6</ele>
        <time>2017-02-23T12:19:26Z</time>
      </trkpt>
      <trkpt lat="42.74661" lon="0.20877">
        <ele>2636.8</ele>
        <time>2017-02-23T12:19:31Z</time>
      </trkpt>
      <trkpt lat="42.74661" lon="0.20877">
        <ele>2636.8</ele>
        <time>2017-02-23T12:19:36Z</time>
      </trkpt>
      <trkpt lat="42.74661" lon="0.20877">
        <ele>2636.8</ele>
        <time>2017-02-23T12:19:41Z</time>
      </trkpt>
      <trkpt lat="42.74661" lon="0.20877">
        <ele>2637</ele>
        <time>2017-02-23T12:19:46Z</time>
      </trkpt>
      <trkpt lat="42.74661" lon="0.20877">
        <ele>2636.8</ele>
        <time>2017-02-23T12:19:51Z</time>
      </trkpt>
      <trkpt lat="42.74661" lon="0.20876">
        <ele>2636.4</ele>
        <time>2017-02-23T12:19:56Z</time>
      </trkpt>
      <trkpt lat="42.74661" lon="0.20876">
        <ele>2636.6</ele>
        <time>2017-02-23T12:20:01Z</time>
      </trkpt>
      <trkpt lat="42.74661" lon="0.20876">
        <ele>2636.6</ele>
        <time>2017-02-23T12:20:06Z</time>
      </trkpt>
      <trkpt lat="42.74661" lon="0.20876">
        <ele>2636.6</ele>
        <time>2017-02-23T12:20:11Z</time>
      </trkpt>
      <trkpt lat="42.74661" lon="0.20876">
        <ele>2636.6</ele>
        <time>2017-02-23T12:20:16Z</time>
      </trkpt>
      <trkpt lat="42.74661" lon="0.20876">
        <ele>2636.6</ele>
        <time>2017-02-23T12:20:21Z</time>
      </trkpt>
      <trkpt lat="42.74661" lon="0.20876">
        <ele>2636.6</ele>
        <time>2017-02-23T12:20:27Z</time>
      </trkpt>
      <trkpt lat="42.74661" lon="0.20876">
        <ele>2636.8</ele>
        <time>2017-02-23T12:20:32Z</time>
      </trkpt>
      <trkpt lat="42.74661" lon="0.20876">
        <ele>2636.8</ele>
        <time>2017-02-23T12:20:37Z</time>
      </trkpt>
      <trkpt lat="42.74662" lon="0.20875">
        <ele>2635.4</ele>
        <time>2017-02-23T12:20:42Z</time>
      </trkpt>
      <trkpt lat="42.74673" lon="0.20873">
        <ele>2629.4</ele>
        <time>2017-02-23T12:20:47Z</time>
      </trkpt>
      <trkpt lat="42.74694" lon="0.2088">
        <ele>2623.8</ele>
        <time>2017-02-23T12:20:52Z</time>
      </trkpt>
      <trkpt lat="42.7472" lon="0.20879">
        <ele>2610.2</ele>
        <time>2017-02-23T12:20:57Z</time>
      </trkpt>
      <trkpt lat="42.7472" lon="0.20876">
        <ele>2610</ele>
        <time>2017-02-23T12:21:02Z</time>
      </trkpt>
      <trkpt lat="42.7472" lon="0.20876">
        <ele>2609.8</ele>
        <time>2017-02-23T12:21:07Z</time>
      </trkpt>
      <trkpt lat="42.74719" lon="0.20874">
        <ele>2609.6</ele>
        <time>2017-02-23T12:21:12Z</time>
      </trkpt>
      <trkpt lat="42.74719" lon="0.20871">
        <ele>2605.6</ele>
        <time>2017-02-23T12:21:17Z</time>
      </trkpt>
      <trkpt lat="42.74719" lon="0.20871">
        <ele>2606</ele>
        <time>2017-02-23T12:21:22Z</time>
      </trkpt>
      <trkpt lat="42.74719" lon="0.20871">
        <ele>2606.2</ele>
        <time>2017-02-23T12:21:27Z</time>
      </trkpt>
      <trkpt lat="42.74719" lon="0.20871">
        <ele>2606.4</ele>
        <time>2017-02-23T12:21:32Z</time>
      </trkpt>
      <trkpt lat="42.74719" lon="0.20871">
        <ele>2606.6</ele>
        <time>2017-02-23T12:21:37Z</time>
      </trkpt>
      <trkpt lat="42.74719" lon="0.20871">
        <ele>2606.6</ele>
        <time>2017-02-23T12:21:42Z</time>
      </trkpt>
      <trkpt lat="42.74719" lon="0.20871">
        <ele>2606.6</ele>
        <time>2017-02-23T12:21:47Z</time>
      </trkpt>
      <trkpt lat="42.74723" lon="0.20863">
        <ele>2601.6</ele>
        <time>2017-02-23T12:21:52Z</time>
      </trkpt>
      <trkpt lat="42.74742" lon="0.20861">
        <ele>2592.6</ele>
        <time>2017-02-23T12:21:57Z</time>
      </trkpt>
      <trkpt lat="42.74763" lon="0.20853">
        <ele>2588.6</ele>
        <time>2017-02-23T12:22:02Z</time>
      </trkpt>
      <trkpt lat="42.74779" lon="0.20836">
        <ele>2581</ele>
        <time>2017-02-23T12:22:07Z</time>
      </trkpt>
      <trkpt lat="42.74784" lon="0.20806">
        <ele>2576.2</ele>
        <time>2017-02-23T12:22:12Z</time>
      </trkpt>
      <trkpt lat="42.74798" lon="0.20789">
        <ele>2569.4</ele>
        <time>2017-02-23T12:22:17Z</time>
      </trkpt>
      <trkpt lat="42.74805" lon="0.20767">
        <ele>2565.4</ele>
        <time>2017-02-23T12:22:22Z</time>
      </trkpt>
      <trkpt lat="42.74814" lon="0.20747">
        <ele>2560.6</ele>
        <time>2017-02-23T12:22:27Z</time>
      </trkpt>
      <trkpt lat="42.74813" lon="0.20748">
        <ele>2560.4</ele>
        <time>2017-02-23T12:22:32Z</time>
      </trkpt>
      <trkpt lat="42.74813" lon="0.20749">
        <ele>2560</ele>
        <time>2017-02-23T12:22:37Z</time>
      </trkpt>
      <trkpt lat="42.74812" lon="0.20751">
        <ele>2560.2</ele>
        <time>2017-02-23T12:22:42Z</time>
      </trkpt>
      <trkpt lat="42.74812" lon="0.20751">
        <ele>2559.6</ele>
        <time>2017-02-23T12:22:47Z</time>
      </trkpt>
      <trkpt lat="42.74812" lon="0.20751">
        <ele>2559.4</ele>
        <time>2017-02-23T12:22:52Z</time>
      </trkpt>
      <trkpt lat="42.74812" lon="0.20751">
        <ele>2559</ele>
        <time>2017-02-23T12:22:57Z</time>
      </trkpt>
      <trkpt lat="42.74811" lon="0.20751">
        <ele>2559</ele>
        <time>2017-02-23T12:23:02Z</time>
      </trkpt>
      <trkpt lat="42.74811" lon="0.20751">
        <ele>2558.6</ele>
        <time>2017-02-23T12:23:07Z</time>
      </trkpt>
      <trkpt lat="42.74811" lon="0.20751">
        <ele>2558.2</ele>
        <time>2017-02-23T12:23:12Z</time>
      </trkpt>
      <trkpt lat="42.74811" lon="0.20751">
        <ele>2558</ele>
        <time>2017-02-23T12:23:17Z</time>
      </trkpt>
      <trkpt lat="42.74811" lon="0.20751">
        <ele>2557.8</ele>
        <time>2017-02-23T12:23:22Z</time>
      </trkpt>
      <trkpt lat="42.74811" lon="0.20751">
        <ele>2557.6</ele>
        <time>2017-02-23T12:23:27Z</time>
      </trkpt>
      <trkpt lat="42.74811" lon="0.20756">
        <ele>2556.6</ele>
        <time>2017-02-23T12:23:32Z</time>
      </trkpt>
      <trkpt lat="42.74811" lon="0.20764">
        <ele>2554.6</ele>
        <time>2017-02-23T12:23:37Z</time>
      </trkpt>
      <trkpt lat="42.74812" lon="0.20766">
        <ele>2555.8</ele>
        <time>2017-02-23T12:23:42Z</time>
      </trkpt>
      <trkpt lat="42.74812" lon="0.20767">
        <ele>2556</ele>
        <time>2017-02-23T12:23:47Z</time>
      </trkpt>
      <trkpt lat="42.74812" lon="0.20767">
        <ele>2556.2</ele>
        <time>2017-02-23T12:23:52Z</time>
      </trkpt>
      <trkpt lat="42.74811" lon="0.20767">
        <ele>2556.4</ele>
        <time>2017-02-23T12:23:57Z</time>
      </trkpt>
      <trkpt lat="42.74811" lon="0.20767">
        <ele>2556.4</ele>
        <time>2017-02-23T12:24:02Z</time>
      </trkpt>
      <trkpt lat="42.74811" lon="0.20767">
        <ele>2556.4</ele>
        <time>2017-02-23T12:24:07Z</time>
      </trkpt>
      <trkpt lat="42.74811" lon="0.20767">
        <ele>2556.4</ele>
        <time>2017-02-23T12:24:12Z</time>
      </trkpt>
      <trkpt lat="42.74812" lon="0.20769">
        <ele>2555.8</ele>
        <time>2017-02-23T12:24:17Z</time>
      </trkpt>
      <trkpt lat="42.74818" lon="0.20776">
        <ele>2553.8</ele>
        <time>2017-02-23T12:24:22Z</time>
      </trkpt>
      <trkpt lat="42.74825" lon="0.20769">
        <ele>2551.6</ele>
        <time>2017-02-23T12:24:27Z</time>
      </trkpt>
      <trkpt lat="42.74825" lon="0.20769">
        <ele>2552.4</ele>
        <time>2017-02-23T12:24:32Z</time>
      </trkpt>
      <trkpt lat="42.74825" lon="0.20769">
        <ele>2553</ele>
        <time>2017-02-23T12:24:37Z</time>
      </trkpt>
      <trkpt lat="42.74825" lon="0.20769">
        <ele>2553.4</ele>
        <time>2017-02-23T12:24:42Z</time>
      </trkpt>
      <trkpt lat="42.74825" lon="0.20769">
        <ele>2553.6</ele>
        <time>2017-02-23T12:24:47Z</time>
      </trkpt>
      <trkpt lat="42.74825" lon="0.20768">
        <ele>2553.8</ele>
        <time>2017-02-23T12:24:52Z</time>
      </trkpt>
      <trkpt lat="42.74825" lon="0.20768">
        <ele>2554</ele>
        <time>2017-02-23T12:24:57Z</time>
      </trkpt>
      <trkpt lat="42.74825" lon="0.20768">
        <ele>2554</ele>
        <time>2017-02-23T12:25:02Z</time>
      </trkpt>
      <trkpt lat="42.74825" lon="0.20768">
        <ele>2554</ele>
        <time>2017-02-23T12:25:07Z</time>
      </trkpt>
      <trkpt lat="42.74825" lon="0.20768">
        <ele>2554</ele>
        <time>2017-02-23T12:25:12Z</time>
      </trkpt>
      <trkpt lat="42.74825" lon="0.20768">
        <ele>2554.2</ele>
        <time>2017-02-23T12:25:17Z</time>
      </trkpt>
      <trkpt lat="42.74825" lon="0.20768">
        <ele>2554.2</ele>
        <time>2017-02-23T12:25:22Z</time>
      </trkpt>
      <trkpt lat="42.74825" lon="0.20768">
        <ele>2554.2</ele>
        <time>2017-02-23T12:25:27Z</time>
      </trkpt>
      <trkpt lat="42.74825" lon="0.20768">
        <ele>2554.2</ele>
        <time>2017-02-23T12:25:32Z</time>
      </trkpt>
      <trkpt lat="42.74825" lon="0.20769">
        <ele>2554</ele>
        <time>2017-02-23T12:25:37Z</time>
      </trkpt>
      <trkpt lat="42.74825" lon="0.20769">
        <ele>2554</ele>
        <time>2017-02-23T12:25:42Z</time>
      </trkpt>
      <trkpt lat="42.74825" lon="0.20769">
        <ele>2554</ele>
        <time>2017-02-23T12:25:47Z</time>
      </trkpt>
      <trkpt lat="42.74825" lon="0.20769">
        <ele>2554</ele>
        <time>2017-02-23T12:25:52Z</time>
      </trkpt>
      <trkpt lat="42.74825" lon="0.20769">
        <ele>2554</ele>
        <time>2017-02-23T12:25:57Z</time>
      </trkpt>
      <trkpt lat="42.74825" lon="0.20769">
        <ele>2553.8</ele>
        <time>2017-02-23T12:26:02Z</time>
      </trkpt>
      <trkpt lat="42.74825" lon="0.20769">
        <ele>2553.8</ele>
        <time>2017-02-23T12:26:07Z</time>
      </trkpt>
      <trkpt lat="42.74826" lon="0.20773">
        <ele>2550.8</ele>
        <time>2017-02-23T12:26:12Z</time>
      </trkpt>
      <trkpt lat="42.74827" lon="0.20776">
        <ele>2550.6</ele>
        <time>2017-02-23T12:26:17Z</time>
      </trkpt>
      <trkpt lat="42.74827" lon="0.20776">
        <ele>2551.2</ele>
        <time>2017-02-23T12:26:22Z</time>
      </trkpt>
      <trkpt lat="42.74827" lon="0.20776">
        <ele>2551.6</ele>
        <time>2017-02-23T12:26:27Z</time>
      </trkpt>
      <trkpt lat="42.74827" lon="0.20776">
        <ele>2552</ele>
        <time>2017-02-23T12:26:32Z</time>
      </trkpt>
      <trkpt lat="42.74827" lon="0.20776">
        <ele>2552.2</ele>
        <time>2017-02-23T12:26:37Z</time>
      </trkpt>
      <trkpt lat="42.74827" lon="0.20776">
        <ele>2552.2</ele>
        <time>2017-02-23T12:26:42Z</time>
      </trkpt>
      <trkpt lat="42.74827" lon="0.20776">
        <ele>2552.4</ele>
        <time>2017-02-23T12:26:47Z</time>
      </trkpt>
      <trkpt lat="42.74827" lon="0.20776">
        <ele>2552.4</ele>
        <time>2017-02-23T12:26:52Z</time>
      </trkpt>
      <trkpt lat="42.74827" lon="0.20776">
        <ele>2552.4</ele>
        <time>2017-02-23T12:26:57Z</time>
      </trkpt>
      <trkpt lat="42.74827" lon="0.20776">
        <ele>2552.6</ele>
        <time>2017-02-23T12:27:02Z</time>
      </trkpt>
      <trkpt lat="42.74827" lon="0.20776">
        <ele>2552.6</ele>
        <time>2017-02-23T12:27:07Z</time>
      </trkpt>
      <trkpt lat="42.74831" lon="0.20776">
        <ele>2552.4</ele>
        <time>2017-02-23T12:27:12Z</time>
      </trkpt>
      <trkpt lat="42.74847" lon="0.20765">
        <ele>2550.6</ele>
        <time>2017-02-23T12:27:17Z</time>
      </trkpt>
      <trkpt lat="42.74852" lon="0.20764">
        <ele>2544.8</ele>
        <time>2017-02-23T12:27:22Z</time>
      </trkpt>
      <trkpt lat="42.74854" lon="0.20784">
        <ele>2541.4</ele>
        <time>2017-02-23T12:27:27Z</time>
      </trkpt>
      <trkpt lat="42.74861" lon="0.20799">
        <ele>2535.8</ele>
        <time>2017-02-23T12:27:32Z</time>
      </trkpt>
      <trkpt lat="42.74865" lon="0.20793">
        <ele>2537.8</ele>
        <time>2017-02-23T12:27:37Z</time>
      </trkpt>
      <trkpt lat="42.7488" lon="0.20785">
        <ele>2536</ele>
        <time>2017-02-23T12:27:42Z</time>
      </trkpt>
      <trkpt lat="42.74881" lon="0.20801">
        <ele>2531.8</ele>
        <time>2017-02-23T12:27:47Z</time>
      </trkpt>
      <trkpt lat="42.74883" lon="0.20801">
        <ele>2529.4</ele>
        <time>2017-02-23T12:27:52Z</time>
      </trkpt>
      <trkpt lat="42.74882" lon="0.20821">
        <ele>2523.2</ele>
        <time>2017-02-23T12:27:57Z</time>
      </trkpt>
      <trkpt lat="42.749" lon="0.20822">
        <ele>2518</ele>
        <time>2017-02-23T12:28:02Z</time>
      </trkpt>
      <trkpt lat="42.74905" lon="0.20841">
        <ele>2510.8</ele>
        <time>2017-02-23T12:28:07Z</time>
      </trkpt>
      <trkpt lat="42.74907" lon="0.20868">
        <ele>2501</ele>
        <time>2017-02-23T12:28:12Z</time>
      </trkpt>
      <trkpt lat="42.74932" lon="0.20881">
        <ele>2488.6</ele>
        <time>2017-02-23T12:28:17Z</time>
      </trkpt>
      <trkpt lat="42.74951" lon="0.20901">
        <ele>2471.2</ele>
        <time>2017-02-23T12:28:22Z</time>
      </trkpt>
      <trkpt lat="42.74977" lon="0.20926">
        <ele>2448.6</ele>
        <time>2017-02-23T12:28:27Z</time>
      </trkpt>
      <trkpt lat="42.75007" lon="0.20932">
        <ele>2432.6</ele>
        <time>2017-02-23T12:28:32Z</time>
      </trkpt>
      <trkpt lat="42.75028" lon="0.20946">
        <ele>2423</ele>
        <time>2017-02-23T12:28:37Z</time>
      </trkpt>
      <trkpt lat="42.75026" lon="0.20947">
        <ele>2419.8</ele>
        <time>2017-02-23T12:28:42Z</time>
      </trkpt>
      <trkpt lat="42.75026" lon="0.20947">
        <ele>2417.8</ele>
        <time>2017-02-23T12:28:47Z</time>
      </trkpt>
      <trkpt lat="42.75026" lon="0.20947">
        <ele>2416.4</ele>
        <time>2017-02-23T12:28:52Z</time>
      </trkpt>
      <trkpt lat="42.75026" lon="0.20947">
        <ele>2415.6</ele>
        <time>2017-02-23T12:28:57Z</time>
      </trkpt>
      <trkpt lat="42.75026" lon="0.20947">
        <ele>2415.4</ele>
        <time>2017-02-23T12:29:02Z</time>
      </trkpt>
      <trkpt lat="42.75026" lon="0.20947">
        <ele>2415.4</ele>
        <time>2017-02-23T12:29:07Z</time>
      </trkpt>
      <trkpt lat="42.75026" lon="0.20947">
        <ele>2415.6</ele>
        <time>2017-02-23T12:29:12Z</time>
      </trkpt>
      <trkpt lat="42.75026" lon="0.20947">
        <ele>2415.6</ele>
        <time>2017-02-23T12:29:17Z</time>
      </trkpt>
      <trkpt lat="42.75026" lon="0.20947">
        <ele>2415.6</ele>
        <time>2017-02-23T12:29:22Z</time>
      </trkpt>
      <trkpt lat="42.75026" lon="0.20947">
        <ele>2415.6</ele>
        <time>2017-02-23T12:29:27Z</time>
      </trkpt>
      <trkpt lat="42.75026" lon="0.20947">
        <ele>2415.6</ele>
        <time>2017-02-23T12:29:32Z</time>
      </trkpt>
      <trkpt lat="42.75026" lon="0.20947">
        <ele>2415.6</ele>
        <time>2017-02-23T12:29:37Z</time>
      </trkpt>
      <trkpt lat="42.75026" lon="0.20947">
        <ele>2415.6</ele>
        <time>2017-02-23T12:29:42Z</time>
      </trkpt>
      <trkpt lat="42.75026" lon="0.20947">
        <ele>2415.8</ele>
        <time>2017-02-23T12:29:47Z</time>
      </trkpt>
      <trkpt lat="42.75026" lon="0.20947">
        <ele>2415.8</ele>
        <time>2017-02-23T12:29:52Z</time>
      </trkpt>
      <trkpt lat="42.75026" lon="0.20947">
        <ele>2415.8</ele>
        <time>2017-02-23T12:29:57Z</time>
      </trkpt>
      <trkpt lat="42.75026" lon="0.20947">
        <ele>2415.8</ele>
        <time>2017-02-23T12:30:02Z</time>
      </trkpt>
      <trkpt lat="42.75026" lon="0.20947">
        <ele>2415.8</ele>
        <time>2017-02-23T12:30:08Z</time>
      </trkpt>
      <trkpt lat="42.75026" lon="0.20947">
        <ele>2415.8</ele>
        <time>2017-02-23T12:30:13Z</time>
      </trkpt>
      <trkpt lat="42.75026" lon="0.20947">
        <ele>2415.8</ele>
        <time>2017-02-23T12:30:18Z</time>
      </trkpt>
      <trkpt lat="42.75027" lon="0.20947">
        <ele>2415.8</ele>
        <time>2017-02-23T12:30:23Z</time>
      </trkpt>
      <trkpt lat="42.75033" lon="0.20943">
        <ele>2415.8</ele>
        <time>2017-02-23T12:30:28Z</time>
      </trkpt>
      <trkpt lat="42.7505" lon="0.20931">
        <ele>2413.6</ele>
        <time>2017-02-23T12:30:33Z</time>
      </trkpt>
      <trkpt lat="42.75068" lon="0.2092">
        <ele>2406.6</ele>
        <time>2017-02-23T12:30:38Z</time>
      </trkpt>
      <trkpt lat="42.75085" lon="0.2094">
        <ele>2404</ele>
        <time>2017-02-23T12:30:43Z</time>
      </trkpt>
      <trkpt lat="42.75106" lon="0.20947">
        <ele>2399</ele>
        <time>2017-02-23T12:30:48Z</time>
      </trkpt>
      <trkpt lat="42.75124" lon="0.20936">
        <ele>2395.8</ele>
        <time>2017-02-23T12:30:53Z</time>
      </trkpt>
      <trkpt lat="42.75147" lon="0.20931">
        <ele>2386.2</ele>
        <time>2017-02-23T12:30:58Z</time>
      </trkpt>
      <trkpt lat="42.75159" lon="0.20908">
        <ele>2383.4</ele>
        <time>2017-02-23T12:31:03Z</time>
      </trkpt>
      <trkpt lat="42.75175" lon="0.20888">
        <ele>2380</ele>
        <time>2017-02-23T12:31:08Z</time>
      </trkpt>
      <trkpt lat="42.75189" lon="0.20873">
        <ele>2373.2</ele>
        <time>2017-02-23T12:31:13Z</time>
      </trkpt>
      <trkpt lat="42.752" lon="0.20852">
        <ele>2366.2</ele>
        <time>2017-02-23T12:31:18Z</time>
      </trkpt>
      <trkpt lat="42.75218" lon="0.20851">
        <ele>2351.6</ele>
        <time>2017-02-23T12:31:23Z</time>
      </trkpt>
      <trkpt lat="42.75239" lon="0.20852">
        <ele>2340.2</ele>
        <time>2017-02-23T12:31:28Z</time>
      </trkpt>
      <trkpt lat="42.75257" lon="0.20857">
        <ele>2337</ele>
        <time>2017-02-23T12:31:33Z</time>
      </trkpt>
      <trkpt lat="42.75259" lon="0.20859">
        <ele>2338</ele>
        <time>2017-02-23T12:31:38Z</time>
      </trkpt>
      <trkpt lat="42.75259" lon="0.20859">
        <ele>2338.6</ele>
        <time>2017-02-23T12:31:43Z</time>
      </trkpt>
      <trkpt lat="42.75258" lon="0.20859">
        <ele>2339.2</ele>
        <time>2017-02-23T12:31:48Z</time>
      </trkpt>
      <trkpt lat="42.75257" lon="0.20859">
        <ele>2338.8</ele>
        <time>2017-02-23T12:31:53Z</time>
      </trkpt>
      <trkpt lat="42.75256" lon="0.20858">
        <ele>2337.8</ele>
        <time>2017-02-23T12:31:58Z</time>
      </trkpt>
      <trkpt lat="42.75256" lon="0.20858">
        <ele>2336.2</ele>
        <time>2017-02-23T12:32:03Z</time>
      </trkpt>
      <trkpt lat="42.75256" lon="0.20858">
        <ele>2335.2</ele>
        <time>2017-02-23T12:32:08Z</time>
      </trkpt>
      <trkpt lat="42.75256" lon="0.20857">
        <ele>2334.2</ele>
        <time>2017-02-23T12:32:13Z</time>
      </trkpt>
      <trkpt lat="42.75256" lon="0.20857">
        <ele>2333</ele>
        <time>2017-02-23T12:32:18Z</time>
      </trkpt>
      <trkpt lat="42.75256" lon="0.20857">
        <ele>2332</ele>
        <time>2017-02-23T12:32:23Z</time>
      </trkpt>
      <trkpt lat="42.75256" lon="0.20857">
        <ele>2331.4</ele>
        <time>2017-02-23T12:32:28Z</time>
      </trkpt>
      <trkpt lat="42.75255" lon="0.20857">
        <ele>2330.2</ele>
        <time>2017-02-23T12:32:33Z</time>
      </trkpt>
      <trkpt lat="42.75255" lon="0.20857">
        <ele>2329.2</ele>
        <time>2017-02-23T12:32:38Z</time>
      </trkpt>
      <trkpt lat="42.75255" lon="0.20857">
        <ele>2328.4</ele>
        <time>2017-02-23T12:32:43Z</time>
      </trkpt>
      <trkpt lat="42.75255" lon="0.20857">
        <ele>2328</ele>
        <time>2017-02-23T12:32:48Z</time>
      </trkpt>
      <trkpt lat="42.75255" lon="0.20857">
        <ele>2327.6</ele>
        <time>2017-02-23T12:32:53Z</time>
      </trkpt>
      <trkpt lat="42.75255" lon="0.20857">
        <ele>2327.2</ele>
        <time>2017-02-23T12:32:58Z</time>
      </trkpt>
      <trkpt lat="42.75255" lon="0.20857">
        <ele>2327</ele>
        <time>2017-02-23T12:33:03Z</time>
      </trkpt>
      <trkpt lat="42.75255" lon="0.20857">
        <ele>2327</ele>
        <time>2017-02-23T12:33:08Z</time>
      </trkpt>
      <trkpt lat="42.75255" lon="0.20857">
        <ele>2326.8</ele>
        <time>2017-02-23T12:33:13Z</time>
      </trkpt>
      <trkpt lat="42.75255" lon="0.20857">
        <ele>2326.8</ele>
        <time>2017-02-23T12:33:19Z</time>
      </trkpt>
      <trkpt lat="42.75254" lon="0.20856">
        <ele>2326.4</ele>
        <time>2017-02-23T12:33:24Z</time>
      </trkpt>
      <trkpt lat="42.75253" lon="0.20855">
        <ele>2326.2</ele>
        <time>2017-02-23T12:33:29Z</time>
      </trkpt>
      <trkpt lat="42.75254" lon="0.20857">
        <ele>2325.8</ele>
        <time>2017-02-23T12:33:34Z</time>
      </trkpt>
      <trkpt lat="42.75254" lon="0.20858">
        <ele>2325.8</ele>
        <time>2017-02-23T12:33:39Z</time>
      </trkpt>
      <trkpt lat="42.75253" lon="0.20859">
        <ele>2326</ele>
        <time>2017-02-23T12:33:44Z</time>
      </trkpt>
      <trkpt lat="42.75253" lon="0.20859">
        <ele>2326.2</ele>
        <time>2017-02-23T12:33:49Z</time>
      </trkpt>
      <trkpt lat="42.75253" lon="0.20859">
        <ele>2326.4</ele>
        <time>2017-02-23T12:33:54Z</time>
      </trkpt>
      <trkpt lat="42.75253" lon="0.20859">
        <ele>2326.4</ele>
        <time>2017-02-23T12:33:59Z</time>
      </trkpt>
      <trkpt lat="42.75253" lon="0.20859">
        <ele>2325.8</ele>
        <time>2017-02-23T12:34:04Z</time>
      </trkpt>
      <trkpt lat="42.75253" lon="0.20859">
        <ele>2325.4</ele>
        <time>2017-02-23T12:34:09Z</time>
      </trkpt>
      <trkpt lat="42.75253" lon="0.20857">
        <ele>2324.6</ele>
        <time>2017-02-23T12:34:14Z</time>
      </trkpt>
      <trkpt lat="42.75251" lon="0.20858">
        <ele>2323.4</ele>
        <time>2017-02-23T12:34:19Z</time>
      </trkpt>
      <trkpt lat="42.75251" lon="0.20858">
        <ele>2322.6</ele>
        <time>2017-02-23T12:34:24Z</time>
      </trkpt>
      <trkpt lat="42.75251" lon="0.20858">
        <ele>2321.8</ele>
        <time>2017-02-23T12:34:29Z</time>
      </trkpt>
      <trkpt lat="42.75251" lon="0.20857">
        <ele>2321.2</ele>
        <time>2017-02-23T12:34:34Z</time>
      </trkpt>
      <trkpt lat="42.75252" lon="0.20857">
        <ele>2320.8</ele>
        <time>2017-02-23T12:34:39Z</time>
      </trkpt>
      <trkpt lat="42.75253" lon="0.20857">
        <ele>2319.6</ele>
        <time>2017-02-23T12:34:44Z</time>
      </trkpt>
      <trkpt lat="42.75253" lon="0.20857">
        <ele>2318.8</ele>
        <time>2017-02-23T12:34:49Z</time>
      </trkpt>
      <trkpt lat="42.75253" lon="0.20857">
        <ele>2318.6</ele>
        <time>2017-02-23T12:34:54Z</time>
      </trkpt>
      <trkpt lat="42.75253" lon="0.20858">
        <ele>2318.8</ele>
        <time>2017-02-23T12:34:59Z</time>
      </trkpt>
      <trkpt lat="42.75253" lon="0.20858">
        <ele>2318</ele>
        <time>2017-02-23T12:35:04Z</time>
      </trkpt>
      <trkpt lat="42.75254" lon="0.20858">
        <ele>2316</ele>
        <time>2017-02-23T12:35:09Z</time>
      </trkpt>
      <trkpt lat="42.75267" lon="0.20871">
        <ele>2309.4</ele>
        <time>2017-02-23T12:35:14Z</time>
      </trkpt>
      <trkpt lat="42.75287" lon="0.20859">
        <ele>2306.2</ele>
        <time>2017-02-23T12:35:19Z</time>
      </trkpt>
      <trkpt lat="42.75309" lon="0.20843">
        <ele>2299.4</ele>
        <time>2017-02-23T12:35:24Z</time>
      </trkpt>
      <trkpt lat="42.75324" lon="0.20817">
        <ele>2295</ele>
        <time>2017-02-23T12:35:29Z</time>
      </trkpt>
      <trkpt lat="42.7534" lon="0.20786">
        <ele>2293</ele>
        <time>2017-02-23T12:35:34Z</time>
      </trkpt>
      <trkpt lat="42.75354" lon="0.20767">
        <ele>2287.6</ele>
        <time>2017-02-23T12:35:39Z</time>
      </trkpt>
      <trkpt lat="42.75378" lon="0.20768">
        <ele>2279.6</ele>
        <time>2017-02-23T12:35:44Z</time>
      </trkpt>
      <trkpt lat="42.75403" lon="0.20753">
        <ele>2276.2</ele>
        <time>2017-02-23T12:35:49Z</time>
      </trkpt>
      <trkpt lat="42.75427" lon="0.20741">
        <ele>2274.8</ele>
        <time>2017-02-23T12:35:54Z</time>
      </trkpt>
      <trkpt lat="42.75455" lon="0.20731">
        <ele>2268.2</ele>
        <time>2017-02-23T12:35:59Z</time>
      </trkpt>
      <trkpt lat="42.75486" lon="0.20723">
        <ele>2265.8</ele>
        <time>2017-02-23T12:36:04Z</time>
      </trkpt>
      <trkpt lat="42.7551" lon="0.20719">
        <ele>2261.8</ele>
        <time>2017-02-23T12:36:09Z</time>
      </trkpt>
      <trkpt lat="42.75526" lon="0.20718">
        <ele>2259.8</ele>
        <time>2017-02-23T12:36:14Z</time>
      </trkpt>
      <trkpt lat="42.75541" lon="0.2072">
        <ele>2253.2</ele>
        <time>2017-02-23T12:36:19Z</time>
      </trkpt>
      <trkpt lat="42.75556" lon="0.20719">
        <ele>2254</ele>
        <time>2017-02-23T12:36:24Z</time>
      </trkpt>
      <trkpt lat="42.75573" lon="0.20717">
        <ele>2250.4</ele>
        <time>2017-02-23T12:36:29Z</time>
      </trkpt>
      <trkpt lat="42.75596" lon="0.20716">
        <ele>2242.8</ele>
        <time>2017-02-23T12:36:34Z</time>
      </trkpt>
      <trkpt lat="42.75618" lon="0.2071">
        <ele>2241.4</ele>
        <time>2017-02-23T12:36:39Z</time>
      </trkpt>
      <trkpt lat="42.75639" lon="0.20712">
        <ele>2239</ele>
        <time>2017-02-23T12:36:44Z</time>
      </trkpt>
      <trkpt lat="42.75665" lon="0.20731">
        <ele>2238.2</ele>
        <time>2017-02-23T12:36:49Z</time>
      </trkpt>
      <trkpt lat="42.75678" lon="0.20744">
        <ele>2234.6</ele>
        <time>2017-02-23T12:36:54Z</time>
      </trkpt>
      <trkpt lat="42.75685" lon="0.20751">
        <ele>2232.6</ele>
        <time>2017-02-23T12:36:59Z</time>
      </trkpt>
      <trkpt lat="42.75685" lon="0.20751">
        <ele>2233.8</ele>
        <time>2017-02-23T12:37:04Z</time>
      </trkpt>
      <trkpt lat="42.75685" lon="0.20751">
        <ele>2234.6</ele>
        <time>2017-02-23T12:37:09Z</time>
      </trkpt>
      <trkpt lat="42.75685" lon="0.2075">
        <ele>2235.2</ele>
        <time>2017-02-23T12:37:14Z</time>
      </trkpt>
      <trkpt lat="42.75685" lon="0.2075">
        <ele>2235.6</ele>
        <time>2017-02-23T12:37:19Z</time>
      </trkpt>
      <trkpt lat="42.75685" lon="0.2075">
        <ele>2235.8</ele>
        <time>2017-02-23T12:37:24Z</time>
      </trkpt>
      <trkpt lat="42.75685" lon="0.20749">
        <ele>2236.8</ele>
        <time>2017-02-23T12:37:29Z</time>
      </trkpt>
      <trkpt lat="42.75685" lon="0.20749">
        <ele>2236.8</ele>
        <time>2017-02-23T12:37:34Z</time>
      </trkpt>
      <trkpt lat="42.75685" lon="0.20749">
        <ele>2236.6</ele>
        <time>2017-02-23T12:37:39Z</time>
      </trkpt>
      <trkpt lat="42.75685" lon="0.20749">
        <ele>2236.2</ele>
        <time>2017-02-23T12:37:44Z</time>
      </trkpt>
      <trkpt lat="42.75685" lon="0.2075">
        <ele>2235.8</ele>
        <time>2017-02-23T12:37:49Z</time>
      </trkpt>
      <trkpt lat="42.75685" lon="0.2075">
        <ele>2235.2</ele>
        <time>2017-02-23T12:37:54Z</time>
      </trkpt>
      <trkpt lat="42.75685" lon="0.20751">
        <ele>2234.6</ele>
        <time>2017-02-23T12:37:59Z</time>
      </trkpt>
      <trkpt lat="42.75686" lon="0.20751">
        <ele>2234.2</ele>
        <time>2017-02-23T12:38:04Z</time>
      </trkpt>
      <trkpt lat="42.75686" lon="0.20751">
        <ele>2233.8</ele>
        <time>2017-02-23T12:38:09Z</time>
      </trkpt>
      <trkpt lat="42.75685" lon="0.2075">
        <ele>2233.6</ele>
        <time>2017-02-23T12:38:14Z</time>
      </trkpt>
      <trkpt lat="42.75685" lon="0.2075">
        <ele>2233.6</ele>
        <time>2017-02-23T12:38:19Z</time>
      </trkpt>
      <trkpt lat="42.75689" lon="0.20752">
        <ele>2233.6</ele>
        <time>2017-02-23T12:38:24Z</time>
      </trkpt>
      <trkpt lat="42.75696" lon="0.20735">
        <ele>2229.8</ele>
        <time>2017-02-23T12:38:29Z</time>
      </trkpt>
      <trkpt lat="42.75704" lon="0.20707">
        <ele>2223.6</ele>
        <time>2017-02-23T12:38:34Z</time>
      </trkpt>
      <trkpt lat="42.75717" lon="0.20689">
        <ele>2223.6</ele>
        <time>2017-02-23T12:38:39Z</time>
      </trkpt>
      <trkpt lat="42.75734" lon="0.2068">
        <ele>2215.8</ele>
        <time>2017-02-23T12:38:44Z</time>
      </trkpt>
      <trkpt lat="42.75761" lon="0.20673">
        <ele>2204.8</ele>
        <time>2017-02-23T12:38:49Z</time>
      </trkpt>
      <trkpt lat="42.75788" lon="0.20659">
        <ele>2195.4</ele>
        <time>2017-02-23T12:38:54Z</time>
      </trkpt>
      <trkpt lat="42.75813" lon="0.20665">
        <ele>2189.2</ele>
        <time>2017-02-23T12:38:59Z</time>
      </trkpt>
      <trkpt lat="42.75833" lon="0.20668">
        <ele>2180.8</ele>
        <time>2017-02-23T12:39:04Z</time>
      </trkpt>
      <trkpt lat="42.75833" lon="0.20668">
        <ele>2179</ele>
        <time>2017-02-23T12:39:09Z</time>
      </trkpt>
      <trkpt lat="42.75833" lon="0.20668">
        <ele>2177.6</ele>
        <time>2017-02-23T12:39:14Z</time>
      </trkpt>
      <trkpt lat="42.75845" lon="0.20669">
        <ele>2173</ele>
        <time>2017-02-23T12:39:19Z</time>
      </trkpt>
      <trkpt lat="42.75869" lon="0.2067">
        <ele>2167.4</ele>
        <time>2017-02-23T12:39:24Z</time>
      </trkpt>
      <trkpt lat="42.75866" lon="0.20657">
        <ele>2164.2</ele>
        <time>2017-02-23T12:39:29Z</time>
      </trkpt>
      <trkpt lat="42.75866" lon="0.20657">
        <ele>2163.8</ele>
        <time>2017-02-23T12:39:34Z</time>
      </trkpt>
      <trkpt lat="42.75865" lon="0.20653">
        <ele>2163.4</ele>
        <time>2017-02-23T12:39:39Z</time>
      </trkpt>
      <trkpt lat="42.7586" lon="0.20636">
        <ele>2160.8</ele>
        <time>2017-02-23T12:39:44Z</time>
      </trkpt>
      <trkpt lat="42.75871" lon="0.20628">
        <ele>2154.6</ele>
        <time>2017-02-23T12:39:49Z</time>
      </trkpt>
      <trkpt lat="42.75886" lon="0.20622">
        <ele>2148</ele>
        <time>2017-02-23T12:39:54Z</time>
      </trkpt>
      <trkpt lat="42.75899" lon="0.20645">
        <ele>2143.8</ele>
        <time>2017-02-23T12:39:59Z</time>
      </trkpt>
      <trkpt lat="42.75912" lon="0.20657">
        <ele>2135.4</ele>
        <time>2017-02-23T12:40:04Z</time>
      </trkpt>
      <trkpt lat="42.7592" lon="0.20636">
        <ele>2125.2</ele>
        <time>2017-02-23T12:40:09Z</time>
      </trkpt>
      <trkpt lat="42.75927" lon="0.20614">
        <ele>2113.8</ele>
        <time>2017-02-23T12:40:14Z</time>
      </trkpt>
      <trkpt lat="42.75935" lon="0.20594">
        <ele>2100</ele>
        <time>2017-02-23T12:40:19Z</time>
      </trkpt>
      <trkpt lat="42.75944" lon="0.20568">
        <ele>2089.2</ele>
        <time>2017-02-23T12:40:24Z</time>
      </trkpt>
      <trkpt lat="42.75942" lon="0.20545">
        <ele>2081.8</ele>
        <time>2017-02-23T12:40:29Z</time>
      </trkpt>
      <trkpt lat="42.75956" lon="0.20537">
        <ele>2076.4</ele>
        <time>2017-02-23T12:40:34Z</time>
      </trkpt>
      <trkpt lat="42.75962" lon="0.20532">
        <ele>2071.8</ele>
        <time>2017-02-23T12:40:39Z</time>
      </trkpt>
      <trkpt lat="42.75962" lon="0.20533">
        <ele>2071.2</ele>
        <time>2017-02-23T12:40:44Z</time>
      </trkpt>
      <trkpt lat="42.75962" lon="0.20533">
        <ele>2070.4</ele>
        <time>2017-02-23T12:40:49Z</time>
      </trkpt>
      <trkpt lat="42.75962" lon="0.20534">
        <ele>2069.6</ele>
        <time>2017-02-23T12:40:54Z</time>
      </trkpt>
      <trkpt lat="42.75962" lon="0.20535">
        <ele>2068.6</ele>
        <time>2017-02-23T12:40:59Z</time>
      </trkpt>
      <trkpt lat="42.75962" lon="0.20536">
        <ele>2067.2</ele>
        <time>2017-02-23T12:41:04Z</time>
      </trkpt>
      <trkpt lat="42.75962" lon="0.20537">
        <ele>2065.8</ele>
        <time>2017-02-23T12:41:09Z</time>
      </trkpt>
      <trkpt lat="42.75962" lon="0.20538">
        <ele>2064.6</ele>
        <time>2017-02-23T12:41:14Z</time>
      </trkpt>
      <trkpt lat="42.75961" lon="0.20539">
        <ele>2063.2</ele>
        <time>2017-02-23T12:41:19Z</time>
      </trkpt>
      <trkpt lat="42.75961" lon="0.20541">
        <ele>2061.8</ele>
        <time>2017-02-23T12:41:24Z</time>
      </trkpt>
      <trkpt lat="42.75961" lon="0.20541">
        <ele>2060.2</ele>
        <time>2017-02-23T12:41:29Z</time>
      </trkpt>
      <trkpt lat="42.75961" lon="0.20541">
        <ele>2058.6</ele>
        <time>2017-02-23T12:41:34Z</time>
      </trkpt>
      <trkpt lat="42.75961" lon="0.20541">
        <ele>2057.6</ele>
        <time>2017-02-23T12:41:39Z</time>
      </trkpt>
      <trkpt lat="42.75961" lon="0.20541">
        <ele>2057</ele>
        <time>2017-02-23T12:41:44Z</time>
      </trkpt>
      <trkpt lat="42.75961" lon="0.20541">
        <ele>2056.6</ele>
        <time>2017-02-23T12:41:49Z</time>
      </trkpt>
      <trkpt lat="42.75961" lon="0.20541">
        <ele>2056.2</ele>
        <time>2017-02-23T12:41:54Z</time>
      </trkpt>
      <trkpt lat="42.75961" lon="0.20541">
        <ele>2056.2</ele>
        <time>2017-02-23T12:41:59Z</time>
      </trkpt>
      <trkpt lat="42.75961" lon="0.20541">
        <ele>2056</ele>
        <time>2017-02-23T12:42:04Z</time>
      </trkpt>
      <trkpt lat="42.75961" lon="0.20541">
        <ele>2055.8</ele>
        <time>2017-02-23T12:42:09Z</time>
      </trkpt>
      <trkpt lat="42.75961" lon="0.20541">
        <ele>2055.8</ele>
        <time>2017-02-23T12:42:14Z</time>
      </trkpt>
      <trkpt lat="42.75961" lon="0.20541">
        <ele>2055.8</ele>
        <time>2017-02-23T12:42:19Z</time>
      </trkpt>
      <trkpt lat="42.75962" lon="0.20541">
        <ele>2055.8</ele>
        <time>2017-02-23T12:42:24Z</time>
      </trkpt>
      <trkpt lat="42.75962" lon="0.20541">
        <ele>2056</ele>
        <time>2017-02-23T12:42:29Z</time>
      </trkpt>
      <trkpt lat="42.75962" lon="0.20541">
        <ele>2056.4</ele>
        <time>2017-02-23T12:42:34Z</time>
      </trkpt>
      <trkpt lat="42.75962" lon="0.20541">
        <ele>2056.8</ele>
        <time>2017-02-23T12:42:39Z</time>
      </trkpt>
      <trkpt lat="42.75962" lon="0.20541">
        <ele>2057.2</ele>
        <time>2017-02-23T12:42:44Z</time>
      </trkpt>
      <trkpt lat="42.75962" lon="0.20541">
        <ele>2057.6</ele>
        <time>2017-02-23T12:42:49Z</time>
      </trkpt>
      <trkpt lat="42.75962" lon="0.20541">
        <ele>2058</ele>
        <time>2017-02-23T12:42:54Z</time>
      </trkpt>
      <trkpt lat="42.75962" lon="0.2054">
        <ele>2058.2</ele>
        <time>2017-02-23T12:42:59Z</time>
      </trkpt>
      <trkpt lat="42.75962" lon="0.2054">
        <ele>2058.6</ele>
        <time>2017-02-23T12:43:04Z</time>
      </trkpt>
      <trkpt lat="42.75962" lon="0.2054">
        <ele>2059</ele>
        <time>2017-02-23T12:43:09Z</time>
      </trkpt>
      <trkpt lat="42.75962" lon="0.2054">
        <ele>2059.2</ele>
        <time>2017-02-23T12:43:14Z</time>
      </trkpt>
      <trkpt lat="42.75963" lon="0.2054">
        <ele>2059.6</ele>
        <time>2017-02-23T12:43:19Z</time>
      </trkpt>
      <trkpt lat="42.75963" lon="0.20539">
        <ele>2060</ele>
        <time>2017-02-23T12:43:24Z</time>
      </trkpt>
      <trkpt lat="42.75963" lon="0.20539">
        <ele>2060.4</ele>
        <time>2017-02-23T12:43:29Z</time>
      </trkpt>
      <trkpt lat="42.75963" lon="0.20539">
        <ele>2060.8</ele>
        <time>2017-02-23T12:43:34Z</time>
      </trkpt>
      <trkpt lat="42.75963" lon="0.20538">
        <ele>2061.2</ele>
        <time>2017-02-23T12:43:39Z</time>
      </trkpt>
      <trkpt lat="42.75963" lon="0.20539">
        <ele>2061.4</ele>
        <time>2017-02-23T12:43:44Z</time>
      </trkpt>
      <trkpt lat="42.75963" lon="0.20538">
        <ele>2061.6</ele>
        <time>2017-02-23T12:43:49Z</time>
      </trkpt>
      <trkpt lat="42.75963" lon="0.20538">
        <ele>2061.8</ele>
        <time>2017-02-23T12:43:54Z</time>
      </trkpt>
      <trkpt lat="42.75963" lon="0.20538">
        <ele>2061.8</ele>
        <time>2017-02-23T12:43:59Z</time>
      </trkpt>
      <trkpt lat="42.75965" lon="0.2054">
        <ele>2060.8</ele>
        <time>2017-02-23T12:44:04Z</time>
      </trkpt>
      <trkpt lat="42.75983" lon="0.20538">
        <ele>2057.2</ele>
        <time>2017-02-23T12:44:09Z</time>
      </trkpt>
      <trkpt lat="42.75992" lon="0.20508">
        <ele>2046.2</ele>
        <time>2017-02-23T12:44:14Z</time>
      </trkpt>
      <trkpt lat="42.76011" lon="0.20482">
        <ele>2041.6</ele>
        <time>2017-02-23T12:44:19Z</time>
      </trkpt>
      <trkpt lat="42.7603" lon="0.2046">
        <ele>2036</ele>
        <time>2017-02-23T12:44:24Z</time>
      </trkpt>
      <trkpt lat="42.76051" lon="0.20453">
        <ele>2030.2</ele>
        <time>2017-02-23T12:44:29Z</time>
      </trkpt>
      <trkpt lat="42.76053" lon="0.20428">
        <ele>2020.4</ele>
        <time>2017-02-23T12:44:34Z</time>
      </trkpt>
      <trkpt lat="42.76064" lon="0.20407">
        <ele>2012.2</ele>
        <time>2017-02-23T12:44:39Z</time>
      </trkpt>
      <trkpt lat="42.76083" lon="0.20409">
        <ele>2010</ele>
        <time>2017-02-23T12:44:44Z</time>
      </trkpt>
      <trkpt lat="42.76086" lon="0.20381">
        <ele>2004.4</ele>
        <time>2017-02-23T12:44:49Z</time>
      </trkpt>
      <trkpt lat="42.76086" lon="0.20374">
        <ele>2003</ele>
        <time>2017-02-23T12:44:54Z</time>
      </trkpt>
      <trkpt lat="42.76086" lon="0.20372">
        <ele>2002.6</ele>
        <time>2017-02-23T12:44:59Z</time>
      </trkpt>
      <trkpt lat="42.76084" lon="0.20358">
        <ele>1996.2</ele>
        <time>2017-02-23T12:45:05Z</time>
      </trkpt>
      <trkpt lat="42.76095" lon="0.20341">
        <ele>1989.8</ele>
        <time>2017-02-23T12:45:10Z</time>
      </trkpt>
      <trkpt lat="42.76092" lon="0.20337">
        <ele>1987.8</ele>
        <time>2017-02-23T12:45:15Z</time>
      </trkpt>
      <trkpt lat="42.76093" lon="0.20338">
        <ele>1986.2</ele>
        <time>2017-02-23T12:45:21Z</time>
      </trkpt>
      <trkpt lat="42.76093" lon="0.20339">
        <ele>1985</ele>
        <time>2017-02-23T12:45:26Z</time>
      </trkpt>
      <trkpt lat="42.76092" lon="0.2034">
        <ele>1984</ele>
        <time>2017-02-23T12:45:31Z</time>
      </trkpt>
      <trkpt lat="42.76093" lon="0.2034">
        <ele>1983.2</ele>
        <time>2017-02-23T12:45:36Z</time>
      </trkpt>
      <trkpt lat="42.76092" lon="0.2034">
        <ele>1982.6</ele>
        <time>2017-02-23T12:45:41Z</time>
      </trkpt>
      <trkpt lat="42.76082" lon="0.20326">
        <ele>1978.8</ele>
        <time>2017-02-23T12:45:46Z</time>
      </trkpt>
      <trkpt lat="42.76073" lon="0.20296">
        <ele>1969.2</ele>
        <time>2017-02-23T12:45:51Z</time>
      </trkpt>
      <trkpt lat="42.7608" lon="0.2027">
        <ele>1965.8</ele>
        <time>2017-02-23T12:45:56Z</time>
      </trkpt>
      <trkpt lat="42.76095" lon="0.20252">
        <ele>1954</ele>
        <time>2017-02-23T12:46:01Z</time>
      </trkpt>
      <trkpt lat="42.76103" lon="0.20254">
        <ele>1957</ele>
        <time>2017-02-23T12:46:06Z</time>
      </trkpt>
      <trkpt lat="42.76103" lon="0.20254">
        <ele>1957</ele>
        <time>2017-02-23T12:46:11Z</time>
      </trkpt>
      <trkpt lat="42.76103" lon="0.20255">
        <ele>1956.8</ele>
        <time>2017-02-23T12:46:16Z</time>
      </trkpt>
      <trkpt lat="42.76103" lon="0.20255">
        <ele>1956.6</ele>
        <time>2017-02-23T12:46:21Z</time>
      </trkpt>
      <trkpt lat="42.76103" lon="0.20255">
        <ele>1956.4</ele>
        <time>2017-02-23T12:46:26Z</time>
      </trkpt>
      <trkpt lat="42.76103" lon="0.20255">
        <ele>1956.2</ele>
        <time>2017-02-23T12:46:31Z</time>
      </trkpt>
      <trkpt lat="42.76103" lon="0.20255">
        <ele>1956.2</ele>
        <time>2017-02-23T12:46:36Z</time>
      </trkpt>
      <trkpt lat="42.76103" lon="0.20255">
        <ele>1956</ele>
        <time>2017-02-23T12:46:41Z</time>
      </trkpt>
      <trkpt lat="42.76103" lon="0.20256">
        <ele>1955.4</ele>
        <time>2017-02-23T12:46:46Z</time>
      </trkpt>
      <trkpt lat="42.76103" lon="0.20256">
        <ele>1955.2</ele>
        <time>2017-02-23T12:46:51Z</time>
      </trkpt>
      <trkpt lat="42.76103" lon="0.20256">
        <ele>1954.8</ele>
        <time>2017-02-23T12:46:56Z</time>
      </trkpt>
      <trkpt lat="42.76103" lon="0.20256">
        <ele>1954.6</ele>
        <time>2017-02-23T12:47:01Z</time>
      </trkpt>
      <trkpt lat="42.76103" lon="0.20256">
        <ele>1954.2</ele>
        <time>2017-02-23T12:47:06Z</time>
      </trkpt>
      <trkpt lat="42.76106" lon="0.20255">
        <ele>1952</ele>
        <time>2017-02-23T12:47:11Z</time>
      </trkpt>
      <trkpt lat="42.76113" lon="0.20233">
        <ele>1947.8</ele>
        <time>2017-02-23T12:47:16Z</time>
      </trkpt>
      <trkpt lat="42.76112" lon="0.2022">
        <ele>1943.6</ele>
        <time>2017-02-23T12:47:21Z</time>
      </trkpt>
      <trkpt lat="42.76112" lon="0.20221">
        <ele>1943</ele>
        <time>2017-02-23T12:47:26Z</time>
      </trkpt>
      <trkpt lat="42.76112" lon="0.20221">
        <ele>1942.4</ele>
        <time>2017-02-23T12:47:31Z</time>
      </trkpt>
      <trkpt lat="42.76112" lon="0.20221">
        <ele>1942</ele>
        <time>2017-02-23T12:47:36Z</time>
      </trkpt>
      <trkpt lat="42.76112" lon="0.20221">
        <ele>1941.6</ele>
        <time>2017-02-23T12:47:41Z</time>
      </trkpt>
      <trkpt lat="42.76112" lon="0.20221">
        <ele>1942.2</ele>
        <time>2017-02-23T12:47:46Z</time>
      </trkpt>
      <trkpt lat="42.76112" lon="0.20221">
        <ele>1941</ele>
        <time>2017-02-23T12:47:51Z</time>
      </trkpt>
      <trkpt lat="42.76112" lon="0.20221">
        <ele>1940.2</ele>
        <time>2017-02-23T12:47:56Z</time>
      </trkpt>
      <trkpt lat="42.76112" lon="0.20221">
        <ele>1939.6</ele>
        <time>2017-02-23T12:48:01Z</time>
      </trkpt>
      <trkpt lat="42.76112" lon="0.20221">
        <ele>1939</ele>
        <time>2017-02-23T12:48:06Z</time>
      </trkpt>
      <trkpt lat="42.76112" lon="0.20221">
        <ele>1938.6</ele>
        <time>2017-02-23T12:48:11Z</time>
      </trkpt>
      <trkpt lat="42.76112" lon="0.2022">
        <ele>1938.4</ele>
        <time>2017-02-23T12:48:16Z</time>
      </trkpt>
      <trkpt lat="42.76112" lon="0.2022">
        <ele>1938.2</ele>
        <time>2017-02-23T12:48:21Z</time>
      </trkpt>
      <trkpt lat="42.76112" lon="0.2022">
        <ele>1937.8</ele>
        <time>2017-02-23T12:48:26Z</time>
      </trkpt>
      <trkpt lat="42.76112" lon="0.2022">
        <ele>1937.8</ele>
        <time>2017-02-23T12:48:31Z</time>
      </trkpt>
      <trkpt lat="42.76112" lon="0.2022">
        <ele>1937.6</ele>
        <time>2017-02-23T12:48:36Z</time>
      </trkpt>
      <trkpt lat="42.76112" lon="0.2022">
        <ele>1937.4</ele>
        <time>2017-02-23T12:48:41Z</time>
      </trkpt>
      <trkpt lat="42.76112" lon="0.2022">
        <ele>1937.4</ele>
        <time>2017-02-23T12:48:46Z</time>
      </trkpt>
      <trkpt lat="42.76112" lon="0.20221">
        <ele>1937.4</ele>
        <time>2017-02-23T12:48:51Z</time>
      </trkpt>
      <trkpt lat="42.76112" lon="0.20221">
        <ele>1937.2</ele>
        <time>2017-02-23T12:48:56Z</time>
      </trkpt>
      <trkpt lat="42.76112" lon="0.20221">
        <ele>1937.2</ele>
        <time>2017-02-23T12:49:01Z</time>
      </trkpt>
      <trkpt lat="42.76111" lon="0.2022">
        <ele>1937</ele>
        <time>2017-02-23T12:49:06Z</time>
      </trkpt>
      <trkpt lat="42.76111" lon="0.2022">
        <ele>1936.8</ele>
        <time>2017-02-23T12:49:11Z</time>
      </trkpt>
      <trkpt lat="42.76111" lon="0.2022">
        <ele>1936.8</ele>
        <time>2017-02-23T12:49:16Z</time>
      </trkpt>
      <trkpt lat="42.76111" lon="0.2022">
        <ele>1936.8</ele>
        <time>2017-02-23T12:49:21Z</time>
      </trkpt>
      <trkpt lat="42.76111" lon="0.2022">
        <ele>1936.6</ele>
        <time>2017-02-23T12:49:26Z</time>
      </trkpt>
      <trkpt lat="42.76111" lon="0.20219">
        <ele>1935.4</ele>
        <time>2017-02-23T12:49:31Z</time>
      </trkpt>
      <trkpt lat="42.76111" lon="0.20219">
        <ele>1935.8</ele>
        <time>2017-02-23T12:49:36Z</time>
      </trkpt>
      <trkpt lat="42.76111" lon="0.20219">
        <ele>1936</ele>
        <time>2017-02-23T12:49:41Z</time>
      </trkpt>
      <trkpt lat="42.76111" lon="0.20219">
        <ele>1936</ele>
        <time>2017-02-23T12:49:46Z</time>
      </trkpt>
      <trkpt lat="42.76111" lon="0.20219">
        <ele>1936.2</ele>
        <time>2017-02-23T12:49:51Z</time>
      </trkpt>
      <trkpt lat="42.76111" lon="0.20219">
        <ele>1936.2</ele>
        <time>2017-02-23T12:49:56Z</time>
      </trkpt>
      <trkpt lat="42.76112" lon="0.20219">
        <ele>1936.2</ele>
        <time>2017-02-23T12:50:01Z</time>
      </trkpt>
      <trkpt lat="42.76112" lon="0.20219">
        <ele>1936.4</ele>
        <time>2017-02-23T12:50:06Z</time>
      </trkpt>
      <trkpt lat="42.76112" lon="0.20218">
        <ele>1936.2</ele>
        <time>2017-02-23T12:50:11Z</time>
      </trkpt>
      <trkpt lat="42.76112" lon="0.20217">
        <ele>1936.8</ele>
        <time>2017-02-23T12:50:16Z</time>
      </trkpt>
      <trkpt lat="42.76107" lon="0.20202">
        <ele>1934.2</ele>
        <time>2017-02-23T12:50:21Z</time>
      </trkpt>
      <trkpt lat="42.76111" lon="0.20175">
        <ele>1926.4</ele>
        <time>2017-02-23T12:50:26Z</time>
      </trkpt>
      <trkpt lat="42.76111" lon="0.20151">
        <ele>1920.4</ele>
        <time>2017-02-23T12:50:31Z</time>
      </trkpt>
      <trkpt lat="42.76109" lon="0.20133">
        <ele>1918.6</ele>
        <time>2017-02-23T12:50:36Z</time>
      </trkpt>
      <trkpt lat="42.76109" lon="0.20133">
        <ele>1920</ele>
        <time>2017-02-23T12:50:41Z</time>
      </trkpt>
      <trkpt lat="42.76109" lon="0.20133">
        <ele>1920.6</ele>
        <time>2017-02-23T12:50:46Z</time>
      </trkpt>
      <trkpt lat="42.76109" lon="0.20133">
        <ele>1920.8</ele>
        <time>2017-02-23T12:50:51Z</time>
      </trkpt>
      <trkpt lat="42.76109" lon="0.20133">
        <ele>1921</ele>
        <time>2017-02-23T12:50:56Z</time>
      </trkpt>
      <trkpt lat="42.76109" lon="0.20133">
        <ele>1920.8</ele>
        <time>2017-02-23T12:51:01Z</time>
      </trkpt>
      <trkpt lat="42.76109" lon="0.20132">
        <ele>1921.2</ele>
        <time>2017-02-23T12:51:06Z</time>
      </trkpt>
      <trkpt lat="42.76107" lon="0.20124">
        <ele>1920.2</ele>
        <time>2017-02-23T12:51:11Z</time>
      </trkpt>
      <trkpt lat="42.76106" lon="0.20117">
        <ele>1913.8</ele>
        <time>2017-02-23T12:51:16Z</time>
      </trkpt>
      <trkpt lat="42.76106" lon="0.20116">
        <ele>1910.4</ele>
        <time>2017-02-23T12:51:21Z</time>
      </trkpt>
      <trkpt lat="42.76106" lon="0.20114">
        <ele>1910.8</ele>
        <time>2017-02-23T12:51:26Z</time>
      </trkpt>
      <trkpt lat="42.76106" lon="0.20114">
        <ele>1909.2</ele>
        <time>2017-02-23T12:51:31Z</time>
      </trkpt>
      <trkpt lat="42.76106" lon="0.20114">
        <ele>1909.6</ele>
        <time>2017-02-23T12:51:36Z</time>
      </trkpt>
      <trkpt lat="42.76106" lon="0.20114">
        <ele>1909.8</ele>
        <time>2017-02-23T12:51:41Z</time>
      </trkpt>
      <trkpt lat="42.76106" lon="0.20114">
        <ele>1910</ele>
        <time>2017-02-23T12:51:46Z</time>
      </trkpt>
      <trkpt lat="42.76104" lon="0.2011">
        <ele>1908</ele>
        <time>2017-02-23T12:51:51Z</time>
      </trkpt>
      <trkpt lat="42.76093" lon="0.20097">
        <ele>1900.8</ele>
        <time>2017-02-23T12:51:56Z</time>
      </trkpt>
      <trkpt lat="42.76103" lon="0.20077">
        <ele>1901.2</ele>
        <time>2017-02-23T12:52:01Z</time>
      </trkpt>
      <trkpt lat="42.761" lon="0.20063">
        <ele>1901.2</ele>
        <time>2017-02-23T12:52:06Z</time>
      </trkpt>
      <trkpt lat="42.761" lon="0.20061">
        <ele>1901.2</ele>
        <time>2017-02-23T12:52:11Z</time>
      </trkpt>
      <trkpt lat="42.76099" lon="0.20062">
        <ele>1900.8</ele>
        <time>2017-02-23T12:52:16Z</time>
      </trkpt>
      <trkpt lat="42.76099" lon="0.20062">
        <ele>1900.2</ele>
        <time>2017-02-23T12:52:21Z</time>
      </trkpt>
      <trkpt lat="42.76099" lon="0.20062">
        <ele>1899.6</ele>
        <time>2017-02-23T12:52:26Z</time>
      </trkpt>
      <trkpt lat="42.76099" lon="0.20062">
        <ele>1899.4</ele>
        <time>2017-02-23T12:52:31Z</time>
      </trkpt>
      <trkpt lat="42.76099" lon="0.20062">
        <ele>1899</ele>
        <time>2017-02-23T12:52:36Z</time>
      </trkpt>
      <trkpt lat="42.76099" lon="0.20062">
        <ele>1898.8</ele>
        <time>2017-02-23T12:52:41Z</time>
      </trkpt>
      <trkpt lat="42.76099" lon="0.20062">
        <ele>1898.6</ele>
        <time>2017-02-23T12:52:46Z</time>
      </trkpt>
      <trkpt lat="42.76099" lon="0.20062">
        <ele>1898.4</ele>
        <time>2017-02-23T12:52:51Z</time>
      </trkpt>
      <trkpt lat="42.76098" lon="0.20061">
        <ele>1902</ele>
        <time>2017-02-23T12:52:56Z</time>
      </trkpt>
      <trkpt lat="42.76095" lon="0.20039">
        <ele>1895.6</ele>
        <time>2017-02-23T12:53:01Z</time>
      </trkpt>
      <trkpt lat="42.76097" lon="0.20031">
        <ele>1890.6</ele>
        <time>2017-02-23T12:53:06Z</time>
      </trkpt>
      <trkpt lat="42.76107" lon="0.20017">
        <ele>1887.2</ele>
        <time>2017-02-23T12:53:11Z</time>
      </trkpt>
      <trkpt lat="42.76113" lon="0.20018">
        <ele>1881</ele>
        <time>2017-02-23T12:53:16Z</time>
      </trkpt>
      <trkpt lat="42.7611" lon="0.20012">
        <ele>1883.4</ele>
        <time>2017-02-23T12:53:21Z</time>
      </trkpt>
      <trkpt lat="42.76106" lon="0.20006">
        <ele>1882.6</ele>
        <time>2017-02-23T12:53:26Z</time>
      </trkpt>
      <trkpt lat="42.76102" lon="0.19995">
        <ele>1873.2</ele>
        <time>2017-02-23T12:53:31Z</time>
      </trkpt>
      <trkpt lat="42.76108" lon="0.1999">
        <ele>1872.6</ele>
        <time>2017-02-23T12:53:36Z</time>
      </trkpt>
      <trkpt lat="42.76109" lon="0.19991">
        <ele>1873.2</ele>
        <time>2017-02-23T12:53:41Z</time>
      </trkpt>
      <trkpt lat="42.76111" lon="0.19984">
        <ele>1868.8</ele>
        <time>2017-02-23T12:53:46Z</time>
      </trkpt>
      <trkpt lat="42.76107" lon="0.19978">
        <ele>1867.2</ele>
        <time>2017-02-23T12:53:51Z</time>
      </trkpt>
      <trkpt lat="42.76101" lon="0.19977">
        <ele>1869.8</ele>
        <time>2017-02-23T12:53:56Z</time>
      </trkpt>
      <trkpt lat="42.761" lon="0.19976">
        <ele>1869.4</ele>
        <time>2017-02-23T12:54:01Z</time>
      </trkpt>
      <trkpt lat="42.761" lon="0.19973">
        <ele>1870.6</ele>
        <time>2017-02-23T12:54:06Z</time>
      </trkpt>
      <trkpt lat="42.7609" lon="0.19961">
        <ele>1869.8</ele>
        <time>2017-02-23T12:54:11Z</time>
      </trkpt>
      <trkpt lat="42.76085" lon="0.19956">
        <ele>1864.2</ele>
        <time>2017-02-23T12:54:16Z</time>
      </trkpt>
      <trkpt lat="42.7608" lon="0.19945">
        <ele>1859.4</ele>
        <time>2017-02-23T12:54:21Z</time>
      </trkpt>
      <trkpt lat="42.76069" lon="0.19925">
        <ele>1854</ele>
        <time>2017-02-23T12:54:26Z</time>
      </trkpt>
      <trkpt lat="42.76069" lon="0.1992">
        <ele>1851.2</ele>
        <time>2017-02-23T12:54:31Z</time>
      </trkpt>
      <trkpt lat="42.7606" lon="0.19912">
        <ele>1847.4</ele>
        <time>2017-02-23T12:54:36Z</time>
      </trkpt>
      <trkpt lat="42.76061" lon="0.19912">
        <ele>1848.2</ele>
        <time>2017-02-23T12:54:41Z</time>
      </trkpt>
      <trkpt lat="42.76061" lon="0.19913">
        <ele>1848.8</ele>
        <time>2017-02-23T12:54:46Z</time>
      </trkpt>
      <trkpt lat="42.76061" lon="0.19912">
        <ele>1849.4</ele>
        <time>2017-02-23T12:54:51Z</time>
      </trkpt>
      <trkpt lat="42.76062" lon="0.19912">
        <ele>1849.8</ele>
        <time>2017-02-23T12:54:56Z</time>
      </trkpt>
      <trkpt lat="42.76061" lon="0.19912">
        <ele>1850</ele>
        <time>2017-02-23T12:55:01Z</time>
      </trkpt>
      <trkpt lat="42.76061" lon="0.19912">
        <ele>1850</ele>
        <time>2017-02-23T12:55:06Z</time>
      </trkpt>
      <trkpt lat="42.76059" lon="0.19912">
        <ele>1847.6</ele>
        <time>2017-02-23T12:55:11Z</time>
      </trkpt>
      <trkpt lat="42.76054" lon="0.19909">
        <ele>1843.6</ele>
        <time>2017-02-23T12:55:16Z</time>
      </trkpt>
      <trkpt lat="42.76052" lon="0.19909">
        <ele>1846.6</ele>
        <time>2017-02-23T12:55:21Z</time>
      </trkpt>
      <trkpt lat="42.76052" lon="0.19909">
        <ele>1847</ele>
        <time>2017-02-23T12:55:26Z</time>
      </trkpt>
      <trkpt lat="42.76052" lon="0.19909">
        <ele>1847.4</ele>
        <time>2017-02-23T12:55:31Z</time>
      </trkpt>
      <trkpt lat="42.76052" lon="0.19909">
        <ele>1847.6</ele>
        <time>2017-02-23T12:55:36Z</time>
      </trkpt>
      <trkpt lat="42.76053" lon="0.19909">
        <ele>1847.8</ele>
        <time>2017-02-23T12:55:41Z</time>
      </trkpt>
      <trkpt lat="42.76054" lon="0.19908">
        <ele>1847.8</ele>
        <time>2017-02-23T12:55:47Z</time>
      </trkpt>
      <trkpt lat="42.76055" lon="0.19906">
        <ele>1848.6</ele>
        <time>2017-02-23T12:55:52Z</time>
      </trkpt>
      <trkpt lat="42.76048" lon="0.199">
        <ele>1846.4</ele>
        <time>2017-02-23T12:55:57Z</time>
      </trkpt>
      <trkpt lat="42.76037" lon="0.19895">
        <ele>1843.8</ele>
        <time>2017-02-23T12:56:02Z</time>
      </trkpt>
      <trkpt lat="42.76037" lon="0.19895">
        <ele>1844.2</ele>
        <time>2017-02-23T12:56:07Z</time>
      </trkpt>
      <trkpt lat="42.76036" lon="0.19893">
        <ele>1844.6</ele>
        <time>2017-02-23T12:56:12Z</time>
      </trkpt>
      <trkpt lat="42.76033" lon="0.19882">
        <ele>1843</ele>
        <time>2017-02-23T12:56:17Z</time>
      </trkpt>
      <trkpt lat="42.76034" lon="0.19877">
        <ele>1840</ele>
        <time>2017-02-23T12:56:22Z</time>
      </trkpt>
      <trkpt lat="42.76034" lon="0.19876">
        <ele>1841.6</ele>
        <time>2017-02-23T12:56:27Z</time>
      </trkpt>
      <trkpt lat="42.76034" lon="0.19876">
        <ele>1841.6</ele>
        <time>2017-02-23T12:56:32Z</time>
      </trkpt>
      <trkpt lat="42.76034" lon="0.19876">
        <ele>1841.6</ele>
        <time>2017-02-23T12:56:37Z</time>
      </trkpt>
      <trkpt lat="42.76034" lon="0.19876">
        <ele>1841.4</ele>
        <time>2017-02-23T12:56:42Z</time>
      </trkpt>
      <trkpt lat="42.76034" lon="0.19876">
        <ele>1841.4</ele>
        <time>2017-02-23T12:56:47Z</time>
      </trkpt>
      <trkpt lat="42.76034" lon="0.19876">
        <ele>1841.4</ele>
        <time>2017-02-23T12:56:52Z</time>
      </trkpt>
      <trkpt lat="42.76034" lon="0.19876">
        <ele>1841.4</ele>
        <time>2017-02-23T12:56:57Z</time>
      </trkpt>
      <trkpt lat="42.76034" lon="0.19876">
        <ele>1841.4</ele>
        <time>2017-02-23T12:57:02Z</time>
      </trkpt>
      <trkpt lat="42.76034" lon="0.19876">
        <ele>1841.2</ele>
        <time>2017-02-23T12:57:07Z</time>
      </trkpt>
      <trkpt lat="42.76035" lon="0.19876">
        <ele>1841.2</ele>
        <time>2017-02-23T12:57:12Z</time>
      </trkpt>
      <trkpt lat="42.76035" lon="0.19876">
        <ele>1841</ele>
        <time>2017-02-23T12:57:17Z</time>
      </trkpt>
      <trkpt lat="42.76035" lon="0.19876">
        <ele>1840.6</ele>
        <time>2017-02-23T12:57:22Z</time>
      </trkpt>
      <trkpt lat="42.76035" lon="0.19875">
        <ele>1840.2</ele>
        <time>2017-02-23T12:57:27Z</time>
      </trkpt>
      <trkpt lat="42.76036" lon="0.19875">
        <ele>1839.8</ele>
        <time>2017-02-23T12:57:32Z</time>
      </trkpt>
      <trkpt lat="42.76036" lon="0.19875">
        <ele>1839.4</ele>
        <time>2017-02-23T12:57:37Z</time>
      </trkpt>
      <trkpt lat="42.76036" lon="0.19875">
        <ele>1839</ele>
        <time>2017-02-23T12:57:42Z</time>
      </trkpt>
      <trkpt lat="42.76033" lon="0.19873">
        <ele>1835</ele>
        <time>2017-02-23T12:57:47Z</time>
      </trkpt>
      <trkpt lat="42.76029" lon="0.19869">
        <ele>1837.8</ele>
        <time>2017-02-23T12:57:52Z</time>
      </trkpt>
      <trkpt lat="42.76023" lon="0.19862">
        <ele>1836.6</ele>
        <time>2017-02-23T12:57:57Z</time>
      </trkpt>
      <trkpt lat="42.76014" lon="0.19859">
        <ele>1834.2</ele>
        <time>2017-02-23T12:58:02Z</time>
      </trkpt>
      <trkpt lat="42.76012" lon="0.19859">
        <ele>1832.2</ele>
        <time>2017-02-23T12:58:07Z</time>
      </trkpt>
      <trkpt lat="42.76007" lon="0.19855">
        <ele>1835</ele>
        <time>2017-02-23T12:58:12Z</time>
      </trkpt>
      <trkpt lat="42.75997" lon="0.19847">
        <ele>1831.8</ele>
        <time>2017-02-23T12:58:17Z</time>
      </trkpt>
      <trkpt lat="42.75993" lon="0.19843">
        <ele>1831.8</ele>
        <time>2017-02-23T12:58:22Z</time>
      </trkpt>
      <trkpt lat="42.75982" lon="0.19835">
        <ele>1827.2</ele>
        <time>2017-02-23T12:58:27Z</time>
      </trkpt>
      <trkpt lat="42.75973" lon="0.19829">
        <ele>1826.8</ele>
        <time>2017-02-23T12:58:32Z</time>
      </trkpt>
      <trkpt lat="42.75965" lon="0.19822">
        <ele>1824.2</ele>
        <time>2017-02-23T12:58:37Z</time>
      </trkpt>
      <trkpt lat="42.7596" lon="0.19816">
        <ele>1822</ele>
        <time>2017-02-23T12:58:42Z</time>
      </trkpt>
      <trkpt lat="42.75953" lon="0.19814">
        <ele>1821</ele>
        <time>2017-02-23T12:58:47Z</time>
      </trkpt>
      <trkpt lat="42.75947" lon="0.19807">
        <ele>1821</ele>
        <time>2017-02-23T12:58:52Z</time>
      </trkpt>
      <trkpt lat="42.75937" lon="0.198">
        <ele>1820.8</ele>
        <time>2017-02-23T12:58:57Z</time>
      </trkpt>
      <trkpt lat="42.7593" lon="0.19796">
        <ele>1815.4</ele>
        <time>2017-02-23T12:59:02Z</time>
      </trkpt>
      <trkpt lat="42.75916" lon="0.1979">
        <ele>1815.4</ele>
        <time>2017-02-23T12:59:07Z</time>
      </trkpt>
      <trkpt lat="42.75914" lon="0.19784">
        <ele>1807.4</ele>
        <time>2017-02-23T12:59:12Z</time>
      </trkpt>
      <trkpt lat="42.75916" lon="0.19783">
        <ele>1809.8</ele>
        <time>2017-02-23T12:59:17Z</time>
      </trkpt>
      <trkpt lat="42.75917" lon="0.19781">
        <ele>1809</ele>
        <time>2017-02-23T12:59:22Z</time>
      </trkpt>
      <trkpt lat="42.75919" lon="0.19777">
        <ele>1807</ele>
        <time>2017-02-23T12:59:27Z</time>
      </trkpt>
      <trkpt lat="42.75921" lon="0.19776">
        <ele>1805.8</ele>
        <time>2017-02-23T12:59:32Z</time>
      </trkpt>
      <trkpt lat="42.75921" lon="0.19775">
        <ele>1804.2</ele>
        <time>2017-02-23T12:59:37Z</time>
      </trkpt>
      <trkpt lat="42.75928" lon="0.19768">
        <ele>1800.8</ele>
        <time>2017-02-23T12:59:42Z</time>
      </trkpt>
      <trkpt lat="42.75929" lon="0.1977">
        <ele>1795.6</ele>
        <time>2017-02-23T12:59:47Z</time>
      </trkpt>
      <trkpt lat="42.75933" lon="0.19754">
        <ele>1791</ele>
        <time>2017-02-23T12:59:52Z</time>
      </trkpt>
      <trkpt lat="42.75937" lon="0.1975">
        <ele>1790</ele>
        <time>2017-02-23T12:59:57Z</time>
      </trkpt>
      <trkpt lat="42.75941" lon="0.19739">
        <ele>1785.4</ele>
        <time>2017-02-23T13:00:02Z</time>
      </trkpt>
      <trkpt lat="42.75941" lon="0.19736">
        <ele>1779.6</ele>
        <time>2017-02-23T13:00:07Z</time>
      </trkpt>
      <trkpt lat="42.75943" lon="0.19728">
        <ele>1775.6</ele>
        <time>2017-02-23T13:00:12Z</time>
      </trkpt>
      <trkpt lat="42.75949" lon="0.19715">
        <ele>1774.6</ele>
        <time>2017-02-23T13:00:17Z</time>
      </trkpt>
      <trkpt lat="42.75955" lon="0.197">
        <ele>1768</ele>
        <time>2017-02-23T13:00:22Z</time>
      </trkpt>
      <trkpt lat="42.75961" lon="0.19691">
        <ele>1766.6</ele>
        <time>2017-02-23T13:00:27Z</time>
      </trkpt>
      <trkpt lat="42.75961" lon="0.19689">
        <ele>1765</ele>
        <time>2017-02-23T13:00:32Z</time>
      </trkpt>
      <trkpt lat="42.75966" lon="0.19685">
        <ele>1761</ele>
        <time>2017-02-23T13:00:37Z</time>
      </trkpt>
      <trkpt lat="42.75969" lon="0.19667">
        <ele>1754.6</ele>
        <time>2017-02-23T13:00:42Z</time>
      </trkpt>
      <trkpt lat="42.75966" lon="0.1966">
        <ele>1756.6</ele>
        <time>2017-02-23T13:00:47Z</time>
      </trkpt>
      <trkpt lat="42.75966" lon="0.19659">
        <ele>1756.4</ele>
        <time>2017-02-23T13:00:52Z</time>
      </trkpt>
      <trkpt lat="42.75966" lon="0.19659">
        <ele>1755.6</ele>
        <time>2017-02-23T13:00:57Z</time>
      </trkpt>
      <trkpt lat="42.75964" lon="0.19651">
        <ele>1754.2</ele>
        <time>2017-02-23T13:01:02Z</time>
      </trkpt>
      <trkpt lat="42.75962" lon="0.19645">
        <ele>1752</ele>
        <time>2017-02-23T13:01:07Z</time>
      </trkpt>
      <trkpt lat="42.75962" lon="0.19643">
        <ele>1748.8</ele>
        <time>2017-02-23T13:01:12Z</time>
      </trkpt>
      <trkpt lat="42.75962" lon="0.19643">
        <ele>1748</ele>
        <time>2017-02-23T13:01:17Z</time>
      </trkpt>
      <trkpt lat="42.75962" lon="0.19643">
        <ele>1747.2</ele>
        <time>2017-02-23T13:01:22Z</time>
      </trkpt>
      <trkpt lat="42.75962" lon="0.19643">
        <ele>1746.6</ele>
        <time>2017-02-23T13:01:27Z</time>
      </trkpt>
      <trkpt lat="42.75962" lon="0.19643">
        <ele>1746.4</ele>
        <time>2017-02-23T13:01:32Z</time>
      </trkpt>
      <trkpt lat="42.75962" lon="0.19643">
        <ele>1746</ele>
        <time>2017-02-23T13:01:37Z</time>
      </trkpt>
      <trkpt lat="42.75962" lon="0.19643">
        <ele>1746</ele>
        <time>2017-02-23T13:01:42Z</time>
      </trkpt>
      <trkpt lat="42.75962" lon="0.19643">
        <ele>1745.8</ele>
        <time>2017-02-23T13:01:47Z</time>
      </trkpt>
      <trkpt lat="42.75962" lon="0.19643">
        <ele>1745.6</ele>
        <time>2017-02-23T13:01:52Z</time>
      </trkpt>
      <trkpt lat="42.75962" lon="0.19643">
        <ele>1745.6</ele>
        <time>2017-02-23T13:01:57Z</time>
      </trkpt>
      <trkpt lat="42.75962" lon="0.19642">
        <ele>1745.6</ele>
        <time>2017-02-23T13:02:02Z</time>
      </trkpt>
      <trkpt lat="42.75962" lon="0.19642">
        <ele>1745.8</ele>
        <time>2017-02-23T13:02:07Z</time>
      </trkpt>
      <trkpt lat="42.75962" lon="0.19642">
        <ele>1745.8</ele>
        <time>2017-02-23T13:02:12Z</time>
      </trkpt>
      <trkpt lat="42.75962" lon="0.19642">
        <ele>1745.8</ele>
        <time>2017-02-23T13:02:17Z</time>
      </trkpt>
      <trkpt lat="42.75962" lon="0.19642">
        <ele>1746</ele>
        <time>2017-02-23T13:02:22Z</time>
      </trkpt>
      <trkpt lat="42.75962" lon="0.19642">
        <ele>1746</ele>
        <time>2017-02-23T13:02:27Z</time>
      </trkpt>
      <trkpt lat="42.75962" lon="0.19642">
        <ele>1746</ele>
        <time>2017-02-23T13:02:32Z</time>
      </trkpt>
      <trkpt lat="42.75962" lon="0.19642">
        <ele>1745.8</ele>
        <time>2017-02-23T13:02:37Z</time>
      </trkpt>
      <trkpt lat="42.75962" lon="0.19642">
        <ele>1745.6</ele>
        <time>2017-02-23T13:02:42Z</time>
      </trkpt>
      <trkpt lat="42.75961" lon="0.19642">
        <ele>1745.4</ele>
        <time>2017-02-23T13:02:47Z</time>
      </trkpt>
      <trkpt lat="42.7596" lon="0.19644">
        <ele>1745.2</ele>
        <time>2017-02-23T13:02:52Z</time>
      </trkpt>
      <trkpt lat="42.7596" lon="0.19644">
        <ele>1745</ele>
        <time>2017-02-23T13:02:57Z</time>
      </trkpt>
      <trkpt lat="42.7596" lon="0.19644">
        <ele>1744.6</ele>
        <time>2017-02-23T13:03:02Z</time>
      </trkpt>
      <trkpt lat="42.7596" lon="0.19644">
        <ele>1744.4</ele>
        <time>2017-02-23T13:03:07Z</time>
      </trkpt>
      <trkpt lat="42.7596" lon="0.19644">
        <ele>1744.4</ele>
        <time>2017-02-23T13:03:12Z</time>
      </trkpt>
      <trkpt lat="42.7596" lon="0.19644">
        <ele>1744.2</ele>
        <time>2017-02-23T13:03:17Z</time>
      </trkpt>
      <trkpt lat="42.7596" lon="0.19644">
        <ele>1744.2</ele>
        <time>2017-02-23T13:03:22Z</time>
      </trkpt>
      <trkpt lat="42.7596" lon="0.19644">
        <ele>1744</ele>
        <time>2017-02-23T13:03:27Z</time>
      </trkpt>
      <trkpt lat="42.7596" lon="0.19644">
        <ele>1744</ele>
        <time>2017-02-23T13:03:32Z</time>
      </trkpt>
      <trkpt lat="42.7596" lon="0.19644">
        <ele>1744</ele>
        <time>2017-02-23T13:03:37Z</time>
      </trkpt>
      <trkpt lat="42.7596" lon="0.19644">
        <ele>1744</ele>
        <time>2017-02-23T13:03:42Z</time>
      </trkpt>
      <trkpt lat="42.7596" lon="0.19644">
        <ele>1744</ele>
        <time>2017-02-23T13:03:47Z</time>
      </trkpt>
      <trkpt lat="42.75961" lon="0.19643">
        <ele>1744</ele>
        <time>2017-02-23T13:03:52Z</time>
      </trkpt>
      <trkpt lat="42.75961" lon="0.19643">
        <ele>1743.8</ele>
        <time>2017-02-23T13:03:57Z</time>
      </trkpt>
      <trkpt lat="42.75961" lon="0.19643">
        <ele>1743.8</ele>
        <time>2017-02-23T13:04:02Z</time>
      </trkpt>
      <trkpt lat="42.75961" lon="0.19641">
        <ele>1743.8</ele>
        <time>2017-02-23T13:04:07Z</time>
      </trkpt>
      <trkpt lat="42.75962" lon="0.19639">
        <ele>1743</ele>
        <time>2017-02-23T13:04:12Z</time>
      </trkpt>
      <trkpt lat="42.75963" lon="0.19631">
        <ele>1742.2</ele>
        <time>2017-02-23T13:04:17Z</time>
      </trkpt>
      <trkpt lat="42.75963" lon="0.19627">
        <ele>1741</ele>
        <time>2017-02-23T13:04:22Z</time>
      </trkpt>
      <trkpt lat="42.75963" lon="0.19626">
        <ele>1741.2</ele>
        <time>2017-02-23T13:04:27Z</time>
      </trkpt>
      <trkpt lat="42.75963" lon="0.19626">
        <ele>1741</ele>
        <time>2017-02-23T13:04:32Z</time>
      </trkpt>
      <trkpt lat="42.75963" lon="0.19626">
        <ele>1741</ele>
        <time>2017-02-23T13:04:37Z</time>
      </trkpt>
      <trkpt lat="42.75963" lon="0.19626">
        <ele>1741</ele>
        <time>2017-02-23T13:04:42Z</time>
      </trkpt>
      <trkpt lat="42.75965" lon="0.19625">
        <ele>1740</ele>
        <time>2017-02-23T13:04:47Z</time>
      </trkpt>
      <trkpt lat="42.75966" lon="0.19623">
        <ele>1739.8</ele>
        <time>2017-02-23T13:04:52Z</time>
      </trkpt>
      <trkpt lat="42.75967" lon="0.19622">
        <ele>1740.2</ele>
        <time>2017-02-23T13:04:57Z</time>
      </trkpt>
      <trkpt lat="42.75968" lon="0.19622">
        <ele>1739.2</ele>
        <time>2017-02-23T13:05:02Z</time>
      </trkpt>
      <trkpt lat="42.75968" lon="0.19621">
        <ele>1741</ele>
        <time>2017-02-23T13:05:07Z</time>
      </trkpt>
      <trkpt lat="42.75968" lon="0.19621">
        <ele>1739.6</ele>
        <time>2017-02-23T13:05:12Z</time>
      </trkpt>
      <trkpt lat="42.75969" lon="0.1962">
        <ele>1738.6</ele>
        <time>2017-02-23T13:05:17Z</time>
      </trkpt>
      <trkpt lat="42.75969" lon="0.19619">
        <ele>1739.8</ele>
        <time>2017-02-23T13:05:22Z</time>
      </trkpt>
      <trkpt lat="42.7597" lon="0.19619">
        <ele>1739</ele>
        <time>2017-02-23T13:05:27Z</time>
      </trkpt>
      <trkpt lat="42.75969" lon="0.19618">
        <ele>1738.4</ele>
        <time>2017-02-23T13:05:32Z</time>
      </trkpt>
      <trkpt lat="42.7597" lon="0.19618">
        <ele>1738</ele>
        <time>2017-02-23T13:05:37Z</time>
      </trkpt>
      <trkpt lat="42.75972" lon="0.19617">
        <ele>1738</ele>
        <time>2017-02-23T13:05:42Z</time>
      </trkpt>
      <trkpt lat="42.75972" lon="0.19616">
        <ele>1738.6</ele>
        <time>2017-02-23T13:05:47Z</time>
      </trkpt>
      <trkpt lat="42.75973" lon="0.19616">
        <ele>1740.4</ele>
        <time>2017-02-23T13:05:52Z</time>
      </trkpt>
      <trkpt lat="42.75973" lon="0.19616">
        <ele>1739.8</ele>
        <time>2017-02-23T13:05:57Z</time>
      </trkpt>
      <trkpt lat="42.75973" lon="0.19616">
        <ele>1739.4</ele>
        <time>2017-02-23T13:06:02Z</time>
      </trkpt>
      <trkpt lat="42.75974" lon="0.19616">
        <ele>1738.4</ele>
        <time>2017-02-23T13:06:07Z</time>
      </trkpt>
      <trkpt lat="42.75975" lon="0.19615">
        <ele>1737.8</ele>
        <time>2017-02-23T13:06:12Z</time>
      </trkpt>
      <trkpt lat="42.75977" lon="0.19614">
        <ele>1739.4</ele>
        <time>2017-02-23T13:06:17Z</time>
      </trkpt>
      <trkpt lat="42.75978" lon="0.19614">
        <ele>1739.4</ele>
        <time>2017-02-23T13:06:22Z</time>
      </trkpt>
      <trkpt lat="42.75979" lon="0.19613">
        <ele>1738.6</ele>
        <time>2017-02-23T13:06:27Z</time>
      </trkpt>
      <trkpt lat="42.7598" lon="0.19612">
        <ele>1739.6</ele>
        <time>2017-02-23T13:06:32Z</time>
      </trkpt>
      <trkpt lat="42.75979" lon="0.19612">
        <ele>1738.6</ele>
        <time>2017-02-23T13:06:37Z</time>
      </trkpt>
      <trkpt lat="42.75979" lon="0.19612">
        <ele>1738.8</ele>
        <time>2017-02-23T13:06:42Z</time>
      </trkpt>
      <trkpt lat="42.75979" lon="0.19612">
        <ele>1739</ele>
        <time>2017-02-23T13:06:47Z</time>
      </trkpt>
      <trkpt lat="42.75979" lon="0.19612">
        <ele>1739</ele>
        <time>2017-02-23T13:06:52Z</time>
      </trkpt>
      <trkpt lat="42.75979" lon="0.19612">
        <ele>1739</ele>
        <time>2017-02-23T13:06:57Z</time>
      </trkpt>
      <trkpt lat="42.75979" lon="0.19612">
        <ele>1738.8</ele>
        <time>2017-02-23T13:07:02Z</time>
      </trkpt>
      <trkpt lat="42.75979" lon="0.19612">
        <ele>1738.8</ele>
        <time>2017-02-23T13:07:07Z</time>
      </trkpt>
      <trkpt lat="42.75979" lon="0.19612">
        <ele>1738.8</ele>
        <time>2017-02-23T13:07:12Z</time>
      </trkpt>
      <trkpt lat="42.75979" lon="0.19612">
        <ele>1738.8</ele>
        <time>2017-02-23T13:07:17Z</time>
      </trkpt>
      <trkpt lat="42.75979" lon="0.19612">
        <ele>1738.8</ele>
        <time>2017-02-23T13:07:22Z</time>
      </trkpt>
      <trkpt lat="42.75979" lon="0.19612">
        <ele>1738.8</ele>
        <time>2017-02-23T13:07:27Z</time>
      </trkpt>
      <trkpt lat="42.75978" lon="0.19612">
        <ele>1738.8</ele>
        <time>2017-02-23T13:07:32Z</time>
      </trkpt>
      <trkpt lat="42.75978" lon="0.19612">
        <ele>1738.6</ele>
        <time>2017-02-23T13:07:37Z</time>
      </trkpt>
      <trkpt lat="42.75977" lon="0.19613">
        <ele>1738.6</ele>
        <time>2017-02-23T13:07:43Z</time>
      </trkpt>
      <trkpt lat="42.75977" lon="0.19616">
        <ele>1737.2</ele>
        <time>2017-02-23T13:07:48Z</time>
      </trkpt>
      <trkpt lat="42.75978" lon="0.19617">
        <ele>1737.8</ele>
        <time>2017-02-23T13:07:53Z</time>
      </trkpt>
      <trkpt lat="42.75979" lon="0.19616">
        <ele>1739</ele>
        <time>2017-02-23T13:07:58Z</time>
      </trkpt>
      <trkpt lat="42.75979" lon="0.19616">
        <ele>1739.2</ele>
        <time>2017-02-23T13:08:03Z</time>
      </trkpt>
      <trkpt lat="42.75979" lon="0.19616">
        <ele>1739.4</ele>
        <time>2017-02-23T13:08:08Z</time>
      </trkpt>
      <trkpt lat="42.75979" lon="0.19616">
        <ele>1739.4</ele>
        <time>2017-02-23T13:08:13Z</time>
      </trkpt>
      <trkpt lat="42.75978" lon="0.19614">
        <ele>1741</ele>
        <time>2017-02-23T13:08:18Z</time>
      </trkpt>
      <trkpt lat="42.75978" lon="0.19611">
        <ele>1740.8</ele>
        <time>2017-02-23T13:08:23Z</time>
      </trkpt>
      <trkpt lat="42.75978" lon="0.19611">
        <ele>1740.4</ele>
        <time>2017-02-23T13:08:28Z</time>
      </trkpt>
      <trkpt lat="42.75978" lon="0.19611">
        <ele>1740.2</ele>
        <time>2017-02-23T13:08:33Z</time>
      </trkpt>
      <trkpt lat="42.75978" lon="0.19612">
        <ele>1740.2</ele>
        <time>2017-02-23T13:08:38Z</time>
      </trkpt>
      <trkpt lat="42.75979" lon="0.19611">
        <ele>1737.4</ele>
        <time>2017-02-23T13:08:43Z</time>
      </trkpt>
      <trkpt lat="42.7598" lon="0.19611">
        <ele>1738</ele>
        <time>2017-02-23T13:08:49Z</time>
      </trkpt>
      <trkpt lat="42.7598" lon="0.19611">
        <ele>1738.2</ele>
        <time>2017-02-23T13:08:54Z</time>
      </trkpt>
      <trkpt lat="42.7598" lon="0.19612">
        <ele>1738.4</ele>
        <time>2017-02-23T13:08:59Z</time>
      </trkpt>
      <trkpt lat="42.75979" lon="0.19611">
        <ele>1738.2</ele>
        <time>2017-02-23T13:09:04Z</time>
      </trkpt>
      <trkpt lat="42.75979" lon="0.19611">
        <ele>1739</ele>
        <time>2017-02-23T13:09:09Z</time>
      </trkpt>
      <trkpt lat="42.75977" lon="0.19612">
        <ele>1736.2</ele>
        <time>2017-02-23T13:09:14Z</time>
      </trkpt>
      <trkpt lat="42.75975" lon="0.19611">
        <ele>1739</ele>
        <time>2017-02-23T13:09:19Z</time>
      </trkpt>
      <trkpt lat="42.75973" lon="0.19609">
        <ele>1741.2</ele>
        <time>2017-02-23T13:09:24Z</time>
      </trkpt>
      <trkpt lat="42.75969" lon="0.19608">
        <ele>1741.2</ele>
        <time>2017-02-23T13:09:29Z</time>
      </trkpt>
      <trkpt lat="42.75965" lon="0.19607">
        <ele>1744</ele>
        <time>2017-02-23T13:09:34Z</time>
      </trkpt>
      <trkpt lat="42.7596" lon="0.19606">
        <ele>1743.4</ele>
        <time>2017-02-23T13:09:39Z</time>
      </trkpt>
      <trkpt lat="42.75956" lon="0.19607">
        <ele>1742.6</ele>
        <time>2017-02-23T13:09:44Z</time>
      </trkpt>
      <trkpt lat="42.75952" lon="0.19606">
        <ele>1742.6</ele>
        <time>2017-02-23T13:09:49Z</time>
      </trkpt>
      <trkpt lat="42.75947" lon="0.19606">
        <ele>1744.4</ele>
        <time>2017-02-23T13:09:54Z</time>
      </trkpt>
      <trkpt lat="42.75943" lon="0.19605">
        <ele>1743.2</ele>
        <time>2017-02-23T13:09:59Z</time>
      </trkpt>
      <trkpt lat="42.75938" lon="0.19605">
        <ele>1741.2</ele>
        <time>2017-02-23T13:10:04Z</time>
      </trkpt>
      <trkpt lat="42.75933" lon="0.19604">
        <ele>1746</ele>
        <time>2017-02-23T13:10:09Z</time>
      </trkpt>
      <trkpt lat="42.75928" lon="0.19602">
        <ele>1742.6</ele>
        <time>2017-02-23T13:10:14Z</time>
      </trkpt>
      <trkpt lat="42.75928" lon="0.19601">
        <ele>1742.4</ele>
        <time>2017-02-23T13:10:19Z</time>
      </trkpt>
      <trkpt lat="42.75927" lon="0.19601">
        <ele>1741.6</ele>
        <time>2017-02-23T13:10:24Z</time>
      </trkpt>
      <trkpt lat="42.75922" lon="0.196">
        <ele>1745.2</ele>
        <time>2017-02-23T13:10:29Z</time>
      </trkpt>
      <trkpt lat="42.75917" lon="0.19597">
        <ele>1741.8</ele>
        <time>2017-02-23T13:10:34Z</time>
      </trkpt>
      <trkpt lat="42.75911" lon="0.19594">
        <ele>1741.8</ele>
        <time>2017-02-23T13:10:39Z</time>
      </trkpt>
      <trkpt lat="42.75906" lon="0.1959">
        <ele>1742.4</ele>
        <time>2017-02-23T13:10:44Z</time>
      </trkpt>
      <trkpt lat="42.759" lon="0.19584">
        <ele>1745.6</ele>
        <time>2017-02-23T13:10:49Z</time>
      </trkpt>
      <trkpt lat="42.75898" lon="0.19575">
        <ele>1743.6</ele>
        <time>2017-02-23T13:10:54Z</time>
      </trkpt>
      <trkpt lat="42.75894" lon="0.19569">
        <ele>1748.2</ele>
        <time>2017-02-23T13:10:59Z</time>
      </trkpt>
      <trkpt lat="42.75889" lon="0.19563">
        <ele>1746.8</ele>
        <time>2017-02-23T13:11:04Z</time>
      </trkpt>
      <trkpt lat="42.75886" lon="0.19555">
        <ele>1750.4</ele>
        <time>2017-02-23T13:11:09Z</time>
      </trkpt>
      <trkpt lat="42.75883" lon="0.19547">
        <ele>1751.4</ele>
        <time>2017-02-23T13:11:14Z</time>
      </trkpt>
      <trkpt lat="42.75883" lon="0.19542">
        <ele>1754.6</ele>
        <time>2017-02-23T13:11:19Z</time>
      </trkpt>
      <trkpt lat="42.75883" lon="0.19541">
        <ele>1755.8</ele>
        <time>2017-02-23T13:11:24Z</time>
      </trkpt>
      <trkpt lat="42.75885" lon="0.19544">
        <ele>1758</ele>
        <time>2017-02-23T13:11:29Z</time>
      </trkpt>
      <trkpt lat="42.75885" lon="0.19545">
        <ele>1758.4</ele>
        <time>2017-02-23T13:11:34Z</time>
      </trkpt>
      <trkpt lat="42.75886" lon="0.19545">
        <ele>1758.4</ele>
        <time>2017-02-23T13:11:39Z</time>
      </trkpt>
      <trkpt lat="42.75886" lon="0.19544">
        <ele>1758.4</ele>
        <time>2017-02-23T13:11:44Z</time>
      </trkpt>
      <trkpt lat="42.75885" lon="0.19542">
        <ele>1759.8</ele>
        <time>2017-02-23T13:11:49Z</time>
      </trkpt>
      <trkpt lat="42.75885" lon="0.19542">
        <ele>1760</ele>
        <time>2017-02-23T13:11:54Z</time>
      </trkpt>
      <trkpt lat="42.75885" lon="0.19542">
        <ele>1760.2</ele>
        <time>2017-02-23T13:11:59Z</time>
      </trkpt>
      <trkpt lat="42.75885" lon="0.19541">
        <ele>1760.2</ele>
        <time>2017-02-23T13:12:04Z</time>
      </trkpt>
      <trkpt lat="42.75885" lon="0.19539">
        <ele>1759.6</ele>
        <time>2017-02-23T13:12:09Z</time>
      </trkpt>
      <trkpt lat="42.75885" lon="0.1954">
        <ele>1760</ele>
        <time>2017-02-23T13:12:14Z</time>
      </trkpt>
      <trkpt lat="42.75885" lon="0.1954">
        <ele>1760.2</ele>
        <time>2017-02-23T13:12:19Z</time>
      </trkpt>
      <trkpt lat="42.75885" lon="0.19542">
        <ele>1758.4</ele>
        <time>2017-02-23T13:12:24Z</time>
      </trkpt>
      <trkpt lat="42.75884" lon="0.19542">
        <ele>1758.6</ele>
        <time>2017-02-23T13:12:29Z</time>
      </trkpt>
      <trkpt lat="42.75883" lon="0.19542">
        <ele>1758.8</ele>
        <time>2017-02-23T13:12:34Z</time>
      </trkpt>
      <trkpt lat="42.75884" lon="0.19544">
        <ele>1756.6</ele>
        <time>2017-02-23T13:12:39Z</time>
      </trkpt>
      <trkpt lat="42.75884" lon="0.19544">
        <ele>1757</ele>
        <time>2017-02-23T13:12:44Z</time>
      </trkpt>
    </trkseg>
  </trk>
</gpx>